# Wetter Temperatur Luftdruck Luftfeuchtigkeit Sichtweite Windgeschwindigkeit Windrichtung Zeit
1 Clear 0 1024 47 10000 3.09 160 14:22 01.02.2023
2 Clear 0 1024 48 10000 5.66 80 13:19 01.02.2023
3 Clear 1 1024 46 10000 5.14 60 12:26 01.02.2023
4 Clear 1 1024 44 10000 4.63 80 11:49 01.02.2023
5 Clear 2 1025 40 10000 2.57 80 08:41 01.02.2023
6 Clouds 10 1022 16 10000 7.72 60 23:41 31.01.2023
7 Clouds 7 1024 21 10000 5.81 50 21:26 31.01.2023
8 Clear 5 1025 24 10000 9.26 50 19:24 31.01.2023
9 Clear 2 1025 30 10000 5.81 50 17:54 31.01.2023
10 Clear 0 1023 34 10000 7.2 360 15:36 31.01.2023
11 Clear 0 1023 34 10000 7.2 360 15:18 31.01.2023
12 Clouds 1 1022 35 10000 7.72 10 13:43 31.01.2023
13 Clouds 2 1021 40 10000 9.77 330 11:28 31.01.2023
14 Clouds 3 1021 42 10000 9.83 20 10:25 31.01.2023
15 Clouds 3 1021 46 10000 9.83 20 09:44 31.01.2023
16 Clouds 4 1021 49 10000 8.23 20 08:36 31.01.2023
17 Clouds 4 1022 53 10000 4.47 28 07:59 31.01.2023
18 Clouds 5 1018 71 10000 4.12 60 03:39 31.01.2023
19 Clouds 5 1017 80 10000 4.12 80 23:29 30.01.2023
20 Clouds 5 1017 83 10000 5.14 80 22:50 30.01.2023
21 Rain 5 1018 82 10000 5.66 80 21:48 30.01.2023
22 Rain 4 1018 83 10000 6.17 340 20:44 30.01.2023
23 Rain 4 1017 85 10000 7.2 50 18:26 30.01.2023
24 Rain 4 1016 83 10000 7.72 40 17:25 30.01.2023
25 Clouds 7 1013 81 10000 6.17 20 14:47 30.01.2023
26 Clouds 7 1013 80 10000 3.09 320 13:39 30.01.2023
27 Clouds 7 1012 76 10000 4.63 300 12:18 30.01.2023
28 Clouds 8 1011 67 10000 2.06 50 10:20 30.01.2023
29 Clouds 8 1010 65 10000 0.45 15 09:53 30.01.2023
30 Clouds 9 1010 60 10000 3.09 220 08:19 30.01.2023
31 Clouds 12 1007 40 10000 8.23 170 04:30 30.01.2023
32 Clouds 14 1005 29 10000 9.26 230 23:35 29.01.2023
33 Clear 15 1006 34 10000 5.36 248 22:56 29.01.2023
34 Clouds 15 1006 28 10000 7.72 230 22:21 29.01.2023
35 Clouds 13 1008 35 10000 8.75 220 20:52 29.01.2023
36 Clouds 12 1008 35 10000 8.75 220 20:19 29.01.2023
37 Clouds 11 1009 37 10000 8.75 200 19:32 29.01.2023
38 Clouds 6 1009 52 10000 5.66 50 17:52 29.01.2023
39 Clear 4 1009 55 10000 5.14 50 16:22 29.01.2023
40 Clear 4 1008 53 10000 3.6 180 15:50 29.01.2023
41 Clear 5 1010 55 10000 0.82 123 13:58 29.01.2023
42 Clouds 5 1010 57 10000 0.37 106 12:58 29.01.2023
43 Clear 4 1009 56 10000 4.63 50 12:36 29.01.2023
44 Clear 4 1009 55 10000 4.63 50 12:18 29.01.2023
45 Clear 5 1010 53 10000 4.12 50 11:36 29.01.2023
46 Clear 5 1011 52 10000 3.13 280 10:38 29.01.2023
47 Clear 6 1012 49 10000 1.17 139 07:57 29.01.2023
48 Clouds 10 1013 36 10000 3.09 140 03:43 29.01.2023
49 Clouds 14 1014 29 10000 3.6 30 23:50 28.01.2023
50 Clear 12 1017 38 10000 2.24 90 20:52 28.01.2023
51 Clear 10 1017 41 10000 2.57 250 19:54 28.01.2023
52 Clear 8 1017 45 10000 2.57 220 18:52 28.01.2023
53 Clear 5 1016 54 10000 3.6 190 17:27 28.01.2023
54 Clear 3 1015 58 10000 4.12 160 16:40 28.01.2023
55 Clear 3 1015 59 10000 4.12 160 16:18 28.01.2023
56 Clear 2 1015 62 10000 3.6 170 15:22 28.01.2023
57 Clouds 3 1014 59 10000 3.6 160 13:48 28.01.2023
58 Clouds 3 1014 57 10000 4.12 160 12:21 28.01.2023
59 Clear 5 1015 52 10000 3.6 80 10:35 28.01.2023
60 Clouds 5 1015 52 10000 5.14 80 09:30 28.01.2023
61 Clouds 11 1016 33 10000 3.09 80 02:27 28.01.2023
62 Clouds 13 1017 29 10000 3.6 30 00:28 28.01.2023
63 Clouds 13 1019 29 10000 2.06 40 22:46 27.01.2023
64 Clouds 10 1024 36 10000 1.54 200 19:47 27.01.2023
65 Clear 7 1026 46 10000 0.89 147 17:58 27.01.2023
66 Clouds 4 1025 52 10000 3.09 190 17:20 27.01.2023
67 Clouds 3 1025 55 10000 2.57 210 16:41 27.01.2023
68 Clear 3 1025 57 10000 4.63 300 15:25 27.01.2023
69 Clear 3 1025 54 10000 2.57 300 14:26 27.01.2023
70 Clear 3 1026 51 10000 3.6 160 13:33 27.01.2023
71 Clear 5 1027 44 10000 2.57 60 09:30 27.01.2023
72 Clear 6 1029 41 10000 3.6 220 06:51 27.01.2023
73 Clear 14 1030 24 10000 5.66 60 00:28 27.01.2023
74 Clear 13 1030 28 10000 5.36 7 21:57 26.01.2023
75 Clouds 12 1034 28 10000 8.23 30 20:55 26.01.2023
76 Clear 12 1034 31 10000 8.23 50 19:59 26.01.2023
77 Clear 8 1036 45 10000 2.68 336 17:57 26.01.2023
78 Clouds 6 1034 51 10000 5.66 10 16:50 26.01.2023
79 Clouds 5 1034 52 10000 5.66 10 16:20 26.01.2023
80 Clouds 5 1034 52 10000 5.66 10 15:42 26.01.2023
81 Clouds 5 1034 52 10000 5.66 10 15:24 26.01.2023
82 Clouds 5 1033 50 10000 4.12 20 13:53 26.01.2023
83 Clouds 6 1032 47 10000 5.14 340 12:31 26.01.2023
84 Clear 6 1033 47 10000 3.03 356 10:56 26.01.2023
85 Clouds 7 1031 43 10000 3.6 60 10:25 26.01.2023
86 Clouds 7 1031 41 10000 7.2 30 09:40 26.01.2023
87 Clear 8 1030 38 10000 2.1 323 06:57 26.01.2023
88 Clouds 14 1028 26 10000 6.17 50 23:42 25.01.2023
89 Clear 14 1029 29 10000 1.79 96 22:56 25.01.2023
90 Clouds 13 1029 27 10000 6.69 70 21:43 25.01.2023
91 Clouds 13 1029 27 10000 6.69 70 21:20 25.01.2023
92 Clear 9 1030 34 10000 3.6 70 18:30 25.01.2023
93 Clear 6 1029 45 10000 0.9 330 16:58 25.01.2023
94 Clouds 4 1028 47 10000 2.57 300 15:37 25.01.2023
95 Clear 4 1027 48 10000 4.12 70 12:44 25.01.2023
96 Clear 5 1027 45 10000 3.09 80 09:54 25.01.2023
97 Clear 6 1027 43 10000 5.14 360 09:30 25.01.2023
98 Clear 7 1027 39 10000 2.06 130 06:53 25.01.2023
99 Clear 13 1026 23 10000 5.14 40 00:42 25.01.2023
100 Clear 13 1026 23 10000 6.17 20 22:45 24.01.2023
101 Clear 12 1027 25 10000 5.66 50 21:29 24.01.2023
102 Clear 9 1029 30 10000 3.6 80 19:40 24.01.2023
103 Clear 8 1028 34 10000 9.77 350 18:31 24.01.2023
104 Clear 8 1028 34 10000 9.77 350 18:31 24.01.2023
105 Clear 5 1028 42 10000 6.69 330 17:19 24.01.2023
106 Clear 3 1026 49 10000 7.2 310 16:52 24.01.2023
107 Clear 4 1026 48 10000 5.14 30 14:50 24.01.2023
108 Clear 4 1025 45 10000 10.29 360 12:47 24.01.2023
109 Clear 5 1024 41 10000 6.69 60 11:20 24.01.2023
110 Clear 7 1023 36 10000 8.23 350 08:21 24.01.2023
111 Clear 8 1022 35 10000 6.17 40 07:51 24.01.2023
112 Clear 9 1021 31 10000 9.26 330 05:22 24.01.2023
113 Clear 12 1019 25 10000 9.26 340 00:49 24.01.2023
114 Clouds 12 1018 25 10000 10.29 320 23:48 23.01.2023
115 Clouds 10 1018 26 10000 7.72 40 21:50 23.01.2023
116 Clouds 9 1018 27 10000 11.83 330 19:45 23.01.2023
117 Clear 6 1019 33 10000 7.15 346 17:59 23.01.2023
118 Clouds 4 1015 33 10000 10.8 310 15:38 23.01.2023
119 Clouds 4 1015 34 10000 8.23 330 14:34 23.01.2023
120 Clouds 4 1015 34 10000 11.83 20 13:23 23.01.2023
121 Clouds 4 1015 34 10000 12.86 20 12:48 23.01.2023
122 Clouds 5 1015 33 10000 13.89 10 11:43 23.01.2023
123 Clouds 5 1015 32 10000 12.86 20 08:42 23.01.2023
124 Clouds 6 1015 31 10000 6.17 340 05:40 23.01.2023
125 Clouds 11 1013 25 10000 9.26 50 23:22 22.01.2023
126 Clouds 9 1016 33 10000 6.17 50 21:46 22.01.2023
127 Clouds 8 1017 36 10000 6.17 70 20:53 22.01.2023
128 Clouds 8 1018 38 10000 2.68 94 19:53 22.01.2023
129 Clouds 7 1017 39 10000 4.63 90 19:20 22.01.2023
130 Clouds 5 1020 46 10000 0.67 168 17:58 22.01.2023
131 Clouds 3 1018 50 10000 4.12 200 17:27 22.01.2023
132 Clouds 2 1018 49 10000 3.09 350 16:39 22.01.2023
133 Clouds 2 1017 51 10000 4.12 170 14:55 22.01.2023
134 Clear 2 1018 51 10000 4.12 170 13:49 22.01.2023
135 Clear 2 1020 51 10000 1.54 230 12:49 22.01.2023
136 Clear 2 1020 52 10000 5.14 210 11:39 22.01.2023
137 Clear 3 1023 47 10000 3.6 190 09:36 22.01.2023
138 Clear 3 1024 49 10000 2.57 180 08:43 22.01.2023
139 Clear 8 1026 31 10000 3.09 80 02:51 22.01.2023
140 Clear 11 1027 26 10000 5.14 50 23:41 21.01.2023
141 Clear 10 1027 27 10000 5.66 60 22:41 21.01.2023
142 Clear 8 1029 33 10000 3.6 100 20:27 21.01.2023
143 Clear 7 1030 41 10000 6.17 340 18:48 21.01.2023
144 Clear 2 1029 53 10000 1.66 1 14:57 21.01.2023
145 Clear 3 1028 51 10000 0.89 25 12:59 21.01.2023
146 Clear 3 1027 50 10000 5.66 30 12:40 21.01.2023
147 Clear 4 1027 47 10000 7.72 350 11:27 21.01.2023
148 Clear 5 1027 46 10000 5.14 30 10:46 21.01.2023
149 Clear 5 1027 46 10000 5.14 30 10:46 21.01.2023
150 Clouds 8 1025 35 10000 7.2 320 04:51 21.01.2023
151 Clouds 11 1022 28 10000 9.77 350 22:47 20.01.2023
152 Clouds 10 1022 28 10000 9.77 350 22:25 20.01.2023
153 Clouds 10 1022 30 10000 10.29 330 21:34 20.01.2023
154 Clouds 9 1023 30 10000 12.35 330 20:39 20.01.2023
155 Clouds 6 1021 36 10000 9.77 300 17:54 20.01.2023
156 Clouds 5 1019 41 10000 8.23 300 14:47 20.01.2023
157 Clouds 6 1018 42 10000 6.69 330 13:51 20.01.2023
158 Clouds 5 1018 48 10000 8.75 320 10:48 20.01.2023
159 Clouds 5 1018 47 10000 4.92 326 08:58 20.01.2023
160 Clouds 4 1017 61 10000 4.63 180 06:40 20.01.2023
161 Clouds 7 1016 58 10000 6.69 310 02:32 20.01.2023
162 Clouds 9 1016 44 10000 5.14 360 22:37 19.01.2023
163 Clouds 10 1016 43 10000 3.6 70 21:39 19.01.2023
164 Clouds 7 1018 52 10000 4.63 80 19:38 19.01.2023
165 Clear 6 1018 56 10000 3.6 70 18:55 19.01.2023
166 Clouds 2 1018 70 10000 3.6 80 14:25 19.01.2023
167 Clouds 3 1021 65 10000 2.57 200 10:22 19.01.2023
168 Clouds 4 1021 62 10000 0.67 163 08:57 19.01.2023
169 Clear 11 1020 30 10000 3.09 30 22:41 18.01.2023
170 Clear 10 1021 34 10000 3.09 350 20:21 18.01.2023
171 Clear 9 1022 36 10000 4.63 10 19:46 18.01.2023
172 Clear 8 1021 37 10000 4.63 10 19:28 18.01.2023
173 Clear 4 1020 53 10000 6.69 330 16:46 18.01.2023
174 Clear 5 1017 42 10000 5.66 320 14:20 18.01.2023
175 Clear 5 1016 43 10000 8.23 340 12:25 18.01.2023
176 Clouds 7 1014 37 10000 7.2 310 09:37 18.01.2023
177 Clouds 9 1012 41 10000 5.14 300 06:44 18.01.2023
178 Clouds 11 1008 42 10000 7.72 290 01:24 18.01.2023
179 Clouds 10 1007 47 10000 4.12 300 21:53 17.01.2023
180 Clouds 9 1007 55 10000 8.75 330 19:43 17.01.2023
181 Clouds 8 1007 57 10000 8.75 310 18:53 17.01.2023
182 Clouds 7 1006 62 10000 5.66 280 17:41 17.01.2023
183 Clouds 6 1004 63 10000 7.72 210 15:27 17.01.2023
184 Clouds 7 1004 61 10000 7.2 310 14:45 17.01.2023
185 Clouds 7 1004 59 10000 0.89 291 13:33 17.01.2023
186 Clouds 8 1004 58 10000 6.69 220 11:47 17.01.2023
187 Clouds 8 1004 53 10000 7.72 210 09:36 17.01.2023
188 Clouds 8 1003 51 10000 8.75 220 08:45 17.01.2023
189 Clouds 9 1003 46 10000 9.26 190 07:33 17.01.2023
190 Clouds 11 1002 42 10000 10.29 230 03:47 17.01.2023
191 Clouds 14 1001 40 10000 14.4 210 00:48 17.01.2023
192 Thunderstorm 13 1001 59 10000 10.29 230 22:38 16.01.2023
193 Rain 13 1000 60 10000 13.89 200 21:43 16.01.2023
194 Clouds 13 1002 59 10000 6.69 190 19:55 16.01.2023
195 Clouds 10 1005 87 10000 2.41 173 18:57 16.01.2023
196 Clouds 9 1004 83 10000 2.57 160 18:37 16.01.2023
197 Clouds 10 1004 81 10000 2.57 160 18:18 16.01.2023
198 Clouds 8 1004 86 10000 3.09 210 17:20 16.01.2023
199 Clouds 7 1004 84 10000 4.12 160 14:18 16.01.2023
200 Rain 7 1005 84 10000 4.12 130 13:35 16.01.2023
201 Clouds 8 1006 71 10000 3.09 180 10:23 16.01.2023
202 Clouds 8 1007 65 10000 8.75 190 08:20 16.01.2023
203 Clouds 13 1005 43 10000 6.17 210 22:44 15.01.2023
204 Clouds 13 1005 44 10000 8.75 210 21:23 15.01.2023
205 Clouds 13 1006 48 10000 7.72 210 20:26 15.01.2023
206 Clouds 12 1006 52 10000 3.58 252 18:57 15.01.2023
207 Clouds 10 1004 55 10000 8.23 220 17:23 15.01.2023
208 Clouds 11 1002 60 10000 10.29 170 13:44 15.01.2023
209 Clouds 11 1002 60 10000 9.26 200 12:21 15.01.2023
210 Clouds 11 1003 61 10000 9.26 200 11:28 15.01.2023
211 Clouds 10 1003 65 10000 9.26 210 10:21 15.01.2023
212 Clouds 10 1005 74 10000 9.26 200 07:45 15.01.2023
213 Rain 13 1009 50 10000 3.09 200 23:34 14.01.2023
214 Clouds 13 1009 49 10000 6.17 230 22:43 14.01.2023
215 Clouds 13 1011 51 10000 5.66 200 21:36 14.01.2023
216 Clouds 13 1011 51 10000 5.66 200 21:18 14.01.2023
217 Clouds 13 1012 52 10000 4.12 200 20:42 14.01.2023
218 Clouds 12 1012 52 10000 4.12 200 20:21 14.01.2023
219 Clouds 8 1014 65 10000 2.57 180 17:49 14.01.2023
220 Clouds 8 1015 66 10000 2.57 320 15:31 14.01.2023
221 Clouds 8 1013 59 10000 1.12 167 14:56 14.01.2023
222 Clouds 7 1013 60 10000 0.3 181 13:59 14.01.2023
223 Clouds 7 1016 64 10000 2.57 160 12:49 14.01.2023
224 Clouds 7 1016 63 10000 3.09 50 10:48 14.01.2023
225 Clouds 8 1017 61 10000 3.6 70 08:20 14.01.2023
226 Clouds 14 1019 38 10000 0.27 8 00:56 14.01.2023
227 Clouds 14 1019 38 10000 1.2 63 22:59 13.01.2023
228 Clouds 14 1021 36 10000 3.6 140 22:41 13.01.2023
229 Clouds 14 1022 37 10000 0.89 127 21:56 13.01.2023
230 Clouds 14 1024 41 10000 2.57 150 20:25 13.01.2023
231 Clouds 12 1025 47 10000 1.54 90 19:25 13.01.2023
232 Clouds 9 1024 57 10000 1.06 328 16:58 13.01.2023
233 Clouds 9 1024 57 10000 1.06 328 16:58 13.01.2023
234 Clouds 5 1025 66 10000 4.12 150 14:52 13.01.2023
235 Clouds 6 1025 61 10000 3.09 290 12:22 13.01.2023
236 Clouds 7 1026 63 10000 4.12 180 10:37 13.01.2023
237 Clouds 7 1026 63 10000 4.12 180 10:18 13.01.2023
238 Clouds 7 1026 61 10000 4.12 160 09:39 13.01.2023
239 Clouds 8 1026 60 10000 3.09 160 08:49 13.01.2023
240 Clouds 8 1026 56 10000 0.67 319 06:56 13.01.2023
241 Clouds 9 1027 60 10000 4.12 160 05:47 13.01.2023
242 Clouds 14 1027 41 10000 4.12 60 00:55 13.01.2023
243 Clouds 14 1027 38 10000 3.09 30 22:46 12.01.2023
244 Clouds 14 1028 40 10000 2.06 60 21:19 12.01.2023
245 Clouds 13 1029 43 10000 1.54 0 20:46 12.01.2023
246 Clouds 9 1030 63 10000 1.54 160 18:26 12.01.2023
247 Clouds 7 1028 62 10000 1.11 313 16:59 12.01.2023
248 Clouds 4 1028 73 10000 3.09 280 14:54 12.01.2023
249 Clouds 4 1028 73 10000 3.09 280 14:26 12.01.2023
250 Clouds 5 1028 72 10000 3.09 160 13:38 12.01.2023
251 Clouds 6 1027 69 10000 1.45 351 11:57 12.01.2023
252 Clouds 6 1027 72 10000 2.06 330 10:24 12.01.2023
253 Clouds 7 1027 73 10000 3.6 160 07:26 12.01.2023
254 Clouds 13 1024 42 10000 3.09 30 00:31 12.01.2023
255 Clouds 13 1024 42 10000 1.54 0 23:48 11.01.2023
256 Clouds 13 1024 42 10000 1.54 0 23:30 11.01.2023
257 Clouds 13 1023 43 10000 0 0 22:55 11.01.2023
258 Clouds 12 1024 46 10000 3.09 40 21:20 11.01.2023
259 Clouds 9 1023 61 10000 3.09 340 18:51 11.01.2023
260 Clouds 6 1022 68 10000 3.6 230 17:30 11.01.2023
261 Clouds 4 1020 72 10000 4.12 220 15:38 11.01.2023
262 Clear 6 1019 69 10000 5.14 180 13:54 11.01.2023
263 Clear 6 1018 65 10000 4.63 180 12:27 11.01.2023
264 Clear 7 1018 61 10000 6.17 210 11:20 11.01.2023
265 Clouds 9 1015 55 10000 5.14 240 08:43 11.01.2023
266 Clouds 10 1014 54 10000 7.2 180 07:28 11.01.2023
267 Clouds 11 1013 54 10000 12.35 230 05:55 11.01.2023
268 Thunderstorm 12 1010 73 10000 11.83 230 22:54 10.01.2023
269 Thunderstorm 14 1008 62 10000 11.83 170 22:18 10.01.2023
270 Rain 16 1010 47 10000 13.38 150 21:18 10.01.2023
271 Clouds 14 1013 47 10000 6.69 150 19:53 10.01.2023
272 Clouds 13 1014 53 10000 8.75 170 18:50 10.01.2023
273 Clouds 12 1014 56 10000 8.75 170 18:27 10.01.2023
274 Clouds 11 1014 64 10000 2.24 159 16:59 10.01.2023
275 Clouds 11 1014 59 10000 6.17 170 15:33 10.01.2023
276 Clouds 11 1014 59 10000 6.17 170 15:33 10.01.2023
277 Clouds 12 1015 57 10000 8.23 170 14:35 10.01.2023
278 Clouds 12 1014 60 10000 7.72 160 12:54 10.01.2023
279 Clouds 11 1015 75 10000 2.57 140 09:43 10.01.2023
280 Clouds 10 1016 75 10000 5.14 170 08:37 10.01.2023
281 Rain 12 1016 64 10000 6.17 170 07:55 10.01.2023
282 Clouds 11 1016 68 10000 8.23 170 05:33 10.01.2023
283 Rain 13 1016 55 10000 3.6 40 00:19 10.01.2023
284 Clouds 13 1017 61 10000 0.45 50 21:57 09.01.2023
285 Clouds 12 1019 60 10000 5.14 80 20:46 09.01.2023
286 Clouds 11 1020 64 10000 5.14 70 19:50 09.01.2023
287 Clouds 10 1020 68 10000 6.17 60 18:21 09.01.2023
288 Clouds 9 1020 71 10000 0 0 17:49 09.01.2023
289 Clouds 8 1019 71 10000 3.09 30 16:33 09.01.2023
290 Clouds 9 1019 66 10000 3.6 70 15:31 09.01.2023
291 Clouds 9 1019 67 10000 1.54 360 14:53 09.01.2023
292 Clouds 9 1019 67 10000 1.54 360 14:21 09.01.2023
293 Clouds 9 1020 67 10000 4.63 60 12:49 09.01.2023
294 Clouds 9 1020 65 10000 3.09 60 11:51 09.01.2023
295 Clouds 9 1020 65 10000 3.09 60 11:19 09.01.2023
296 Clouds 9 1022 66 10000 0.45 331 06:56 09.01.2023
297 Clouds 11 1020 57 10000 2.57 110 02:55 09.01.2023
298 Clouds 13 1018 53 10000 1.95 63 00:58 09.01.2023
299 Clouds 12 1022 54 10000 2.57 60 21:50 08.01.2023
300 Clouds 12 1022 53 10000 2.57 60 21:21 08.01.2023
301 Clouds 10 1023 59 10000 2.57 50 20:33 08.01.2023
302 Clouds 8 1022 59 10000 1.75 138 17:59 08.01.2023
303 Clouds 6 1022 74 10000 3.09 220 17:21 08.01.2023
304 Clouds 5 1021 71 10000 3.09 210 15:49 08.01.2023
305 Clouds 5 1021 71 10000 3.09 210 15:49 08.01.2023
306 Clouds 5 1021 71 10000 3.09 210 15:30 08.01.2023
307 Clouds 6 1020 70 10000 1.44 96 13:58 08.01.2023
308 Clouds 6 1021 72 10000 2.06 170 13:30 08.01.2023
309 Clouds 6 1022 72 10000 2.57 210 12:43 08.01.2023
310 Clouds 7 1022 66 10000 1.54 150 09:55 08.01.2023
311 Clouds 7 1022 67 10000 1.54 320 09:35 08.01.2023
312 Clouds 8 1023 66 10000 2.57 160 07:45 08.01.2023
313 Clouds 12 1021 50 10000 1.47 68 23:59 07.01.2023
314 Clouds 12 1024 53 10000 4.12 60 22:47 07.01.2023
315 Clouds 12 1024 53 10000 4.12 60 22:23 07.01.2023
316 Clouds 12 1024 55 10000 2.57 170 21:46 07.01.2023
317 Clouds 11 1025 59 10000 2.06 20 20:31 07.01.2023
318 Clouds 9 1026 60 10000 1.54 50 19:30 07.01.2023
319 Clouds 8 1026 66 10000 0 0 18:26 07.01.2023
320 Clouds 6 1025 75 10000 3.09 200 17:44 07.01.2023
321 Clouds 5 1025 76 10000 3.09 200 17:21 07.01.2023
322 Clouds 4 1025 82 10000 2.57 170 16:32 07.01.2023
323 Clouds 4 1024 76 10000 4.12 160 15:46 07.01.2023
324 Clouds 4 1024 76 10000 4.12 160 15:22 07.01.2023
325 Clouds 5 1024 73 10000 3.09 320 14:26 07.01.2023
326 Clouds 4 1024 77 10000 4.12 160 13:43 07.01.2023
327 Clouds 4 1024 77 10000 4.12 160 13:22 07.01.2023
328 Clear 5 1024 77 10000 3.09 160 12:21 07.01.2023
329 Clear 6 1023 60 10000 1.28 359 10:57 07.01.2023
330 Clear 5 1025 74 10000 3.6 160 10:23 07.01.2023
331 Clear 7 1025 70 10000 2.57 310 08:21 07.01.2023
332 Clear 7 1025 71 10000 3.09 160 07:43 07.01.2023
333 Clear 8 1025 68 10000 3.09 160 06:49 07.01.2023
334 Clouds 14 1023 40 10000 3.6 70 23:54 06.01.2023
335 Clouds 14 1023 40 10000 5.14 320 22:22 06.01.2023
336 Clear 14 1022 42 10000 0.83 94 21:58 06.01.2023
337 Clear 13 1024 52 10000 4.63 340 20:52 06.01.2023
338 Clear 12 1023 49 10000 0.49 206 19:56 06.01.2023
339 Clouds 11 1024 57 10000 5.66 340 19:38 06.01.2023
340 Clouds 11 1024 57 10000 5.66 340 19:20 06.01.2023
341 Clouds 9 1024 62 10000 3.09 210 18:24 06.01.2023
342 Clouds 6 1022 69 10000 4.63 210 16:54 06.01.2023
343 Clouds 6 1022 72 10000 4.63 210 16:23 06.01.2023
344 Clear 5 1021 73 10000 4.63 190 15:53 06.01.2023
345 Clear 5 1021 74 10000 4.63 190 15:31 06.01.2023
346 Clear 5 1021 74 10000 4.63 190 15:31 06.01.2023
347 Clear 6 1020 70 10000 4.63 200 13:47 06.01.2023
348 Clear 7 1019 67 10000 5.14 220 12:21 06.01.2023
349 Clear 7 1019 62 10000 1.6 275 10:57 06.01.2023
350 Clouds 9 1017 66 10000 6.69 210 08:53 06.01.2023
351 Clouds 10 1016 69 10000 6.17 170 05:26 06.01.2023
352 Rain 12 1013 75 10000 4.63 90 23:39 05.01.2023
353 Rain 11 1014 78 10000 4.63 70 22:45 05.01.2023
354 Clouds 11 1015 74 10000 4.12 340 21:19 05.01.2023
355 Clouds 10 1017 69 10000 2.52 136 17:57 05.01.2023
356 Clouds 8 1017 84 10000 3.09 50 17:26 05.01.2023
357 Clouds 8 1018 72 10000 0.44 33 15:59 05.01.2023
358 Clouds 8 1018 82 10000 2.06 350 15:34 05.01.2023
359 Clouds 8 1018 82 10000 2.57 50 14:33 05.01.2023
360 Clouds 8 1020 82 10000 2.57 170 12:41 05.01.2023
361 Clouds 8 1020 82 10000 2.57 160 11:42 05.01.2023
362 Clouds 8 1020 81 10000 4.12 70 09:48 05.01.2023
363 Clouds 9 1021 79 10000 4.63 90 08:23 05.01.2023
364 Clouds 9 1021 77 10000 4.12 70 06:50 05.01.2023
365 Clouds 10 1022 70 10000 3.09 100 03:34 05.01.2023
366 Clouds 10 1022 66 10000 5.66 50 22:27 04.01.2023
367 Clouds 10 1023 67 10000 5.14 50 21:32 04.01.2023
368 Clouds 9 1024 69 10000 2.57 130 20:23 04.01.2023
369 Clouds 9 1024 76 10000 1.54 170 19:47 04.01.2023
370 Clouds 9 1024 72 10000 1.54 170 19:29 04.01.2023
371 Clouds 8 1024 76 10000 1.54 210 18:18 04.01.2023
372 Clouds 7 1023 74 10000 2.06 180 16:31 04.01.2023
373 Clouds 6 1021 79 10000 3.09 160 14:52 04.01.2023
374 Clouds 7 1020 77 10000 2.06 20 13:30 04.01.2023
375 Clouds 6 1021 80 10000 3.6 70 11:24 04.01.2023
376 Clouds 6 1020 79 10000 5.14 80 10:44 04.01.2023
377 Clouds 6 1020 79 10000 5.14 80 10:25 04.01.2023
378 Clouds 7 1020 78 10000 4.63 80 09:52 04.01.2023
379 Clouds 9 1020 69 10000 3.09 90 05:39 04.01.2023
380 Clouds 11 1017 54 10000 4.12 70 01:41 04.01.2023
381 Clouds 12 1017 49 10000 2.06 160 23:42 03.01.2023
382 Clouds 12 1016 48 10000 1.15 139 22:56 03.01.2023
383 Clouds 12 1017 54 10000 2.06 250 21:42 03.01.2023
384 Clouds 10 1018 63 10000 1.54 80 20:50 03.01.2023
385 Clouds 8 1017 73 10000 3.09 50 18:40 03.01.2023
386 Clouds 6 1015 78 10000 3.6 60 16:40 03.01.2023
387 Clouds 6 1014 77 10000 3.09 30 15:28 03.01.2023
388 Clouds 7 1013 73 10000 3.6 200 13:43 03.01.2023
389 Clouds 6 1013 74 10000 3.6 200 13:24 03.01.2023
390 Clouds 6 1014 70 10000 1.74 218 12:57 03.01.2023
391 Clouds 7 1013 72 10000 6.69 210 12:21 03.01.2023
392 Clouds 7 1013 68 10000 4.63 190 09:50 03.01.2023
393 Clouds 8 1013 40 10000 3.6 200 04:28 03.01.2023
394 Clouds 8 1012 40 10000 4.63 170 03:52 03.01.2023
395 Clouds 8 1012 40 10000 4.63 170 03:32 03.01.2023
396 Clouds 11 1012 35 10000 4.63 320 23:19 02.01.2023
397 Clouds 11 1012 37 10000 3.6 240 22:39 02.01.2023
398 Clear 11 1011 38 10000 2.53 248 20:59 02.01.2023
399 Clouds 10 1013 39 10000 4.63 350 20:31 02.01.2023
400 Clouds 8 1013 44 10000 5.66 340 18:49 02.01.2023
401 Clouds 5 1011 55 10000 5.14 190 16:20 02.01.2023
402 Clouds 6 1009 55 10000 6.69 310 14:26 02.01.2023
403 Clouds 6 1008 51 10000 6.17 320 12:38 02.01.2023
404 Clouds 8 1007 49 10000 7.72 320 11:25 02.01.2023
405 Clouds 8 1006 51 10000 7.72 320 08:38 02.01.2023
406 Clouds 10 1003 52 10000 6.17 320 04:42 02.01.2023
407 Clouds 12 1000 52 10000 12.35 330 23:28 01.01.2023
408 Clouds 13 1000 48 10000 9.77 240 21:54 01.01.2023
409 Clouds 13 1000 49 10000 9.77 210 20:49 01.01.2023
410 Clouds 13 1000 49 10000 9.77 210 20:18 01.01.2023
411 Clouds 12 1002 68 10000 7.72 220 18:52 01.01.2023
412 Clouds 11 1001 74 10000 5.66 190 17:24 01.01.2023
413 Clouds 11 1001 78 10000 4.12 190 16:49 01.01.2023
414 Rain 11 1001 76 10000 5.14 160 15:38 01.01.2023
415 Clouds 11 1003 83 10000 6.17 190 13:49 01.01.2023
416 Rain 11 1002 80 10000 6.17 180 12:57 01.01.2023
417 Rain 12 1004 77 10000 9.77 180 11:41 01.01.2023
418 Rain 12 1004 77 10000 9.77 180 11:21 01.01.2023
419 Clouds 13 1005 69 10000 7.2 190 09:29 01.01.2023
420 Clouds 13 1006 66 10000 11.32 180 08:25 01.01.2023
421 Clouds 13 1007 66 10000 9.26 160 07:30 01.01.2023
422 Clouds 13 1007 64 10000 8.75 160 06:42 01.01.2023
423 Clouds 16 1008 49 10000 10.29 190 23:46 31.12.2022
424 Clouds 16 1008 49 10000 10.29 190 23:21 31.12.2022
425 Clouds 17 1009 50 10000 9.77 140 21:46 31.12.2022
426 Clouds 17 1009 52 10000 9.77 140 21:23 31.12.2022
427 Clouds 15 1011 57 10000 5.66 210 20:22 31.12.2022
428 Clouds 13 1012 68 10000 6.17 160 18:45 31.12.2022
429 Clouds 12 1012 70 10000 6.17 160 18:20 31.12.2022
430 Clouds 12 1012 72 10000 6.69 180 17:56 31.12.2022
431 Clouds 11 1012 74 10000 6.69 180 17:31 31.12.2022
432 Clear 11 1012 72 10000 7.72 170 16:31 31.12.2022
433 Clear 11 1012 73 10000 6.69 180 15:28 31.12.2022
434 Clouds 12 1013 66 10000 5.14 150 13:55 31.12.2022
435 Clouds 12 1013 66 10000 5.14 150 13:55 31.12.2022
436 Clouds 10 1012 77 10000 6.17 140 13:24 31.12.2022
437 Clouds 10 1013 78 10000 6.69 170 12:21 31.12.2022
438 Clouds 10 1013 77 10000 6.69 170 11:51 31.12.2022
439 Clear 11 1013 71 10000 7.2 180 10:55 31.12.2022
440 Clouds 10 1014 73 10000 1.17 54 09:56 31.12.2022
441 Clouds 9 1013 79 10000 6.17 180 09:36 31.12.2022
442 Clouds 9 1015 74 10000 2.57 360 07:58 31.12.2022
443 Clouds 11 1016 59 10000 3.6 90 00:59 31.12.2022
444 Clouds 11 1016 56 10000 3.6 90 00:24 31.12.2022
445 Clouds 11 1016 53 10000 2.57 90 22:52 30.12.2022
446 Clouds 11 1016 52 10000 2.57 90 22:18 30.12.2022
447 Clouds 11 1017 51 10000 3.09 130 21:37 30.12.2022
448 Clouds 10 1017 49 10000 2.06 100 20:20 30.12.2022
449 Clouds 9 1018 52 10000 1.54 120 18:28 30.12.2022
450 Clouds 8 1018 55 10000 2.06 190 17:33 30.12.2022
451 Clouds 6 1018 61 10000 1.05 46 15:58 30.12.2022
452 Clouds 6 1017 62 10000 2.06 300 14:54 30.12.2022
453 Clouds 5 1017 64 10000 3.09 190 12:52 30.12.2022
454 Clouds 6 1017 60 10000 2.57 290 08:23 30.12.2022
455 Clouds 9 1014 48 10000 4.12 50 03:47 30.12.2022
456 Clouds 11 1013 49 10000 5.66 50 02:25 30.12.2022
457 Clouds 13 1012 41 10000 6.17 220 23:18 29.12.2022
458 Clouds 12 1013 38 10000 5.66 60 21:32 29.12.2022
459 Clouds 12 1013 38 10000 5.14 80 20:54 29.12.2022
460 Clear 11 1014 38 10000 5.14 80 20:26 29.12.2022
461 Clouds 9 1015 38 10000 4.63 90 18:32 29.12.2022
462 Clouds 8 1014 37 10000 5.14 80 17:51 29.12.2022
463 Clouds 8 1014 38 10000 5.66 80 17:18 29.12.2022
464 Clouds 7 1014 40 10000 5.14 90 16:44 29.12.2022
465 Clouds 7 1014 40 10000 3.6 80 15:44 29.12.2022
466 Clouds 7 1013 38 10000 6.69 100 13:34 29.12.2022
467 Clouds 7 1013 38 10000 6.69 100 13:34 29.12.2022
468 Clouds 7 1012 43 10000 5.66 90 11:48 29.12.2022
469 Clouds 8 1012 37 10000 2.06 200 09:20 29.12.2022
470 Clouds 17 1009 25 10000 7.72 300 00:37 29.12.2022
471 Clouds 17 1008 25 10000 8.23 300 23:28 28.12.2022
472 Clouds 16 1008 36 10000 9.77 320 21:44 28.12.2022
473 Clouds 16 1008 37 10000 9.77 320 21:18 28.12.2022
474 Clouds 15 1009 57 10000 5.14 310 19:38 28.12.2022
475 Clouds 10 1007 72 10000 0.89 333 16:57 28.12.2022
476 Clouds 10 1006 71 10000 4.12 50 15:25 28.12.2022
477 Clouds 12 1005 65 10000 0.89 316 12:56 28.12.2022
478 Clouds 12 1006 64 10000 7.2 200 12:23 28.12.2022
479 Clouds 13 1005 62 10000 6.17 190 11:21 28.12.2022
480 Clouds 13 1006 66 10000 6.17 200 09:18 28.12.2022
481 Clouds 14 1007 64 10000 6.69 200 07:27 28.12.2022
482 Clouds 14 1007 65 10000 6.69 190 06:43 28.12.2022
483 Clouds 19 1007 25 10000 10.29 200 23:36 27.12.2022
484 Clouds 18 1012 25 10000 7.72 200 20:30 27.12.2022
485 Clouds 16 1013 34 10000 7.72 220 19:31 27.12.2022
486 Clouds 16 1013 34 10000 7.72 220 19:31 27.12.2022
487 Clouds 12 1014 48 10000 5.14 60 17:28 27.12.2022
488 Clouds 11 1014 49 10000 5.14 70 16:43 27.12.2022
489 Clouds 11 1014 48 10000 3.6 50 15:30 27.12.2022
490 Clouds 11 1016 47 10000 5.66 70 12:35 27.12.2022
491 Clouds 11 1017 46 10000 4.63 150 11:29 27.12.2022
492 Clouds 11 1018 45 10000 4.12 60 09:46 27.12.2022
493 Clouds 11 1018 45 10000 4.12 60 09:23 27.12.2022
494 Clouds 12 1020 43 10000 2.57 170 06:50 27.12.2022
495 Clouds 14 1020 39 10000 2.57 140 04:30 27.12.2022
496 Clouds 18 1022 31 10000 2.06 0 22:26 26.12.2022
497 Clouds 18 1021 34 10000 1.12 44 20:56 26.12.2022
498 Clouds 16 1024 33 10000 1.54 250 20:34 26.12.2022
499 Clouds 14 1025 39 10000 1.54 360 18:44 26.12.2022
500 Clouds 10 1024 46 10000 3.09 180 17:44 26.12.2022
501 Clouds 8 1024 50 10000 3.09 180 16:20 26.12.2022
502 Clouds 9 1025 47 10000 2.06 180 13:54 26.12.2022
503 Clouds 10 1025 45 10000 3.6 190 12:45 26.12.2022
504 Clouds 11 1025 40 10000 3.6 180 07:29 26.12.2022
505 Clear 19 1022 28 10000 0.7 119 23:56 25.12.2022
506 Clouds 20 1024 25 10000 3.6 140 23:35 25.12.2022
507 Clear 19 1025 27 10000 2.57 150 22:27 25.12.2022
508 Clear 18 1027 28 10000 3.09 360 21:37 25.12.2022
509 Clouds 13 1029 37 10000 3.09 200 18:49 25.12.2022
510 Clear 10 1028 45 10000 4.12 200 17:52 25.12.2022
511 Clear 10 1028 45 10000 4.12 200 17:33 25.12.2022
512 Clouds 8 1028 47 10000 4.12 190 15:19 25.12.2022
513 Clouds 9 1028 44 10000 4.63 300 11:50 25.12.2022
514 Clouds 10 1028 42 10000 2.57 300 06:21 25.12.2022
515 Clouds 18 1027 27 10000 2.06 160 23:26 24.12.2022
516 Clouds 17 1029 28 10000 2.06 60 21:18 24.12.2022
517 Clear 12 1028 36 10000 1.41 3 17:59 24.12.2022
518 Clouds 7 1028 46 10000 4.63 310 16:32 24.12.2022
519 Clear 6 1027 46 10000 3.09 170 14:48 24.12.2022
520 Clear 7 1027 45 10000 3.09 210 12:42 24.12.2022
521 Clear 8 1026 41 10000 4.12 330 10:31 24.12.2022
522 Clear 8 1026 44 10000 4.12 170 09:55 24.12.2022
523 Clear 8 1026 44 10000 4.12 170 09:36 24.12.2022
524 Clouds 10 1023 37 10000 3.6 160 04:28 24.12.2022
525 Clouds 16 1022 26 10000 2.57 140 00:52 24.12.2022
526 Clouds 16 1022 27 10000 1.54 0 23:35 23.12.2022
527 Clouds 15 1023 29 10000 1.54 0 21:55 23.12.2022
528 Clouds 14 1023 31 10000 2.06 280 20:22 23.12.2022
529 Clouds 13 1024 34 10000 2.57 230 19:39 23.12.2022
530 Clouds 13 1024 34 10000 2.57 230 19:21 23.12.2022
531 Clouds 11 1023 40 10000 2.57 290 18:38 23.12.2022
532 Clouds 10 1023 41 10000 2.57 290 18:18 23.12.2022
533 Clouds 6 1022 49 10000 3.6 170 16:25 23.12.2022
534 Clouds 7 1021 49 10000 3.6 160 14:42 23.12.2022
535 Clouds 8 1020 45 10000 0.96 11 10:56 23.12.2022
536 Clouds 8 1021 46 10000 2.06 130 09:36 23.12.2022
537 Clouds 8 1021 46 10000 3.09 290 07:45 23.12.2022
538 Clouds 8 1020 46 10000 3.6 160 06:50 23.12.2022
539 Clouds 10 1020 42 10000 3.09 80 05:19 23.12.2022
540 Clouds 15 1020 31 10000 2.06 70 23:20 22.12.2022
541 Clouds 14 1017 34 10000 1.19 84 21:56 22.12.2022
542 Clouds 14 1020 34 10000 0.42 79 19:56 22.12.2022
543 Clouds 12 1022 35 10000 0 0 19:22 22.12.2022
544 Clouds 10 1021 42 10000 0 0 18:25 22.12.2022
545 Clouds 5 1021 51 10000 3.09 170 16:54 22.12.2022
546 Clouds 5 1021 51 10000 3.09 170 16:30 22.12.2022
547 Clouds 5 1020 51 10000 2.57 280 15:30 22.12.2022
548 Clouds 5 1020 51 10000 3.6 40 14:30 22.12.2022
549 Clouds 5 1019 49 10000 3.6 50 13:31 22.12.2022
550 Clouds 6 1019 46 10000 4.63 50 12:31 22.12.2022
551 Clouds 7 1019 45 10000 5.14 70 10:32 22.12.2022
552 Clouds 8 1018 43 10000 0.49 43 09:59 22.12.2022
553 Clouds 8 1019 44 10000 5.14 70 09:19 22.12.2022
554 Clouds 8 1019 44 10000 5.14 70 09:19 22.12.2022
555 Clouds 9 1019 40 10000 6.69 210 07:54 22.12.2022
556 Clouds 10 1019 36 10000 3.09 190 04:19 22.12.2022
557 Clouds 14 1019 26 10000 3.09 90 00:48 22.12.2022
558 Clear 15 1020 25 10000 3.6 170 22:41 21.12.2022
559 Clear 14 1022 25 10000 0 0 21:50 21.12.2022
560 Clear 14 1022 26 10000 0 0 21:20 21.12.2022
561 Clouds 13 1023 28 10000 0 0 20:40 21.12.2022
562 Clouds 13 1022 29 10000 0.52 90 19:56 21.12.2022
563 Clouds 11 1024 29 10000 2.06 0 19:37 21.12.2022
564 Clouds 11 1024 29 10000 2.06 0 19:18 21.12.2022
565 Clouds 9 1024 32 10000 2.06 190 18:38 21.12.2022
566 Clouds 4 1024 40 10000 4.12 320 16:19 21.12.2022
567 Clear 4 1023 41 10000 3.6 280 14:20 21.12.2022
568 Clear 5 1023 36 10000 0.91 304 11:58 21.12.2022
569 Clear 5 1023 37 10000 4.63 200 11:21 21.12.2022
570 Clear 5 1024 38 10000 4.12 210 10:30 21.12.2022
571 Clear 5 1024 38 10000 3.6 180 08:49 21.12.2022
572 Clear 6 1024 36 10000 3.09 180 06:30 21.12.2022
573 Clear 6 1024 36 10000 3.09 180 06:30 21.12.2022
574 Clear 13 1024 24 10000 1.54 90 00:26 21.12.2022
575 Clouds 12 1025 25 10000 2.06 50 21:47 20.12.2022
576 Clouds 12 1025 28 10000 0.8 60 20:58 20.12.2022
577 Clouds 10 1027 31 10000 1.54 210 19:55 20.12.2022
578 Clouds 7 1027 37 10000 2.06 210 18:48 20.12.2022
579 Clouds 7 1027 38 10000 2.06 210 18:23 20.12.2022
580 Clouds 5 1027 42 10000 2.57 170 17:50 20.12.2022
581 Clouds 5 1027 42 10000 2.57 170 17:24 20.12.2022
582 Clouds 4 1026 41 10000 2.06 200 15:55 20.12.2022
583 Clouds 4 1026 41 10000 3.09 170 14:55 20.12.2022
584 Clouds 4 1026 43 10000 3.09 170 14:35 20.12.2022
585 Clouds 4 1026 41 10000 2.57 160 13:26 20.12.2022
586 Clouds 4 1027 40 10000 2.57 190 12:32 20.12.2022
587 Clouds 5 1027 39 10000 2.57 180 11:54 20.12.2022
588 Clouds 5 1027 41 10000 0.4 2 09:57 20.12.2022
589 Clouds 5 1027 35 10000 0.82 347 06:58 20.12.2022
590 Clouds 11 1025 28 10000 0.78 69 23:58 19.12.2022
591 Clouds 11 1025 26 10000 2.06 30 22:22 19.12.2022
592 Clouds 9 1026 30 10000 2.57 70 20:48 19.12.2022
593 Clouds 8 1026 31 10000 1.54 230 19:40 19.12.2022
594 Clouds 6 1026 37 10000 1.54 210 18:43 19.12.2022
595 Clouds 3 1025 42 10000 3.09 160 17:38 19.12.2022
596 Clear 0 1024 53 10000 3.6 180 15:52 19.12.2022
597 Clouds 1 1022 48 10000 4.12 160 12:35 19.12.2022
598 Clear 1 1021 47 10000 2.57 180 11:36 19.12.2022
599 Clear 3 1019 42 10000 3.6 160 07:48 19.12.2022
600 Clear 3 1019 41 10000 2.06 180 06:32 19.12.2022
601 Clouds 10 1016 26 10000 3.09 50 00:20 19.12.2022
602 Clouds 10 1016 27 10000 2.06 0 21:48 18.12.2022
603 Clouds 10 1017 27 10000 2.06 0 21:24 18.12.2022
604 Clouds 9 1017 30 10000 1.54 130 20:53 18.12.2022
605 Clouds 7 1019 34 10000 1.54 70 19:43 18.12.2022
606 Clouds 7 1020 36 10000 0.89 183 18:57 18.12.2022
607 Clouds 2 1018 46 10000 2.06 170 17:52 18.12.2022
608 Clouds 1 1016 46 10000 4.12 200 15:41 18.12.2022
609 Clouds 1 1016 45 10000 4.12 200 15:23 18.12.2022
610 Clouds 2 1016 45 10000 4.12 160 14:29 18.12.2022
611 Clouds 3 1017 40 10000 0.97 0 12:58 18.12.2022
612 Clouds 2 1016 45 10000 4.12 200 12:32 18.12.2022
613 Clouds 2 1016 44 10000 5.66 220 11:49 18.12.2022
614 Clouds 2 1017 43 10000 2.57 180 09:24 18.12.2022
615 Clouds 3 1017 44 10000 3.09 170 08:46 18.12.2022
616 Clouds 3 1018 44 10000 2.57 310 06:24 18.12.2022
617 Clouds 4 1019 38 10000 3.6 160 04:41 18.12.2022
618 Clouds 8 1019 30 10000 1.54 60 01:49 18.12.2022
619 Clear 10 1022 29 10000 1.34 84 22:57 17.12.2022
620 Clouds 8 1023 33 10000 3.09 30 20:37 17.12.2022
621 Clear 1 1023 51 10000 3.6 160 17:21 17.12.2022
622 Clear -1 1023 54 10000 3.09 170 15:19 17.12.2022
623 Clear -1 1023 52 10000 2.57 170 13:18 17.12.2022
624 Clear 1 1024 46 10000 3.6 40 11:18 17.12.2022
625 Clear 1 1024 49 10000 2.57 80 10:39 17.12.2022
626 Clear 2 1025 45 10000 2.57 50 08:37 17.12.2022
627 Clear 3 1024 43 10000 2.57 170 06:47 17.12.2022
628 Clear 8 1023 30 10000 3.09 60 02:19 17.12.2022
629 Clouds 10 1024 28 10000 3.09 70 22:34 16.12.2022
630 Clouds 8 1027 33 10000 8.75 50 20:26 16.12.2022
631 Clouds 5 1027 44 10000 3.09 50 18:22 16.12.2022
632 Clouds 1 1026 57 10000 1.54 260 15:28 16.12.2022
633 Clouds 2 1025 53 10000 0 0 14:36 16.12.2022
634 Clouds 3 1025 50 10000 2.57 40 12:38 16.12.2022
635 Clouds 3 1025 53 10000 0 0 11:55 16.12.2022
636 Clouds 4 1024 48 10000 3.6 80 09:40 16.12.2022
637 Clouds 5 1024 47 10000 4.12 60 08:27 16.12.2022
638 Clouds 5 1024 48 10000 6.69 60 07:54 16.12.2022
639 Clouds 9 1021 37 10000 2.57 100 02:43 16.12.2022
640 Clouds 12 1021 31 10000 2.06 0 22:33 15.12.2022
641 Clouds 11 1022 32 10000 4.12 100 21:30 15.12.2022
642 Clouds 9 1023 37 10000 3.6 20 19:46 15.12.2022
643 Clouds 7 1023 42 10000 1.54 190 18:53 15.12.2022
644 Clouds 5 1022 46 10000 4.63 280 17:27 15.12.2022
645 Clouds 2 1022 56 10000 2.57 200 15:46 15.12.2022
646 Clouds 2 1021 53 10000 0 0 14:55 15.12.2022
647 Clouds 2 1022 53 10000 3.09 190 12:54 15.12.2022
648 Clouds 2 1022 54 10000 3.09 190 12:22 15.12.2022
649 Clear 4 1022 48 10000 4.12 160 08:55 15.12.2022
650 Clear 4 1022 47 10000 4.12 160 08:21 15.12.2022
651 Clouds 5 1022 43 10000 3.6 170 05:43 15.12.2022
652 Clear 11 1020 33 10000 1.69 353 22:59 14.12.2022
653 Clear 10 1022 33 10000 6.17 350 21:24 14.12.2022
654 Clear 10 1023 36 10000 6.69 30 20:44 14.12.2022
655 Clear 9 1023 40 10000 5.14 10 19:51 14.12.2022
656 Clear 4 1022 52 10000 2.06 160 17:19 14.12.2022
657 Clear 3 1021 56 10000 2.57 190 16:53 14.12.2022
658 Clear 2 1020 59 10000 2.57 240 14:55 14.12.2022
659 Clear 2 1020 61 10000 3.6 330 13:19 14.12.2022
660 Clear 3 1019 56 10000 6.69 310 10:46 14.12.2022
661 Clear 3 1019 56 10000 6.69 310 10:23 14.12.2022
662 Clear 4 1019 51 10000 3.09 200 07:44 14.12.2022
663 Clouds 11 1016 33 10000 8.75 320 22:19 13.12.2022
664 Clouds 10 1016 34 10000 8.75 310 21:37 13.12.2022
665 Clouds 10 1016 39 10000 6.69 350 20:47 13.12.2022
666 Clouds 9 1017 45 10000 6.17 340 19:21 13.12.2022
667 Clouds 5 1014 56 10000 5.14 340 16:40 13.12.2022
668 Clouds 4 1015 59 10000 1.4 302 14:59 13.12.2022
669 Clouds 4 1015 59 10000 1.4 302 14:59 13.12.2022
670 Clouds 4 1012 59 10000 7.72 320 13:33 13.12.2022
671 Clouds 4 1011 58 10000 4.63 190 10:49 13.12.2022
672 Clouds 5 1011 59 10000 4.63 190 10:26 13.12.2022
673 Clouds 5 1011 59 10000 3.6 200 08:18 13.12.2022
674 Clouds 10 1008 37 10000 3.6 220 22:37 12.12.2022
675 Clouds 10 1008 37 10000 3.6 220 22:37 12.12.2022
676 Clouds 10 1009 39 10000 0.78 294 21:58 12.12.2022
677 Clouds 9 1009 43 10000 5.66 210 20:30 12.12.2022
678 Clouds 6 1010 54 10000 3.6 190 18:25 12.12.2022
679 Clear 2 1008 63 10000 4.12 190 15:41 12.12.2022
680 Clear 3 1007 63 10000 4.63 180 13:51 12.12.2022
681 Clear 5 1006 55 10000 4.63 220 09:21 12.12.2022
682 Clear 5 1008 53 10000 2.16 257 08:56 12.12.2022
683 Clouds 8 1007 55 10000 8.23 200 04:48 12.12.2022
684 Clouds 8 1007 64 10000 9.77 220 01:51 12.12.2022
685 Rain 11 1006 64 10000 8.75 210 22:18 11.12.2022
686 Rain 13 1008 37 10000 10.8 170 20:37 11.12.2022
687 Clouds 12 1009 34 10000 8.23 160 19:39 11.12.2022
688 Clouds 12 1010 34 10000 9.26 160 18:40 11.12.2022
689 Clouds 11 1011 36 10000 9.77 170 17:53 11.12.2022
690 Clouds 10 1011 37 10000 7.2 170 16:53 11.12.2022
691 Clouds 9 1011 38 10000 7.2 170 16:29 11.12.2022
692 Clouds 9 1011 39 10000 8.23 170 15:45 11.12.2022
693 Clouds 9 1011 36 10000 7.2 170 13:35 11.12.2022
694 Clouds 9 1012 37 10000 7.2 170 12:42 11.12.2022
695 Clouds 10 1012 32 10000 4.63 170 10:26 11.12.2022
696 Clouds 14 1015 31 10000 5.66 80 01:36 11.12.2022
697 Clouds 14 1015 32 10000 6.17 90 00:28 11.12.2022
698 Clear 14 1016 35 10000 5.14 80 22:38 10.12.2022
699 Clear 13 1016 35 10000 5.14 80 22:19 10.12.2022
700 Clear 13 1017 37 10000 5.14 80 21:18 10.12.2022
701 Clouds 11 1019 41 10000 6.17 70 20:19 10.12.2022
702 Clouds 6 1019 52 10000 2.06 200 17:53 10.12.2022
703 Clouds 4 1019 56 10000 2.57 200 16:46 10.12.2022
704 Clouds 4 1019 56 10000 4.63 220 15:43 10.12.2022
705 Clouds 4 1019 56 10000 4.63 220 15:24 10.12.2022
706 Clouds 5 1019 54 10000 3.6 190 13:44 10.12.2022
707 Clouds 4 1019 54 10000 3.6 170 12:23 10.12.2022
708 Clouds 5 1019 53 10000 4.12 170 10:55 10.12.2022
709 Clouds 5 1019 54 10000 4.63 160 09:46 10.12.2022
710 Clouds 6 1020 51 10000 3.6 50 07:23 10.12.2022
711 Clouds 6 1020 53 10000 3.09 160 06:53 10.12.2022
712 Clear 13 1019 36 10000 1.54 0 23:43 09.12.2022
713 Clear 12 1020 37 10000 1.54 0 22:42 09.12.2022
714 Clear 12 1020 39 10000 2.06 80 21:34 09.12.2022
715 Clear 12 1020 41 10000 0.99 51 20:59 09.12.2022
716 Clouds 10 1022 44 10000 1.54 90 19:46 09.12.2022
717 Clouds 8 1021 46 10000 0.57 33 17:56 09.12.2022
718 Clouds 5 1021 54 10000 2.57 160 17:18 09.12.2022
719 Clouds 3 1021 59 10000 2.06 200 16:26 09.12.2022
720 Clouds 3 1021 60 10000 4.12 160 15:29 09.12.2022
721 Clouds 4 1020 57 10000 2.57 190 12:41 09.12.2022
722 Clouds 5 1021 53 10000 3.6 180 10:50 09.12.2022
723 Clouds 5 1021 53 10000 3.6 180 10:20 09.12.2022
724 Clouds 7 1022 49 10000 3.6 60 05:38 09.12.2022
725 Clear 9 1022 46 10000 3.09 70 03:18 09.12.2022
726 Clear 13 1024 39 10000 3.09 70 22:51 08.12.2022
727 Clear 12 1024 43 10000 1.19 63 20:55 08.12.2022
728 Clear 10 1027 47 10000 1.13 51 18:57 08.12.2022
729 Clear 4 1027 60 10000 3.09 170 16:38 08.12.2022
730 Clear 4 1025 63 10000 4.12 330 14:30 08.12.2022
731 Clear 4 1025 58 10000 3.09 180 12:28 08.12.2022
732 Clear 5 1024 56 10000 4.12 220 10:36 08.12.2022
733 Clear 6 1024 54 10000 3.6 200 09:28 08.12.2022
734 Clouds 7 1023 50 10000 3.6 180 06:51 08.12.2022
735 Clouds 13 1019 41 10000 5.66 330 22:43 07.12.2022
736 Clouds 13 1019 40 10000 5.66 330 22:18 07.12.2022
737 Clouds 14 1019 39 10000 6.17 210 21:45 07.12.2022
738 Clouds 12 1020 46 10000 4.12 230 19:49 07.12.2022
739 Clouds 8 1019 56 10000 5.14 220 17:51 07.12.2022
740 Clouds 6 1018 63 10000 4.12 200 15:30 07.12.2022
741 Clouds 6 1017 63 10000 3.6 220 13:26 07.12.2022
742 Clouds 7 1017 61 10000 3.6 180 10:49 07.12.2022
743 Clouds 7 1016 60 10000 0.79 290 09:58 07.12.2022
744 Clouds 7 1017 60 10000 1.54 220 08:55 07.12.2022
745 Clouds 9 1016 54 10000 3.09 60 06:50 07.12.2022
746 Clouds 10 1016 49 10000 3.09 40 05:23 07.12.2022
747 Clouds 14 1015 42 10000 3.09 140 23:44 06.12.2022
748 Clouds 14 1016 45 10000 2.57 100 21:31 06.12.2022
749 Clouds 12 1015 45 10000 0.6 126 18:59 06.12.2022
750 Clouds 8 1016 54 10000 3.09 210 17:18 06.12.2022
751 Clouds 6 1015 58 10000 3.6 320 16:23 06.12.2022
752 Clouds 6 1015 57 10000 4.12 200 15:35 06.12.2022
753 Clouds 6 1014 58 10000 5.14 210 14:35 06.12.2022
754 Clouds 7 1014 55 10000 4.63 200 13:39 06.12.2022
755 Clouds 7 1014 55 10000 4.63 200 13:39 06.12.2022
756 Clear 7 1014 56 10000 5.14 210 12:40 06.12.2022
757 Clouds 8 1013 54 10000 4.12 220 10:39 06.12.2022
758 Clouds 10 1013 49 10000 5.66 190 07:38 06.12.2022
759 Clouds 14 1011 41 10000 6.17 210 02:22 06.12.2022
760 Clouds 17 1012 38 10000 7.72 220 22:37 05.12.2022
761 Clouds 16 1013 41 10000 7.2 240 21:39 05.12.2022
762 Clouds 15 1014 51 10000 6.69 200 20:48 05.12.2022
763 Clouds 14 1015 58 10000 6.17 220 19:51 05.12.2022
764 Clouds 13 1015 58 10000 6.17 220 19:32 05.12.2022
765 Clouds 11 1015 73 10000 5.66 150 16:49 05.12.2022
766 Clouds 11 1014 71 10000 7.72 190 15:28 05.12.2022
767 Clouds 12 1013 62 10000 8.23 190 13:44 05.12.2022
768 Clouds 12 1013 55 10000 1.96 201 12:57 05.12.2022
769 Clouds 12 1013 59 10000 7.72 200 12:37 05.12.2022
770 Clouds 13 1013 54 10000 3.01 204 11:00 05.12.2022
771 Clouds 15 1015 52 10000 6.69 190 06:38 05.12.2022
772 Clouds 19 1013 38 10000 4.63 216 23:56 04.12.2022
773 Clouds 18 1016 41 10000 7.72 200 22:41 04.12.2022
774 Clouds 18 1016 40 10000 7.72 200 22:18 04.12.2022
775 Clouds 15 1017 47 10000 4.12 110 21:30 04.12.2022
776 Clouds 14 1020 48 10000 2.57 130 19:49 04.12.2022
777 Clouds 13 1020 50 10000 2.57 130 19:23 04.12.2022
778 Clouds 11 1019 55 10000 1.13 129 17:58 04.12.2022
779 Clouds 10 1020 60 10000 2.57 220 17:21 04.12.2022
780 Clouds 8 1020 65 10000 3.6 170 16:36 04.12.2022
781 Clouds 8 1020 66 10000 3.6 170 16:18 04.12.2022
782 Clouds 7 1020 65 10000 1.54 220 15:26 04.12.2022
783 Clouds 8 1020 62 10000 2.06 150 13:51 04.12.2022
784 Clouds 8 1020 62 10000 2.06 80 12:46 04.12.2022
785 Clouds 8 1020 62 10000 2.06 80 12:21 04.12.2022
786 Clouds 8 1020 61 10000 4.12 50 11:19 04.12.2022
787 Clouds 11 1020 52 10000 4.63 50 07:34 04.12.2022
788 Clouds 15 1020 40 10000 4.12 80 02:24 04.12.2022
789 Clouds 17 1020 36 10000 4.12 130 23:43 03.12.2022
790 Clouds 17 1020 36 10000 3.6 160 22:24 03.12.2022
791 Clouds 17 1021 36 10000 3.6 50 21:45 03.12.2022
792 Clouds 15 1022 38 10000 5.66 70 20:36 03.12.2022
793 Clouds 12 1023 44 10000 2.06 150 18:40 03.12.2022
794 Clouds 10 1022 51 10000 3.09 160 17:30 03.12.2022
795 Clouds 9 1022 56 10000 2.57 170 15:49 03.12.2022
796 Clouds 9 1020 55 10000 0.9 8 12:56 03.12.2022
797 Clouds 10 1021 56 10000 3.6 100 12:28 03.12.2022
798 Clouds 11 1021 52 10000 3.09 190 10:30 03.12.2022
799 Clouds 11 1020 51 10000 0.45 172 07:58 03.12.2022
800 Clouds 15 1020 40 10000 2.06 130 01:31 03.12.2022
801 Clouds 17 1019 37 10000 3.6 50 23:25 02.12.2022
802 Clouds 16 1020 38 10000 3.6 350 21:34 02.12.2022
803 Clouds 15 1020 42 10000 5.66 340 19:34 02.12.2022
804 Clouds 11 1016 54 10000 8.23 210 16:19 02.12.2022
805 Clouds 11 1013 50 10000 9.26 180 14:48 02.12.2022
806 Clouds 12 1013 50 10000 9.26 180 14:27 02.12.2022
807 Clouds 12 1012 49 10000 13.89 220 13:41 02.12.2022
808 Clouds 13 1011 49 10000 14.4 200 11:47 02.12.2022
809 Clouds 12 1011 48 10000 9.77 190 09:52 02.12.2022
810 Clouds 13 1011 37 10000 11.32 210 07:25 02.12.2022
811 Clouds 13 1010 43 10000 4.24 186 05:58 02.12.2022
812 Clouds 16 1011 33 10000 8.75 180 22:40 01.12.2022
813 Clouds 15 1012 33 10000 7.72 200 21:40 01.12.2022
814 Clear 14 1013 36 10000 8.23 190 20:32 01.12.2022
815 Clouds 10 1013 41 10000 2.7 157 18:57 01.12.2022
816 Clouds 4 1014 49 10000 3.6 180 16:25 01.12.2022
817 Clouds 4 1013 44 10000 2.57 260 13:41 01.12.2022
818 Clouds 5 1014 40 10000 3.09 170 10:42 01.12.2022
819 Clouds 5 1015 39 10000 2.57 190 09:54 01.12.2022
820 Clouds 5 1015 38 10000 2.57 280 09:36 01.12.2022
821 Clouds 7 1015 32 10000 3.6 170 05:45 01.12.2022
822 Clouds 13 1016 21 10000 2.57 90 22:40 30.11.2022
823 Clouds 12 1017 22 10000 3.6 120 21:20 30.11.2022
824 Clouds 11 1018 24 10000 2.57 120 20:48 30.11.2022
825 Clouds 11 1018 25 10000 2.57 120 20:23 30.11.2022
826 Clear 8 1019 28 10000 1.54 90 18:35 30.11.2022
827 Clear 6 1019 35 10000 3.09 160 17:39 30.11.2022
828 Clear 3 1019 41 10000 3.6 170 16:20 30.11.2022
829 Clear 3 1018 40 10000 4.12 150 14:41 30.11.2022
830 Clear 3 1018 39 10000 4.12 150 14:23 30.11.2022
831 Clear 4 1019 39 10000 2.57 190 11:35 30.11.2022
832 Clear 5 1020 36 10000 4.12 160 08:40 30.11.2022
833 Clear 5 1019 33 10000 0.93 328 07:58 30.11.2022
834 Clear 8 1018 29 10000 3.6 160 04:24 30.11.2022
835 Clouds 13 1017 23 10000 4.12 80 23:22 29.11.2022
836 Clear 13 1017 24 10000 6.69 50 21:47 29.11.2022
837 Clear 13 1018 25 10000 8.23 50 20:38 29.11.2022
838 -273 0 0 0 0 0 19:20 29.11.2022
839 Clear 9 1015 35 10000 6.69 50 17:36 29.11.2022
840 Clear 7 1014 38 10000 7.2 60 16:27 29.11.2022
841 Clear 7 1011 47 10000 3.09 20 14:51 29.11.2022
842 Clear 7 1010 47 10000 2.57 180 13:36 29.11.2022
843 Clear 8 1008 46 10000 5.66 220 12:22 29.11.2022
844 Clear 8 1008 44 10000 4.12 200 11:24 29.11.2022
845 Clear 8 1007 44 10000 8.75 210 10:22 29.11.2022
846 Dust 10 1006 41 10000 7.2 200 08:42 29.11.2022
847 Clear 11 1005 37 10000 3.09 80 05:49 29.11.2022
848 Clouds 15 1005 28 10000 3.09 50 23:35 28.11.2022
849 Clouds 15 1004 31 10000 3.25 239 22:57 28.11.2022
850 Clear 15 1007 32 10000 4.12 10 21:54 28.11.2022
851 Clear 14 1007 32 10000 4.12 10 21:36 28.11.2022
852 Clouds 11 1010 39 10000 2.06 20 19:41 28.11.2022
853 Clouds 9 1010 42 10000 1.54 180 18:30 28.11.2022
854 Clouds 8 1011 45 10000 2.06 160 17:51 28.11.2022
855 Clouds 7 1011 49 10000 4.63 80 16:35 28.11.2022
856 Haze 6 1011 48 10000 3.6 60 14:28 28.11.2022
857 Haze 6 1012 48 10000 2.57 180 13:52 28.11.2022
858 Smoke 7 1012 47 10000 2.57 170 12:42 28.11.2022
859 Smoke 7 1014 46 10000 2.57 170 10:22 28.11.2022
860 Clouds 8 1016 43 10000 2.57 160 07:27 28.11.2022
861 Clouds 10 1016 40 10000 4.63 50 04:43 28.11.2022
862 Clouds 10 1017 41 10000 0.89 292 03:59 28.11.2022
863 Clouds 10 1017 38 10000 4.12 50 03:18 28.11.2022
864 Clouds 15 1019 30 10000 1.54 0 22:47 27.11.2022
865 Clouds 15 1020 31 10000 2.06 140 21:42 27.11.2022
866 Clouds 14 1021 32 10000 2.57 30 20:26 27.11.2022
867 Clear 9 1022 42 10000 1.54 180 17:49 27.11.2022
868 Clear 5 1021 48 10000 3.6 280 15:20 27.11.2022
869 Clear 7 1021 42 10000 2.57 340 12:32 27.11.2022
870 Clear 8 1021 39 10000 6.17 330 10:50 27.11.2022
871 Clear 10 1020 32 10000 4.63 360 08:19 27.11.2022
872 Clouds 14 1017 22 10000 3.09 70 00:49 27.11.2022
873 Clear 14 1019 22 10000 2.06 80 22:25 26.11.2022
874 Clouds 14 1020 21 10000 2.06 70 20:51 26.11.2022
875 Clouds 13 1021 21 10000 0.45 86 19:26 26.11.2022
876 Clouds 9 1021 27 10000 3.09 160 17:29 26.11.2022
877 Clear 5 1021 32 10000 2.06 190 15:47 26.11.2022
878 Clear 5 1021 29 10000 4.63 180 13:33 26.11.2022
879 Clear 6 1022 28 10000 3.6 290 11:36 26.11.2022
880 Clear 7 1023 27 10000 3.09 170 09:45 26.11.2022
881 Clear 8 1024 27 10000 3.09 290 08:49 26.11.2022
882 Clouds 15 1024 16 10000 0 0 01:30 26.11.2022
883 Clear 16 1027 16 10000 2.06 0 21:42 25.11.2022
884 Clear 15 1028 17 10000 2.06 0 21:21 25.11.2022
885 Clear 14 1030 20 10000 0.45 131 19:56 25.11.2022
886 Clear 7 1030 29 10000 4.12 210 16:46 25.11.2022
887 Clear 5 1030 32 10000 3.6 170 13:51 25.11.2022
888 Clear 8 1031 31 10000 3.09 30 09:21 25.11.2022
889 Clear 9 1031 28 10000 3.09 290 08:40 25.11.2022
890 Clouds 9 1031 29 10000 3.09 70 06:53 25.11.2022
891 Clouds 13 1029 20 10000 4.12 340 03:35 25.11.2022
892 Clouds 17 1028 17 10000 8.23 30 23:49 24.11.2022
893 Clouds 17 1029 18 10000 8.75 50 22:50 24.11.2022
894 Clouds 17 1027 21 10000 6.79 16 21:58 24.11.2022
895 Clouds 15 1031 22 10000 10.29 20 19:53 24.11.2022
896 Clouds 13 1031 23 10000 8.23 20 18:18 24.11.2022
897 Clouds 12 1030 24 10000 11.83 40 17:38 24.11.2022
898 Clouds 12 1030 24 10000 11.83 40 17:19 24.11.2022
899 Clear 10 1028 23 10000 7.72 330 14:36 24.11.2022
900 Clear 11 1027 22 10000 8.75 330 13:42 24.11.2022
901 Clear 11 1027 20 10000 7.2 360 11:54 24.11.2022
902 Clear 12 1026 20 10000 7.2 360 10:34 24.11.2022
903 Clouds 13 1024 20 10000 4.63 350 07:44 24.11.2022
904 Clouds 16 1019 22 10000 1.29 314 01:56 24.11.2022
905 Clouds 20 1019 15 10000 9.26 340 23:32 23.11.2022
906 Clouds 18 1020 16 10000 2.06 290 21:55 23.11.2022
907 Clouds 17 1020 17 10000 2.06 290 21:19 23.11.2022
908 Clouds 16 1021 20 10000 1.34 138 19:57 23.11.2022
909 Clouds 14 1022 22 10000 0.89 147 18:58 23.11.2022
910 Clouds 11 1021 24 10000 1.54 0 18:20 23.11.2022
911 Clouds 6 1020 32 10000 3.6 210 15:55 23.11.2022
912 Clouds 6 1019 29 10000 4.12 170 13:25 23.11.2022
913 Clouds 6 1019 29 10000 5.14 180 12:48 23.11.2022
914 Clouds 7 1020 28 10000 4.12 200 11:53 23.11.2022
915 Clear 7 1018 27 10000 0.17 279 10:59 23.11.2022
916 Clouds 7 1020 26 10000 5.14 210 10:40 23.11.2022
917 Clouds 7 1020 26 10000 4.63 200 09:41 23.11.2022
918 Clouds 7 1020 26 10000 4.63 200 09:22 23.11.2022
919 Clouds 8 1020 25 10000 5.14 200 08:36 23.11.2022
920 Clouds 9 1020 26 10000 3.6 310 05:21 23.11.2022
921 Clouds 12 1019 23 10000 1.54 140 02:36 23.11.2022
922 Clouds 17 1021 16 10000 2.06 40 22:38 22.11.2022
923 Clear 16 1021 17 10000 1.54 360 21:52 22.11.2022
924 Clear 16 1021 17 10000 1.54 360 21:32 22.11.2022
925 Clear 15 1022 19 10000 2.06 360 20:45 22.11.2022
926 Clouds 13 1023 20 10000 2.06 90 19:52 22.11.2022
927 Clouds 10 1023 25 10000 3.6 180 17:54 22.11.2022
928 Clouds 5 1023 32 10000 3.6 190 16:48 22.11.2022
929 Clouds 6 1022 29 10000 3.09 180 14:55 22.11.2022
930 Clouds 5 1022 30 10000 3.09 320 13:21 22.11.2022
931 Clouds 6 1022 27 10000 3.09 190 10:23 22.11.2022
932 Clouds 8 1021 25 10000 1.2 332 08:59 22.11.2022
933 Clouds 8 1023 27 10000 4.63 160 06:45 22.11.2022
934 Clouds 14 1022 18 10000 1.54 190 01:35 22.11.2022
935 Clouds 16 1023 16 10000 2.06 40 23:28 21.11.2022
936 Clouds 16 1023 17 10000 3.6 10 22:26 21.11.2022
937 Clouds 15 1024 17 10000 2.06 50 21:33 21.11.2022
938 Clouds 14 1025 18 10000 2.06 0 20:35 21.11.2022
939 Clouds 13 1025 19 10000 1.54 90 19:40 21.11.2022
940 Clouds 11 1026 21 10000 2.06 140 18:52 21.11.2022
941 Clouds 9 1026 25 10000 2.06 200 17:45 21.11.2022
942 Clouds 4 1025 31 10000 2.06 290 16:44 21.11.2022
943 Clouds 4 1025 31 10000 2.06 290 16:23 21.11.2022
944 Clouds 4 1024 31 10000 3.6 180 15:24 21.11.2022
945 Clouds 5 1024 29 10000 4.12 180 13:54 21.11.2022
946 Clouds 4 1024 29 10000 4.12 180 13:27 21.11.2022
947 Clouds 6 1024 26 10000 3.6 180 10:19 21.11.2022
948 Clouds 7 1024 24 10000 4.12 190 08:19 21.11.2022
949 Haze 15 1024 13 10000 1.54 360 00:50 21.11.2022
950 Clear 15 1026 18 10000 0.89 98 21:59 20.11.2022
951 Clear 14 1027 18 10000 2.57 10 20:48 20.11.2022
952 Clear 13 1029 19 10000 0.45 158 19:57 20.11.2022
953 Clear 8 1029 23 10000 2.06 300 17:43 20.11.2022
954 Clear 3 1027 30 10000 3.09 290 15:50 20.11.2022
955 Clear 3 1027 30 10000 3.09 290 15:23 20.11.2022
956 Clear 3 1027 30 10000 3.6 300 14:18 20.11.2022
957 Clear 3 1026 29 10000 4.12 290 13:32 20.11.2022
958 Clear 3 1026 29 10000 4.12 290 13:32 20.11.2022
959 Clear 4 1026 28 10000 4.12 290 13:32 20.11.2022
960 Clear 4 1026 28 10000 2.06 250 12:23 20.11.2022
961 Clear 4 1026 28 10000 1.39 350 10:58 20.11.2022
962 Clear 4 1026 28 10000 1.39 350 10:58 20.11.2022
963 Clear 5 1026 27 10000 3.09 320 09:44 20.11.2022
964 Clear 5 1027 28 10000 2.57 160 08:55 20.11.2022
965 Clear 5 1026 27 10000 4.12 70 08:32 20.11.2022
966 Clear 6 1026 23 10000 5.14 60 07:26 20.11.2022
967 Clear 13 1024 16 10000 8.75 40 01:29 20.11.2022
968 Clear 13 1025 16 10000 7.72 40 00:55 20.11.2022
969 Clear 14 1024 15 10000 7.72 40 00:36 20.11.2022
970 Clear 14 1024 15 10000 8.23 40 00:18 20.11.2022
971 Clear 14 1024 16 10000 8.23 30 23:26 19.11.2022
972 Clear 14 1024 16 10000 8.23 30 23:26 19.11.2022
973 Clear 14 1025 16 10000 7.72 40 22:48 19.11.2022
974 Clear 13 1024 20 10000 4.65 19 21:57 19.11.2022
975 Clear 13 1026 18 10000 8.23 40 21:25 19.11.2022
976 Clear 12 1027 18 10000 6.69 330 20:41 19.11.2022
977 Clear 11 1027 18 10000 7.72 340 19:51 19.11.2022
978 Clear 10 1027 21 10000 6.69 10 18:53 19.11.2022
979 Clear 8 1027 21 10000 8.23 330 17:38 19.11.2022
980 Clear 7 1027 22 10000 8.23 330 17:18 19.11.2022
981 Clear 6 1025 27 10000 8.23 340 14:54 19.11.2022
982 Clear 6 1024 30 10000 8.23 350 13:29 19.11.2022
983 Clear 6 1024 32 10000 8.23 340 11:54 19.11.2022
984 Clear 8 1023 27 10000 7.2 340 09:45 19.11.2022
985 Clear 9 1022 29 10000 6.69 50 07:52 19.11.2022
986 Clear 11 1020 29 10000 9.77 40 04:45 19.11.2022
987 Clouds 15 1017 22 10000 6.17 30 00:48 19.11.2022
988 Clouds 15 1018 22 10000 6.69 10 23:34 18.11.2022
989 Clouds 15 1018 22 10000 6.69 10 23:34 18.11.2022
990 Clouds 15 1018 24 10000 5.66 50 22:23 18.11.2022
991 Clouds 14 1018 25 10000 6.69 50 21:35 18.11.2022
992 Clouds 13 1019 28 10000 0.89 132 20:57 18.11.2022
993 Clouds 13 1019 26 10000 2.06 40 20:21 18.11.2022
994 Clouds 12 1020 29 10000 5.14 50 19:36 18.11.2022
995 Clouds 9 1019 33 10000 2.06 20 17:45 18.11.2022
996 Clouds 7 1018 37 10000 1.53 349 15:59 18.11.2022
997 Clouds 6 1018 36 10000 3.6 190 11:52 18.11.2022
998 Clouds 7 1018 34 10000 5.14 200 10:22 18.11.2022
999 Clouds 7 1018 34 10000 5.14 200 10:22 18.11.2022
1000 Clouds 8 1020 33 10000 3.09 180 07:52 18.11.2022
1001 Clouds 10 1020 30 10000 3.6 170 05:27 18.11.2022
1002 Clouds 12 1021 27 10000 0 0 02:40 18.11.2022
1003 Clouds 15 1023 22 10000 2.06 360 23:29 17.11.2022
1004 Clouds 14 1027 25 10000 2.06 100 20:48 17.11.2022
1005 Clouds 13 1028 26 10000 1.54 0 19:54 17.11.2022
1006 Clouds 12 1028 27 10000 1.54 0 19:25 17.11.2022
1007 Clouds 11 1028 29 10000 1.54 270 18:27 17.11.2022
1008 Clouds 8 1028 34 10000 3.09 330 17:30 17.11.2022
1009 Clear 4 1028 41 10000 3.09 200 15:45 17.11.2022
1010 Clear 5 1029 42 10000 3.09 160 12:19 17.11.2022
1011 Clear 5 1029 39 10000 4.63 160 10:30 17.11.2022
1012 Clear 7 1030 36 10000 3.09 160 07:20 17.11.2022
1013 Clear 15 1030 20 10000 5.66 60 00:54 17.11.2022
1014 Clear 15 1030 18 10000 7.2 50 23:21 16.11.2022
1015 Clear 14 1032 19 10000 8.75 30 21:54 16.11.2022
1016 Clear 14 1033 19 10000 6.69 30 20:31 16.11.2022
1017 Clear 11 1034 19 10000 7.2 20 18:48 16.11.2022
1018 Clear 11 1034 20 10000 7.2 20 18:27 16.11.2022
1019 Clear 6 1033 26 10000 7.72 340 15:35 16.11.2022
1020 Clear 7 1033 26 10000 3.58 24 10:56 16.11.2022
1021 Clear 9 1029 23 10000 9.26 20 06:54 16.11.2022
1022 Clouds 13 1026 22 10000 7.72 20 01:38 16.11.2022
1023 Clouds 15 1025 20 10000 9.39 50 23:31 15.11.2022
1024 Clouds 14 1025 23 10000 7.72 30 21:28 15.11.2022
1025 Clouds 12 1027 28 10000 8.23 40 19:47 15.11.2022
1026 Clouds 10 1027 33 10000 7.2 60 18:51 15.11.2022
1027 Clouds 8 1027 40 10000 5.66 60 17:36 15.11.2022
1028 Clouds 5 1026 48 10000 3.6 340 16:20 15.11.2022
1029 Clouds 5 1025 51 10000 3.6 360 15:35 15.11.2022
1030 Clouds 5 1024 47 10000 4.63 30 13:43 15.11.2022
1031 Clouds 5 1023 45 10000 4.63 70 12:54 15.11.2022
1032 Clouds 6 1023 43 10000 6.69 20 11:21 15.11.2022
1033 Clouds 7 1023 41 10000 6.69 60 09:38 15.11.2022
1034 Clear 14 1021 26 10000 4.12 40 00:42 15.11.2022
1035 Clear 14 1021 26 10000 3.6 20 00:22 15.11.2022
1036 Clear 13 1023 27 10000 5.66 40 21:52 14.11.2022
1037 Clear 13 1024 29 10000 6.69 50 20:44 14.11.2022
1038 Clear 11 1024 32 10000 4.12 50 19:42 14.11.2022
1039 Clear 10 1024 36 10000 3.13 90 18:25 14.11.2022
1040 Clouds 7 1020 48 10000 2.57 70 12:55 14.11.2022
1041 Clouds 7 1020 48 10000 2.57 70 12:55 14.11.2022
1042 Clear 7 1020 46 10000 2.57 90 11:46 14.11.2022
1043 Clear 7 1020 49 10000 0.45 99 10:57 14.11.2022
1044 Clear 8 1019 48 10000 4.12 50 08:30 14.11.2022
1045 Clear 8 1018 46 10000 2.68 20 07:52 14.11.2022
1046 Clouds 13 1015 32 10000 7.2 320 01:24 14.11.2022
1047 Clouds 14 1014 33 10000 9.26 320 22:47 13.11.2022
1048 Clouds 13 1014 33 10000 11.32 330 21:40 13.11.2022
1049 Clouds 13 1015 34 10000 10.8 320 20:45 13.11.2022
1050 Clouds 11 1013 32 10000 5.66 320 18:36 13.11.2022
1051 Clouds 10 1013 38 10000 5.66 330 17:49 13.11.2022
1052 Clouds 7 1012 43 10000 5.66 320 15:40 13.11.2022
1053 Clear 7 1012 44 10000 4.63 330 14:30 13.11.2022
1054 Clear 7 1012 43 10000 3.6 180 12:55 13.11.2022
1055 Clear 8 1012 42 10000 2.57 280 11:34 13.11.2022
1056 Clear 8 1012 40 10000 3.6 330 10:28 13.11.2022
1057 Clear 10 1013 34 10000 4.12 70 05:52 13.11.2022
1058 Clouds 16 1015 22 10000 3.6 120 23:44 12.11.2022
1059 Clear 14 1017 24 10000 4.63 70 21:24 12.11.2022
1060 Clear 13 1019 26 10000 4.12 40 20:25 12.11.2022
1061 Clear 12 1020 29 10000 1.34 107 18:57 12.11.2022
1062 Clouds 6 1020 41 10000 4.12 160 16:52 12.11.2022
1063 Clouds 3 1019 48 10000 4.12 150 15:37 12.11.2022
1064 Clouds 4 1019 42 10000 3.09 160 13:32 12.11.2022
1065 Clouds 7 1020 36 10000 2.57 210 09:35 12.11.2022
1066 Clouds 7 1021 35 10000 3.6 150 07:47 12.11.2022
1067 Clouds 13 1021 20 10000 4.63 50 23:37 11.11.2022
1068 Clouds 13 1023 26 10000 1.34 63 20:56 11.11.2022
1069 Clouds 12 1023 25 10000 5.66 40 20:28 11.11.2022
1070 Clouds 11 1024 27 10000 7.2 50 19:26 11.11.2022
1071 Clouds 9 1024 30 10000 6.17 340 18:32 11.11.2022
1072 Clouds 8 1024 35 10000 6.17 330 17:40 11.11.2022
1073 Clear 6 1023 39 10000 4.63 60 14:31 11.11.2022
1074 Clear 6 1023 39 10000 4.12 40 13:42 11.11.2022
1075 Clear 6 1023 41 10000 3.6 50 12:18 11.11.2022
1076 Clear 8 1021 36 10000 2.76 11 08:57 11.11.2022
1077 Clear 9 1022 32 10000 7.2 70 08:25 11.11.2022
1078 Clouds 15 1020 20 10000 5.14 30 00:31 11.11.2022
1079 Clouds 15 1020 24 10000 3.09 310 22:51 10.11.2022
1080 Clear 14 1021 25 10000 5.14 350 21:44 10.11.2022
1081 Clear 14 1021 25 10000 5.14 350 21:25 10.11.2022
1082 Clear 13 1022 27 10000 6.69 320 20:24 10.11.2022
1083 Clear 13 1021 31 10000 3.23 7 19:56 10.11.2022
1084 Clear 12 1022 33 10000 8.23 340 18:45 10.11.2022
1085 Clear 8 1021 48 10000 6.17 340 16:27 10.11.2022
1086 Clear 7 1021 52 10000 5.66 330 15:24 10.11.2022
1087 Clear 7 1020 50 10000 5.14 340 13:34 10.11.2022
1088 Clear 10 1020 45 10000 5.14 320 09:30 10.11.2022
1089 Clear 9 1020 45 10000 3.6 330 07:21 10.11.2022
1090 Clear 14 1015 33 10000 0.89 230 00:57 10.11.2022
1091 Clear 15 1014 34 10000 0.89 355 22:58 09.11.2022
1092 Clouds 14 1014 33 10000 8.75 240 21:32 09.11.2022
1093 Clouds 14 1014 35 10000 7.72 240 20:41 09.11.2022
1094 Clouds 14 1014 35 10000 7.72 240 20:22 09.11.2022
1095 Clouds 13 1013 39 10000 6.69 220 19:25 09.11.2022
1096 Clouds 11 1012 45 10000 10.8 200 17:45 09.11.2022
1097 Clouds 9 1009 60 10000 3.58 226 14:57 09.11.2022
1098 Clouds 9 1009 60 10000 9.26 210 14:27 09.11.2022
1099 Clouds 10 1009 59 10000 1.34 157 13:58 09.11.2022
1100 Clouds 10 1009 57 10000 10.29 210 12:53 09.11.2022
1101 Clouds 11 1007 58 10000 11.32 220 09:29 09.11.2022
1102 Clouds 11 1006 62 10000 12.86 210 07:47 09.11.2022
1103 Clouds 12 1005 67 10000 9.26 230 06:33 09.11.2022
1104 Clouds 18 1005 55 10000 13.38 180 22:38 08.11.2022
1105 Clouds 18 1006 51 10000 13.89 170 21:40 08.11.2022
1106 Clouds 18 1007 51 10000 11.83 160 20:54 08.11.2022
1107 Clouds 18 1008 51 10000 11.83 160 20:18 08.11.2022
1108 Clouds 17 1009 48 10000 9.26 170 19:28 08.11.2022
1109 Clouds 15 1011 48 10000 5.66 180 17:37 08.11.2022
1110 Clouds 13 1011 49 10000 3.09 180 15:32 08.11.2022
1111 Clouds 13 1011 47 10000 6.17 180 14:36 08.11.2022
1112 Clouds 14 1011 43 10000 6.17 200 13:29 08.11.2022
1113 Clouds 15 1011 43 10000 6.69 190 11:21 08.11.2022
1114 Clouds 18 1010 50 10000 6.69 200 07:43 08.11.2022
1115 Clouds 19 1009 42 10000 9.77 180 05:27 08.11.2022
1116 Clouds 22 1006 38 10000 3.13 130 22:58 07.11.2022
1117 Clouds 22 1009 32 10000 10.8 210 21:42 07.11.2022
1118 Clouds 22 1010 32 10000 13.38 220 20:48 07.11.2022
1119 Clouds 20 1011 37 10000 13.38 190 19:40 07.11.2022
1120 Clouds 17 1011 46 10000 7.72 200 17:41 07.11.2022
1121 Clouds 15 1010 49 10000 7.72 210 15:38 07.11.2022
1122 Clear 15 1009 47 10000 3.92 200 14:57 07.11.2022
1123 Clouds 17 1009 40 10000 9.77 190 13:33 07.11.2022
1124 Clouds 16 1009 36 10000 8.23 170 12:24 07.11.2022
1125 Clouds 17 1009 32 10000 6.17 140 10:45 07.11.2022
1126 Clouds 18 1009 29 10000 8.75 140 08:31 07.11.2022
1127 Clouds 19 1009 31 10000 8.75 140 06:33 07.11.2022
1128 Clouds 21 1008 25 10000 4.63 120 01:48 07.11.2022
1129 Clouds 21 1009 24 10000 3.6 110 23:33 06.11.2022
1130 Clouds 19 1011 26 10000 4.63 70 21:22 06.11.2022
1131 Clouds 17 1012 27 10000 3.6 20 20:48 06.11.2022
1132 Clear 17 1013 30 10000 1.34 146 19:56 06.11.2022
1133 Clear 16 1013 29 10000 3.6 110 19:24 06.11.2022
1134 Clouds 14 1013 31 10000 1.54 160 18:20 06.11.2022
1135 Clouds 13 1013 34 10000 2.06 200 17:23 06.11.2022
1136 Clear 13 1013 36 10000 1.01 67 16:58 06.11.2022
1137 Clouds 9 1013 40 10000 3.09 170 16:18 06.11.2022
1138 Clouds 8 1012 42 10000 3.6 90 14:45 06.11.2022
1139 Clouds 9 1012 41 10000 4.12 160 12:44 06.11.2022
1140 Clear 9 1012 39 10000 3.6 190 10:55 06.11.2022
1141 Clear 10 1012 38 10000 5.66 70 09:51 06.11.2022
1142 Clear 11 1013 35 10000 4.63 70 07:39 06.11.2022
1143 Clouds 17 1013 24 10000 2.06 170 23:23 05.11.2022
1144 Clouds 15 1017 26 10000 3.09 50 20:40 05.11.2022
1145 Clouds 12 1018 30 10000 2.06 300 18:22 05.11.2022
1146 Clouds 8 1018 39 10000 2.06 200 16:26 05.11.2022
1147 Clouds 6 1019 40 10000 3.6 60 14:34 05.11.2022
1148 Clouds 7 1019 39 10000 2.57 170 13:29 05.11.2022
1149 Clouds 8 1021 34 10000 2.06 340 10:43 05.11.2022
1150 Clouds 9 1022 33 10000 3.09 290 08:49 05.11.2022
1151 Clouds 10 1022 32 10000 3.6 170 07:22 05.11.2022
1152 Clouds 10 1022 31 10000 3.09 190 06:54 05.11.2022
1153 Clouds 16 1023 19 10000 3.09 140 23:36 04.11.2022
1154 Clouds 16 1023 19 10000 3.09 140 23:18 04.11.2022
1155 Clouds 14 1025 22 10000 4.12 50 20:31 04.11.2022
1156 Clouds 14 1025 22 10000 4.12 50 20:30 04.11.2022
1157 Clouds 13 1026 24 10000 5.14 280 19:24 04.11.2022
1158 Clouds 9 1026 32 10000 4.12 310 17:23 04.11.2022
1159 Clouds 7 1023 35 10000 6.69 350 13:52 04.11.2022
1160 Smoke 8 1023 32 10000 5.14 360 12:27 04.11.2022
1161 Clear 9 1022 31 10000 7.2 330 10:40 04.11.2022
1162 Clear 9 1021 34 10000 4.63 340 08:53 04.11.2022
1163 Clear 8 1021 43 10000 3.13 10 07:43 04.11.2022
1164 Clouds 8 1019 54 10000 2.57 160 05:20 04.11.2022
1165 Clouds 13 1014 35 10000 7.72 340 23:26 03.11.2022
1166 Clouds 12 1014 42 10000 9.26 340 20:51 03.11.2022
1167 Clouds 11 1014 48 10000 9.26 340 20:22 03.11.2022
1168 Clouds 10 1013 54 10000 6.69 340 19:27 03.11.2022
1169 Clouds 9 1012 59 10000 6.69 340 17:49 03.11.2022
1170 Clouds 8 1012 59 10000 10.29 320 16:52 03.11.2022
1171 Clouds 8 1010 54 10000 11.32 290 14:19 03.11.2022
1172 Clouds 9 1010 43 10000 8.75 330 12:39 03.11.2022
1173 Clouds 9 1009 40 10000 7.72 220 11:47 03.11.2022
1174 Clouds 10 1009 34 10000 7.72 200 09:25 03.11.2022
1175 Clouds 10 1010 32 10000 6.71 200 07:43 03.11.2022
1176 Clouds 17 1011 34 10000 12.35 200 21:30 02.11.2022
1177 Clouds 16 1012 41 10000 10.29 210 20:39 02.11.2022
1178 Clouds 16 1010 46 10000 4.47 205 19:56 02.11.2022
1179 Clouds 15 1011 45 10000 10.29 220 16:51 02.11.2022
1180 Clouds 15 1010 46 10000 10.29 230 15:50 02.11.2022
1181 Clouds 15 1010 47 10000 10.29 220 14:32 02.11.2022
1182 Clouds 16 1009 47 10000 8.94 230 12:44 02.11.2022
1183 Clouds 16 1010 41 10000 8.75 200 11:25 02.11.2022
1184 Clouds 18 1008 35 10000 6.69 180 08:51 02.11.2022
1185 Clouds 21 1008 22 10000 10.29 180 05:30 02.11.2022
1186 Clouds 26 1007 13 10000 10.8 190 00:21 02.11.2022
1187 Clouds 26 1008 13 10000 10.29 210 22:19 01.11.2022
1188 Clouds 25 1009 14 10000 9.77 220 21:37 01.11.2022
1189 Clouds 24 1011 17 10000 6.69 220 20:26 01.11.2022
1190 Clouds 22 1012 20 10000 2.68 90 19:42 01.11.2022
1191 Clouds 20 1012 23 10000 2.06 100 18:36 01.11.2022
1192 Clouds 18 1012 26 10000 3.6 80 17:28 01.11.2022
1193 Clouds 15 1012 30 10000 2.24 270 16:18 01.11.2022
1194 Clouds 15 1011 30 10000 4.63 40 14:20 01.11.2022
1195 Clouds 15 1011 28 10000 2.57 280 12:27 01.11.2022
1196 Clouds 15 1011 27 10000 3.6 170 11:23 01.11.2022
1197 Clouds 16 1012 26 10000 2.24 230 09:54 01.11.2022
1198 Clouds 16 1012 26 10000 2.57 200 08:38 01.11.2022
1199 Clouds 17 1013 24 10000 4.12 200 07:29 01.11.2022
1200 Clouds 17 1013 23 10000 3.09 160 06:47 01.11.2022
1201 Clouds 17 1012 26 10000 0.45 285 05:56 01.11.2022
1202 Clouds 19 1012 22 10000 3.09 80 03:32 01.11.2022
1203 Clouds 23 1015 17 10000 3.6 70 21:46 31.10.2022
1204 Clouds 22 1016 18 10000 5.14 80 20:30 31.10.2022
1205 Clouds 19 1017 20 10000 2.06 90 18:50 31.10.2022
1206 Clouds 16 1018 24 10000 3.13 230 17:26 31.10.2022
1207 Clouds 14 1017 30 10000 2.57 300 16:39 31.10.2022
1208 Clear 12 1017 29 10000 2.57 190 13:23 31.10.2022
1209 Clear 14 1017 26 10000 4.12 160 10:20 31.10.2022
1210 Clear 15 1017 24 10000 4.12 160 08:37 31.10.2022
1211 Clouds 18 1016 20 10000 3.6 310 04:48 31.10.2022
1212 Clouds 22 1016 16 10000 3.09 30 02:20 31.10.2022
1213 Clouds 25 1016 14 10000 4.63 10 23:18 30.10.2022
1214 Clear 23 1019 15 10000 7.2 10 20:49 30.10.2022
1215 Clear 22 1019 15 10000 7.2 10 20:21 30.10.2022
1216 Clear 19 1020 19 10000 3.6 30 18:20 30.10.2022
1217 Clouds 12 1019 23 10000 3.6 290 15:29 30.10.2022
1218 Clouds 13 1019 22 10000 2.68 200 13:52 30.10.2022
1219 Clouds 12 1019 24 10000 2.57 210 12:46 30.10.2022
1220 Clouds 13 1019 23 10000 5.14 310 11:21 30.10.2022
1221 Clouds 14 1019 21 10000 3.09 160 09:36 30.10.2022
1222 Clouds 15 1019 21 10000 4.12 320 08:25 30.10.2022
1223 Clouds 23 1019 12 10000 2.57 0 00:50 30.10.2022
1224 Clouds 23 1019 13 10000 2.57 0 00:27 30.10.2022
1225 Clouds 22 1020 14 10000 2.06 160 23:44 29.10.2022
1226 Clouds 19 1023 17 10000 1.54 0 20:54 29.10.2022
1227 Clouds 12 1022 28 10000 3.6 200 17:34 29.10.2022
1228 Clear 10 1022 25 10000 3.09 190 15:51 29.10.2022
1229 Clear 10 1022 25 10000 3.09 190 15:24 29.10.2022
1230 Clear 11 1022 25 10000 3.6 190 14:43 29.10.2022
1231 Clouds 12 1022 24 10000 4.63 330 12:34 29.10.2022
1232 Clouds 13 1022 24 10000 3.6 160 10:36 29.10.2022
1233 Clouds 14 1023 23 10000 3.6 160 07:33 29.10.2022
1234 Clear 14 1022 24 10000 3.09 160 05:55 29.10.2022
1235 Clouds 19 1022 16 10000 2.06 310 02:45 29.10.2022
1236 Clear 19 1024 17 10000 4.63 110 22:33 28.10.2022
1237 Clear 17 1026 21 10000 3.09 60 20:46 28.10.2022
1238 Clear 15 1026 25 10000 0.45 157 18:58 28.10.2022
1239 Clear 14 1026 25 10000 2.24 70 18:31 28.10.2022
1240 Clear 8 1024 33 10000 3.6 170 15:30 28.10.2022
1241 Clear 8 1024 33 10000 3.6 170 15:30 28.10.2022
1242 Clear 8 1024 34 10000 3.09 170 14:36 28.10.2022
1243 Clear 9 1023 31 10000 3.6 170 12:31 28.10.2022
1244 Clear 10 1023 29 10000 4.12 160 11:34 28.10.2022
1245 Clear 11 1023 28 10000 5.14 80 10:47 28.10.2022
1246 Clear 11 1023 26 10000 5.14 60 09:47 28.10.2022
1247 Clouds 12 1023 24 10000 4.12 10 08:21 28.10.2022
1248 Clouds 16 1020 18 10000 3.13 40 03:42 28.10.2022
1249 Clouds 19 1021 14 10000 6.69 50 23:48 27.10.2022
1250 Clouds 18 1022 15 10000 7.72 20 22:40 27.10.2022
1251 Clouds 17 1022 17 10000 8.23 40 21:35 27.10.2022
1252 Clouds 15 1022 19 10000 7.6 50 20:27 27.10.2022
1253 Clear 13 1022 23 10000 6.69 40 18:22 27.10.2022
1254 Clouds 13 1017 24 10000 3.58 67 13:58 27.10.2022
1255 Clear 17 1013 19 10000 8.75 330 09:20 27.10.2022
1256 Clouds 17 1011 23 10000 3.13 230 06:21 27.10.2022
1257 Clouds 22 1011 17 10000 2.57 0 23:55 26.10.2022
1258 Clouds 21 1013 18 10000 2.57 360 22:47 26.10.2022
1259 Clouds 21 1013 18 10000 2.57 360 22:22 26.10.2022
1260 Clouds 17 1015 23 10000 2.57 20 19:27 26.10.2022
1261 Clouds 10 1014 30 10000 3.6 190 16:35 26.10.2022
1262 Clouds 11 1014 29 10000 3.6 180 14:36 26.10.2022
1263 Clouds 12 1014 28 10000 4.12 160 12:37 26.10.2022
1264 Clouds 13 1014 26 10000 2.57 200 09:41 26.10.2022
1265 Clouds 13 1014 25 10000 3.6 170 08:53 26.10.2022
1266 Clouds 13 1014 25 10000 3.6 170 08:22 26.10.2022
1267 Clouds 20 1017 16 10000 2.06 90 00:45 26.10.2022
1268 Clouds 20 1017 16 10000 2.06 90 00:20 26.10.2022
1269 Clouds 18 1020 19 10000 2.06 0 21:47 25.10.2022
1270 Clouds 18 1020 20 10000 2.06 0 21:22 25.10.2022
1271 Smoke 15 1022 22 10000 2.24 350 19:40 25.10.2022
1272 Clear 12 1022 27 10000 3.09 170 17:51 25.10.2022
1273 Clear 9 1022 28 10000 3.6 190 14:37 25.10.2022
1274 Clear 10 1023 27 10000 3.6 200 11:38 25.10.2022
1275 Clear 10 1022 28 10000 3.09 170 10:37 25.10.2022
1276 Clear 11 1023 25 10000 3.09 180 09:44 25.10.2022
1277 Clear 11 1023 23 10000 3.6 170 08:18 25.10.2022
1278 Clear 12 1023 25 10000 3.09 160 07:54 25.10.2022
1279 Clear 12 1023 27 10000 0.45 273 06:56 25.10.2022
1280 Clear 16 1022 17 10000 3.09 100 03:46 25.10.2022
1281 Clouds 18 1023 17 10000 2.57 0 00:37 25.10.2022
1282 Clear 17 1023 17 10000 2.24 360 23:47 24.10.2022
1283 Clear 17 1024 20 10000 2.68 0 22:24 24.10.2022
1284 Clear 16 1024 20 10000 3.6 40 21:33 24.10.2022
1285 Clear 15 1025 22 10000 5.66 30 20:42 24.10.2022
1286 Clear 13 1024 25 10000 5.81 350 18:52 24.10.2022
1287 Clear 11 1023 27 10000 5.81 40 17:50 24.10.2022
1288 Clear 10 1022 28 10000 4.63 50 16:34 24.10.2022
1289 Clear 10 1020 27 10000 8.23 340 14:22 24.10.2022
1290 Clear 11 1019 27 10000 8.94 340 13:34 24.10.2022
1291 Clear 11 1019 26 10000 8.23 320 11:41 24.10.2022
1292 Clear 12 1018 28 10000 4.63 330 08:45 24.10.2022
1293 Clouds 18 1010 17 10000 9.26 10 00:50 24.10.2022
1294 Clouds 17 1011 18 10000 10.8 350 21:23 23.10.2022
1295 Clouds 16 1011 21 10000 11.32 300 19:50 23.10.2022
1296 Clouds 14 1009 27 10000 9.26 340 17:55 23.10.2022
1297 Clouds 13 1008 31 10000 9.26 340 17:27 23.10.2022
1298 Clouds 14 1006 36 10000 7.72 330 15:19 23.10.2022
1299 Clouds 14 1002 53 10000 0.89 176 12:59 23.10.2022
1300 Clouds 15 1002 45 10000 7.72 340 10:59 23.10.2022
1301 Dust 18 999 49 4828 6.69 210 07:53 23.10.2022
1302 Dust 28 996 16 8047 16.46 220 23:39 22.10.2022
1303 Dust 27 999 16 10000 15.43 220 22:31 22.10.2022
1304 Clouds 27 999 17 10000 12.86 230 21:42 22.10.2022
1305 Clouds 26 1000 18 10000 12.86 230 20:49 22.10.2022
1306 Clouds 26 1002 20 10000 9.26 200 19:32 22.10.2022
1307 Clear 25 1001 23 10000 8.75 210 18:55 22.10.2022
1308 Smoke 23 1003 26 10000 6.17 190 17:35 22.10.2022
1309 Haze 21 1003 25 10000 8.23 200 15:28 22.10.2022
1310 Clear 21 1005 25 10000 6.69 170 14:36 22.10.2022
1311 Clear 22 1005 27 10000 6.17 200 13:33 22.10.2022
1312 Clear 22 1007 27 10000 5.66 220 09:50 22.10.2022
1313 Clear 23 1007 26 10000 5.66 220 09:18 22.10.2022
1314 Clear 24 1006 25 10000 0.89 218 06:59 22.10.2022
1315 Clouds 29 1008 17 10000 3.6 160 02:43 22.10.2022
1316 Clouds 29 1011 19 10000 3.09 190 23:44 21.10.2022
1317 Clouds 27 1014 21 10000 2.06 340 21:34 21.10.2022
1318 Clear 26 1012 24 10000 0.45 49 20:56 21.10.2022
1319 Clouds 23 1015 26 10000 2.57 230 18:55 21.10.2022
1320 Clouds 18 1014 33 10000 3.09 170 15:26 21.10.2022
1321 Clouds 18 1011 34 10000 0.45 232 13:56 21.10.2022
1322 Clouds 19 1014 29 10000 2.57 310 12:39 21.10.2022
1323 Clouds 20 1014 27 10000 3.09 330 10:28 21.10.2022
1324 Clouds 21 1014 25 10000 5.66 180 09:38 21.10.2022
1325 Clouds 22 1015 25 10000 2.57 180 08:26 21.10.2022
1326 Clouds 22 1013 24 10000 3.09 200 06:21 21.10.2022
1327 Clouds 29 1014 17 10000 2.68 80 00:21 21.10.2022
1328 Clouds 27 1018 17 10000 3.6 80 21:50 20.10.2022
1329 Clouds 26 1019 18 10000 2.57 130 20:18 20.10.2022
1330 Clouds 25 1019 19 10000 1.54 140 19:30 20.10.2022
1331 Clouds 21 1020 26 10000 3.09 160 17:51 20.10.2022
1332 Clouds 18 1019 28 10000 3.09 170 15:46 20.10.2022
1333 Clear 19 1019 25 10000 4.63 330 12:36 20.10.2022
1334 Clear 19 1019 25 10000 4.63 330 12:18 20.10.2022
1335 Clear 20 1016 26 10000 0.58 32 10:56 20.10.2022
1336 Clear 20 1019 23 10000 3.6 190 10:23 20.10.2022
1337 Clear 22 1018 22 10000 3.6 170 07:44 20.10.2022
1338 Clouds 28 1018 17 10000 3.6 360 03:31 20.10.2022
1339 Clouds 30 1019 16 10000 5.14 90 23:53 19.10.2022
1340 Clouds 30 1020 18 10000 6.17 70 22:32 19.10.2022
1341 Clouds 29 1021 16 10000 6.69 50 21:48 19.10.2022
1342 Clouds 27 1022 18 10000 8.23 50 20:40 19.10.2022
1343 Clouds 21 1022 28 10000 3.09 170 17:52 19.10.2022
1344 Clear 20 1020 30 10000 1.58 12 16:58 19.10.2022
1345 Clouds 18 1021 31 10000 3.6 160 14:46 19.10.2022
1346 Clear 19 1021 29 10000 2.68 270 12:42 19.10.2022
1347 Clear 21 1020 25 10000 3.6 10 09:26 19.10.2022
1348 Clear 23 1020 24 10000 3.09 300 07:31 19.10.2022
1349 Clouds 27 1018 20 10000 2.24 330 03:44 19.10.2022
1350 Clouds 30 1018 19 10000 3.09 0 00:21 19.10.2022
1351 Clouds 29 1019 19 10000 4.63 80 22:41 18.10.2022
1352 Clouds 28 1020 18 10000 5.14 50 21:32 18.10.2022
1353 Clouds 26 1021 19 10000 6.17 60 20:31 18.10.2022
1354 Clouds 25 1021 24 10000 2.24 20 19:22 18.10.2022
1355 Clouds 21 1018 33 10000 1.04 11 16:59 18.10.2022
1356 Clear 18 1020 36 10000 3.6 160 15:43 18.10.2022
1357 Clear 19 1019 35 10000 2.57 180 13:45 18.10.2022
1358 Clouds 20 1018 33 10000 3.6 180 11:48 18.10.2022
1359 Clouds 20 1018 34 10000 3.6 180 11:18 18.10.2022
1360 Clouds 21 1018 31 10000 4.63 190 09:26 18.10.2022
1361 Clear 23 1016 31 10000 3.6 160 07:20 18.10.2022
1362 Clouds 29 1016 23 10000 4.12 50 00:34 18.10.2022
1363 Clouds 27 1018 26 10000 5.14 80 21:45 17.10.2022
1364 Clear 26 1019 30 10000 5.14 60 20:50 17.10.2022
1365 Clouds 26 1019 31 10000 5.14 60 20:30 17.10.2022
1366 Clear 24 1019 36 10000 2.57 120 19:46 17.10.2022
1367 Clouds 20 1019 48 10000 2.57 200 17:54 17.10.2022
1368 Clouds 18 1019 52 10000 3.6 160 16:34 17.10.2022
1369 Clouds 18 1019 52 10000 2.57 150 15:27 17.10.2022
1370 Clouds 18 1018 50 10000 3.09 290 13:35 17.10.2022
1371 Clear 20 1018 42 10000 2.57 60 09:46 17.10.2022
1372 Clouds 26 1015 27 10000 2.06 110 03:21 17.10.2022
1373 Clear 27 1012 36 10000 0.45 134 22:59 16.10.2022
1374 Clouds 25 1016 40 10000 2.57 0 21:46 16.10.2022
1375 Clouds 23 1014 48 10000 0.89 77 19:56 16.10.2022
1376 Clouds 22 1017 51 10000 1.54 360 19:38 16.10.2022
1377 Clouds 19 1016 59 10000 2.06 20 17:47 16.10.2022
1378 Clouds 18 1015 61 10000 2.68 20 16:32 16.10.2022
1379 Clouds 17 1012 68 10000 0.53 295 15:56 16.10.2022
1380 Clouds 19 1014 57 10000 2.57 190 12:49 16.10.2022
1381 Clouds 19 1014 57 10000 4.12 210 11:41 16.10.2022
1382 Clouds 20 1012 58 10000 3.6 100 10:26 16.10.2022
1383 Clouds 21 1012 53 10000 5.66 200 08:26 16.10.2022
1384 Clouds 29 1011 22 10000 12.86 160 23:47 15.10.2022
1385 Clouds 30 1011 17 10000 3.6 140 22:18 15.10.2022
1386 Clouds 29 1012 17 10000 2.57 110 21:21 15.10.2022
1387 Clouds 27 1013 18 10000 0.45 140 19:55 15.10.2022
1388 Clouds 21 1013 28 10000 1.54 290 17:26 15.10.2022
1389 Clear 19 1012 28 10000 3.6 190 15:45 15.10.2022
1390 Clear 21 1011 27 10000 1.54 270 13:42 15.10.2022
1391 Clear 21 1011 25 10000 3.6 170 11:52 15.10.2022
1392 Clear 22 1011 25 10000 3.09 330 10:26 15.10.2022
1393 Clear 23 1010 21 10000 3.6 300 08:20 15.10.2022
1394 Clear 32 1010 13 10000 2.06 260 00:41 15.10.2022
1395 Clear 31 1010 14 10000 2.24 270 23:25 14.10.2022
1396 Clear 31 1011 14 10000 3.13 360 22:22 14.10.2022
1397 Clear 31 1011 14 10000 3.13 360 22:22 14.10.2022
1398 Clear 30 1012 16 10000 2.06 50 21:24 14.10.2022
1399 Clear 26 1013 17 10000 3.09 30 19:22 14.10.2022
1400 Clear 19 1013 23 10000 3.13 200 16:19 14.10.2022
1401 Clear 21 1013 21 10000 2.68 280 13:21 14.10.2022
1402 Clear 21 1013 21 10000 2.57 170 11:36 14.10.2022
1403 Clear 23 1010 22 10000 1.08 354 08:59 14.10.2022
1404 Clear 24 1012 18 10000 4.12 160 06:53 14.10.2022
1405 Clear 25 1013 19 10000 4.12 160 06:18 14.10.2022
1406 Clear 26 1013 18 10000 3.13 230 05:42 14.10.2022
1407 Clear 30 1013 13 10000 2.57 80 03:20 14.10.2022
1408 Clouds 32 1015 13 10000 3.6 90 23:42 13.10.2022
1409 Clear 31 1014 18 10000 2.24 103 21:57 13.10.2022
1410 Clouds 30 1018 14 10000 5.66 50 21:20 13.10.2022
1411 Clouds 27 1018 17 10000 4.12 350 19:43 13.10.2022
1412 Clouds 25 1018 21 10000 2.57 350 18:52 13.10.2022
1413 Clouds 24 1018 21 10000 2.57 350 18:21 13.10.2022
1414 Clear 21 1015 22 10000 1.01 5 15:58 13.10.2022
1415 Clear 20 1018 25 10000 3.09 170 15:40 13.10.2022
1416 Clear 20 1018 25 10000 3.6 320 14:18 13.10.2022
1417 Clear 21 1018 24 10000 3.09 190 12:43 13.10.2022
1418 Clear 22 1015 25 10000 1.22 352 10:59 13.10.2022
1419 Clear 24 1018 21 10000 4.12 190 08:34 13.10.2022
1420 Clear 24 1018 21 10000 3.6 290 07:38 13.10.2022
1421 Clear 26 1016 19 10000 3.09 170 05:28 13.10.2022
1422 Clouds 32 1016 14 10000 2.06 170 01:41 13.10.2022
1423 Clouds 32 1017 15 10000 2.06 0 00:41 13.10.2022
1424 Clouds 31 1018 15 10000 6.17 60 22:45 12.10.2022
1425 Clouds 30 1019 17 10000 5.66 60 21:46 12.10.2022
1426 Clouds 29 1019 17 10000 5.66 60 21:19 12.10.2022
1427 Clear 28 1020 18 10000 5.14 60 20:33 12.10.2022
1428 Clear 27 1020 20 10000 2.68 30 19:22 12.10.2022
1429 Clear 26 1017 27 10000 1.2 27 17:57 12.10.2022
1430 Clear 23 1016 33 10000 1.19 357 16:59 12.10.2022
1431 Clear 21 1018 29 10000 7.2 350 14:27 12.10.2022
1432 Clear 21 1017 30 10000 4.12 210 13:53 12.10.2022
1433 Clear 23 1017 28 10000 4.12 200 11:54 12.10.2022
1434 Clear 24 1016 26 10000 3.13 210 09:36 12.10.2022
1435 Clear 25 1015 25 10000 3.6 340 07:42 12.10.2022
1436 Clear 26 1015 23 10000 3.6 190 06:44 12.10.2022
1437 Clear 27 1014 22 10000 3.6 180 05:27 12.10.2022
1438 Clear 32 1011 23 10000 1.35 114 23:56 11.10.2022
1439 Clouds 29 1016 22 10000 3.09 0 21:25 11.10.2022
1440 Clouds 28 1016 23 10000 3.13 10 20:30 11.10.2022
1441 Clouds 24 1016 29 10000 3.09 220 18:27 11.10.2022
1442 Clouds 20 1015 36 10000 4.63 220 16:24 11.10.2022
1443 Clouds 21 1014 33 10000 4.63 190 13:44 11.10.2022
1444 Clouds 23 1014 31 10000 2.57 200 10:48 11.10.2022
1445 Clouds 23 1014 30 10000 3.09 320 10:26 11.10.2022
1446 Clouds 24 1014 28 10000 1.54 0 08:46 11.10.2022
1447 Clouds 28 1013 25 10000 4.63 190 04:23 11.10.2022
1448 Clouds 31 1013 23 10000 2.24 10 00:47 11.10.2022
1449 Clouds 31 1013 24 10000 2.24 10 00:23 11.10.2022
1450 Clouds 29 1017 27 10000 2.57 170 21:18 10.10.2022
1451 Clouds 27 1018 29 10000 2.06 210 19:43 10.10.2022
1452 Clouds 24 1017 33 10000 2.06 170 17:52 10.10.2022
1453 Clouds 21 1017 36 10000 2.06 320 16:39 10.10.2022
1454 Clouds 21 1016 37 10000 3.6 340 14:31 10.10.2022
1455 Clouds 22 1016 36 10000 3.6 170 12:24 10.10.2022
1456 Clouds 23 1016 32 10000 3.6 180 10:20 10.10.2022
1457 Clouds 25 1016 31 10000 3.09 300 07:41 10.10.2022
1458 Clouds 26 1016 27 10000 2.06 180 05:38 10.10.2022
1459 Clouds 30 1016 24 10000 2.68 80 02:42 10.10.2022
1460 Clouds 31 1017 23 10000 3.6 60 00:24 10.10.2022
1461 Clouds 30 1019 27 10000 3.6 40 22:27 09.10.2022
1462 Clouds 29 1020 29 10000 2.68 0 21:49 09.10.2022
1463 Clouds 28 1021 31 10000 2.06 50 20:54 09.10.2022
1464 Clouds 27 1021 33 10000 3.09 70 19:53 09.10.2022
1465 Clouds 26 1021 34 10000 3.09 70 19:20 09.10.2022
1466 Clouds 25 1021 37 10000 4.12 70 18:27 09.10.2022
1467 Clouds 21 1020 42 10000 2.57 180 16:56 09.10.2022
1468 Clouds 21 1020 43 10000 2.57 320 16:25 09.10.2022
1469 Clouds 21 1019 42 10000 3.6 40 15:33 09.10.2022
1470 Clouds 21 1018 40 10000 2.57 70 14:28 09.10.2022
1471 Clouds 21 1018 40 10000 2.57 70 14:28 09.10.2022
1472 Clear 22 1016 38 10000 0.8 106 12:57 09.10.2022
1473 Clear 23 1018 35 10000 2.57 170 11:42 09.10.2022
1474 Clear 24 1016 35 10000 0.93 111 09:57 09.10.2022
1475 Clear 25 1015 29 10000 2.22 179 07:57 09.10.2022
1476 Clouds 30 1016 20 10000 2.57 90 03:33 09.10.2022
1477 Clouds 32 1016 19 10000 3.09 70 02:23 09.10.2022
1478 Clear 32 1014 25 10000 1.99 86 23:56 08.10.2022
1479 Clouds 31 1019 25 10000 2.68 70 22:53 08.10.2022
1480 Clouds 30 1020 25 10000 2.68 40 21:43 08.10.2022
1481 Clear 29 1018 29 10000 1.26 82 19:57 08.10.2022
1482 Clear 26 1022 27 10000 0 0 18:24 08.10.2022
1483 Clear 22 1018 38 10000 0.82 101 15:56 08.10.2022
1484 Clear 22 1020 36 10000 2.57 190 14:42 08.10.2022
1485 Clouds 23 1019 32 10000 3.09 320 12:38 08.10.2022
1486 Clouds 24 1019 29 10000 2.68 220 10:37 08.10.2022
1487 Clouds 24 1019 29 10000 4.12 210 09:52 08.10.2022
1488 Clouds 25 1019 27 10000 3.09 190 08:41 08.10.2022
1489 Clouds 30 1017 22 10000 4.12 80 03:50 08.10.2022
1490 Clouds 32 1018 20 10000 7.2 30 00:35 08.10.2022
1491 Clouds 32 1019 21 10000 5.66 90 23:21 07.10.2022
1492 Clouds 31 1020 22 10000 5.14 70 22:39 07.10.2022
1493 Clear 30 1022 23 10000 6.69 50 20:50 07.10.2022
1494 Clear 28 1022 24 10000 5.14 40 19:32 07.10.2022
1495 Clouds 24 1021 31 10000 2.68 280 17:47 07.10.2022
1496 Clear 21 1021 33 10000 2.57 190 16:40 07.10.2022
1497 Clear 21 1020 31 10000 2.57 160 14:55 07.10.2022
1498 Clear 22 1019 27 10000 5.14 60 12:37 07.10.2022
1499 Clear 24 1019 24 10000 3.6 50 09:37 07.10.2022
1500 Clear 24 1019 25 10000 3.6 50 09:18 07.10.2022
1501 Clear 25 1016 23 10000 2.09 342 06:58 07.10.2022
1502 Clouds 32 1017 16 10000 4.12 50 01:34 07.10.2022
1503 Clouds 32 1019 19 10000 4.12 130 22:51 06.10.2022
1504 Clouds 31 1020 19 10000 4.63 50 21:46 06.10.2022
1505 Clouds 31 1020 19 10000 4.63 50 21:25 06.10.2022
1506 Clear 30 1017 24 10000 2.61 51 19:59 06.10.2022
1507 Clouds 26 1020 23 10000 2.06 120 18:38 06.10.2022
1508 Clouds 26 1020 23 10000 2.06 120 18:18 06.10.2022
1509 Clouds 21 1019 28 10000 1.54 210 15:33 06.10.2022
1510 Clear 24 1017 27 10000 3.6 90 11:45 06.10.2022
1511 Clear 26 1016 23 10000 2.57 300 07:35 06.10.2022
1512 Clouds 31 1015 17 10000 2.57 50 03:37 06.10.2022
1513 Clouds 33 1015 16 10000 3.6 60 00:27 06.10.2022
1514 Clouds 31 1017 19 10000 4.63 70 21:22 05.10.2022
1515 Clear 28 1018 24 10000 2.06 160 19:29 05.10.2022
1516 Clear 24 1017 32 10000 3.09 160 17:36 05.10.2022
1517 Clear 22 1014 37 10000 1.09 23 15:57 05.10.2022
1518 Clear 22 1016 36 10000 3.6 160 14:47 05.10.2022
1519 Clear 22 1016 36 10000 3.6 160 14:19 05.10.2022
1520 Clear 23 1016 34 10000 2.57 140 12:23 05.10.2022
1521 Clear 24 1015 31 10000 4.12 170 09:28 05.10.2022
1522 Clear 26 1014 30 10000 3.6 160 07:43 05.10.2022
1523 Clear 28 1014 27 10000 2.06 130 05:39 05.10.2022
1524 Clouds 29 1013 25 10000 1.54 90 04:21 05.10.2022
1525 Clouds 32 1013 25 10000 3.6 130 00:50 05.10.2022
1526 Clouds 32 1013 25 10000 3.6 130 00:27 05.10.2022
1527 Clouds 31 1015 27 10000 3.6 100 22:37 04.10.2022
1528 Clouds 29 1017 30 10000 4.12 70 20:39 04.10.2022
1529 Clear 27 1014 36 10000 1.34 90 18:58 04.10.2022
1530 Clouds 26 1017 36 10000 3.09 140 18:37 04.10.2022
1531 Clouds 24 1016 36 10000 1.54 360 17:48 04.10.2022
1532 Clouds 23 1016 41 10000 2.06 230 16:35 04.10.2022
1533 Clear 23 1012 47 10000 1.44 30 12:58 04.10.2022
1534 Clouds 25 1015 42 10000 4.63 50 09:46 04.10.2022
1535 Clouds 27 1014 39 10000 3.09 210 07:24 04.10.2022
1536 Clouds 32 1013 25 10000 3.13 40 02:27 04.10.2022
1537 Clouds 33 1013 27 10000 4.63 40 23:40 03.10.2022
1538 Clouds 31 1015 31 10000 4.63 60 21:53 03.10.2022
1539 Clouds 31 1015 31 10000 4.63 60 21:23 03.10.2022
1540 Clouds 29 1016 33 10000 7.2 60 19:52 03.10.2022
1541 Clear 27 1013 35 10000 0.44 62 17:59 03.10.2022
1542 Clouds 25 1016 37 10000 2.06 300 17:18 03.10.2022
1543 Clear 23 1015 37 10000 5.66 210 15:42 03.10.2022
1544 Clear 23 1014 37 10000 3.6 230 13:51 03.10.2022
1545 Clear 25 1014 32 10000 4.12 200 12:28 03.10.2022
1546 Clear 26 1014 30 10000 5.14 180 10:39 03.10.2022
1547 Clear 26 1013 28 10000 3.6 170 09:37 03.10.2022
1548 Clear 29 1011 27 10000 3.6 170 06:30 03.10.2022
1549 Clouds 33 1010 23 10000 4.63 240 02:53 03.10.2022
1550 Clouds 33 1012 25 10000 5.14 260 22:35 02.10.2022
1551 Clouds 32 1014 32 10000 5.66 240 20:51 02.10.2022
1552 Clouds 28 1014 41 10000 3.09 210 18:42 02.10.2022
1553 Clouds 26 1013 43 10000 2.57 340 17:52 02.10.2022
1554 Clear 24 1013 45 10000 3.6 200 16:33 02.10.2022
1555 Clear 22 1010 50 10000 1.59 160 15:56 02.10.2022
1556 Clear 25 1011 42 10000 4.12 190 13:52 02.10.2022
1557 Clear 25 1011 42 10000 4.12 190 13:21 02.10.2022
1558 Clear 25 1010 43 10000 3.13 200 12:29 02.10.2022
1559 Clear 26 1010 41 10000 3.6 200 11:39 02.10.2022
1560 Clear 26 1007 41 10000 0.89 262 10:59 02.10.2022
1561 Clear 27 1010 34 10000 4.12 200 09:27 02.10.2022
1562 Clear 28 1010 24 10000 3.13 170 07:41 02.10.2022
1563 Clouds 33 1007 17 10000 5.66 230 02:55 02.10.2022
1564 Clouds 34 1007 16 10000 4.12 140 00:46 02.10.2022
1565 Clouds 34 1007 17 10000 4.12 140 00:21 02.10.2022
1566 Clouds 32 1010 20 10000 3.6 50 22:43 01.10.2022
1567 Clear 30 1010 22 10000 4.12 50 20:36 01.10.2022
1568 Clear 27 1011 22 10000 1.54 80 18:40 01.10.2022
1569 Clear 22 1011 26 10000 5.14 70 16:36 01.10.2022
1570 Clear 23 1010 27 10000 5.66 200 14:35 01.10.2022
1571 Clear 24 1009 26 10000 4.12 210 13:31 01.10.2022
1572 Clear 24 1009 25 10000 4.63 200 12:33 01.10.2022
1573 Clear 25 1009 24 10000 4.63 190 11:20 01.10.2022
1574 Clear 26 1008 22 10000 5.14 190 10:32 01.10.2022
1575 Clear 26 1007 22 10000 6.69 200 09:28 01.10.2022
1576 Clear 27 1006 23 10000 2.31 224 08:58 01.10.2022
1577 Clouds 31 1006 17 10000 4.63 230 04:27 01.10.2022
1578 Clouds 33 1005 16 10000 5.66 210 03:32 01.10.2022
1579 Clouds 35 1007 14 10000 5.14 220 00:18 01.10.2022
1580 Clouds 35 1009 15 10000 7.2 230 22:37 30.09.2022
1581 Clouds 34 1010 14 10000 6.69 230 21:29 30.09.2022
1582 Clouds 32 1011 18 10000 5.66 210 20:44 30.09.2022
1583 Clouds 31 1012 23 10000 5.66 220 19:49 30.09.2022
1584 Clear 26 1013 29 10000 5.14 190 17:38 30.09.2022
1585 Clear 23 1010 39 10000 1.04 191 15:56 30.09.2022
1586 Clear 26 1011 31 10000 5.14 200 13:30 30.09.2022
1587 Clouds 27 1007 31 10000 0.89 189 11:58 30.09.2022
1588 Clear 27 1011 37 10000 4.12 200 10:40 30.09.2022
1589 Clear 29 1011 33 10000 6.17 180 08:26 30.09.2022
1590 Clouds 30 1010 25 10000 7.2 180 05:54 30.09.2022
1591 Clouds 35 1011 19 10000 8.23 210 02:36 30.09.2022
1592 Clouds 34 1014 30 10000 5.14 90 22:31 29.09.2022
1593 Clouds 32 1016 32 10000 3.13 100 21:27 29.09.2022
1594 Clear 31 1016 34 10000 3.09 120 20:44 29.09.2022
1595 Clouds 27 1017 41 10000 5.14 80 18:34 29.09.2022
1596 Clouds 25 1017 49 10000 3.6 70 17:23 29.09.2022
1597 Clouds 23 1017 55 10000 3.09 40 16:28 29.09.2022
1598 Clear 23 1017 55 10000 3.09 170 15:35 29.09.2022
1599 Clear 23 1017 50 10000 3.6 180 14:25 29.09.2022
1600 Clear 25 1014 43 10000 1.48 51 09:57 29.09.2022
1601 Clouds 28 1017 42 10000 3.09 100 06:46 29.09.2022
1602 Clouds 32 1015 31 10000 6.69 40 02:47 29.09.2022
1603 Clear 32 1016 34 10000 10.29 60 23:54 28.09.2022
1604 Clouds 32 1018 35 10000 6.69 90 22:32 28.09.2022
1605 Clouds 31 1019 38 10000 8.23 60 21:29 28.09.2022
1606 Clouds 29 1019 44 10000 6.69 50 20:22 28.09.2022
1607 Clouds 24 1020 63 10000 5.14 290 18:31 28.09.2022
1608 Thunderstorm 27 1016 32 10000 2.57 230 14:52 28.09.2022
1609 Clouds 26 1011 35 10000 0.45 71 12:56 28.09.2022
1610 Clouds 28 1015 26 10000 3.09 200 10:51 28.09.2022
1611 Clouds 29 1015 25 10000 4.12 50 08:33 28.09.2022
1612 Clouds 31 1014 24 10000 2.57 20 06:50 28.09.2022
1613 Clouds 35 1012 15 10000 3.09 100 01:56 28.09.2022
1614 Clouds 36 1013 13 10000 5.14 60 01:33 28.09.2022
1615 Clouds 36 1014 14 10000 4.12 10 23:20 27.09.2022
1616 Clouds 34 1016 15 10000 2.57 60 21:42 27.09.2022
1617 Clear 33 1016 16 10000 2.57 0 20:37 27.09.2022
1618 Clouds 31 1017 17 10000 1.54 120 19:47 27.09.2022
1619 Clouds 29 1016 19 10000 2.06 320 18:37 27.09.2022
1620 Clouds 26 1017 23 10000 2.57 180 17:44 27.09.2022
1621 Clouds 24 1016 22 10000 4.12 180 15:29 27.09.2022
1622 Clouds 24 1016 21 10000 2.57 220 14:55 27.09.2022
1623 Clouds 25 1015 17 10000 4.12 200 12:42 27.09.2022
1624 Clear 27 1012 20 10000 1.47 291 10:58 27.09.2022
1625 Clear 27 1015 16 10000 3.09 180 08:49 27.09.2022
1626 Clear 29 1014 16 10000 3.6 330 06:39 27.09.2022
1627 Clear 36 1010 15 10000 0.89 115 01:57 27.09.2022
1628 Clouds 36 1014 11 10000 4.12 140 01:27 27.09.2022
1629 Clouds 36 1014 11 10000 4.12 140 01:27 27.09.2022
1630 Clear 36 1014 12 10000 2.57 0 23:25 26.09.2022
1631 Clear 35 1016 13 10000 3.6 330 22:31 26.09.2022
1632 Clear 33 1017 14 10000 2.57 360 20:45 26.09.2022
1633 Clear 30 1018 15 10000 4.12 340 19:30 26.09.2022
1634 Clear 28 1018 16 10000 3.6 330 18:31 26.09.2022
1635 Clear 22 1018 19 10000 3.6 200 16:29 26.09.2022
1636 Clear 23 1017 18 10000 4.12 160 14:28 26.09.2022
1637 Clear 24 1017 16 10000 3.09 170 11:29 26.09.2022
1638 Clear 25 1016 17 10000 4.12 180 10:38 26.09.2022
1639 Clear 25 1015 17 10000 4.12 180 10:20 26.09.2022
1640 Clear 26 1015 16 10000 2.24 240 09:54 26.09.2022
1641 Clear 26 1015 16 10000 3.09 290 09:24 26.09.2022
1642 Clear 27 1016 15 10000 2.24 240 07:37 26.09.2022
1643 Clear 35 1016 10 10000 3.09 80 02:51 26.09.2022
1644 Clear 35 1017 11 10000 4.12 40 23:46 25.09.2022
1645 Clouds 34 1019 14 10000 3.6 50 21:54 25.09.2022
1646 Clouds 34 1019 14 10000 3.6 50 21:34 25.09.2022
1647 Clouds 33 1019 16 10000 3.6 20 20:45 25.09.2022
1648 Clouds 30 1020 18 10000 2.57 40 19:32 25.09.2022
1649 Clouds 28 1019 21 10000 0 0 18:35 25.09.2022
1650 Clouds 26 1020 23 10000 2.06 200 17:52 25.09.2022
1651 Clouds 23 1019 25 10000 4.63 160 16:35 25.09.2022
1652 Clear 23 1019 25 10000 3.6 160 15:44 25.09.2022
1653 Clear 24 1018 26 10000 3.6 160 14:22 25.09.2022
1654 Clear 25 1018 22 10000 1.54 240 12:49 25.09.2022
1655 Clear 26 1018 23 10000 3.6 300 10:26 25.09.2022
1656 Clear 27 1017 22 10000 3.6 160 08:24 25.09.2022
1657 Clouds 30 1016 19 10000 3.09 70 05:36 25.09.2022
1658 Clouds 35 1017 13 10000 3.6 30 00:39 25.09.2022
1659 Clouds 34 1019 14 10000 2.57 40 22:35 24.09.2022
1660 Clouds 31 1020 16 10000 4.63 20 20:54 24.09.2022
1661 Clouds 29 1020 17 10000 3.09 50 19:22 24.09.2022
1662 Clouds 25 1020 25 10000 2.57 170 17:19 24.09.2022
1663 Clouds 22 1019 25 10000 2.57 180 16:23 24.09.2022
1664 Clouds 23 1018 23 10000 3.6 340 15:19 24.09.2022
1665 Clouds 23 1017 23 10000 2.06 150 13:23 24.09.2022
1666 Clouds 24 1017 22 10000 2.57 320 12:41 24.09.2022
1667 Clouds 26 1017 21 10000 3.6 310 10:19 24.09.2022
1668 Clouds 26 1017 20 10000 3.6 300 09:23 24.09.2022
1669 Clouds 26 1017 22 10000 3.6 290 08:43 24.09.2022
1670 Clear 28 1016 19 10000 2.06 20 06:26 24.09.2022
1671 Clouds 30 1014 19 10000 3.6 10 04:34 24.09.2022
1672 Clouds 33 1015 13 10000 3.09 100 23:48 23.09.2022
1673 Clouds 32 1016 13 10000 3.09 150 22:21 23.09.2022
1674 Clear 31 1017 14 10000 2.57 30 21:25 23.09.2022
1675 Clouds 30 1017 13 10000 4.63 20 20:54 23.09.2022
1676 Clouds 28 1018 14 10000 2.57 10 19:44 23.09.2022
1677 Clouds 24 1018 17 10000 2.57 210 17:55 23.09.2022
1678 Clear 21 1016 14 10000 6.17 320 13:41 23.09.2022
1679 Clear 23 1015 15 10000 5.66 310 10:25 23.09.2022
1680 Clear 25 1015 14 10000 3.09 330 08:45 23.09.2022
1681 Clouds 32 1012 9 10000 5.66 270 03:37 23.09.2022
1682 Clouds 33 1014 12 10000 5.66 240 23:30 22.09.2022
1683 Clouds 32 1015 13 10000 4.63 220 22:28 22.09.2022
1684 Clouds 31 1016 18 10000 5.14 220 21:36 22.09.2022
1685 Clouds 29 1017 21 10000 5.14 220 20:25 22.09.2022
1686 Clear 27 1014 24 10000 0.44 180 18:58 22.09.2022
1687 Clear 22 1015 28 10000 4.12 210 15:39 22.09.2022
1688 Clear 24 1013 27 10000 4.63 140 10:51 22.09.2022
1689 Clear 24 1013 27 10000 4.63 140 10:19 22.09.2022
1690 Clear 25 1013 23 10000 1.54 150 08:20 22.09.2022
1691 Clear 28 1011 19 10000 4.63 270 05:22 22.09.2022
1692 Clouds 33 1010 15 10000 10.8 210 01:19 22.09.2022
1693 Clouds 34 1011 18 10000 11.83 210 22:29 21.09.2022
1694 Clouds 33 1011 21 10000 9.26 180 21:18 21.09.2022
1695 Clouds 29 1012 28 10000 5.14 210 18:51 21.09.2022
1696 Clouds 26 1012 30 10000 2.57 190 17:44 21.09.2022
1697 Clouds 23 1012 31 10000 3.6 190 15:47 21.09.2022
1698 Clouds 23 1011 29 10000 3.6 180 13:54 21.09.2022
1699 Clear 25 1011 27 10000 3.6 170 11:43 21.09.2022
1700 Clear 26 1008 28 10000 2.24 169 10:59 21.09.2022
1701 Clear 27 1011 26 10000 3.09 220 09:40 21.09.2022
1702 Clear 28 1011 24 10000 3.09 180 08:43 21.09.2022
1703 Clear 32 1007 20 10000 4.97 213 03:56 21.09.2022
1704 Clouds 34 1009 16 10000 9.77 200 02:38 21.09.2022
1705 Clear 34 1006 19 10000 8.82 194 01:56 21.09.2022
1706 Clouds 35 1009 17 10000 10.29 210 00:19 21.09.2022
1707 Clouds 34 1011 16 10000 5.66 150 21:53 20.09.2022
1708 Clouds 32 1012 16 10000 8.23 210 20:32 20.09.2022
1709 Clouds 28 1012 21 10000 4.63 150 18:41 20.09.2022
1710 Clouds 23 1011 29 10000 3.6 170 15:51 20.09.2022
1711 Clouds 24 1011 29 10000 3.6 180 14:18 20.09.2022
1712 Clouds 25 1010 25 10000 3.6 220 11:51 20.09.2022
1713 Clouds 27 1009 23 10000 4.12 230 08:44 20.09.2022
1714 Clouds 28 1009 22 10000 4.12 230 08:23 20.09.2022
1715 Clouds 31 1007 15 10000 7.2 150 04:37 20.09.2022
1716 Clouds 35 1007 13 10000 8.23 210 01:42 20.09.2022
1717 Clear 33 1010 17 10000 6.69 130 22:42 19.09.2022
1718 Clear 32 1010 19 10000 6.17 130 21:28 19.09.2022
1719 Clear 30 1011 21 10000 4.63 100 20:40 19.09.2022
1720 Clear 27 1010 22 10000 3.6 190 18:49 19.09.2022
1721 Clear 24 1010 24 10000 2.68 0 17:20 19.09.2022
1722 Clear 23 1009 21 10000 4.63 160 13:47 19.09.2022
1723 Clear 24 1006 24 10000 1.75 154 11:57 19.09.2022
1724 Clear 25 1007 17 10000 2.57 120 10:19 19.09.2022
1725 Clear 26 1007 16 10000 4.63 160 08:36 19.09.2022
1726 Clear 32 1005 12 10000 8.75 200 03:39 19.09.2022
1727 Clear 34 1005 12 10000 10.29 160 00:48 19.09.2022
1728 Clear 33 1006 14 10000 9.77 200 22:33 18.09.2022
1729 Clear 32 1007 18 10000 7.2 140 21:19 18.09.2022
1730 Clear 28 1007 23 10000 5.14 100 19:33 18.09.2022
1731 Clear 25 1007 28 10000 3.6 30 17:52 18.09.2022
1732 Clear 23 1006 31 10000 5.14 180 16:47 18.09.2022
1733 Clear 23 1005 30 10000 4.63 170 14:44 18.09.2022
1734 Clear 23 1005 28 10000 4.12 180 13:35 18.09.2022
1735 Clear 24 1004 26 10000 5.14 180 12:20 18.09.2022
1736 Clear 26 1004 20 10000 6.17 180 09:25 18.09.2022
1737 Clouds 33 1003 14 10000 7.72 220 01:43 18.09.2022
1738 Clouds 34 1003 14 10000 7.72 220 01:20 18.09.2022
1739 Clouds 33 1005 16 10000 3.58 122 22:56 17.09.2022
1740 Clouds 31 1008 20 10000 4.63 120 20:53 17.09.2022
1741 Clear 29 1008 23 10000 4.63 170 19:37 17.09.2022
1742 Clear 24 1009 29 10000 1.54 10 17:44 17.09.2022
1743 Clear 22 1008 29 10000 5.66 210 14:22 17.09.2022
1744 Clear 24 1009 26 10000 4.63 210 12:46 17.09.2022
1745 Clear 25 1009 24 10000 4.12 190 10:48 17.09.2022
1746 Clear 28 1008 22 10000 5.66 160 06:35 17.09.2022
1747 Clear 30 1008 20 10000 5.66 160 05:49 17.09.2022
1748 Clouds 33 1011 21 10000 5.66 140 23:39 16.09.2022
1749 Clear 32 1008 26 10000 1.34 117 21:57 16.09.2022
1750 Clouds 30 1013 23 10000 2.57 90 20:44 16.09.2022
1751 Clouds 27 1013 27 10000 2.24 110 18:43 16.09.2022
1752 Clear 22 1013 31 10000 3.6 210 16:22 16.09.2022
1753 Clear 23 1012 28 10000 4.63 200 14:50 16.09.2022
1754 Clear 23 1012 28 10000 3.6 160 12:52 16.09.2022
1755 Clear 26 1011 25 10000 4.12 180 09:55 16.09.2022
1756 Clear 27 1010 21 10000 4.63 180 07:23 16.09.2022
1757 Clouds 28 1010 21 10000 4.63 170 06:48 16.09.2022
1758 Clouds 29 1010 22 10000 4.12 220 05:55 16.09.2022
1759 Clouds 33 1008 24 10000 8.23 150 01:45 16.09.2022
1760 Clouds 30 1013 38 10000 4.12 100 21:33 15.09.2022
1761 Clouds 29 1013 41 10000 4.12 120 20:33 15.09.2022
1762 Clear 28 1010 47 10000 1.34 103 18:57 15.09.2022
1763 Clouds 25 1013 53 10000 5.14 90 17:39 15.09.2022
1764 Clouds 25 1013 53 10000 2.06 150 17:20 15.09.2022
1765 Clouds 22 1012 60 10000 5.14 70 15:37 15.09.2022
1766 Clouds 24 1012 53 10000 3.6 80 12:50 15.09.2022
1767 Clouds 24 1012 50 10000 4.63 100 11:47 15.09.2022
1768 Clouds 25 1012 51 10000 3.6 80 09:43 15.09.2022
1769 Clouds 28 1010 31 10000 5.66 40 05:37 15.09.2022
1770 Clouds 31 1008 27 10000 5.81 230 03:29 15.09.2022
1771 Clouds 28 1011 43 10000 4.12 50 22:51 14.09.2022
1772 Clouds 26 1013 50 10000 5.14 40 20:30 14.09.2022
1773 Clouds 25 1013 55 10000 5.66 50 19:32 14.09.2022
1774 Clouds 21 1012 68 10000 2.57 130 17:35 14.09.2022
1775 Clouds 20 1012 69 10000 2.06 100 16:36 14.09.2022
1776 Clouds 20 1012 69 10000 2.06 100 16:36 14.09.2022
1777 Clouds 20 1011 71 10000 5.14 60 14:50 14.09.2022
1778 Clouds 21 1011 73 10000 5.14 40 12:34 14.09.2022
1779 Clouds 23 1010 64 10000 12.35 40 09:51 14.09.2022
1780 Clouds 26 1008 50 10000 5.81 10 07:55 14.09.2022
1781 Clouds 28 1008 42 10000 4.63 60 06:49 14.09.2022
1782 Clouds 28 1008 42 10000 4.63 60 06:23 14.09.2022
1783 Clouds 32 1006 32 10000 7.72 90 02:19 14.09.2022
1784 Clouds 32 1007 30 10000 5.66 160 01:30 14.09.2022
1785 Clouds 32 1007 32 10000 6.17 130 00:52 14.09.2022
1786 Clouds 32 1008 32 10000 6.17 140 23:54 13.09.2022
1787 Clouds 32 1008 32 10000 6.17 140 23:36 13.09.2022
1788 Clouds 32 1008 32 10000 7.2 120 23:18 13.09.2022
1789 Clouds 32 1008 32 10000 8.23 230 22:22 13.09.2022
1790 Clouds 30 1010 37 10000 6.26 190 20:41 13.09.2022
1791 Clouds 28 1012 47 10000 4.12 180 18:37 13.09.2022
1792 Clouds 24 1006 58 10000 0.45 309 15:58 13.09.2022
1793 Clouds 25 1010 59 10000 4.12 200 14:50 13.09.2022
1794 Clouds 25 1010 56 10000 5.14 190 13:25 13.09.2022
1795 Clouds 26 1011 51 10000 3.6 220 09:51 13.09.2022
1796 Clouds 27 1011 47 10000 3.09 190 07:31 13.09.2022
1797 Clouds 30 1013 42 10000 4.12 180 00:52 13.09.2022
1798 Clouds 29 1015 43 10000 3.13 110 22:51 12.09.2022
1799 Clouds 29 1015 44 10000 3.13 110 22:26 12.09.2022
1800 Clouds 26 1017 65 10000 4.63 70 20:46 12.09.2022
1801 Clouds 24 1019 74 10000 3.6 90 19:22 12.09.2022
1802 Clouds 21 1019 89 10000 3.09 220 17:42 12.09.2022
1803 Rain 23 1019 73 10000 10.8 190 14:54 12.09.2022
1804 Clouds 27 1009 42 10000 1.34 223 11:57 12.09.2022
1805 Clouds 27 1013 40 10000 4.63 310 10:20 12.09.2022
1806 Clouds 31 1014 30 10000 1.54 350 05:50 12.09.2022
1807 Clouds 33 1014 26 10000 3.6 360 04:30 12.09.2022
1808 Clouds 34 1012 32 10000 0.45 221 23:58 11.09.2022
1809 Clouds 32 1018 33 10000 2.06 130 22:43 11.09.2022
1810 Clear 31 1018 36 10000 3.6 50 20:53 11.09.2022
1811 Clouds 30 1019 37 10000 3.6 50 20:21 11.09.2022
1812 Clouds 29 1019 41 10000 3.6 130 19:26 11.09.2022
1813 Clouds 28 1018 44 10000 0.89 97 18:38 11.09.2022
1814 Clear 25 1015 54 10000 0.95 36 16:56 11.09.2022
1815 Clouds 23 1018 57 10000 2.57 180 15:22 11.09.2022
1816 Clouds 24 1017 51 10000 3.09 200 12:54 11.09.2022
1817 Clouds 25 1017 49 10000 2.06 150 09:45 11.09.2022
1818 Clouds 27 1017 49 10000 3.6 80 07:43 11.09.2022
1819 Clouds 28 1013 45 10000 4.12 60 02:55 11.09.2022
1820 Clouds 29 1014 52 10000 6.17 30 23:45 10.09.2022
1821 Clouds 28 1014 53 10000 2.06 0 21:35 10.09.2022
1822 Clouds 26 1017 64 10000 5.36 60 19:56 10.09.2022
1823 Clouds 26 1017 63 10000 5.36 60 19:37 10.09.2022
1824 Clouds 25 1017 65 10000 5.36 60 19:19 10.09.2022
1825 Clouds 26 1009 54 10000 3.13 130 16:58 10.09.2022
1826 Clouds 26 1012 57 10000 6.17 150 15:28 10.09.2022
1827 Clouds 27 1009 54 10000 8.75 170 12:55 10.09.2022
1828 Clouds 27 1009 54 10000 8.75 170 12:55 10.09.2022
1829 Clouds 28 1009 51 10000 6.69 160 11:36 10.09.2022
1830 Clouds 29 1008 46 10000 6.69 140 10:25 10.09.2022
1831 Clouds 30 1007 42 10000 3.6 170 08:37 10.09.2022
1832 Clouds 30 1007 41 10000 3.6 170 08:18 10.09.2022
1833 Clouds 34 1003 31 10000 7.2 180 02:54 10.09.2022
1834 Clouds 35 1004 29 10000 5.14 100 23:35 09.09.2022
1835 Clouds 36 1005 27 10000 6.69 130 22:21 09.09.2022
1836 Haze 35 1006 29 10000 5.66 170 20:48 09.09.2022
1837 Dust 34 1006 30 10000 6.17 150 19:25 09.09.2022
1838 Dust 33 1006 30 8047 3.6 120 18:55 09.09.2022
1839 Dust 30 1005 33 6437 6.17 130 16:34 09.09.2022
1840 Dust 30 1005 31 8047 2.68 100 14:27 09.09.2022
1841 Haze 31 1005 32 8047 1.54 170 12:56 09.09.2022
1842 Dust 32 1004 29 9656 4.12 280 10:22 09.09.2022
1843 Dust 34 1005 28 10000 14.92 130 06:46 09.09.2022
1844 Clouds 38 1003 20 10000 6.17 250 03:24 09.09.2022
1845 Clouds 39 1004 27 10000 1.34 167 21:57 08.09.2022
1846 Clouds 38 1010 25 10000 1.34 149 21:36 08.09.2022
1847 Clouds 37 1011 26 10000 2.57 0 20:38 08.09.2022
1848 Clouds 37 1011 26 10000 2.57 0 20:19 08.09.2022
1849 Clouds 34 1011 30 10000 3.6 80 18:26 08.09.2022
1850 Clouds 30 1012 42 10000 2.06 320 16:27 08.09.2022
1851 Thunderstorm 31 1012 34 10000 1.54 260 14:40 08.09.2022
1852 Clouds 31 1012 33 10000 3.09 340 13:27 08.09.2022
1853 Clouds 32 1012 31 10000 4.12 350 12:24 08.09.2022
1854 Clear 33 1011 31 10000 1.46 205 10:58 08.09.2022
1855 Clouds 35 1014 26 10000 5.66 160 08:54 08.09.2022
1856 Clouds 37 1012 24 10000 5.36 200 06:43 08.09.2022
1857 Clouds 41 1012 19 10000 3.6 180 02:37 08.09.2022
1858 Clouds 41 1012 19 10000 3.6 180 02:19 08.09.2022
1859 Clouds 41 1012 19 10000 4.12 120 01:38 08.09.2022
1860 Clouds 41 1015 21 10000 6.17 90 22:54 07.09.2022
1861 Clouds 40 1015 21 10000 4.12 100 21:42 07.09.2022
1862 Clouds 38 1016 22 10000 2.57 110 20:49 07.09.2022
1863 Clouds 37 1017 23 10000 3.6 120 19:42 07.09.2022
1864 Clouds 35 1016 25 10000 2.57 120 18:27 07.09.2022
1865 Clear 31 1015 25 10000 2.57 330 14:26 07.09.2022
1866 Clouds 34 1014 22 10000 0 0 10:49 07.09.2022
1867 Clouds 36 1014 20 10000 4.12 150 09:39 07.09.2022
1868 Clear 37 1014 18 10000 1.54 110 07:23 07.09.2022
1869 Clouds 43 1012 13 10000 2.57 180 03:33 07.09.2022
1870 Clouds 43 1012 13 10000 3.09 130 23:38 06.09.2022
1871 Clouds 41 1013 14 10000 3.6 50 21:42 06.09.2022
1872 Clear 40 1011 16 10000 3.6 120 20:45 06.09.2022
1873 Clear 36 1013 17 10000 2.06 310 18:45 06.09.2022
1874 Clear 36 1013 17 10000 2.06 310 18:22 06.09.2022
1875 Clear 33 1014 21 10000 3.09 270 17:22 06.09.2022
1876 Clear 31 1013 20 10000 2.57 60 16:37 06.09.2022
1877 Clear 31 1012 20 10000 3.13 150 15:22 06.09.2022
1878 Clear 31 1011 19 10000 5.14 320 13:45 06.09.2022
1879 Clear 31 1011 19 10000 5.14 320 13:45 06.09.2022
1880 Clear 32 1011 19 10000 5.14 320 13:23 06.09.2022
1881 Clear 34 1007 20 10000 2.04 281 11:57 06.09.2022
1882 Clear 33 1011 16 10000 3.13 230 10:41 06.09.2022
1883 Clear 35 1011 15 10000 3.09 310 08:50 06.09.2022
1884 Clear 36 1010 15 10000 3.09 320 07:45 06.09.2022
1885 Clouds 42 1009 15 10000 2.68 0 02:44 06.09.2022
1886 Clear 41 1010 19 10000 3.09 90 23:23 05.09.2022
1887 Clouds 39 1012 21 10000 1.79 182 21:53 05.09.2022
1888 Clouds 37 1013 23 10000 2.68 70 20:33 05.09.2022
1889 Clear 36 1012 25 10000 2.57 50 19:19 05.09.2022
1890 Clear 34 1013 27 10000 2.06 0 18:45 05.09.2022
1891 Clear 34 1013 27 10000 2.06 0 18:21 05.09.2022
1892 Clear 30 1013 32 10000 0 0 16:35 05.09.2022
1893 Clouds 30 1013 33 10000 2.68 280 15:47 05.09.2022
1894 Clouds 30 1010 32 10000 2.06 340 13:25 05.09.2022
1895 Clouds 31 1010 30 10000 2.24 250 12:27 05.09.2022
1896 Clouds 34 1009 25 10000 3.6 50 09:44 05.09.2022
1897 Clouds 36 1009 24 10000 6.69 180 06:40 05.09.2022
1898 Clear 42 1004 21 10000 0.45 38 01:56 05.09.2022
1899 Clouds 40 1014 21 10000 2.06 0 22:44 04.09.2022
1900 Clouds 40 1013 22 10000 2.06 0 22:26 04.09.2022
1901 Clouds 38 1014 24 10000 2.68 10 20:44 04.09.2022
1902 Clouds 36 1015 27 10000 0.45 24 19:29 04.09.2022
1903 Clouds 33 1015 31 10000 2.06 320 17:50 04.09.2022
1904 Clouds 31 1016 34 10000 2.57 340 16:28 04.09.2022
1905 Clouds 31 1015 31 10000 3.09 40 14:27 04.09.2022
1906 Clear 31 1015 32 10000 3.09 220 13:28 04.09.2022
1907 Clear 31 1015 32 10000 3.09 220 13:28 04.09.2022
1908 Clear 32 1013 30 10000 2.68 220 11:52 04.09.2022
1909 Clear 33 1008 31 10000 0.45 279 09:56 04.09.2022
1910 Clear 36 1012 25 10000 6.17 180 07:27 04.09.2022
1911 Clear 39 1010 23 10000 7.48 148 04:00 04.09.2022
1912 Clouds 41 1013 20 10000 4.12 120 23:40 03.09.2022
1913 Clouds 39 1013 23 10000 2.57 120 22:21 03.09.2022
1914 Clouds 37 1014 26 10000 2.06 170 21:23 03.09.2022
1915 Clouds 37 1014 26 10000 2.06 170 21:23 03.09.2022
1916 Clear 35 1010 30 10000 0.89 86 18:59 03.09.2022
1917 Clouds 32 1015 32 10000 2.57 60 17:25 03.09.2022
1918 Clear 29 1014 36 10000 3.09 330 16:26 03.09.2022
1919 Clear 29 1012 34 10000 2.24 220 14:44 03.09.2022
1920 Clouds 30 1012 33 10000 3.6 270 13:50 03.09.2022
1921 Clouds 32 1011 30 10000 3.6 80 11:51 03.09.2022
1922 Clear 33 1007 29 10000 1.79 128 09:56 03.09.2022
1923 Clear 35 1006 28 10000 0.89 234 07:57 03.09.2022
1924 Clouds 38 1004 27 10000 3.13 207 04:57 03.09.2022
1925 Clear 40 1003 20 10000 1.34 161 03:57 03.09.2022
1926 Clouds 41 1012 19 10000 3.13 30 23:49 02.09.2022
1927 Clouds 40 1012 21 10000 4.12 150 22:34 02.09.2022
1928 Clouds 38 1009 23 10000 1.95 105 20:57 02.09.2022
1929 Clouds 37 1013 21 10000 3.6 80 20:23 02.09.2022
1930 Clouds 36 1009 25 10000 1.9 94 18:59 02.09.2022
1931 Clear 35 1013 25 10000 2.06 80 18:26 02.09.2022
1932 Clouds 33 1012 25 10000 3.6 20 17:30 02.09.2022
1933 Clouds 33 1012 25 10000 3.6 20 17:30 02.09.2022
1934 Clouds 31 1011 24 10000 2.06 320 16:44 02.09.2022
1935 Clouds 31 1009 21 10000 3.6 340 13:51 02.09.2022
1936 Clear 32 1009 20 10000 1.54 310 11:47 02.09.2022
1937 Clear 34 1009 19 10000 2.24 300 09:49 02.09.2022
1938 Clear 35 1008 16 10000 2.24 250 08:55 02.09.2022
1939 Clear 36 1008 15 10000 2.57 310 07:24 02.09.2022
1940 Clear 37 1008 16 10000 2.68 250 06:34 02.09.2022
1941 Clouds 43 1008 10 10000 3.09 100 02:34 02.09.2022
1942 Clouds 41 1011 13 10000 3.09 90 22:24 01.09.2022
1943 Clouds 40 1012 13 10000 3.13 80 21:39 01.09.2022
1944 Clouds 40 1012 13 10000 3.13 80 21:20 01.09.2022
1945 Clouds 38 1012 14 10000 3.09 130 20:31 01.09.2022
1946 Clouds 35 1013 18 10000 2.57 360 18:37 01.09.2022
1947 Clouds 31 1012 19 10000 1.54 240 16:55 01.09.2022
1948 Clouds 31 1011 20 10000 5.14 330 15:26 01.09.2022
1949 Clear 32 1011 18 10000 2.06 320 13:44 01.09.2022
1950 Clear 32 1007 20 10000 1.05 275 12:56 01.09.2022
1951 Clear 32 1010 17 10000 2.06 320 11:51 01.09.2022
1952 Clear 33 1010 17 10000 2.06 320 11:22 01.09.2022
1953 Clear 34 1011 15 10000 3.09 240 09:32 01.09.2022
1954 Clear 36 1010 13 10000 3.6 250 07:31 01.09.2022
1955 Clear 36 1008 14 10000 1.67 238 05:56 01.09.2022
1956 Clouds 43 1012 8 10000 3.09 170 01:31 01.09.2022
1957 Clear 42 1009 13 10000 1.42 80 22:56 31.08.2022
1958 Clouds 39 1015 14 10000 2.57 120 20:45 31.08.2022
1959 Clouds 36 1015 17 10000 4.12 320 18:47 31.08.2022
1960 Clouds 32 1015 21 10000 5.66 320 16:47 31.08.2022
1961 Clouds 30 1015 25 10000 6.69 340 15:25 31.08.2022
1962 Clouds 32 1013 22 10000 5.66 320 13:37 31.08.2022
1963 Clear 32 1013 20 10000 2.24 240 11:55 31.08.2022
1964 Clear 33 1013 20 10000 3.6 290 09:36 31.08.2022
1965 Clear 34 1013 20 10000 3.6 310 08:26 31.08.2022
1966 Clear 41 1009 14 10000 1.31 328 02:58 31.08.2022
1967 Clouds 41 1014 16 10000 2.68 340 22:29 30.08.2022
1968 Clouds 41 1014 16 10000 2.68 340 22:29 30.08.2022
1969 Clouds 40 1014 17 10000 5.66 50 21:29 30.08.2022
1970 Clouds 39 1015 19 10000 2.57 80 20:35 30.08.2022
1971 Clear 32 1013 35 10000 1.45 344 16:58 30.08.2022
1972 Clear 30 1014 32 10000 2.24 200 13:53 30.08.2022
1973 Clear 31 1014 32 10000 2.06 200 12:24 30.08.2022
1974 Clear 32 1014 30 10000 2.06 320 11:20 30.08.2022
1975 Clear 33 1013 28 10000 3.6 220 09:39 30.08.2022
1976 Clear 35 1012 24 10000 2.06 120 06:48 30.08.2022
1977 Clouds 39 1010 21 10000 3.6 190 01:18 30.08.2022
1978 Clouds 38 1013 23 10000 2.57 0 22:38 29.08.2022
1979 Clouds 38 1013 24 10000 2.24 0 21:53 29.08.2022
1980 Clouds 36 1013 30 10000 3.6 120 20:47 29.08.2022
1981 Clear 34 1009 39 10000 0.45 269 18:59 29.08.2022
1982 Clear 31 1012 41 10000 2.06 320 17:33 29.08.2022
1983 Clear 29 1008 47 10000 0.89 28 16:58 29.08.2022
1984 Clear 29 1012 45 10000 2.06 20 15:19 29.08.2022
1985 Clear 30 1010 39 10000 3.6 40 13:54 29.08.2022
1986 Clear 30 1011 39 10000 2.06 60 12:24 29.08.2022
1987 Clear 31 1008 36 10000 4.12 200 10:43 29.08.2022
1988 Clear 33 1008 33 10000 3.6 170 09:18 29.08.2022
1989 Clear 35 1007 27 10000 6.69 150 06:52 29.08.2022
1990 Clouds 38 1005 20 10000 7.72 140 02:25 29.08.2022
1991 Clouds 38 1007 17 10000 6.17 160 23:33 28.08.2022
1992 Clouds 38 1008 19 10000 6.26 170 21:48 28.08.2022
1993 Clouds 38 1008 20 10000 6.26 170 21:25 28.08.2022
1994 Clouds 36 1009 20 10000 6.26 180 20:18 28.08.2022
1995 Clouds 36 1009 20 10000 6.26 180 20:18 28.08.2022
1996 Clear 32 1009 27 10000 3.6 180 18:22 28.08.2022
1997 Clear 31 1009 29 10000 4.63 200 17:51 28.08.2022
1998 Clear 29 1009 31 10000 3.6 170 16:44 28.08.2022
1999 Clear 28 1007 32 10000 1.97 180 15:00 28.08.2022
2000 Clear 29 1002 28 10000 0.45 219 12:57 28.08.2022
2001 Clear 31 1006 23 10000 5.66 180 11:24 28.08.2022
2002 Clear 31 1006 21 10000 4.12 190 10:20 28.08.2022
2003 Clear 33 1005 17 10000 3.6 230 08:49 28.08.2022
2004 Clear 33 1005 17 10000 3.13 180 07:51 28.08.2022
2005 Clouds 37 1004 12 10000 6.17 210 04:55 28.08.2022
2006 Clouds 40 1005 11 10000 6.26 230 00:36 28.08.2022
2007 Clear 40 1002 12 10000 3.58 249 22:58 27.08.2022
2008 Clouds 39 1008 13 10000 4.12 90 22:24 27.08.2022
2009 Clouds 36 1009 21 10000 3.6 80 20:34 27.08.2022
2010 Clear 32 1009 33 10000 4.63 50 18:50 27.08.2022
2011 Clouds 28 1009 36 10000 3.09 60 16:26 27.08.2022
2012 Clouds 28 1010 36 10000 3.09 50 15:30 27.08.2022
2013 Clouds 29 1008 35 10000 0 0 12:55 27.08.2022
2014 Clear 29 1004 38 10000 0.45 338 11:58 27.08.2022
2015 Clouds 31 1009 32 10000 4.12 40 10:26 27.08.2022
2016 Clouds 32 1010 28 10000 6.17 60 09:31 27.08.2022
2017 Clear 35 1004 26 10000 1.34 242 05:59 27.08.2022
2018 Clouds 38 1010 21 10000 0.89 191 00:51 27.08.2022
2019 Clouds 38 1013 22 10000 2.24 0 23:35 26.08.2022
2020 Clouds 35 1013 27 10000 2.24 0 21:45 26.08.2022
2021 Clouds 33 1014 31 10000 1.79 153 19:50 26.08.2022
2022 Clouds 31 1014 34 10000 2.57 90 17:49 26.08.2022
2023 Clouds 28 1015 38 10000 3.13 20 15:40 26.08.2022
2024 Clouds 27 1011 47 10000 0.91 283 14:59 26.08.2022
2025 Clouds 28 1009 45 10000 3.57 295 12:56 26.08.2022
2026 Clouds 30 1013 37 10000 4.12 300 11:43 26.08.2022
2027 Clouds 30 1013 38 10000 2.06 90 11:21 26.08.2022
2028 Clouds 31 1010 37 10000 1.79 14 07:56 26.08.2022
2029 Clear 36 1010 30 10000 1.54 0 02:57 26.08.2022
2030 Clouds 36 1015 24 10000 5.36 80 23:45 25.08.2022
2031 Clouds 34 1015 33 10000 3.6 70 21:55 25.08.2022
2032 Clouds 33 1016 36 10000 3.13 100 20:51 25.08.2022
2033 Clouds 31 1016 42 10000 2.57 100 19:27 25.08.2022
2034 Clouds 29 1016 50 10000 3.13 80 18:29 25.08.2022
2035 Clouds 28 1015 56 10000 3.6 120 17:31 25.08.2022
2036 Clouds 27 1015 59 10000 2.57 80 16:27 25.08.2022
2037 Clouds 27 1015 60 10000 2.24 100 15:28 25.08.2022
2038 Clouds 27 1011 55 10000 0.89 91 12:56 25.08.2022
2039 Dust 29 1015 47 10000 5.14 100 10:49 25.08.2022
2040 Dust 30 1015 42 10000 4.63 140 09:44 25.08.2022
2041 Dust 31 1012 37 8047 6.69 130 06:45 25.08.2022
2042 Clouds 35 1010 21 10000 5.66 230 02:29 25.08.2022
2043 Clouds 39 1009 24 10000 3.6 150 23:29 24.08.2022
2044 Clouds 38 1010 24 10000 3.09 80 22:46 24.08.2022
2045 Clouds 37 1011 27 10000 4.63 90 21:37 24.08.2022
2046 Clouds 37 1011 27 10000 4.63 90 21:19 24.08.2022
2047 Clouds 34 1011 31 10000 4.12 130 19:34 24.08.2022
2048 Clouds 31 1011 35 10000 3.6 310 16:49 24.08.2022
2049 Thunderstorm 31 1010 35 10000 5.14 270 15:52 24.08.2022
2050 Clouds 31 1010 36 10000 3.6 170 13:48 24.08.2022
2051 Clear 31 1007 37 10000 0.67 155 11:59 24.08.2022
2052 Clouds 32 1008 32 10000 5.14 150 11:18 24.08.2022
2053 Clouds 34 1009 25 10000 3.13 170 08:26 24.08.2022
2054 Clouds 41 1006 15 10000 3.09 350 03:32 24.08.2022
2055 Clouds 40 1008 21 10000 2.57 220 23:35 23.08.2022
2056 Clouds 38 1009 25 10000 4.63 150 22:33 23.08.2022
2057 Clouds 37 1010 28 10000 3.6 120 21:35 23.08.2022
2058 Clouds 35 1011 32 10000 4.63 140 20:30 23.08.2022
2059 Smoke 33 1011 36 10000 2.68 30 18:50 23.08.2022
2060 Clear 32 1010 40 10000 2.06 70 17:50 23.08.2022
2061 Clear 31 1010 41 10000 2.06 70 17:18 23.08.2022
2062 Clouds 29 1011 40 10000 3.6 40 15:39 23.08.2022
2063 Clouds 30 1011 36 10000 3.6 50 13:36 23.08.2022
2064 Clouds 31 1011 34 10000 3.6 190 11:33 23.08.2022
2065 Clear 31 1011 34 10000 3.09 200 10:51 23.08.2022
2066 Clear 32 1011 33 10000 3.09 200 10:26 23.08.2022
2067 Clouds 33 1011 31 10000 3.6 210 08:53 23.08.2022
2068 Clouds 33 1011 32 10000 3.6 210 08:21 23.08.2022
2069 Clouds 34 1010 29 10000 3.09 170 07:38 23.08.2022
2070 Clouds 35 1010 27 10000 3.09 70 06:29 23.08.2022
2071 Clouds 35 1010 27 10000 3.09 70 06:29 23.08.2022
2072 Clouds 38 1009 21 10000 3.13 100 04:45 23.08.2022
2073 Clouds 39 1011 24 10000 3.09 150 00:28 23.08.2022
2074 Clouds 38 1014 25 10000 3.09 50 23:54 22.08.2022
2075 Clouds 37 1014 29 10000 2.57 0 22:45 22.08.2022
2076 Clouds 35 1014 34 10000 3.09 70 21:45 22.08.2022
2077 Clouds 33 1015 40 10000 1.54 120 19:49 22.08.2022
2078 Clouds 32 1015 41 10000 1.54 120 19:18 22.08.2022
2079 Clouds 30 1014 49 10000 3.13 80 17:37 22.08.2022
2080 Clouds 28 1014 54 10000 6.17 60 15:39 22.08.2022
2081 Clouds 28 1013 52 10000 6.69 50 14:32 22.08.2022
2082 Clouds 31 1013 43 10000 4.63 190 10:49 22.08.2022
2083 Clouds 32 1015 36 10000 4.12 120 08:21 22.08.2022
2084 Clouds 37 1011 29 10000 13.38 30 04:30 22.08.2022
2085 Clouds 39 1012 27 10000 2.57 60 00:49 22.08.2022
2086 Clouds 38 1012 28 10000 2.57 60 00:26 22.08.2022
2087 Clouds 38 1013 30 10000 3.6 120 22:53 21.08.2022
2088 Clouds 36 1014 35 10000 5.14 90 21:28 21.08.2022
2089 Clear 35 1012 38 10000 4.12 100 20:57 21.08.2022
2090 Clouds 33 1015 41 10000 2.57 160 19:27 21.08.2022
2091 Clear 31 1015 50 10000 4.12 130 17:39 21.08.2022
2092 Clear 28 1009 58 10000 0.45 16 15:58 21.08.2022
2093 Clouds 28 1013 53 10000 4.63 200 15:22 21.08.2022
2094 Clear 29 1011 51 10000 5.66 170 13:53 21.08.2022
2095 Clear 29 1012 49 10000 5.66 170 13:30 21.08.2022
2096 Clear 30 1011 44 10000 2.24 150 11:54 21.08.2022
2097 Clouds 32 1012 37 10000 4.12 150 09:31 21.08.2022
2098 Clouds 31 1010 40 10000 3.09 140 08:56 21.08.2022
2099 Clouds 31 1010 37 10000 4.12 180 08:38 21.08.2022
2100 Clouds 31 1009 36 10000 4.12 160 07:27 21.08.2022
2101 Clouds 35 1008 28 10000 6.17 180 03:41 21.08.2022
2102 Clouds 37 1009 30 10000 4.12 90 00:24 21.08.2022
2103 Clouds 35 1010 36 10000 2.57 200 22:40 20.08.2022
2104 Clouds 35 1011 39 10000 2.24 0 21:37 20.08.2022
2105 Clouds 33 1011 41 10000 2.57 80 20:41 20.08.2022
2106 Clouds 32 1012 44 10000 3.6 130 19:40 20.08.2022
2107 Clouds 31 1011 50 10000 4.12 130 18:30 20.08.2022
2108 Clouds 29 1011 51 10000 2.68 70 17:50 20.08.2022
2109 Clouds 28 1010 55 10000 3.6 180 16:52 20.08.2022
2110 Clouds 27 1009 55 10000 4.63 180 15:33 20.08.2022
2111 Clear 28 1008 46 10000 5.14 170 13:26 20.08.2022
2112 Clear 30 1007 39 10000 5.66 80 11:50 20.08.2022
2113 Clear 31 1007 34 10000 4.12 40 09:37 20.08.2022
2114 Clouds 32 1007 33 10000 4.12 200 08:31 20.08.2022
2115 Clouds 35 1006 26 10000 4.12 210 05:52 20.08.2022
2116 Clear 38 1006 35 10000 4.86 259 00:59 20.08.2022
2117 Clouds 37 1008 25 10000 3.6 140 00:34 20.08.2022
2118 Clouds 36 1009 28 10000 3.13 70 23:18 19.08.2022
2119 Clouds 34 1011 32 10000 2.57 190 21:40 19.08.2022
2120 Clouds 32 1012 39 10000 2.24 100 19:54 19.08.2022
2121 Clouds 29 1012 50 10000 2.68 30 17:19 19.08.2022
2122 Clouds 26 1011 59 10000 2.57 180 14:54 19.08.2022
2123 Clouds 28 1011 52 10000 4.63 260 12:49 19.08.2022
2124 Thunderstorm 27 1014 53 10000 3.6 270 10:44 19.08.2022
2125 Thunderstorm 27 1014 56 10000 2.57 280 10:19 19.08.2022
2126 Rain 33 1009 48 10000 2.57 190 05:58 19.08.2022
2127 Thunderstorm 36 1010 33 10000 6.69 330 00:48 19.08.2022
2128 Clouds 36 1011 34 10000 7.72 310 00:23 19.08.2022
2129 Clouds 36 1011 33 10000 4.47 297 23:28 18.08.2022
2130 Clouds 37 1014 33 10000 5.14 130 22:37 18.08.2022
2131 Clouds 36 1012 33 10000 3.13 50 21:53 18.08.2022
2132 Clouds 36 1014 30 10000 3.13 50 21:26 18.08.2022
2133 Clouds 34 1013 35 10000 2.57 110 19:55 18.08.2022
2134 Clouds 34 1013 36 10000 2.24 40 19:25 18.08.2022
2135 Clouds 32 1014 40 10000 3.13 60 17:49 18.08.2022
2136 Clouds 30 1013 43 10000 3.6 20 16:55 18.08.2022
2137 Clouds 30 1012 46 10000 4.12 20 14:22 18.08.2022
2138 Clouds 29 1009 51 10000 2.57 60 13:58 18.08.2022
2139 Clouds 30 1012 46 10000 2.68 40 12:31 18.08.2022
2140 Clouds 31 1012 44 10000 3.6 10 11:23 18.08.2022
2141 Clouds 32 1012 41 10000 6 70 09:43 18.08.2022
2142 Clouds 33 1012 38 10000 6.17 30 08:31 18.08.2022
2143 Clouds 33 1013 37 10000 7.72 40 07:18 18.08.2022
2144 Thunderstorm 36 1009 34 10000 8.23 210 02:59 18.08.2022
2145 Clouds 37 1012 28 10000 2.06 0 22:51 17.08.2022
2146 Clouds 36 1013 32 10000 2.68 60 21:26 17.08.2022
2147 Clear 35 1009 35 10000 0.89 319 19:59 17.08.2022
2148 Clouds 33 1014 36 10000 3.09 30 18:39 17.08.2022
2149 Clouds 31 1013 40 10000 0.45 74 17:27 17.08.2022
2150 Clouds 29 1013 48 10000 2.06 170 16:21 17.08.2022
2151 Clouds 28 1012 44 10000 2.57 350 14:48 17.08.2022
2152 Clouds 29 1013 43 10000 2.06 90 12:50 17.08.2022
2153 Clouds 30 1011 38 10000 3.6 340 11:36 17.08.2022
2154 Clouds 31 1010 37 10000 9.26 300 09:30 17.08.2022
2155 Clouds 33 1010 35 10000 6.69 30 07:28 17.08.2022
2156 Clouds 37 1009 25 10000 4.12 60 01:45 17.08.2022
2157 Clouds 37 1010 27 10000 5.14 40 23:33 16.08.2022
2158 Clouds 35 1013 30 10000 2.57 70 21:48 16.08.2022
2159 Clouds 34 1014 33 10000 3.09 350 20:26 16.08.2022
2160 Clear 33 1012 36 10000 3.6 60 19:40 16.08.2022
2161 Clouds 31 1012 38 10000 2.24 10 18:18 16.08.2022
2162 Clouds 29 1012 44 10000 1.54 350 17:24 16.08.2022
2163 Clouds 27 1013 48 10000 2.57 300 15:45 16.08.2022
2164 Clouds 27 1011 48 10000 2.24 310 14:55 16.08.2022
2165 Clouds 27 1011 48 10000 3.09 310 14:36 16.08.2022
2166 Clouds 28 1011 46 10000 4.12 40 12:40 16.08.2022
2167 Clouds 28 1011 43 10000 7.2 290 10:29 16.08.2022
2168 Clouds 29 1011 41 10000 7.72 290 09:29 16.08.2022
2169 Thunderstorm 29 1013 45 10000 10.29 320 08:26 16.08.2022
2170 Clouds 32 1012 38 10000 13.38 270 07:20 16.08.2022
2171 Clouds 35 1009 31 10000 4.63 40 01:20 16.08.2022
2172 Clouds 34 1012 36 10000 4.63 70 22:26 15.08.2022
2173 Clouds 33 1013 39 10000 3.13 90 21:51 15.08.2022
2174 Clouds 31 1013 44 10000 4.12 90 20:35 15.08.2022
2175 Clouds 31 1009 49 10000 1.34 90 19:59 15.08.2022
2176 Clouds 29 1009 54 10000 0.45 167 18:00 15.08.2022
2177 Clouds 26 1013 61 10000 2.06 70 16:25 15.08.2022
2178 Clouds 26 1013 64 10000 2.68 90 15:55 15.08.2022
2179 Clouds 26 1014 60 10000 3.09 20 13:54 15.08.2022
2180 Clouds 27 1013 59 10000 4.12 50 12:24 15.08.2022
2181 Clouds 27 1014 56 10000 2.68 100 09:53 15.08.2022
2182 Clouds 28 1014 50 10000 8.23 70 07:49 15.08.2022
2183 Clouds 34 1012 34 10000 5.14 180 04:35 15.08.2022
2184 Clouds 35 1011 33 10000 4.63 210 00:54 15.08.2022
2185 Clouds 35 1014 35 10000 1.54 220 22:38 14.08.2022
2186 Clouds 34 1015 37 10000 2.24 0 21:37 14.08.2022
2187 Clouds 33 1015 44 10000 2.68 0 19:48 14.08.2022
2188 Clouds 32 1011 50 10000 0.89 120 18:57 14.08.2022
2189 Clouds 31 1015 49 10000 4.63 100 18:18 14.08.2022
2190 Clouds 28 1015 60 10000 3.09 40 16:52 14.08.2022
2191 Clouds 27 1014 61 10000 3.09 190 15:48 14.08.2022
2192 Clouds 27 1014 60 10000 3.09 200 14:24 14.08.2022
2193 Clouds 27 1014 62 10000 2.57 190 13:49 14.08.2022
2194 Clouds 27 1014 61 10000 2.57 190 13:19 14.08.2022
2195 Clouds 27 1010 65 10000 0.45 292 11:56 14.08.2022
2196 Clouds 28 1014 59 10000 3.09 170 10:40 14.08.2022
2197 Clouds 28 1015 59 10000 2.06 160 08:50 14.08.2022
2198 Clouds 29 1015 55 10000 3.09 220 06:21 14.08.2022
2199 Clouds 31 1014 49 10000 4.12 180 02:48 14.08.2022
2200 Clouds 31 1018 50 10000 0 0 23:53 13.08.2022
2201 Clouds 30 1019 54 10000 2.06 30 22:52 13.08.2022
2202 Clouds 29 1014 63 10000 1.03 51 20:58 13.08.2022
2203 Clouds 28 1018 61 10000 2.06 350 20:31 13.08.2022
2204 Clouds 28 1018 65 10000 2.57 70 19:29 13.08.2022
2205 Clouds 26 1017 71 10000 2.06 210 17:40 13.08.2022
2206 Clouds 26 1016 74 10000 4.12 60 15:23 13.08.2022
2207 Clouds 26 1016 73 10000 4.12 40 14:26 13.08.2022
2208 Clouds 26 1015 73 10000 5.14 40 13:38 13.08.2022
2209 Clouds 26 1015 70 10000 2.06 80 11:52 13.08.2022
2210 Clouds 26 1012 72 10000 0.3 172 09:58 13.08.2022
2211 Clouds 27 1015 68 10000 3.09 80 08:23 13.08.2022
2212 Clouds 28 1014 59 10000 3.09 150 04:21 13.08.2022
2213 Clouds 35 1014 35 10000 7.72 30 23:47 12.08.2022
2214 Clouds 35 1015 35 10000 2.57 40 21:42 12.08.2022
2215 Clouds 34 1015 38 10000 2.06 50 20:51 12.08.2022
2216 Clouds 33 1016 40 10000 2.57 120 19:39 12.08.2022
2217 Clouds 32 1016 43 10000 4.12 50 18:46 12.08.2022
2218 Clouds 27 1016 57 10000 2.06 180 16:37 12.08.2022
2219 Clouds 27 1016 57 10000 4.63 70 15:40 12.08.2022
2220 Clouds 27 1015 52 10000 3.09 30 14:27 12.08.2022
2221 Clouds 27 1015 54 10000 2.24 220 12:53 12.08.2022
2222 Clouds 28 1016 52 10000 2.57 130 09:52 12.08.2022
2223 Rain 30 1016 43 10000 9.77 350 07:47 12.08.2022
2224 Thunderstorm 33 1015 35 10000 7.2 170 06:31 12.08.2022
2225 Clouds 37 1014 26 10000 3.09 170 02:22 12.08.2022
2226 Clouds 37 1014 31 10000 2.24 182 00:23 12.08.2022
2227 Clouds 37 1015 32 10000 3.09 240 23:34 11.08.2022
2228 Clouds 36 1014 35 10000 1.68 120 21:58 11.08.2022
2229 Clouds 35 1018 35 10000 5.66 130 21:35 11.08.2022
2230 Clouds 34 1018 38 10000 2.68 0 20:32 11.08.2022
2231 Clear 34 1013 42 10000 1.79 96 19:57 11.08.2022
2232 Clouds 33 1017 41 10000 2.57 110 19:32 11.08.2022
2233 Clouds 30 1017 48 10000 1.54 360 17:47 11.08.2022
2234 Clear 28 1015 53 10000 0.97 38 16:32 11.08.2022
2235 Clouds 27 1017 56 10000 2.57 210 15:20 11.08.2022
2236 Clouds 27 1016 54 10000 5.66 30 12:41 11.08.2022
2237 Clouds 29 1016 49 10000 0 0 09:54 11.08.2022
2238 Clouds 30 1012 47 10000 2.24 148 06:59 11.08.2022
2239 Clouds 35 1016 32 10000 3.6 90 03:45 11.08.2022
2240 Clouds 33 1015 39 10000 7.2 160 00:35 11.08.2022
2241 Thunderstorm 34 1016 40 10000 5.66 100 22:21 10.08.2022
2242 Clouds 34 1017 39 10000 3.6 70 21:20 10.08.2022
2243 Clouds 34 1018 41 10000 2.57 70 20:43 10.08.2022
2244 Clouds 34 1018 41 10000 2.57 70 20:43 10.08.2022
2245 Clouds 31 1017 50 10000 4.63 50 18:55 10.08.2022
2246 Clouds 29 1017 54 10000 4.63 60 17:31 10.08.2022
2247 Clouds 27 1017 65 10000 4.12 70 15:53 10.08.2022
2248 Clouds 27 1015 63 10000 1.54 190 13:34 10.08.2022
2249 Clouds 28 1015 63 10000 1.54 80 12:24 10.08.2022
2250 Clouds 29 1014 54 10000 3.09 150 08:55 10.08.2022
2251 Clouds 29 1014 54 10000 3.09 150 08:31 10.08.2022
2252 Clouds 29 1013 49 10000 4.63 180 06:22 10.08.2022
2253 Clear 34 1011 37 10000 9.26 200 02:45 10.08.2022
2254 Clouds 36 1014 32 10000 7.2 80 23:34 09.08.2022
2255 Clouds 35 1015 33 10000 7.72 90 22:55 09.08.2022
2256 Clouds 36 1016 30 10000 6.26 90 21:34 09.08.2022
2257 Clouds 34 1016 33 10000 2.57 230 19:34 09.08.2022
2258 Clouds 32 1016 36 10000 4.63 120 18:23 09.08.2022
2259 Clouds 32 1016 38 10000 4.63 160 17:26 09.08.2022
2260 Clouds 31 1015 39 10000 5.66 130 16:40 09.08.2022
2261 Clouds 30 1015 39 10000 4.63 100 15:40 09.08.2022
2262 Clouds 32 1014 37 10000 3.6 170 12:25 09.08.2022
2263 Clouds 33 1014 36 10000 3.6 250 09:22 09.08.2022
2264 Clouds 34 1014 34 10000 5.66 170 08:26 09.08.2022
2265 Clouds 34 1014 33 10000 8.75 120 07:18 09.08.2022
2266 Clouds 38 1011 23 10000 7.2 200 03:32 09.08.2022
2267 Clouds 38 1013 23 10000 3.6 320 23:27 08.08.2022
2268 Clouds 38 1015 24 10000 3.6 260 22:53 08.08.2022
2269 Clouds 37 1015 25 10000 3.6 240 21:49 08.08.2022
2270 Clouds 36 1016 27 10000 2.57 130 20:52 08.08.2022
2271 Clouds 35 1016 31 10000 3.09 90 19:50 08.08.2022
2272 Clouds 34 1016 34 10000 3.09 90 18:35 08.08.2022
2273 Clouds 31 1016 37 10000 3.6 340 16:34 08.08.2022
2274 Clouds 30 1015 38 10000 3.6 60 15:38 08.08.2022
2275 Clouds 31 1014 32 10000 3.6 200 12:50 08.08.2022
2276 Clouds 32 1014 30 10000 2.57 180 11:48 08.08.2022
2277 Clouds 34 1014 26 10000 3.6 170 09:29 08.08.2022
2278 Clouds 37 1013 20 10000 3.09 200 05:37 08.08.2022
2279 Clouds 39 1012 17 10000 3.6 280 02:24 08.08.2022
2280 Clouds 38 1016 20 10000 5.14 130 22:20 07.08.2022
2281 Clouds 37 1016 21 10000 4.63 100 21:38 07.08.2022
2282 Clouds 36 1017 24 10000 4.63 50 20:25 07.08.2022
2283 Clouds 35 1017 27 10000 3.09 70 19:54 07.08.2022
2284 Clouds 34 1017 28 10000 3.09 70 19:29 07.08.2022
2285 Clouds 33 1017 30 10000 3.09 90 18:21 07.08.2022
2286 Clouds 30 1017 35 10000 4.63 50 16:53 07.08.2022
2287 Clouds 29 1016 36 10000 3.09 70 15:54 07.08.2022
2288 Clouds 29 1015 34 10000 5.66 30 14:39 07.08.2022
2289 Clear 30 1010 32 10000 2.22 350 12:59 07.08.2022
2290 Clouds 32 1014 30 10000 4.12 50 10:57 07.08.2022
2291 Clouds 32 1014 29 10000 4.12 50 10:21 07.08.2022
2292 Clouds 37 1011 23 10000 4.12 80 04:42 07.08.2022
2293 Clouds 39 1012 21 10000 4.12 300 02:37 07.08.2022
2294 Clouds 37 1014 25 10000 2.24 0 23:29 06.08.2022
2295 Clouds 36 1015 27 10000 3.6 130 22:20 06.08.2022
2296 Clouds 35 1016 32 10000 2.57 360 20:20 06.08.2022
2297 Clouds 34 1016 34 10000 5.14 350 19:38 06.08.2022
2298 Clouds 32 1016 39 10000 7.72 310 18:19 06.08.2022
2299 Clouds 28 1015 52 10000 5.14 320 16:33 06.08.2022
2300 Clouds 27 1014 54 10000 3.6 310 13:52 06.08.2022
2301 Clear 27 1014 53 10000 4.63 210 12:50 06.08.2022
2302 Clear 28 1014 53 10000 3.6 310 11:21 06.08.2022
2303 Clear 29 1014 51 10000 3.6 180 09:49 06.08.2022
2304 Clear 30 1014 45 10000 3.09 230 07:36 06.08.2022
2305 Clouds 35 1013 31 10000 9.26 240 02:22 06.08.2022
2306 Clouds 33 1015 38 10000 8.75 180 22:40 05.08.2022
2307 Clouds 32 1015 43 10000 7.2 210 21:36 05.08.2022
2308 Clouds 28 1016 57 10000 6.17 190 19:22 05.08.2022
2309 Clouds 26 1016 72 10000 6.17 190 18:44 05.08.2022
2310 Clouds 27 1016 63 10000 3.09 200 16:55 05.08.2022
2311 Clouds 27 1015 66 10000 3.09 200 16:37 05.08.2022
2312 Clouds 26 1015 67 10000 2.57 80 15:19 05.08.2022
2313 Clouds 26 1014 66 10000 3.09 40 13:39 05.08.2022
2314 Clouds 26 1014 65 10000 3.09 40 13:20 05.08.2022
2315 Clouds 26 1014 64 10000 4.12 30 12:23 05.08.2022
2316 Clouds 27 1015 61 10000 4.12 210 10:25 05.08.2022
2317 Clouds 28 1012 54 10000 2.48 113 07:58 05.08.2022
2318 Clouds 28 1012 54 10000 2.48 113 07:58 05.08.2022
2319 Clouds 29 1012 49 10000 8.75 210 05:25 05.08.2022
2320 Clouds 33 1011 35 10000 10.8 200 23:51 04.08.2022
2321 Clouds 33 1007 36 10000 4.47 167 21:58 04.08.2022
2322 Clouds 32 1013 37 10000 11.32 170 21:25 04.08.2022
2323 Clouds 31 1013 41 10000 10.29 190 20:41 04.08.2022
2324 Clouds 32 1012 36 10000 6.69 170 19:21 04.08.2022
2325 Clouds 33 1012 35 10000 7.2 210 18:34 04.08.2022
2326 Clouds 32 1011 38 10000 3.09 150 17:28 04.08.2022
2327 Clouds 32 1011 34 10000 4.12 210 13:35 04.08.2022
2328 Clouds 33 1011 32 10000 6.17 210 11:46 04.08.2022
2329 Clouds 34 1011 30 10000 3.09 220 10:48 04.08.2022
2330 Clouds 35 1011 28 10000 3.09 210 07:51 04.08.2022
2331 Clouds 39 1010 23 10000 6.17 180 04:28 04.08.2022
2332 Clouds 40 1006 23 10000 1.89 147 01:58 04.08.2022
2333 Clouds 40 1010 23 10000 3.09 210 23:42 03.08.2022
2334 Clouds 38 1013 26 10000 2.57 90 21:39 03.08.2022
2335 Clouds 37 1014 29 10000 3.6 50 20:22 03.08.2022
2336 Clouds 34 1014 32 10000 3.09 50 19:28 03.08.2022
2337 Clouds 31 1014 39 10000 5.14 210 17:41 03.08.2022
2338 Clouds 30 1014 42 10000 5.14 210 16:24 03.08.2022
2339 Clouds 30 1013 40 10000 5.66 220 14:43 03.08.2022
2340 Clouds 31 1013 37 10000 4.12 210 11:53 03.08.2022
2341 Clouds 33 1011 33 10000 3.09 190 08:20 03.08.2022
2342 Clouds 37 1012 28 10000 3.09 220 04:46 03.08.2022
2343 Clouds 38 1012 25 10000 5.14 240 03:27 03.08.2022
2344 Clouds 38 1011 26 10000 2.57 170 01:18 03.08.2022
2345 Clouds 38 1011 26 10000 2.57 170 01:18 03.08.2022
2346 Clouds 37 1010 32 10000 1.3 212 22:59 02.08.2022
2347 Clouds 37 1014 31 10000 2.57 50 21:53 02.08.2022
2348 Clouds 36 1010 36 10000 1.79 198 20:58 02.08.2022
2349 Clouds 33 1015 40 10000 4.12 320 18:48 02.08.2022
2350 Clouds 29 1015 56 10000 3.6 210 16:22 02.08.2022
2351 Clouds 28 1015 53 10000 5.14 220 12:34 02.08.2022
2352 Clouds 30 1015 49 10000 5.14 200 09:34 02.08.2022
2353 Clouds 31 1015 46 10000 7.2 210 07:54 02.08.2022
2354 Clouds 31 1013 46 10000 5.14 180 06:43 02.08.2022
2355 Clouds 32 1013 41 10000 4.63 170 04:55 02.08.2022
2356 Thunderstorm 36 1014 34 10000 9.26 150 23:51 01.08.2022
2357 Clouds 34 1016 40 10000 4.12 150 22:25 01.08.2022
2358 Clouds 33 1017 45 10000 4.12 110 20:52 01.08.2022
2359 Clouds 31 1017 50 10000 2.24 108 19:32 01.08.2022
2360 Clouds 30 1018 55 10000 2.06 150 18:40 01.08.2022
2361 Clouds 27 1016 67 10000 2.06 190 16:53 01.08.2022
2362 Clouds 26 1017 73 10000 3.09 210 15:52 01.08.2022
2363 Clouds 25 1016 75 10000 1.54 40 15:30 01.08.2022
2364 Clouds 25 1018 72 10000 3.09 200 14:43 01.08.2022
2365 Clouds 26 1016 68 10000 4.12 210 12:47 01.08.2022
2366 Clouds 28 1016 61 10000 3.6 210 09:43 01.08.2022
2367 Clouds 27 1016 59 10000 2.57 200 08:30 01.08.2022
2368 Clouds 30 1012 60 10000 1.48 269 04:56 01.08.2022
2369 Clouds 29 1016 52 10000 5.14 180 03:49 01.08.2022
2370 Rain 27 1018 67 10000 6.69 190 00:36 01.08.2022
2371 Clouds 29 1018 61 10000 8.23 210 22:40 31.07.2022
2372 Clear 31 1018 55 10000 3.6 120 21:29 31.07.2022
2373 Clouds 32 1018 48 10000 4.12 130 19:53 31.07.2022
2374 Clouds 31 1017 57 10000 4.12 50 17:57 31.07.2022
2375 Clouds 29 1017 56 10000 3.6 50 15:39 31.07.2022
2376 Clouds 29 1016 54 10000 2.57 100 13:44 31.07.2022
2377 Clouds 29 1013 58 10000 2.54 72 11:59 31.07.2022
2378 Clear 31 1017 51 10000 2.06 160 09:55 31.07.2022
2379 Clouds 31 1013 51 10000 2.64 103 07:59 31.07.2022
2380 Clouds 35 1010 35 10000 2.24 100 02:58 31.07.2022
2381 Clear 34 1015 36 10000 3.6 100 23:40 30.07.2022
2382 Clouds 32 1016 40 10000 4.63 50 22:19 30.07.2022
2383 Clouds 32 1016 43 10000 2.57 0 21:49 30.07.2022
2384 Clouds 32 1013 47 10000 2.57 90 20:57 30.07.2022
2385 Clouds 32 1013 47 10000 2.57 90 20:57 30.07.2022
2386 Clouds 32 1012 48 10000 0.89 39 19:59 30.07.2022
2387 Clouds 29 1016 56 10000 3.09 90 18:53 30.07.2022
2388 Clouds 28 1016 62 10000 2.06 130 17:44 30.07.2022
2389 Clouds 25 1015 78 10000 2.57 80 15:54 30.07.2022
2390 Clouds 25 1015 77 10000 2.57 80 15:24 30.07.2022
2391 Clouds 25 1014 78 10000 4.12 50 13:18 30.07.2022
2392 Clouds 26 1014 75 10000 3.09 220 12:19 30.07.2022
2393 Clouds 26 1015 72 10000 3.09 90 10:31 30.07.2022
2394 Clouds 26 1015 72 10000 3.09 90 10:31 30.07.2022
2395 Clouds 26 1015 72 10000 3.09 90 10:31 30.07.2022
2396 Clouds 26 1015 72 10000 3.09 90 10:31 30.07.2022
2397 Clouds 26 1014 71 10000 2.57 180 09:54 30.07.2022
2398 Thunderstorm 26 1015 71 10000 3.6 140 07:55 30.07.2022
2399 Clear 36 1007 34 10000 4.12 150 02:57 30.07.2022
2400 Clouds 37 1010 32 10000 4.12 150 02:24 30.07.2022
2401 Clouds 34 1013 41 10000 3.6 110 22:41 29.07.2022
2402 Clouds 32 1014 45 10000 4.12 140 21:24 29.07.2022
2403 Clouds 31 1014 47 10000 1.34 88 20:35 29.07.2022
2404 Clouds 28 1015 61 10000 2.57 360 18:18 29.07.2022
2405 Clouds 24 1015 72 10000 2.57 50 15:35 29.07.2022
2406 Clouds 25 1014 65 10000 3.09 340 13:19 29.07.2022
2407 Clouds 25 1014 68 10000 6.17 90 11:22 29.07.2022
2408 Thunderstorm 24 1014 66 10000 6.69 270 08:50 29.07.2022
2409 Thunderstorm 27 1013 58 8047 10.8 130 07:54 29.07.2022
2410 Clear 37 1005 32 10000 1.79 153 01:58 29.07.2022
2411 Clouds 35 1011 36 10000 3.6 70 22:53 28.07.2022
2412 Clouds 34 1012 39 10000 3.6 120 21:28 28.07.2022
2413 Clear 33 1012 44 10000 2.06 110 20:32 28.07.2022
2414 Clouds 31 1015 45 10000 2.06 0 19:43 28.07.2022
2415 Clouds 31 1015 45 10000 2.06 0 19:23 28.07.2022
2416 Clouds 28 1014 60 10000 1.54 180 17:44 28.07.2022
2417 Clouds 27 1015 61 10000 1.54 270 16:55 28.07.2022
2418 Clouds 27 1015 62 10000 1.54 270 16:28 28.07.2022
2419 Clouds 25 1014 76 10000 3.6 110 13:30 28.07.2022
2420 Clouds 25 1014 73 10000 3.6 120 11:27 28.07.2022
2421 Thunderstorm 26 1016 63 10000 4.12 20 06:45 28.07.2022
2422 Dust 28 1015 52 6437 19.03 20 05:31 28.07.2022
2423 Thunderstorm 36 1010 34 10000 8.75 190 01:23 28.07.2022
2424 Clouds 37 1012 31 10000 2.06 80 22:45 27.07.2022
2425 Clouds 36 1014 32 10000 4.12 70 21:29 27.07.2022
2426 Clouds 33 1014 41 10000 3.6 100 19:44 27.07.2022
2427 Clear 32 1013 46 10000 1.79 126 18:39 27.07.2022
2428 Clouds 28 1013 58 10000 4.63 210 15:52 27.07.2022
2429 Clouds 27 1013 59 10000 4.63 210 15:20 27.07.2022
2430 Clouds 27 1013 59 10000 3.09 210 14:40 27.07.2022
2431 Clouds 28 1012 55 10000 4.63 60 12:50 27.07.2022
2432 Clouds 31 1012 46 10000 4.12 200 08:44 27.07.2022
2433 Clouds 31 1012 44 10000 5.66 180 07:24 27.07.2022
2434 Clouds 33 1012 38 10000 7.2 210 02:42 27.07.2022
2435 Clouds 33 1013 41 10000 1.54 220 22:29 26.07.2022
2436 Clouds 33 1014 43 10000 3.6 240 21:21 26.07.2022
2437 Clouds 32 1016 43 10000 3.09 120 20:31 26.07.2022
2438 Clouds 30 1014 54 10000 2.06 0 18:44 26.07.2022
2439 Clouds 29 1011 63 10000 0.89 153 17:59 26.07.2022
2440 Clouds 26 1014 70 10000 2.06 140 16:31 26.07.2022
2441 Clouds 26 1014 75 10000 5.14 80 15:30 26.07.2022
2442 Clouds 26 1013 74 10000 4.63 50 13:46 26.07.2022
2443 Clouds 27 1012 67 10000 4.63 170 11:38 26.07.2022
2444 Clouds 27 1013 66 10000 1.54 60 09:32 26.07.2022
2445 Clouds 26 1014 69 10000 4.12 70 06:26 26.07.2022
2446 Thunderstorm 28 1015 62 10000 7.2 70 00:44 26.07.2022
2447 Thunderstorm 28 1014 56 10000 14.4 50 23:33 25.07.2022
2448 Thunderstorm 34 1014 35 10000 10.8 220 22:26 25.07.2022
2449 Clouds 34 1015 34 10000 5.66 340 21:43 25.07.2022
2450 Clouds 34 1015 36 10000 4.12 310 20:42 25.07.2022
2451 Clouds 33 1015 38 10000 6.17 360 19:50 25.07.2022
2452 Clouds 32 1015 42 10000 4.63 50 18:21 25.07.2022
2453 Clouds 31 1015 42 10000 6.17 50 17:27 25.07.2022
2454 Clouds 31 1013 43 10000 4.63 160 15:20 25.07.2022
2455 Clouds 32 1012 38 10000 5.14 170 12:22 25.07.2022
2456 Clouds 33 1012 32 10000 6.17 170 10:32 25.07.2022
2457 Clouds 36 1008 29 10000 8.23 150 06:32 25.07.2022
2458 Clouds 40 1011 18 10000 7.72 170 23:55 24.07.2022
2459 Clouds 40 1011 17 10000 7.72 140 23:18 24.07.2022
2460 Clouds 40 1012 18 10000 9.77 140 22:34 24.07.2022
2461 Clouds 39 1012 21 10000 9.26 150 21:25 24.07.2022
2462 Clouds 38 1013 24 10000 5.14 100 20:51 24.07.2022
2463 Clouds 38 1013 24 10000 5.14 100 20:26 24.07.2022
2464 Clouds 35 1013 28 10000 4.12 90 18:48 24.07.2022
2465 Clouds 31 1012 34 10000 4.12 170 16:32 24.07.2022
2466 Clouds 31 1012 33 10000 3.6 180 15:50 24.07.2022
2467 Clouds 31 1011 32 10000 4.63 200 14:38 24.07.2022
2468 Clouds 31 1011 34 10000 3.6 170 12:55 24.07.2022
2469 Clouds 32 1011 32 10000 2.57 170 11:40 24.07.2022
2470 Clouds 32 1011 32 10000 2.57 170 11:18 24.07.2022
2471 Clouds 33 1010 30 10000 1.54 190 08:56 24.07.2022
2472 Clouds 34 1011 27 10000 4.12 180 07:52 24.07.2022
2473 Clouds 35 1010 26 10000 2.57 170 06:27 24.07.2022
2474 Clouds 38 1010 17 10000 6.17 200 01:50 24.07.2022
2475 Clouds 39 1010 16 10000 8.23 160 22:25 23.07.2022
2476 Clouds 36 1011 17 10000 14.4 170 20:31 23.07.2022
2477 Clouds 36 1009 15 10000 6.17 190 18:51 23.07.2022
2478 Clouds 35 1009 16 10000 7.72 180 17:41 23.07.2022
2479 Clouds 35 1009 15 10000 7.72 180 17:23 23.07.2022
2480 Clouds 32 1009 14 10000 5.14 200 15:42 23.07.2022
2481 Clouds 32 1006 18 10000 1.87 216 14:59 23.07.2022
2482 Clouds 33 1009 14 10000 6.69 210 14:35 23.07.2022
2483 Clouds 32 1007 17 10000 6.17 200 13:50 23.07.2022
2484 Clouds 34 1006 16 10000 5.14 190 11:19 23.07.2022
2485 Clouds 35 1006 15 10000 5.14 190 10:23 23.07.2022
2486 Clouds 36 1006 14 10000 4.12 190 08:55 23.07.2022
2487 Clouds 42 1004 12 10000 6.17 220 03:40 23.07.2022
2488 Clouds 43 1000 12 10000 2.68 236 01:58 23.07.2022
2489 Clouds 44 1007 11 10000 5.66 240 23:19 22.07.2022
2490 Clear 41 1005 13 10000 2.24 107 20:57 22.07.2022
2491 Clouds 39 1009 14 10000 3.6 260 19:47 22.07.2022
2492 Clouds 37 1005 18 10000 1.39 156 18:29 22.07.2022
2493 Clouds 33 1010 19 10000 5.66 210 17:28 22.07.2022
2494 Clouds 31 1008 21 10000 3.09 190 14:57 22.07.2022
2495 Clouds 33 1007 18 10000 4.63 180 11:49 22.07.2022
2496 Clouds 36 1007 17 10000 4.63 200 09:27 22.07.2022
2497 Clouds 37 1007 16 10000 6.69 180 08:43 22.07.2022
2498 Clouds 38 1007 15 10000 6.17 180 07:20 22.07.2022
2499 Clouds 42 1001 12 10000 3.13 219 03:59 22.07.2022
2500 Clouds 43 1009 11 10000 5.14 280 22:53 21.07.2022
2501 Clouds 42 1011 12 10000 2.06 0 21:34 21.07.2022
2502 Clouds 39 1012 15 10000 1.54 0 19:30 21.07.2022
2503 Clouds 35 1012 20 10000 6.17 200 17:45 21.07.2022
2504 Clouds 35 1012 20 10000 6.17 200 17:19 21.07.2022
2505 Clouds 33 1013 21 10000 5.66 200 15:22 21.07.2022
2506 Clouds 32 1011 23 10000 3.6 210 14:39 21.07.2022
2507 Clear 34 1012 19 10000 4.63 180 12:28 21.07.2022
2508 Clear 34 1010 19 10000 6.17 190 11:19 21.07.2022
2509 Clouds 36 1011 17 10000 5.14 190 09:38 21.07.2022
2510 Clouds 36 1010 17 10000 3.09 210 08:52 21.07.2022
2511 Clouds 37 1010 17 10000 4.12 220 07:50 21.07.2022
2512 Clouds 39 1010 16 10000 5.66 220 05:47 21.07.2022
2513 Clouds 43 1012 13 10000 4.63 220 00:43 21.07.2022
2514 Clouds 42 1013 17 10000 3.6 120 22:22 20.07.2022
2515 Clouds 40 1009 19 10000 2.24 163 20:59 20.07.2022
2516 Clear 39 1012 20 10000 1.79 158 19:53 20.07.2022
2517 Clear 38 1014 19 10000 1.34 170 19:25 20.07.2022
2518 Clouds 37 1015 19 10000 2.57 240 18:51 20.07.2022
2519 Clouds 37 1015 21 10000 2.57 240 18:22 20.07.2022
2520 Clouds 33 1014 24 10000 5.14 220 16:45 20.07.2022
2521 Clouds 32 1016 26 10000 3.09 220 15:32 20.07.2022
2522 Clouds 32 1015 25 10000 5.66 220 14:20 20.07.2022
2523 Clouds 34 1012 22 10000 5.66 200 11:37 20.07.2022
2524 Clouds 35 1011 21 10000 3.6 210 09:41 20.07.2022
2525 Clouds 41 1009 17 10000 6.17 230 03:49 20.07.2022
2526 Clouds 42 1011 17 10000 4.12 180 00:51 20.07.2022
2527 Clouds 41 1012 19 10000 3.6 210 23:41 19.07.2022
2528 Clouds 40 1015 20 10000 4.12 210 22:33 19.07.2022
2529 Clouds 39 1016 22 10000 3.6 140 21:35 19.07.2022
2530 Clouds 38 1016 25 10000 1.54 0 20:33 19.07.2022
2531 Clear 36 1012 30 10000 1.28 120 18:58 19.07.2022
2532 Clouds 35 1016 28 10000 2.57 350 18:28 19.07.2022
2533 Clouds 31 1016 37 10000 3.09 190 16:37 19.07.2022
2534 Clear 29 1015 41 10000 3.6 170 14:53 19.07.2022
2535 Clear 31 1014 39 10000 3.6 200 11:43 19.07.2022
2536 Clear 31 1014 38 10000 3.09 200 10:55 19.07.2022
2537 Clouds 32 1014 35 10000 2.06 80 09:25 19.07.2022
2538 Clouds 33 1014 32 10000 5.14 300 08:39 19.07.2022
2539 Clouds 34 1012 32 10000 3.6 350 07:19 19.07.2022
2540 Thunderstorm 36 1010 27 10000 6.17 220 05:30 19.07.2022
2541 Thunderstorm 36 1010 26 10000 4.63 150 04:55 19.07.2022
2542 Thunderstorm 38 1013 26 10000 6.17 110 01:19 19.07.2022
2543 Clouds 40 1012 23 10000 8.23 190 23:47 18.07.2022
2544 Clouds 40 1012 22 10000 4.63 80 23:18 18.07.2022
2545 Clouds 38 1009 30 10000 1.34 106 21:58 18.07.2022
2546 Clouds 34 1016 30 10000 5.14 120 20:51 18.07.2022
2547 Clear 34 1013 32 10000 5.66 140 19:33 18.07.2022
2548 Clouds 33 1014 33 10000 4.12 100 17:31 18.07.2022
2549 Clouds 31 1013 40 10000 5.66 200 15:52 18.07.2022
2550 Clouds 31 1012 40 10000 9.26 170 14:34 18.07.2022
2551 Clouds 32 1010 32 10000 6.17 160 13:23 18.07.2022
2552 Clouds 32 1009 31 10000 3.09 220 11:31 18.07.2022
2553 Clear 34 1004 26 10000 4.63 190 08:57 18.07.2022
2554 Clouds 37 1010 20 10000 3.6 190 07:38 18.07.2022
2555 Clouds 42 1007 16 10000 3.6 250 01:24 18.07.2022
2556 Clouds 41 1010 19 10000 3.6 350 22:46 17.07.2022
2557 Clouds 40 1010 21 10000 3.6 350 22:22 17.07.2022
2558 Clouds 38 1011 24 10000 4.63 350 21:23 17.07.2022
2559 Clouds 37 1012 27 10000 2.06 280 20:44 17.07.2022
2560 Clouds 36 1014 27 10000 4.12 10 19:34 17.07.2022
2561 Thunderstorm 34 1014 30 10000 4.63 40 18:54 17.07.2022
2562 Thunderstorm 34 1013 29 10000 6.69 280 17:38 17.07.2022
2563 Thunderstorm 33 1014 33 10000 4.63 210 16:51 17.07.2022
2564 Clouds 33 1013 33 10000 3.09 70 16:26 17.07.2022
2565 Clouds 32 1006 37 10000 2.24 168 14:58 17.07.2022
2566 Clouds 33 1009 31 10000 7.2 170 13:31 17.07.2022
2567 Clouds 32 1008 31 10000 2.57 140 11:41 17.07.2022
2568 Clouds 34 1010 27 10000 3.6 190 09:30 17.07.2022
2569 Clouds 38 1009 23 10000 3.6 180 05:25 17.07.2022
2570 Clouds 37 1008 25 10000 12.86 220 02:33 17.07.2022
2571 Clouds 42 1010 18 10000 3.6 100 23:21 16.07.2022
2572 Clouds 40 1012 20 10000 3.09 60 21:32 16.07.2022
2573 Clouds 38 1013 22 10000 1.54 10 19:53 16.07.2022
2574 Clear 37 1013 25 10000 1.54 340 18:35 16.07.2022
2575 Clouds 34 1014 28 10000 4.12 330 17:19 16.07.2022
2576 Clouds 32 1015 30 10000 3.09 330 14:31 16.07.2022
2577 Clouds 33 1013 31 10000 10.29 40 11:38 16.07.2022
2578 Clouds 34 1014 29 10000 3.09 210 09:35 16.07.2022
2579 Clouds 35 1014 28 10000 4.12 210 08:47 16.07.2022
2580 Clouds 34 1014 29 10000 4.12 210 08:29 16.07.2022
2581 Thunderstorm 38 1012 21 10000 4.63 220 04:24 16.07.2022
2582 Thunderstorm 39 1012 21 10000 6.69 240 03:22 16.07.2022
2583 Clouds 39 1013 25 10000 2.06 0 23:34 15.07.2022
2584 Clouds 38 1015 26 10000 4.12 140 22:41 15.07.2022
2585 Clouds 36 1015 30 10000 3.09 170 21:29 15.07.2022
2586 Clouds 34 1016 32 10000 3.09 360 20:30 15.07.2022
2587 Clouds 32 1017 39 10000 3.6 10 18:44 15.07.2022
2588 Clear 30 1017 44 10000 4.12 30 17:44 15.07.2022
2589 Clouds 27 1016 56 10000 2.57 70 14:54 15.07.2022
2590 Clouds 27 1016 54 10000 2.57 290 13:18 15.07.2022
2591 Clouds 27 1016 58 10000 3.6 90 11:44 15.07.2022
2592 Clouds 27 1015 58 10000 4.63 90 10:23 15.07.2022
2593 Thunderstorm 28 1016 52 10000 3.09 310 06:30 15.07.2022
2594 Thunderstorm 38 1012 23 10000 8.23 140 01:32 15.07.2022
2595 Thunderstorm 40 1012 19 10000 6.17 170 00:22 15.07.2022
2596 Thunderstorm 41 1013 18 10000 6.69 200 22:52 14.07.2022
2597 Clouds 41 1014 18 10000 6.69 230 21:54 14.07.2022
2598 Clouds 41 1014 18 10000 7.2 160 21:30 14.07.2022
2599 Clouds 40 1015 19 10000 6.69 160 20:45 14.07.2022
2600 Clouds 40 1015 19 10000 6.69 160 20:24 14.07.2022
2601 Clouds 39 1015 17 10000 5.14 180 19:19 14.07.2022
2602 Clouds 33 1014 24 10000 4.63 180 16:23 14.07.2022
2603 Clouds 32 1014 23 10000 4.12 190 15:34 14.07.2022
2604 Clouds 32 1011 23 10000 3.6 170 14:31 14.07.2022
2605 Clouds 32 1010 26 10000 1.12 155 12:58 14.07.2022
2606 Clouds 35 1012 16 10000 5.14 200 11:54 14.07.2022
2607 Clouds 36 1012 17 10000 5.14 200 11:23 14.07.2022
2608 Clouds 35 1012 20 10000 6.69 230 10:24 14.07.2022
2609 Clouds 37 1011 18 10000 3.09 210 07:50 14.07.2022
2610 Clouds 43 1011 15 10000 6.69 180 01:26 14.07.2022
2611 Clouds 42 1012 15 10000 4.63 190 00:54 14.07.2022
2612 Clouds 42 1007 17 10000 7.34 197 22:57 13.07.2022
2613 Clouds 41 1013 14 10000 4.63 120 22:22 13.07.2022
2614 Clouds 41 1014 15 10000 5.14 160 21:19 13.07.2022
2615 Clouds 39 1010 18 10000 3.35 149 19:58 13.07.2022
2616 Clouds 36 1014 19 10000 5.66 180 17:52 13.07.2022
2617 Clouds 34 1014 22 10000 5.14 190 16:46 13.07.2022
2618 Clouds 33 1013 22 10000 4.63 240 15:43 13.07.2022
2619 Clouds 33 1012 21 10000 6.17 130 13:24 13.07.2022
2620 Clouds 36 1011 17 10000 5.66 180 10:46 13.07.2022
2621 Clouds 36 1011 17 10000 5.66 180 10:28 13.07.2022
2622 Clouds 36 1011 17 10000 5.66 180 10:28 13.07.2022
2623 Clouds 36 1011 16 10000 7.2 180 09:27 13.07.2022
2624 Clouds 37 1009 16 10000 4.63 190 07:53 13.07.2022
2625 Clouds 43 1007 10 10000 6.17 240 03:26 13.07.2022
2626 Clouds 44 1009 11 10000 3.6 120 00:18 13.07.2022
2627 Clouds 42 1011 11 10000 4.63 120 22:18 12.07.2022
2628 Clouds 42 1012 12 10000 5.66 150 21:35 12.07.2022
2629 Clouds 41 1012 11 10000 3.6 130 20:42 12.07.2022
2630 Clouds 39 1012 12 10000 3.09 40 19:42 12.07.2022
2631 Clouds 37 1012 13 10000 2.57 80 18:21 12.07.2022
2632 Clouds 33 1012 17 10000 4.63 210 16:20 12.07.2022
2633 Clouds 31 1011 17 10000 4.12 200 14:31 12.07.2022
2634 Clear 32 1011 15 10000 5.66 190 13:24 12.07.2022
2635 Clear 32 1010 15 10000 3.6 190 11:46 12.07.2022
2636 Clouds 34 1010 12 10000 4.63 180 10:25 12.07.2022
2637 Clear 36 1010 11 10000 4.63 190 08:40 12.07.2022
2638 Clear 38 1010 11 10000 6.17 170 07:47 12.07.2022
2639 Clouds 41 1008 9 10000 6.17 240 05:45 12.07.2022
2640 Clouds 43 1008 10 10000 5.66 120 04:18 12.07.2022
2641 Clouds 43 1011 11 10000 5.81 70 23:50 11.07.2022
2642 Clouds 42 1012 12 10000 4.63 100 22:39 11.07.2022
2643 Clear 41 1008 15 10000 2.01 107 20:56 11.07.2022
2644 Clouds 40 1014 13 10000 2.57 0 20:32 11.07.2022
2645 Clouds 37 1014 16 10000 2.06 300 18:48 11.07.2022
2646 Clouds 37 1014 15 10000 2.06 300 18:23 11.07.2022
2647 Clouds 37 1014 15 10000 2.06 300 18:23 11.07.2022
2648 Clouds 32 1014 21 10000 0 0 16:26 11.07.2022
2649 Clear 30 1010 25 10000 0.78 341 14:58 11.07.2022
2650 Clear 31 1012 19 10000 4.63 180 12:38 11.07.2022
2651 Clear 32 1012 21 10000 3.09 220 10:56 11.07.2022
2652 Clear 34 1013 17 10000 4.63 190 09:54 11.07.2022
2653 Clear 35 1013 16 10000 4.63 190 09:21 11.07.2022
2654 Clouds 36 1013 15 10000 4.12 180 07:52 11.07.2022
2655 Clear 42 1009 11 10000 4.12 200 00:56 11.07.2022
2656 Clouds 42 1013 10 10000 4.12 220 23:53 10.07.2022
2657 Clouds 41 1014 10 10000 5.36 220 22:37 10.07.2022
2658 Clouds 39 1016 10 10000 4.63 140 20:55 10.07.2022
2659 Clouds 39 1016 10 10000 4.63 140 20:24 10.07.2022
2660 Clouds 37 1016 10 10000 2.57 130 19:28 10.07.2022
2661 Clear 35 1012 11 10000 0.45 319 17:59 10.07.2022
2662 Clouds 33 1012 12 10000 1.01 115 16:59 10.07.2022
2663 Clouds 30 1016 16 10000 2.06 180 16:20 10.07.2022
2664 Clouds 28 1015 14 10000 5.14 200 14:44 10.07.2022
2665 Clear 29 1015 12 10000 4.12 330 13:29 10.07.2022
2666 Clouds 31 1015 11 10000 5.66 190 11:39 10.07.2022
2667 Clear 32 1014 9 10000 3.6 180 09:45 10.07.2022
2668 Clear 33 1014 8 10000 4.12 210 08:43 10.07.2022
2669 Clouds 38 1015 6 10000 4.12 230 06:39 10.07.2022
2670 Clouds 42 1015 6 10000 9.77 240 23:47 09.07.2022
2671 Clouds 41 1015 5 10000 7.2 250 22:26 09.07.2022
2672 Clouds 40 1016 7 10000 6.17 200 21:41 09.07.2022
2673 Clouds 37 1017 13 10000 3.6 160 19:44 09.07.2022
2674 Clouds 34 1017 15 10000 2.57 130 18:26 09.07.2022
2675 Clouds 34 1017 15 10000 2.57 130 18:26 09.07.2022
2676 Clouds 32 1017 16 10000 3.09 230 17:27 09.07.2022
2677 Clouds 29 1016 18 10000 3.09 240 16:25 09.07.2022
2678 Clouds 28 1017 18 10000 3.6 190 15:38 09.07.2022
2679 Clouds 27 1015 18 10000 5.14 180 14:22 09.07.2022
2680 Clear 28 1014 18 10000 5.66 190 13:47 09.07.2022
2681 Clear 29 1014 15 10000 4.12 180 11:45 09.07.2022
2682 Clear 30 1014 14 10000 2.68 210 10:26 09.07.2022
2683 Clear 31 1014 15 10000 3.09 240 09:38 09.07.2022
2684 Clear 32 1014 12 10000 3.6 160 07:44 09.07.2022
2685 Clouds 39 1013 5 10000 6.26 230 04:41 09.07.2022
2686 Clouds 40 1015 6 10000 8.75 170 23:41 08.07.2022
2687 Clouds 39 1016 8 10000 7.2 180 22:33 08.07.2022
2688 Clouds 39 1016 11 10000 7.2 140 21:26 08.07.2022
2689 Clouds 37 1017 12 10000 4.12 60 20:35 08.07.2022
2690 Clouds 35 1017 13 10000 4.12 50 19:38 08.07.2022
2691 Clouds 32 1017 15 10000 3.13 180 17:50 08.07.2022
2692 Clouds 29 1016 19 10000 3.6 200 16:29 08.07.2022
2693 Clouds 27 1015 19 10000 4.12 210 14:50 08.07.2022
2694 Clear 29 1014 14 10000 3.6 170 12:42 08.07.2022
2695 Clear 31 1014 14 10000 4.12 220 10:47 08.07.2022
2696 Clear 30 1013 15 10000 3.09 210 09:58 08.07.2022
2697 Clear 33 1014 13 10000 7.2 170 07:53 08.07.2022
2698 Clear 37 1012 12 10000 6.69 160 05:37 08.07.2022
2699 Clouds 39 1012 11 10000 6.69 250 00:40 08.07.2022
2700 Clouds 38 1013 13 10000 5.14 190 22:52 07.07.2022
2701 Clouds 37 1013 14 10000 4.63 160 21:48 07.07.2022
2702 Clear 34 1014 19 10000 6.17 130 19:34 07.07.2022
2703 Clear 31 1014 22 10000 0.45 87 17:43 07.07.2022
2704 Clear 28 1013 26 10000 2.57 230 16:23 07.07.2022
2705 Clear 26 1012 28 10000 3.6 210 14:21 07.07.2022
2706 Clear 27 1011 25 10000 4.63 170 12:43 07.07.2022
2707 Clear 28 1011 25 10000 4.63 170 12:23 07.07.2022
2708 Clear 28 1011 22 10000 6.17 200 11:33 07.07.2022
2709 Clear 30 1011 20 10000 4.63 220 10:45 07.07.2022
2710 Clear 30 1011 19 10000 4.63 220 10:27 07.07.2022
2711 Clear 31 1012 18 10000 5.66 180 09:22 07.07.2022
2712 Clear 35 1009 6 10000 7.2 140 05:57 07.07.2022
2713 Clear 39 1005 9 10000 4.02 147 00:18 07.07.2022
2714 Clear 38 1005 10 10000 5.36 155 23:36 06.07.2022
2715 Clear 38 1005 10 10000 5.36 173 23:18 06.07.2022
2716 Clouds 37 1011 10 10000 9.26 150 22:47 06.07.2022
2717 Clouds 37 1011 10 10000 9.26 150 22:47 06.07.2022
2718 Clouds 37 1011 11 10000 9.26 150 22:28 06.07.2022
2719 Clouds 34 1012 17 10000 7.2 150 20:19 06.07.2022
2720 Clear 32 1013 23 10000 4.63 130 18:48 06.07.2022
2721 Clear 29 1008 31 10000 0.89 135 16:58 06.07.2022
2722 Clear 26 1011 33 10000 5.14 220 15:44 06.07.2022
2723 Clear 27 1010 29 10000 5.14 190 12:44 06.07.2022
2724 Clear 28 1010 25 10000 4.12 190 11:52 06.07.2022
2725 Clear 30 1011 21 10000 6.17 200 10:48 06.07.2022
2726 Clear 31 1011 19 10000 6.69 180 08:46 06.07.2022
2727 Clear 33 1011 16 10000 7.72 170 07:41 06.07.2022
2728 Clear 34 1009 15 10000 7.2 190 06:40 06.07.2022
2729 Clouds 37 1010 12 10000 7.72 130 22:52 05.07.2022
2730 Clouds 37 1010 12 10000 7.72 130 22:34 05.07.2022
2731 Clouds 35 1011 14 10000 5.14 250 20:45 05.07.2022
2732 Clouds 33 1011 15 10000 3.6 180 19:54 05.07.2022
2733 Clouds 33 1012 15 10000 3.6 180 19:35 05.07.2022
2734 Clouds 29 1012 21 10000 2.68 180 17:49 05.07.2022
2735 Clouds 29 1012 22 10000 4.12 220 17:18 05.07.2022
2736 Clouds 25 1012 22 10000 4.63 190 15:39 05.07.2022
2737 Clouds 24 1010 24 10000 5.66 200 14:39 05.07.2022
2738 Clear 26 1010 21 10000 3.6 210 12:52 05.07.2022
2739 Clear 26 1010 18 10000 3.6 210 12:21 05.07.2022
2740 Clear 28 1009 13 10000 5.14 210 10:45 05.07.2022
2741 Clear 29 1009 13 10000 4.63 190 09:32 05.07.2022
2742 Clear 31 1011 13 10000 3.6 200 08:19 05.07.2022
2743 Clear 32 1008 12 10000 4.12 230 06:22 05.07.2022
2744 Clear 35 1007 9 10000 6.69 210 04:26 05.07.2022
2745 Clear 37 1008 8 10000 9.26 170 00:38 05.07.2022
2746 Clear 37 1008 8 10000 9.26 230 23:34 04.07.2022
2747 Clear 36 1009 8 10000 8.75 150 22:54 04.07.2022
2748 Clear 35 1010 11 10000 7.72 170 21:53 04.07.2022
2749 Clear 34 1011 12 10000 4.12 200 20:54 04.07.2022
2750 Clear 33 1011 12 10000 4.12 200 20:35 04.07.2022
2751 Clear 32 1011 14 10000 6.17 180 19:55 04.07.2022
2752 Clear 32 1011 14 10000 6.69 120 19:36 04.07.2022
2753 Clear 31 1011 17 10000 5.66 230 18:26 04.07.2022
2754 Clear 26 1010 23 10000 4.12 170 16:34 04.07.2022
2755 Clear 24 1009 25 10000 5.81 170 15:34 04.07.2022
2756 Clear 25 1008 22 10000 6.17 190 13:33 04.07.2022
2757 Clear 26 1008 21 10000 4.63 200 12:33 04.07.2022
2758 Clear 29 1009 15 10000 4.63 210 10:34 04.07.2022
2759 Clear 29 1009 15 10000 4.63 200 09:53 04.07.2022
2760 Clouds 30 1008 13 10000 4.12 230 08:24 04.07.2022
2761 Clouds 34 1005 9 10000 7.2 220 05:18 04.07.2022
2762 Clear 37 1006 8 10000 9.26 200 00:42 04.07.2022
2763 Clear 36 1003 10 10000 4.92 232 22:59 03.07.2022
2764 Clear 35 1004 12 10000 4.02 219 20:59 03.07.2022
2765 Clear 34 1008 13 10000 10.29 220 20:41 03.07.2022
2766 Clear 33 1008 13 10000 9.26 210 19:41 03.07.2022
2767 Clear 33 1008 14 10000 9.26 210 19:23 03.07.2022
2768 Clear 30 1008 16 10000 8.23 210 17:45 03.07.2022
2769 Clear 27 1007 20 10000 7.2 190 15:55 03.07.2022
2770 Clear 26 1007 22 10000 7.2 190 14:59 03.07.2022
2771 Clear 27 1008 19 10000 7.72 220 14:20 03.07.2022
2772 Clear 28 1008 21 10000 6.17 210 13:48 03.07.2022
2773 Clear 28 1008 17 10000 8.75 240 12:33 03.07.2022
2774 Clear 30 1008 16 10000 5.14 180 11:29 03.07.2022
2775 Clear 31 1008 15 10000 5.66 220 10:39 03.07.2022
2776 Clear 31 1008 15 10000 4.63 240 09:55 03.07.2022
2777 Clear 33 1007 16 10000 7.2 210 07:35 03.07.2022
2778 Clear 37 1005 13 10000 8.23 240 04:22 03.07.2022
2779 Clouds 40 1007 12 10000 7.72 200 00:22 03.07.2022
2780 Clear 39 1009 12 10000 7.2 200 22:34 02.07.2022
2781 Clear 38 1010 13 10000 8.75 240 21:28 02.07.2022
2782 Clear 35 1011 17 10000 6.71 180 19:52 02.07.2022
2783 Clear 35 1011 18 10000 6.71 180 19:20 02.07.2022
2784 Clear 31 1011 19 10000 7.2 200 17:42 02.07.2022
2785 Clear 30 1011 20 10000 6.17 180 16:53 02.07.2022
2786 Clear 28 1010 19 10000 7.72 190 14:52 02.07.2022
2787 Clear 29 1009 18 10000 6.17 180 12:22 02.07.2022
2788 Clear 31 1010 16 10000 6.69 180 11:27 02.07.2022
2789 Clear 32 1010 15 10000 7.2 220 10:43 02.07.2022
2790 Clear 32 1009 14 10000 5.14 230 09:25 02.07.2022
2791 Clear 33 1009 12 10000 4.12 230 08:20 02.07.2022
2792 Clear 34 1009 11 10000 5.14 220 07:48 02.07.2022
2793 Clouds 40 1009 7 10000 9.77 230 02:50 02.07.2022
2794 Clouds 40 1010 7 10000 8.75 220 00:26 02.07.2022
2795 Clouds 39 1012 7 10000 10.29 200 22:58 01.07.2022
2796 Clouds 38 1012 7 10000 8.75 190 21:49 01.07.2022
2797 Clouds 38 1012 7 10000 8.75 190 21:29 01.07.2022
2798 Clouds 37 1013 7 10000 8.75 210 20:43 01.07.2022
2799 Clear 36 1013 9 10000 8.23 200 19:47 01.07.2022
2800 Clouds 33 1013 11 10000 9.26 210 17:53 01.07.2022
2801 Clouds 31 1013 14 10000 8.23 220 16:22 01.07.2022
2802 Clear 29 1012 20 10000 8.75 210 13:55 01.07.2022
2803 Clear 30 1013 19 10000 6.69 220 12:55 01.07.2022
2804 Clear 32 1012 16 10000 5.14 180 10:20 01.07.2022
2805 Clear 32 1012 16 10000 4.63 220 09:47 01.07.2022
2806 Clouds 37 1010 13 10000 7.72 220 05:25 01.07.2022
2807 Clouds 40 1011 12 10000 8.75 220 00:42 01.07.2022
2808 Clouds 40 1012 13 10000 9.77 220 23:22 30.06.2022
2809 Clouds 39 1013 14 10000 10.29 220 22:44 30.06.2022
2810 Clouds 39 1013 14 10000 8.23 210 22:25 30.06.2022
2811 Clear 38 1013 15 10000 9.26 200 21:45 30.06.2022
2812 Clouds 37 1014 16 10000 10.29 190 20:30 30.06.2022
2813 Clouds 36 1014 16 10000 9.26 210 19:54 30.06.2022
2814 Clouds 36 1014 15 10000 9.26 210 19:25 30.06.2022
2815 Clouds 35 1014 16 10000 9.26 180 18:42 30.06.2022
2816 Clouds 33 1014 17 10000 10.8 190 17:44 30.06.2022
2817 Clouds 32 1014 19 10000 7.2 170 16:55 30.06.2022
2818 Clouds 31 1013 21 10000 5.66 190 15:42 30.06.2022
2819 Clouds 32 1013 17 10000 8.23 200 13:36 30.06.2022
2820 Clouds 32 1013 18 10000 10.29 200 12:35 30.06.2022
2821 Clouds 33 1013 16 10000 8.75 170 11:43 30.06.2022
2822 Clouds 34 1012 16 10000 9.26 220 09:55 30.06.2022
2823 Clouds 34 1012 16 10000 9.26 220 09:35 30.06.2022
2824 Clear 35 1013 16 10000 7.2 220 08:19 30.06.2022
2825 Clear 36 1012 14 10000 6.71 230 07:23 30.06.2022
2826 Clouds 41 1011 11 10000 10.29 230 01:47 30.06.2022
2827 Clouds 41 1012 12 10000 10.8 210 23:34 29.06.2022
2828 Clouds 41 1013 14 10000 6.69 210 22:40 29.06.2022
2829 Clouds 40 1014 15 10000 8.75 230 21:39 29.06.2022
2830 Clouds 40 1015 16 10000 8.23 190 20:34 29.06.2022
2831 Clouds 39 1015 15 10000 5.66 190 19:39 29.06.2022
2832 Clouds 35 1015 18 10000 5.81 180 17:54 29.06.2022
2833 Clouds 33 1015 20 10000 3.6 180 16:48 29.06.2022
2834 Clouds 31 1014 22 10000 6.17 210 15:32 29.06.2022
2835 Clouds 32 1014 20 10000 6.17 200 13:20 29.06.2022
2836 Clouds 34 1013 18 10000 4.12 170 11:57 29.06.2022
2837 Clouds 35 1013 22 10000 5.66 170 09:35 29.06.2022
2838 Clouds 35 1013 26 10000 5.66 200 08:46 29.06.2022
2839 Clouds 39 1012 16 10000 18.01 200 05:42 29.06.2022
2840 Clouds 40 1011 15 10000 7.2 270 02:21 29.06.2022
2841 Thunderstorm 41 1014 15 10000 9.77 210 00:38 29.06.2022
2842 Clouds 42 1013 14 10000 7.2 150 23:26 28.06.2022
2843 Clouds 41 1014 14 10000 5.14 140 22:48 28.06.2022
2844 Clouds 40 1015 16 10000 4.12 70 21:55 28.06.2022
2845 Clouds 40 1015 15 10000 4.12 70 21:33 28.06.2022
2846 Clouds 39 1016 17 10000 4.12 90 20:51 28.06.2022
2847 Clouds 37 1016 19 10000 2.06 310 19:43 28.06.2022
2848 Clouds 37 1016 20 10000 2.06 310 19:23 28.06.2022
2849 Smoke 34 1016 24 10000 4.12 250 17:44 28.06.2022
2850 Clouds 31 1016 28 10000 4.63 220 16:24 28.06.2022
2851 Clouds 31 1015 28 10000 5.14 210 15:53 28.06.2022
2852 Clouds 30 1015 28 10000 5.66 190 14:21 28.06.2022
2853 Clear 30 1014 28 10000 5.14 190 13:54 28.06.2022
2854 Clear 31 1015 25 10000 5.14 190 13:20 28.06.2022
2855 Clear 32 1014 26 10000 6.69 190 11:37 28.06.2022
2856 Clear 33 1015 22 10000 5.14 210 09:41 28.06.2022
2857 Clear 33 1014 19 10000 4.12 210 08:45 28.06.2022
2858 Clear 34 1009 20 10000 0.89 263 07:58 28.06.2022
2859 Clear 35 1013 18 10000 2.06 120 07:19 28.06.2022
2860 Clouds 40 1014 15 10000 1.79 149 01:33 28.06.2022
2861 Clouds 39 1016 20 10000 3.09 0 23:44 27.06.2022
2862 Clouds 38 1016 22 10000 2.24 0 22:54 27.06.2022
2863 Clouds 37 1017 25 10000 2.68 153 21:38 27.06.2022
2864 Clouds 36 1018 27 10000 3.09 30 20:54 27.06.2022
2865 Clouds 34 1019 30 10000 3.6 110 19:40 27.06.2022
2866 Clouds 33 1020 31 10000 4.12 100 18:33 27.06.2022
2867 Clear 30 1019 37 10000 7.2 130 16:37 27.06.2022
2868 Clear 29 1018 37 10000 7.2 120 15:24 27.06.2022
2869 Clouds 29 1017 37 10000 3.6 210 13:39 27.06.2022
2870 Clear 29 1016 38 10000 4.63 160 12:57 27.06.2022
2871 Dust 31 1017 32 10000 10.8 170 10:41 27.06.2022
2872 Dust 33 1015 29 10000 10.8 160 09:23 27.06.2022
2873 Clouds 34 1015 25 10000 7.72 120 08:31 27.06.2022
2874 Clouds 36 1016 16 10000 5.66 90 07:38 27.06.2022
2875 Clouds 39 1007 12 10000 0.45 143 03:58 27.06.2022
2876 Clouds 41 1013 10 10000 5.36 80 01:18 27.06.2022
2877 Clouds 39 1015 14 10000 4.12 90 22:27 26.06.2022
2878 Clouds 37 1016 18 10000 3.6 90 20:53 26.06.2022
2879 Clouds 36 1016 20 10000 4.63 100 19:44 26.06.2022
2880 Clouds 34 1016 20 10000 3.6 100 18:32 26.06.2022
2881 Clear 33 1015 20 10000 3.6 60 17:33 26.06.2022
2882 Clouds 28 1014 22 10000 2.68 190 15:31 26.06.2022
2883 Clear 28 1013 21 10000 3.09 20 13:55 26.06.2022
2884 Clear 28 1013 21 10000 3.09 20 13:23 26.06.2022
2885 Clear 30 1013 18 10000 5.66 30 11:27 26.06.2022
2886 Clear 31 1012 16 10000 4.12 360 10:28 26.06.2022
2887 Clouds 32 1012 14 10000 6.17 110 09:39 26.06.2022
2888 Clouds 34 1011 15 10000 4.63 150 07:45 26.06.2022
2889 Clouds 40 1009 11 10000 2.68 0 02:52 26.06.2022
2890 Clouds 39 1010 12 10000 7.2 120 00:36 26.06.2022
2891 Clouds 39 1010 13 10000 7.2 120 00:18 26.06.2022
2892 Clouds 39 1011 12 10000 4.12 40 23:24 25.06.2022
2893 Clouds 39 1012 12 10000 4.63 120 22:27 25.06.2022
2894 Clouds 38 1013 13 10000 1.54 40 21:46 25.06.2022
2895 Clouds 38 1013 13 10000 1.79 183 21:20 25.06.2022
2896 Clouds 37 1013 12 10000 2.24 0 20:30 25.06.2022
2897 Clouds 35 1013 12 10000 3.09 110 19:54 25.06.2022
2898 Clouds 33 1014 13 10000 3.6 80 18:19 25.06.2022
2899 Clouds 31 1013 14 10000 1.54 270 17:25 25.06.2022
2900 Clouds 27 1013 17 10000 3.09 310 15:42 25.06.2022
2901 Clear 27 1012 16 10000 2.57 340 13:48 25.06.2022
2902 Clear 27 1010 16 10000 2.57 40 12:38 25.06.2022
2903 Clear 28 1006 16 10000 0.45 254 10:58 25.06.2022
2904 Smoke 31 1011 12 10000 2.68 190 09:22 25.06.2022
2905 Clear 32 1009 12 10000 3.6 180 08:41 25.06.2022
2906 Clear 32 1009 12 10000 3.6 180 08:19 25.06.2022
2907 Clouds 38 1008 8 10000 6.17 220 04:18 25.06.2022
2908 Clouds 39 1009 11 10000 8.75 220 00:38 25.06.2022
2909 Clear 39 1011 14 10000 6.17 140 22:56 24.06.2022
2910 Clouds 37 1013 15 10000 5.36 180 21:44 24.06.2022
2911 Clear 37 1012 17 10000 1.54 80 20:57 24.06.2022
2912 Clouds 35 1013 17 10000 2.57 160 20:19 24.06.2022
2913 Clouds 34 1013 18 10000 2.68 0 19:22 24.06.2022
2914 Clouds 33 1014 20 10000 4.63 300 18:49 24.06.2022
2915 Clouds 33 1013 20 10000 4.63 300 18:30 24.06.2022
2916 Clear 31 1013 23 10000 3.6 210 17:41 24.06.2022
2917 Clouds 27 1012 28 10000 4.12 330 15:51 24.06.2022
2918 Clouds 26 1012 28 10000 8.23 190 14:28 24.06.2022
2919 Clear 27 1011 27 10000 7.2 190 13:55 24.06.2022
2920 Clear 28 1012 26 10000 4.63 290 11:45 24.06.2022
2921 Clear 28 1012 25 10000 4.63 290 11:22 24.06.2022
2922 Clear 29 1011 22 10000 5.66 340 10:19 24.06.2022
2923 Clear 30 1011 22 10000 8.23 330 09:40 24.06.2022
2924 Clouds 31 1011 22 10000 3.6 210 08:52 24.06.2022
2925 Clouds 33 1009 20 10000 5.14 260 06:49 24.06.2022
2926 Clouds 34 1009 19 10000 5.14 260 06:30 24.06.2022
2927 Clouds 34 1009 19 10000 7.2 240 05:55 24.06.2022
2928 Clouds 37 1009 16 10000 7.2 260 01:28 24.06.2022
2929 Clouds 36 1012 19 10000 3.6 120 22:45 23.06.2022
2930 Clouds 36 1012 19 10000 3.6 120 22:18 23.06.2022
2931 Clouds 34 1014 22 10000 1.54 0 20:54 23.06.2022
2932 Clouds 33 1014 23 10000 1.54 0 20:32 23.06.2022
2933 Clear 32 1011 27 10000 2.12 120 18:59 23.06.2022
2934 Clouds 28 1015 35 10000 4.63 320 17:50 23.06.2022
2935 Clouds 28 1015 35 10000 4.63 320 17:50 23.06.2022
2936 Clouds 25 1015 42 10000 5.66 200 16:42 23.06.2022
2937 Clouds 23 1014 46 10000 3.09 200 15:43 23.06.2022
2938 Clouds 23 1015 47 10000 4.63 200 15:23 23.06.2022
2939 Clouds 24 1014 47 10000 5.66 300 13:21 23.06.2022
2940 Clouds 24 1014 47 10000 5.66 200 11:23 23.06.2022
2941 Clouds 25 1015 45 10000 6.17 230 09:46 23.06.2022
2942 Clouds 26 1015 43 10000 9.26 290 08:18 23.06.2022
2943 Clouds 34 1014 18 10000 4.63 50 02:19 23.06.2022
2944 Clouds 34 1015 19 10000 4.63 340 00:25 23.06.2022
2945 Clouds 34 1016 20 10000 5.66 330 23:27 22.06.2022
2946 Clouds 32 1017 21 10000 5.66 360 22:24 22.06.2022
2947 Clouds 32 1012 25 10000 5.47 172 20:57 22.06.2022
2948 Clouds 32 1017 22 10000 8.75 200 20:21 22.06.2022
2949 Clouds 32 1017 22 10000 7.72 200 19:48 22.06.2022
2950 Clouds 32 1017 21 10000 3.6 180 18:21 22.06.2022
2951 Clouds 31 1016 20 10000 4.63 200 17:24 22.06.2022
2952 Clouds 30 1016 21 10000 4.12 200 15:53 22.06.2022
2953 Clouds 29 1016 20 10000 4.12 200 15:24 22.06.2022
2954 Clouds 28 1015 15 10000 4.12 200 13:50 22.06.2022
2955 Clouds 28 1015 13 10000 4.12 200 13:25 22.06.2022
2956 Clouds 28 1015 13 10000 3.09 220 12:44 22.06.2022
2957 Clouds 27 1014 13 10000 3.13 180 11:47 22.06.2022
2958 Clouds 28 1013 13 10000 2.68 210 10:54 22.06.2022
2959 Clouds 29 1013 12 10000 4.12 170 09:44 22.06.2022
2960 Clouds 29 1011 12 10000 1.54 340 07:56 22.06.2022
2961 Clouds 37 1012 6 10000 5.14 70 03:25 22.06.2022
2962 Clouds 37 1013 5 10000 3.6 80 01:21 22.06.2022
2963 Clouds 36 1015 5 10000 4.63 150 23:39 21.06.2022
2964 Clear 34 1016 7 10000 5.14 110 21:31 21.06.2022
2965 Clear 31 1016 9 10000 6.17 40 19:43 21.06.2022
2966 Clear 29 1013 11 10000 0.45 148 17:57 21.06.2022
2967 Clouds 25 1016 13 10000 3.09 310 16:52 21.06.2022
2968 Clear 23 1014 13 10000 3.6 170 12:40 21.06.2022
2969 Clear 24 1013 14 10000 3.6 160 10:55 21.06.2022
2970 Clear 24 1013 14 10000 3.6 310 09:40 21.06.2022
2971 Clear 26 1013 13 10000 3.6 170 08:22 21.06.2022
2972 Clouds 30 1012 9 10000 1.54 90 05:37 21.06.2022
2973 Clouds 32 1015 9 10000 3.09 280 00:37 21.06.2022
2974 Clear 31 1016 11 10000 3.6 40 22:23 20.06.2022
2975 Clear 31 1017 12 10000 5.66 40 21:49 20.06.2022
2976 Clear 29 1017 14 10000 5.14 20 20:32 20.06.2022
2977 Clear 29 1018 14 10000 7.72 20 19:38 20.06.2022
2978 Clear 27 1018 15 10000 8.23 10 18:44 20.06.2022
2979 Clear 26 1018 16 10000 8.23 20 17:50 20.06.2022
2980 Clear 24 1017 17 10000 6.71 40 16:55 20.06.2022
2981 Clear 22 1016 17 10000 5.66 60 15:53 20.06.2022
2982 Clear 21 1015 12 10000 5.14 350 12:41 20.06.2022
2983 Clear 22 1014 12 10000 5.14 280 10:32 20.06.2022
2984 Clear 23 1014 11 10000 3.6 280 09:30 20.06.2022
2985 Clear 25 1013 10 10000 4.12 170 08:44 20.06.2022
2986 Clear 28 1011 9 10000 6.17 320 05:35 20.06.2022
2987 Clear 30 1012 9 10000 7.2 300 01:44 20.06.2022
2988 Clear 30 1013 9 10000 5.14 300 00:26 20.06.2022
2989 Clear 29 1013 11 10000 2.57 0 22:50 19.06.2022
2990 Clouds 29 1011 13 10000 6.17 280 21:57 19.06.2022
2991 Clear 28 1013 13 10000 6.17 280 21:39 19.06.2022
2992 Clear 27 1014 14 10000 5.14 250 20:38 19.06.2022
2993 Clear 26 1013 16 10000 9.77 320 19:47 19.06.2022
2994 Clear 24 1014 16 10000 9.26 320 18:45 19.06.2022
2995 Clear 23 1013 18 10000 10.29 290 17:54 19.06.2022
2996 Clear 22 1013 18 10000 10.29 290 17:22 19.06.2022
2997 Clear 21 1012 19 10000 9.26 300 16:35 19.06.2022
2998 Clear 20 1011 20 10000 9.26 310 15:41 19.06.2022
2999 Clear 19 1008 20 10000 7.72 210 14:57 19.06.2022
3000 Clear 19 1011 20 10000 7.72 210 14:19 19.06.2022
3001 Clear 19 1010 19 10000 9.26 210 13:21 19.06.2022
3002 Clear 22 1008 19 10000 9.26 220 10:55 19.06.2022
3003 Clear 23 1008 19 10000 11.32 240 09:46 19.06.2022
3004 Clear 24 1008 17 10000 13.38 240 08:47 19.06.2022
3005 Clear 25 1006 21 10000 5.14 249 07:59 19.06.2022
3006 Clouds 29 1006 7 10000 7.2 230 05:37 19.06.2022
3007 Clouds 32 1006 5 10000 8.75 220 01:29 19.06.2022
3008 Clouds 32 1007 5 10000 9.77 220 00:24 19.06.2022
3009 Clouds 31 1007 6 10000 10.8 240 23:36 18.06.2022
3010 Clouds 30 1008 7 10000 7.72 220 22:39 18.06.2022
3011 Clouds 28 1005 7 10000 7.2 210 20:57 18.06.2022
3012 Clouds 28 1008 7 10000 8.75 210 20:38 18.06.2022
3013 Clouds 27 1008 7 10000 7.72 190 19:38 18.06.2022
3014 Clouds 26 1008 9 10000 7.72 190 18:45 18.06.2022
3015 Clouds 24 1007 13 10000 7.72 190 17:34 18.06.2022
3016 Clouds 23 1007 14 10000 9.26 210 16:47 18.06.2022
3017 Clouds 23 1007 14 10000 7.72 180 15:31 18.06.2022
3018 Clouds 23 1006 13 10000 6.69 180 14:44 18.06.2022
3019 Clouds 24 1006 13 10000 8.23 200 13:22 18.06.2022
3020 Clouds 25 1006 13 10000 8.23 180 11:39 18.06.2022
3021 Clouds 26 1006 12 10000 8.75 190 10:47 18.06.2022
3022 Clouds 27 1006 12 10000 7.72 220 09:23 18.06.2022
3023 Clouds 28 1006 12 10000 7.2 220 08:30 18.06.2022
3024 Clouds 28 1006 12 10000 7.2 220 08:30 18.06.2022
3025 Clouds 31 1005 11 10000 8.23 220 06:46 18.06.2022
3026 Dust 35 1001 10 10000 14.4 230 03:45 18.06.2022
3027 Dust 38 1001 6 10000 12.86 210 01:26 18.06.2022
3028 Dust 38 1001 6 10000 12.86 210 01:26 18.06.2022
3029 Clouds 39 1002 6 10000 12.86 210 00:48 18.06.2022
3030 Clouds 38 1002 6 10000 11.83 170 23:52 17.06.2022
3031 Clouds 39 1002 6 10000 11.83 170 23:20 17.06.2022
3032 Clouds 36 1004 11 10000 5.66 230 20:56 17.06.2022
3033 Clouds 35 1002 12 10000 7.72 200 19:59 17.06.2022
3034 Clouds 33 1006 13 10000 7.72 180 18:44 17.06.2022
3035 Smoke 31 1006 13 10000 7.72 170 17:43 17.06.2022
3036 Smoke 29 1005 15 10000 6.69 180 16:43 17.06.2022
3037 Smoke 28 1005 17 10000 8.23 170 15:43 17.06.2022
3038 Smoke 28 1006 16 10000 8.23 170 15:20 17.06.2022
3039 Clouds 28 1006 16 10000 6.17 170 14:20 17.06.2022
3040 Clear 28 1005 16 10000 5.14 180 13:46 17.06.2022
3041 Clear 27 1003 20 10000 2.23 172 12:57 17.06.2022
3042 Clear 28 1004 12 10000 6.17 170 11:57 17.06.2022
3043 Clear 29 1003 15 10000 6.17 170 11:36 17.06.2022
3044 Clear 32 1005 10 10000 5.66 180 10:51 17.06.2022
3045 Clear 33 1003 8 10000 6.69 200 08:30 17.06.2022
3046 Clear 34 1005 8 10000 7.2 180 07:47 17.06.2022
3047 Clear 35 1002 8 10000 8.23 160 05:57 17.06.2022
3048 Clear 41 1003 5 10000 7.72 170 02:52 17.06.2022
3049 Clear 41 1005 6 10000 7.2 150 00:42 17.06.2022
3050 Clear 40 1007 7 10000 6.17 130 22:45 16.06.2022
3051 Clear 40 1007 7 10000 6.17 130 22:20 16.06.2022
3052 Clear 38 1009 7 10000 3.09 110 21:19 16.06.2022
3053 Clear 37 1009 8 10000 4.12 40 20:50 16.06.2022
3054 Clear 36 1006 9 10000 2.57 80 19:57 16.06.2022
3055 Clear 33 1010 10 10000 4.12 80 18:34 16.06.2022
3056 Clear 31 1010 11 10000 1.54 70 17:44 16.06.2022
3057 Clear 31 1010 11 10000 1.54 70 17:44 16.06.2022
3058 Clear 28 1011 13 10000 3.09 220 16:46 16.06.2022
3059 Clear 25 1010 14 10000 3.6 330 15:37 16.06.2022
3060 Clear 24 1009 16 10000 3.6 330 15:18 16.06.2022
3061 Clear 25 1008 14 10000 3.6 200 13:46 16.06.2022
3062 Clear 25 1008 13 10000 5.14 180 12:38 16.06.2022
3063 Clear 25 1008 14 10000 3.6 200 11:54 16.06.2022
3064 Clear 26 1008 12 10000 3.6 200 11:18 16.06.2022
3065 Clear 27 1008 11 10000 3.09 320 10:33 16.06.2022
3066 Clear 28 1009 12 10000 2.57 310 09:25 16.06.2022
3067 Clear 29 1009 12 10000 2.06 250 08:46 16.06.2022
3068 Clear 30 1008 13 10000 3.09 30 07:29 16.06.2022
3069 Clear 36 1009 6 10000 3.09 90 05:42 16.06.2022
3070 Clear 37 1009 5 10000 2.57 320 02:54 16.06.2022
3071 Clear 37 1010 6 10000 3.09 100 01:51 16.06.2022
3072 Clear 37 1010 6 10000 3.09 100 01:21 16.06.2022
3073 Clear 37 1010 6 10000 3.09 100 01:21 16.06.2022
3074 Clear 36 1011 5 10000 4.12 160 23:49 15.06.2022
3075 Clear 35 1012 6 10000 4.12 340 22:45 15.06.2022
3076 Clear 34 1013 6 10000 5.81 50 21:28 15.06.2022
3077 Clear 34 1010 6 10000 5.66 60 20:57 15.06.2022
3078 Clear 33 1013 6 10000 5.66 60 20:35 15.06.2022
3079 Clear 31 1013 6 10000 8.75 50 19:46 15.06.2022
3080 Clear 30 1013 7 10000 5.66 20 18:29 15.06.2022
3081 Clear 28 1013 8 10000 4.63 30 17:42 15.06.2022
3082 Clear 25 1012 11 10000 5.66 320 15:51 15.06.2022
3083 Clear 23 1011 15 10000 2.57 40 14:30 15.06.2022
3084 Clear 23 1007 17 10000 2.57 60 12:57 15.06.2022
3085 Clear 24 1010 12 10000 4.63 340 12:33 15.06.2022
3086 Clear 25 1009 15 10000 1.54 190 10:53 15.06.2022
3087 Clear 26 1010 13 10000 3.09 270 10:20 15.06.2022
3088 Clear 25 1007 16 10000 2.06 350 08:57 15.06.2022
3089 Clear 27 1007 14 10000 2.06 180 07:21 15.06.2022
3090 Clear 32 1007 8 10000 3.09 30 04:51 15.06.2022
3091 Clear 33 1008 7 10000 4.63 170 02:28 15.06.2022
3092 Clear 32 1010 7 10000 3.09 40 00:54 15.06.2022
3093 Clear 32 1011 8 10000 4.12 350 23:55 14.06.2022
3094 Clear 31 1011 8 10000 4.12 350 23:37 14.06.2022
3095 Clear 30 1012 8 10000 4.12 300 22:28 14.06.2022
3096 Clear 29 1013 8 10000 4.12 320 21:41 14.06.2022
3097 Clear 29 1011 9 10000 6.17 30 20:57 14.06.2022
3098 Clear 28 1014 8 10000 6.17 30 20:32 14.06.2022
3099 Clear 27 1014 9 10000 8.75 30 19:22 14.06.2022
3100 Clear 26 1014 10 10000 8.75 340 18:25 14.06.2022
3101 Clear 24 1013 11 10000 9.39 20 16:48 14.06.2022
3102 Clear 23 1012 13 10000 9.77 40 15:50 14.06.2022
3103 Clear 23 1012 13 10000 9.77 40 15:28 14.06.2022
3104 Dust 23 1011 14 10000 8.94 10 14:40 14.06.2022
3105 Dust 24 1011 13 10000 12.86 10 13:46 14.06.2022
3106 Dust 26 1010 11 10000 14.4 30 12:48 14.06.2022
3107 Dust 28 1009 10 10000 10.29 360 11:41 14.06.2022
3108 Clear 29 1008 8 10000 10.8 10 10:49 14.06.2022
3109 Clear 29 1008 8 10000 10.8 10 10:49 14.06.2022
3110 Clear 29 1008 8 10000 10.8 10 10:24 14.06.2022
3111 Clear 30 1006 10 10000 6.69 310 08:49 14.06.2022
3112 Clear 31 1005 10 10000 6.69 210 07:49 14.06.2022
3113 Clouds 34 1003 9 10000 7.72 220 05:46 14.06.2022
3114 Clouds 35 1002 10 10000 9.77 210 03:20 14.06.2022
3115 Clouds 36 1003 15 10000 10.29 220 00:54 14.06.2022
3116 Clouds 35 1003 17 10000 7.2 230 23:41 13.06.2022
3117 Clouds 34 1004 20 10000 8.75 210 22:26 13.06.2022
3118 Clouds 33 1004 22 10000 8.75 220 21:52 13.06.2022
3119 Clouds 32 1005 24 10000 8.75 230 20:42 13.06.2022
3120 Clouds 31 1004 26 10000 7.72 200 19:35 13.06.2022
3121 Clouds 30 1005 31 10000 9.77 210 18:31 13.06.2022
3122 Clouds 28 1004 35 10000 10.29 230 17:47 13.06.2022
3123 Clouds 27 1004 39 10000 11.32 210 16:53 13.06.2022
3124 Clouds 26 1003 40 10000 11.83 230 15:40 13.06.2022
3125 Dust 27 1003 37 10000 12.35 230 14:47 13.06.2022
3126 Dust 28 1002 34 10000 11.83 220 13:55 13.06.2022
3127 Dust 28 1001 32 10000 13.89 240 12:49 13.06.2022
3128 Clouds 29 1001 29 10000 13.38 210 11:37 13.06.2022
3129 Dust 30 1001 27 10000 10.8 210 10:27 13.06.2022
3130 Dust 31 1001 24 10000 10.8 200 09:42 13.06.2022
3131 Clouds 32 1001 21 10000 10.8 200 08:24 13.06.2022
3132 Clouds 35 1002 14 10000 12.35 210 06:33 13.06.2022
3133 Clouds 39 1001 8 10000 11.83 230 03:28 13.06.2022
3134 Clouds 40 1002 7 10000 12.86 220 01:38 13.06.2022
3135 Clouds 41 1002 6 10000 13.38 210 00:22 13.06.2022
3136 Clouds 40 1003 7 10000 11.32 230 23:29 12.06.2022
3137 Clear 40 1004 8 10000 12.35 210 22:23 12.06.2022
3138 Clear 39 1005 10 10000 10.29 230 21:28 12.06.2022
3139 Clear 37 1005 11 10000 10.8 220 20:34 12.06.2022
3140 Clear 36 1006 13 10000 9.26 220 19:36 12.06.2022
3141 Clear 34 1006 15 10000 7.72 210 18:39 12.06.2022
3142 Clear 30 1006 18 10000 5.66 200 16:42 12.06.2022
3143 Clear 28 1005 20 10000 7.72 200 15:24 12.06.2022
3144 Clear 28 1005 21 10000 7.72 180 14:31 12.06.2022
3145 Clear 29 1006 18 10000 7.2 180 13:55 12.06.2022
3146 Clear 30 1004 18 10000 6.69 190 12:46 12.06.2022
3147 Clear 32 1007 14 10000 7.2 250 11:47 12.06.2022
3148 Clear 33 1007 14 10000 6.17 200 10:45 12.06.2022
3149 Clear 34 1008 12 10000 7.72 220 09:25 12.06.2022
3150 Clear 36 1008 11 10000 8.75 210 08:48 12.06.2022
3151 Clear 37 1008 9 10000 8.23 230 07:38 12.06.2022
3152 Clouds 39 1005 9 10000 8.75 230 05:29 12.06.2022
3153 Clouds 41 1005 7 10000 11.32 220 03:38 12.06.2022
3154 Clouds 42 1006 7 10000 10.29 220 01:43 12.06.2022
3155 Clear 42 1001 9 10000 5.36 255 00:58 12.06.2022
3156 Clouds 42 1007 8 10000 11.32 230 00:25 12.06.2022
3157 Clouds 42 1008 7 10000 9.26 220 23:48 11.06.2022
3158 Clouds 42 1008 7 10000 9.26 220 23:48 11.06.2022
3159 Clouds 42 1009 8 10000 8.23 190 22:39 11.06.2022
3160 Clouds 42 1009 8 10000 8.23 190 22:18 11.06.2022
3161 Clouds 41 1010 9 10000 10.29 230 20:38 11.06.2022
3162 Clear 40 1005 10 10000 4.92 241 19:59 11.06.2022
3163 Clouds 40 1010 10 10000 6.69 240 19:26 11.06.2022
3164 Clouds 37 1011 13 10000 7.2 220 18:34 11.06.2022
3165 Clouds 36 1011 15 10000 7.72 210 17:51 11.06.2022
3166 Clouds 35 1011 15 10000 7.72 210 17:28 11.06.2022
3167 Clear 34 1007 17 10000 2.06 230 16:57 11.06.2022
3168 Clouds 33 1011 18 10000 6.17 210 16:30 11.06.2022
3169 Clouds 32 1010 19 10000 6.17 200 15:43 11.06.2022
3170 Clear 31 1011 17 10000 5.66 200 13:53 11.06.2022
3171 Clear 29 1009 19 10000 2.06 210 12:57 11.06.2022
3172 Clouds 34 1011 14 10000 6.17 210 10:55 11.06.2022
3173 Clouds 34 1011 14 10000 4.63 190 09:55 11.06.2022
3174 Clouds 34 1010 12 10000 4.63 190 09:19 11.06.2022
3175 Clear 35 1009 12 10000 4.63 180 07:43 11.06.2022
3176 Clouds 37 1008 11 10000 6.17 210 06:30 11.06.2022
3177 Clouds 41 1009 9 10000 7.2 210 04:49 11.06.2022
3178 Clouds 42 1009 8 10000 8.75 230 01:53 11.06.2022
3179 Clouds 42 1009 8 10000 8.75 230 01:33 11.06.2022
3180 Clouds 42 1009 9 10000 7.72 170 00:20 11.06.2022
3181 Clouds 42 1011 9 10000 7.72 250 22:32 10.06.2022
3182 Clouds 41 1011 10 10000 8.23 220 21:52 10.06.2022
3183 Clouds 40 1012 13 10000 5.66 220 20:42 10.06.2022
3184 Clouds 39 1012 14 10000 5.66 220 20:22 10.06.2022
3185 Clouds 37 1012 15 10000 4.12 230 19:38 10.06.2022
3186 Clouds 37 1012 15 10000 4.12 230 19:18 10.06.2022
3187 Clouds 37 1012 15 10000 4.12 230 19:18 10.06.2022
3188 Clouds 35 1013 16 10000 2.24 70 18:18 10.06.2022
3189 Clouds 33 1012 17 10000 4.12 210 17:35 10.06.2022
3190 Clear 31 1012 20 10000 5.66 200 16:51 10.06.2022
3191 Clear 29 1012 21 10000 5.14 210 15:45 10.06.2022
3192 Clear 27 1009 26 10000 0.28 222 14:57 10.06.2022
3193 Clear 28 1010 23 10000 4.63 200 13:36 10.06.2022
3194 Clear 30 1010 22 10000 6.17 180 12:21 10.06.2022
3195 Clear 30 1010 21 10000 5.66 190 11:30 10.06.2022
3196 Clouds 31 1010 19 10000 4.63 200 10:36 10.06.2022
3197 Clouds 31 1010 19 10000 4.12 160 09:37 10.06.2022
3198 Clouds 32 1005 18 10000 0.89 275 07:58 10.06.2022
3199 Clouds 35 1008 14 10000 5.66 260 06:50 10.06.2022
3200 Clouds 35 1008 14 10000 5.66 260 06:31 10.06.2022
3201 Clouds 37 1008 13 10000 6.71 260 05:34 10.06.2022
3202 Clouds 40 1007 11 10000 7.2 260 02:50 10.06.2022
3203 Clouds 41 1007 11 10000 5.66 150 01:37 10.06.2022
3204 Clear 41 1005 12 10000 6.69 130 23:58 09.06.2022
3205 Clouds 40 1009 11 10000 8.23 180 22:47 09.06.2022
3206 Clouds 39 1010 13 10000 5.66 140 21:46 09.06.2022
3207 Clouds 39 1010 13 10000 4.63 150 21:28 09.06.2022
3208 Clouds 38 1010 14 10000 5.14 120 20:40 09.06.2022
3209 Clouds 36 1010 15 10000 4.63 130 19:51 09.06.2022
3210 Clouds 34 1011 17 10000 4.63 190 18:41 09.06.2022
3211 Clear 33 1010 19 10000 4.12 210 17:55 09.06.2022
3212 Clouds 30 1010 22 10000 5.14 190 16:28 09.06.2022
3213 Clouds 27 1009 25 10000 4.12 210 15:22 09.06.2022
3214 Clouds 27 1008 22 10000 5.14 190 14:30 09.06.2022
3215 Clouds 28 1008 20 10000 4.63 180 13:44 09.06.2022
3216 Clouds 29 1008 20 10000 4.63 180 13:19 09.06.2022
3217 Clouds 31 1007 19 10000 5.66 210 11:35 09.06.2022
3218 Clouds 33 1008 16 10000 4.12 220 09:55 09.06.2022
3219 Clouds 32 1008 17 10000 4.12 220 09:55 09.06.2022
3220 Clouds 33 1008 16 10000 4.12 220 09:37 09.06.2022
3221 Clouds 33 1007 16 10000 4.12 190 08:38 09.06.2022
3222 Clouds 34 1007 13 10000 4.63 180 07:29 09.06.2022
3223 Clouds 38 1004 10 10000 7.2 220 04:30 09.06.2022
3224 Clouds 40 1006 11 10000 6.69 270 00:35 09.06.2022
3225 Clouds 40 1007 12 10000 6.17 180 23:18 08.06.2022
3226 Clouds 39 1007 13 10000 5.66 150 22:43 08.06.2022
3227 Clouds 39 1008 13 10000 5.66 150 22:23 08.06.2022
3228 Clouds 38 1008 14 10000 4.63 170 21:40 08.06.2022
3229 Clouds 37 1009 16 10000 4.12 130 20:25 08.06.2022
3230 Clouds 35 1010 17 10000 3.09 0 19:42 08.06.2022
3231 Clouds 34 1010 19 10000 4.12 120 18:48 08.06.2022
3232 Clouds 32 1010 21 10000 3.6 260 17:46 08.06.2022
3233 Clear 28 1006 28 10000 1.54 40 15:56 08.06.2022
3234 Clouds 27 1008 25 10000 3.09 330 14:44 08.06.2022
3235 Clouds 28 1007 24 10000 4.63 200 12:55 08.06.2022
3236 Clouds 28 1007 24 10000 4.63 200 12:55 08.06.2022
3237 Clouds 28 1007 24 10000 4.63 200 12:55 08.06.2022
3238 Clouds 28 1007 24 10000 4.63 200 12:55 08.06.2022
3239 Clouds 28 1007 24 10000 4.63 200 12:55 08.06.2022
3240 Clouds 29 1007 22 10000 4.63 200 11:36 08.06.2022
3241 Clouds 30 1007 21 10000 5.14 210 10:51 08.06.2022
3242 Clouds 32 1007 19 10000 7.2 170 09:30 08.06.2022
3243 Clouds 33 1008 16 10000 5.14 170 08:55 08.06.2022
3244 Clouds 35 1006 16 10000 5.14 110 07:21 08.06.2022
3245 Clouds 35 1006 16 10000 5.14 110 07:21 08.06.2022
3246 Clouds 38 1005 13 10000 7.2 140 04:47 08.06.2022
3247 Clouds 39 1006 11 10000 3.09 170 01:25 08.06.2022
3248 Clouds 38 1007 11 10000 3.6 360 23:32 07.06.2022
3249 Clouds 38 1008 12 10000 2.57 310 22:54 07.06.2022
3250 Clouds 38 1008 11 10000 3.09 140 22:34 07.06.2022
3251 Clear 37 1009 12 10000 3.09 90 21:39 07.06.2022
3252 Clear 37 1009 11 10000 3.09 90 21:20 07.06.2022
3253 Clear 36 1009 11 10000 2.68 360 20:40 07.06.2022
3254 Clear 36 1006 11 10000 3.09 60 19:57 07.06.2022
3255 Clouds 33 1010 12 10000 4.12 50 18:26 07.06.2022
3256 Clouds 32 1009 16 10000 4.63 360 17:33 07.06.2022
3257 Clouds 29 1008 22 10000 5.14 240 16:44 07.06.2022
3258 Clear 28 1004 26 10000 2.24 333 15:58 07.06.2022
3259 Clouds 27 1008 23 10000 5.14 210 15:36 07.06.2022
3260 Clouds 27 1008 24 10000 5.14 210 15:18 07.06.2022
3261 Clear 27 1007 22 10000 5.66 180 14:42 07.06.2022
3262 Clear 27 1006 23 10000 4.63 190 13:34 07.06.2022
3263 Clear 28 1005 23 10000 7.2 190 12:54 07.06.2022
3264 Clear 29 1005 21 10000 5.14 170 11:51 07.06.2022
3265 Clear 30 1005 19 10000 5.14 190 10:48 07.06.2022
3266 Clear 31 1004 18 10000 4.12 190 08:53 07.06.2022
3267 Clouds 33 1007 17 10000 5.14 230 07:54 07.06.2022
3268 Clouds 35 1006 15 10000 7.2 140 06:41 07.06.2022
3269 Clouds 37 1005 11 10000 5.14 160 04:41 07.06.2022
3270 Clouds 38 1005 14 10000 4.12 180 01:27 07.06.2022
3271 Clouds 37 1006 15 10000 3.6 60 23:53 06.06.2022
3272 Clouds 37 1007 15 10000 2.06 0 22:54 06.06.2022
3273 Clouds 36 1007 15 10000 3.6 90 22:29 06.06.2022
3274 Clouds 34 1008 19 10000 2.57 40 20:54 06.06.2022
3275 Clear 32 1010 21 10000 4.12 30 19:29 06.06.2022
3276 Clear 31 1008 23 10000 2.68 230 18:49 06.06.2022
3277 Clear 30 1008 23 10000 2.57 230 18:21 06.06.2022
3278 Clear 28 1008 27 10000 5.66 210 17:26 06.06.2022
3279 Clear 26 1007 31 10000 7.2 200 16:18 06.06.2022
3280 Clear 25 1007 33 10000 6.69 190 15:28 06.06.2022
3281 Clouds 24 1006 34 10000 6.17 190 14:30 06.06.2022
3282 Clear 25 1007 32 10000 7.2 200 13:22 06.06.2022
3283 Clear 27 1006 27 10000 8.75 200 12:36 06.06.2022
3284 Clear 27 1006 25 10000 8.75 200 11:53 06.06.2022
3285 Clear 28 1006 24 10000 8.23 200 10:21 06.06.2022
3286 Clear 29 1006 20 10000 8.75 190 09:33 06.06.2022
3287 Clear 31 1006 16 10000 10.29 200 08:32 06.06.2022
3288 Clouds 32 1006 14 10000 7.72 200 07:28 06.06.2022
3289 Clouds 35 1005 14 10000 6.17 220 05:18 06.06.2022
3290 Clouds 37 1004 13 10000 7.72 220 02:42 06.06.2022
3291 Clear 38 1003 14 10000 10.8 210 00:57 06.06.2022
3292 Clouds 37 1006 13 10000 6.26 180 00:37 06.06.2022
3293 Clouds 36 1007 14 10000 4.12 100 23:28 05.06.2022
3294 Clouds 35 1007 15 10000 3.13 70 22:33 05.06.2022
3295 Clouds 32 1009 19 10000 2.24 40 20:40 05.06.2022
3296 Clouds 30 1009 20 10000 0 0 19:26 05.06.2022
3297 Clouds 29 1008 24 10000 3.09 230 18:26 05.06.2022
3298 Clouds 27 1008 26 10000 5.66 200 17:50 05.06.2022
3299 Clouds 27 1008 27 10000 5.66 200 17:23 05.06.2022
3300 Clouds 25 1008 29 10000 5.14 210 16:49 05.06.2022
3301 Clouds 23 1007 33 10000 5.66 210 15:50 05.06.2022
3302 Smoke 23 1007 33 10000 4.63 210 14:22 05.06.2022
3303 Clouds 25 1007 27 10000 9.26 200 12:43 05.06.2022
3304 Clouds 25 1007 26 10000 7.2 200 11:35 05.06.2022
3305 Clouds 27 1007 25 10000 7.2 200 10:25 05.06.2022
3306 Clouds 26 1005 26 10000 3.61 213 09:58 05.06.2022
3307 Clouds 28 1007 21 10000 7.72 180 08:26 05.06.2022
3308 Clouds 31 1007 17 10000 5.66 230 06:54 05.06.2022
3309 Clouds 32 1006 16 10000 6.17 240 05:20 05.06.2022
3310 Clouds 34 1006 15 10000 8.75 220 03:38 05.06.2022
3311 Clouds 34 1006 15 10000 7.72 220 01:32 05.06.2022
3312 Clouds 35 1005 16 10000 8.75 220 23:58 04.06.2022
3313 Clouds 33 1008 16 10000 9.26 160 21:49 04.06.2022
3314 Clouds 32 1008 17 10000 8.75 200 20:21 04.06.2022
3315 Clouds 27 1006 25 10000 5.03 196 17:59 04.06.2022
3316 Clouds 25 1008 25 10000 7.72 180 16:42 04.06.2022
3317 Clouds 25 1008 26 10000 7.72 180 16:18 04.06.2022
3318 Clouds 24 1006 26 10000 6.69 190 14:37 04.06.2022
3319 Clouds 26 1007 20 10000 6.17 190 11:51 04.06.2022
3320 Clear 28 1006 16 10000 6.17 190 10:57 04.06.2022
3321 Clouds 27 1007 20 10000 7.2 230 10:22 04.06.2022
3322 Clouds 28 1007 17 10000 7.2 230 09:41 04.06.2022
3323 Clouds 29 1006 17 10000 6.69 200 08:40 04.06.2022
3324 Clouds 30 1006 13 10000 4.12 190 07:39 04.06.2022
3325 Clouds 34 1005 10 10000 8.23 200 04:33 04.06.2022
3326 Clouds 36 1002 11 10000 9.44 222 00:56 04.06.2022
3327 Clouds 36 1006 9 10000 7.72 220 23:35 03.06.2022
3328 Clouds 35 1006 11 10000 8.75 210 22:30 03.06.2022
3329 Clouds 35 1006 10 10000 6.69 210 21:21 03.06.2022
3330 Clouds 33 1007 12 10000 7.72 210 20:33 03.06.2022
3331 Clouds 29 1005 16 10000 2.74 180 17:58 03.06.2022
3332 Clouds 27 1007 15 10000 6.17 210 16:47 03.06.2022
3333 Clouds 25 1006 15 10000 6.17 200 15:18 03.06.2022
3334 Clouds 26 1006 16 10000 5.66 170 12:56 03.06.2022
3335 Clouds 28 1006 14 10000 6.69 170 11:19 03.06.2022
3336 Clouds 29 1006 13 10000 4.12 210 09:38 03.06.2022
3337 Clouds 30 1006 10 10000 3.09 210 08:45 03.06.2022
3338 Clouds 31 1006 10 10000 3.6 200 07:26 03.06.2022
3339 Clouds 32 1006 10 10000 4.12 220 06:32 03.06.2022
3340 Clear 33 1005 8 10000 6.17 250 05:19 03.06.2022
3341 Clouds 36 1007 6 10000 6.17 110 00:28 03.06.2022
3342 Clouds 35 1009 6 10000 4.63 80 22:41 02.06.2022
3343 Clear 33 1010 7 10000 3.6 110 21:38 02.06.2022
3344 Clear 32 1011 8 10000 2.57 0 20:22 02.06.2022
3345 Clear 30 1012 9 10000 3.09 100 19:46 02.06.2022
3346 Clear 30 1012 9 10000 3.09 100 19:28 02.06.2022
3347 Clear 26 1012 11 10000 1.54 0 17:32 02.06.2022
3348 Clear 23 1011 14 10000 3.6 200 16:27 02.06.2022
3349 Clear 20 1010 14 10000 3.6 200 14:19 02.06.2022
3350 Clear 21 1010 14 10000 4.12 190 13:29 02.06.2022
3351 Clear 23 1010 14 10000 4.12 200 11:24 02.06.2022
3352 Clear 24 1010 12 10000 4.12 190 10:20 02.06.2022
3353 Clear 24 1010 14 10000 3.6 300 09:27 02.06.2022
3354 Clear 24 1011 14 10000 3.6 280 08:26 02.06.2022
3355 Clouds 26 1011 13 10000 3.6 190 07:21 02.06.2022
3356 Clouds 31 1010 7 10000 2.24 90 04:49 02.06.2022
3357 Clouds 32 1010 7 10000 4.12 140 02:37 02.06.2022
3358 Clouds 31 1013 9 10000 4.63 60 23:43 01.06.2022
3359 Clouds 31 1013 9 10000 4.63 60 23:43 01.06.2022
3360 Clouds 31 1013 9 10000 4.63 60 23:43 01.06.2022
3361 Clear 29 1014 11 10000 4.63 40 22:31 01.06.2022
3362 Clear 28 1015 13 10000 4.63 360 21:32 01.06.2022
3363 Clear 27 1015 14 10000 5.36 360 20:40 01.06.2022
3364 Clear 27 1013 16 10000 3.86 19 19:59 01.06.2022
3365 Clear 26 1016 16 10000 5.66 40 19:19 01.06.2022
3366 Clear 23 1016 19 10000 6.17 340 17:44 01.06.2022
3367 Clear 22 1016 21 10000 7.72 340 16:34 01.06.2022
3368 Clear 20 1015 22 10000 6.26 360 14:53 01.06.2022
3369 Clear 21 1015 21 10000 7.2 40 13:45 01.06.2022
3370 Clear 22 1014 21 10000 8.23 40 12:26 01.06.2022
3371 Clear 24 1013 19 10000 7.2 20 09:40 01.06.2022
3372 Clear 26 1012 16 10000 7.72 20 08:38 01.06.2022
3373 Clear 27 1012 13 10000 7.72 20 07:22 01.06.2022
3374 Clear 28 1009 13 10000 7.2 20 05:23 01.06.2022
3375 Clouds 29 1009 13 10000 2.24 0 00:22 01.06.2022
3376 Clouds 28 1010 13 10000 1.54 0 23:26 31.05.2022
3377 Clouds 28 1010 14 10000 3.09 70 22:36 31.05.2022
3378 Clouds 28 1011 15 10000 6.69 330 21:45 31.05.2022
3379 Clouds 26 1011 16 10000 7.2 20 20:45 31.05.2022
3380 Clouds 26 1011 16 10000 7.2 20 20:45 31.05.2022
3381 Clear 26 1009 18 10000 8.23 30 19:57 31.05.2022
3382 Clouds 24 1011 17 10000 9.26 30 18:50 31.05.2022
3383 Clouds 23 1010 17 10000 10.29 320 17:50 31.05.2022
3384 Clouds 21 1009 18 10000 5.36 355 16:53 31.05.2022
3385 Clouds 19 1008 22 10000 4.12 330 15:40 31.05.2022
3386 Clear 18 1007 21 10000 4.12 170 13:45 31.05.2022
3387 Clear 19 1007 18 10000 5.66 60 12:20 31.05.2022
3388 Clear 19 1006 21 10000 4.12 50 10:53 31.05.2022
3389 Clear 22 1006 18 10000 3.6 30 08:49 31.05.2022
3390 Clouds 23 1006 15 10000 5.14 120 07:21 31.05.2022
3391 Clouds 27 1006 10 10000 3.09 210 04:53 31.05.2022
3392 Clouds 27 1007 12 10000 5.36 330 00:26 31.05.2022
3393 Clouds 26 1008 13 10000 3.13 70 23:26 30.05.2022
3394 Clouds 26 1008 15 10000 3.6 170 22:48 30.05.2022
3395 Clouds 25 1008 14 10000 2.06 0 21:51 30.05.2022
3396 Clouds 25 1009 14 10000 2.06 0 21:32 30.05.2022
3397 Clouds 23 1009 17 10000 5.36 60 19:51 30.05.2022
3398 Clouds 22 1009 19 10000 6.69 10 18:39 30.05.2022
3399 Clouds 20 1009 21 10000 7.72 10 17:24 30.05.2022
3400 Clouds 19 1009 22 10000 5.81 60 16:39 30.05.2022
3401 Clear 18 1008 22 10000 10.29 20 13:44 30.05.2022
3402 Clear 19 1007 21 10000 9.77 30 12:21 30.05.2022
3403 Clear 22 1007 12 10000 7.72 10 10:40 30.05.2022
3404 Clear 23 1006 8 10000 9.26 330 09:19 30.05.2022
3405 Clear 25 1003 7 10000 12.52 340 06:30 30.05.2022
3406 Clear 27 1003 6 10000 10.8 340 05:47 30.05.2022
3407 Clouds 31 1001 5 10000 11.32 330 01:32 30.05.2022
3408 Clear 30 1002 6 10000 11.83 330 22:50 29.05.2022
3409 Clear 30 1002 7 10000 11.83 330 22:31 29.05.2022
3410 Clear 28 1003 10 10000 11.32 300 20:51 29.05.2022
3411 Clear 27 1003 12 10000 11.83 330 19:30 29.05.2022
3412 Dust 26 1003 15 10000 10.29 320 18:37 29.05.2022
3413 Dust 24 1002 25 10000 10.8 330 17:23 29.05.2022
3414 Dust 22 1000 33 10000 8.75 320 15:48 29.05.2022
3415 Clear 21 999 38 10000 5.14 190 14:57 29.05.2022
3416 Dust 22 1000 28 8047 9.26 210 13:46 29.05.2022
3417 Dust 23 999 27 6437 8.23 210 11:34 29.05.2022
3418 Dust 24 999 27 8047 8.75 200 10:38 29.05.2022
3419 Dust 26 1000 23 6437 10.29 180 08:39 29.05.2022
3420 Dust 29 999 21 10000 11.32 210 05:48 29.05.2022
3421 Clouds 31 998 18 10000 11.32 220 04:43 29.05.2022
3422 Clouds 33 999 16 10000 10.8 210 02:50 29.05.2022
3423 Clouds 34 1001 16 10000 9.26 240 23:49 28.05.2022
3424 Clouds 34 1001 15 10000 9.26 240 23:26 28.05.2022
3425 Clouds 33 1003 15 10000 9.26 160 22:25 28.05.2022
3426 Clouds 32 1003 17 10000 8.75 210 21:31 28.05.2022
3427 Clouds 30 1003 17 10000 11.32 210 19:21 28.05.2022
3428 Clouds 29 1004 18 10000 8.75 210 18:46 28.05.2022
3429 Clouds 27 1003 19 10000 9.26 180 17:35 28.05.2022
3430 Clouds 26 1005 17 10000 10.29 220 16:35 28.05.2022
3431 Clouds 25 1003 19 10000 10.8 170 15:38 28.05.2022
3432 Clouds 26 1004 16 10000 9.77 200 13:57 28.05.2022
3433 Clouds 27 1005 18 10000 9.26 210 12:43 28.05.2022
3434 Clear 28 1005 13 10000 8.23 210 11:57 28.05.2022
3435 Clouds 28 1006 15 10000 9.77 230 10:49 28.05.2022
3436 Clear 29 1005 15 10000 10.29 230 09:56 28.05.2022
3437 Clouds 31 1007 11 10000 9.26 220 08:43 28.05.2022
3438 Clouds 31 1007 11 10000 6.17 200 07:23 28.05.2022
3439 Clouds 33 1007 9 10000 5.66 200 05:24 28.05.2022
3440 Clouds 36 1008 7 10000 8.75 250 02:38 28.05.2022
3441 Clouds 38 1009 7 10000 8.75 200 00:31 28.05.2022
3442 Clouds 37 1011 8 10000 9.77 210 22:50 27.05.2022
3443 Clouds 36 1012 8 10000 9.77 180 21:37 27.05.2022
3444 Clouds 35 1012 8 10000 7.2 180 20:48 27.05.2022
3445 Clouds 35 1012 8 10000 7.2 180 20:21 27.05.2022
3446 Clouds 34 1013 9 10000 7.2 190 19:41 27.05.2022
3447 Clouds 33 1013 10 10000 7.2 190 19:21 27.05.2022
3448 Clouds 29 1013 15 10000 8.23 170 17:34 27.05.2022
3449 Clouds 27 1012 17 10000 6.17 190 16:36 27.05.2022
3450 Clouds 27 1012 18 10000 6.69 190 15:20 27.05.2022
3451 Clouds 28 1012 18 10000 7.72 180 13:41 27.05.2022
3452 Clouds 28 1011 18 10000 7.72 200 12:28 27.05.2022
3453 Clouds 29 1011 17 10000 7.2 200 11:31 27.05.2022
3454 Clouds 29 1011 15 10000 7.2 210 10:47 27.05.2022
3455 Clear 28 1008 20 10000 3.9 213 09:59 27.05.2022
3456 Clouds 31 1011 11 10000 7.2 190 09:31 27.05.2022
3457 Clouds 32 1010 12 10000 6.69 180 07:41 27.05.2022
3458 Clouds 34 1007 11 10000 6.69 200 05:25 27.05.2022
3459 Clouds 38 1008 7 10000 10.29 240 01:47 27.05.2022
3460 Clouds 39 1009 7 10000 10.29 180 23:55 26.05.2022
3461 Clouds 38 1010 7 10000 11.32 170 22:29 26.05.2022
3462 Clouds 38 1011 8 10000 6.17 200 21:33 26.05.2022
3463 Clouds 34 1012 12 10000 3.6 30 19:49 26.05.2022
3464 Clouds 33 1012 13 10000 3.6 30 19:18 26.05.2022
3465 Clouds 33 1012 13 10000 3.6 30 19:18 26.05.2022
3466 Clouds 29 1012 15 10000 2.06 60 17:36 26.05.2022
3467 Clouds 27 1011 16 10000 5.14 200 16:35 26.05.2022
3468 Clouds 24 1010 19 10000 3.6 200 15:34 26.05.2022
3469 Clouds 23 1009 18 10000 3.6 30 14:21 26.05.2022
3470 Clear 25 1009 19 10000 4.63 190 12:20 26.05.2022
3471 Clear 24 1008 17 10000 5.14 170 11:21 26.05.2022
3472 Clouds 27 1009 13 10000 3.6 220 09:39 26.05.2022
3473 Clouds 28 1009 13 10000 3.09 210 08:51 26.05.2022
3474 Clouds 31 1008 12 10000 3.09 40 06:51 26.05.2022
3475 Clear 36 1008 7 10000 1.54 60 02:54 26.05.2022
3476 Clear 35 1011 8 10000 3.6 120 00:20 26.05.2022
3477 Clear 35 1011 8 10000 3.13 40 23:19 25.05.2022
3478 Smoke 34 1013 9 10000 4.63 90 21:46 25.05.2022
3479 Smoke 33 1013 9 10000 5.66 50 20:53 25.05.2022
3480 Clouds 33 1010 12 10000 0.89 98 19:59 25.05.2022
3481 Smoke 30 1013 11 10000 4.12 40 18:48 25.05.2022
3482 Clouds 27 1013 11 10000 2.24 60 17:26 25.05.2022
3483 Clouds 25 1013 14 10000 3.09 310 16:35 25.05.2022
3484 Clouds 23 1013 16 10000 4.12 160 15:49 25.05.2022
3485 Clear 21 1011 17 10000 5.66 60 14:51 25.05.2022
3486 Clear 21 1011 17 10000 5.66 60 14:32 25.05.2022
3487 Clear 22 1011 15 10000 4.12 360 13:28 25.05.2022
3488 Clear 24 1009 14 10000 1.83 1 11:51 25.05.2022
3489 Clear 24 1009 15 10000 5.14 200 10:42 25.05.2022
3490 Clouds 25 1009 14 10000 4.12 200 09:53 25.05.2022
3491 Clouds 24 1006 17 10000 0.45 298 08:22 25.05.2022
3492 Clouds 25 1006 18 10000 0.45 286 06:45 25.05.2022
3493 Clouds 33 1008 8 10000 3.09 50 02:55 25.05.2022
3494 Clouds 32 1011 8 10000 6.17 50 23:52 24.05.2022
3495 Clouds 32 1011 9 10000 6.17 50 23:23 24.05.2022
3496 Clouds 31 1012 9 10000 2.06 0 22:18 24.05.2022
3497 Clouds 30 1012 9 10000 3.6 70 21:38 24.05.2022
3498 Clouds 30 1012 9 10000 3.6 70 21:19 24.05.2022
3499 Clouds 28 1013 10 10000 2.57 350 19:32 24.05.2022
3500 Clear 27 1013 10 10000 3.09 40 18:49 24.05.2022
3501 Clouds 23 1013 14 10000 3.6 90 16:40 24.05.2022
3502 Clear 21 1012 17 10000 3.6 90 15:54 24.05.2022
3503 Clouds 20 1011 15 10000 5.66 70 14:45 24.05.2022
3504 Clouds 20 1011 16 10000 6.17 30 13:48 24.05.2022
3505 Clouds 21 1011 15 10000 7.2 60 12:42 24.05.2022
3506 Clouds 22 1010 18 10000 6.69 40 10:18 24.05.2022
3507 Clouds 22 1009 17 10000 3.6 70 09:41 24.05.2022
3508 Clouds 24 1009 16 10000 2.57 290 08:43 24.05.2022
3509 Clear 24 1007 17 10000 1.54 20 06:56 24.05.2022
3510 Clouds 31 1008 10 10000 3.6 70 03:48 24.05.2022
3511 Clouds 32 1009 10 10000 5.14 90 01:49 24.05.2022
3512 Clouds 31 1009 10 10000 5.14 90 01:18 24.05.2022
3513 Clouds 30 1011 11 10000 5.14 60 22:50 23.05.2022
3514 Clouds 30 1012 12 10000 3.6 80 21:54 23.05.2022
3515 Clear 29 1009 15 10000 1.34 142 20:59 23.05.2022
3516 Clouds 28 1013 13 10000 4.63 30 20:26 23.05.2022
3517 Clouds 27 1013 13 10000 9.77 30 19:31 23.05.2022
3518 Clouds 27 1012 15 10000 9.26 30 18:54 23.05.2022
3519 Clouds 26 1013 15 10000 9.26 30 18:27 23.05.2022
3520 Clouds 24 1014 17 10000 6.71 70 17:18 23.05.2022
3521 Clouds 22 1013 16 10000 8.23 10 14:52 23.05.2022
3522 Clouds 24 1011 12 10000 6.69 60 12:50 23.05.2022
3523 Clouds 25 1011 15 10000 4.12 340 11:26 23.05.2022
3524 Clouds 25 1009 14 10000 4.12 210 09:50 23.05.2022
3525 Clouds 26 1009 14 10000 4.12 210 09:23 23.05.2022
3526 Clouds 27 1009 15 10000 4.12 210 07:48 23.05.2022
3527 Clouds 29 1009 10 10000 4.63 230 06:45 23.05.2022
3528 Clouds 30 1009 13 10000 5.66 260 05:21 23.05.2022
3529 Clouds 33 1009 10 10000 2.68 0 02:19 23.05.2022
3530 Clouds 33 1009 9 10000 3.13 325 01:37 23.05.2022
3531 Clouds 32 1011 11 10000 3.6 220 23:51 22.05.2022
3532 Clouds 31 1012 10 10000 6.17 240 22:35 22.05.2022
3533 Clear 30 1012 12 10000 2.06 280 21:55 22.05.2022
3534 Clear 29 1013 12 10000 2.68 0 20:53 22.05.2022
3535 Clouds 28 1014 11 10000 2.68 0 20:27 22.05.2022
3536 Clear 28 1012 14 10000 2.06 60 19:56 22.05.2022
3537 Clear 26 1014 13 10000 4.12 50 18:55 22.05.2022
3538 Clouds 25 1014 13 10000 4.12 50 18:25 22.05.2022
3539 Clouds 23 1014 15 10000 2.06 250 17:33 22.05.2022
3540 Clear 21 1014 18 10000 1.54 230 16:31 22.05.2022
3541 Clouds 18 1013 19 10000 4.12 190 14:49 22.05.2022
3542 Clear 18 1013 17 10000 3.6 200 13:48 22.05.2022
3543 Clear 18 1012 17 10000 3.09 210 12:52 22.05.2022
3544 Clear 19 1012 17 10000 3.6 160 11:44 22.05.2022
3545 Clear 21 1013 16 10000 3.6 50 09:45 22.05.2022
3546 Clear 21 1012 15 10000 3.6 60 08:54 22.05.2022
3547 Clouds 23 1012 16 10000 3.6 20 07:22 22.05.2022
3548 Clouds 23 1012 16 10000 3.6 20 07:22 22.05.2022
3549 Clouds 23 1012 16 10000 1.54 130 06:23 22.05.2022
3550 Clear 28 1010 10 10000 4.12 190 02:23 22.05.2022
3551 Clear 28 1011 11 10000 2.24 0 00:44 22.05.2022
3552 Clouds 27 1012 11 10000 2.24 0 23:55 21.05.2022
3553 Clouds 26 1012 11 10000 2.24 0 23:20 21.05.2022
3554 Clouds 25 1013 11 10000 4.12 90 21:43 21.05.2022
3555 Clouds 24 1013 11 10000 4.12 90 21:25 21.05.2022
3556 Clear 24 1014 13 10000 6.69 40 20:25 21.05.2022
3557 Clear 22 1014 13 10000 7.72 40 19:35 21.05.2022
3558 Clear 20 1014 15 10000 6.17 30 17:51 21.05.2022
3559 Clear 18 1013 16 10000 4.63 20 16:46 21.05.2022
3560 Clear 16 1011 19 10000 6.69 30 14:38 21.05.2022
3561 Clear 16 1012 18 10000 5.66 60 13:52 21.05.2022
3562 Clear 16 1010 19 10000 6.69 30 12:50 21.05.2022
3563 Clear 17 1010 20 10000 6.69 30 12:26 21.05.2022
3564 Clear 18 1010 16 10000 9.77 20 10:44 21.05.2022
3565 Squall 18 1010 16 10000 16.46 30 09:44 21.05.2022
3566 Clear 19 1008 17 10000 10.29 40 08:57 21.05.2022
3567 Clear 21 1008 11 10000 13.38 30 07:54 21.05.2022
3568 Clear 25 1004 12 10000 3.58 50 04:29 21.05.2022
3569 Clouds 26 1005 11 10000 6.17 30 00:38 21.05.2022
3570 Clouds 26 1003 14 10000 7.2 40 22:59 20.05.2022
3571 Clouds 25 1005 12 10000 8.23 330 22:24 20.05.2022
3572 Clouds 25 1006 13 10000 9.77 330 21:43 20.05.2022
3573 Clear 24 1003 15 10000 11.32 40 20:56 20.05.2022
3574 Clouds 24 1001 16 10000 6.26 29 19:59 20.05.2022
3575 Clouds 23 1005 14 10000 13.38 340 19:26 20.05.2022
3576 Clouds 22 1005 15 10000 16.09 360 18:46 20.05.2022
3577 Dust 21 1003 15 10000 12.96 360 17:24 20.05.2022
3578 Dust 22 1002 15 10000 14.4 320 16:19 20.05.2022
3579 Clouds 23 1000 17 10000 9.26 40 15:47 20.05.2022
3580 Clouds 26 1000 19 10000 8.75 30 14:30 20.05.2022
3581 Clouds 26 999 22 10000 5.14 190 13:55 20.05.2022
3582 Clouds 27 998 18 10000 9.26 190 11:38 20.05.2022
3583 Dust 28 998 17 10000 8.75 220 10:19 20.05.2022
3584 Dust 31 998 13 9656 10.29 200 08:45 20.05.2022
3585 Clouds 32 999 14 10000 10.8 210 07:18 20.05.2022
3586 Clouds 34 999 9 10000 10.29 220 06:32 20.05.2022
3587 Clouds 34 997 11 10000 9.66 234 04:59 20.05.2022
3588 Clouds 38 1002 10 10000 9.77 210 00:54 20.05.2022
3589 Clouds 38 1004 11 10000 8.23 230 22:48 19.05.2022
3590 Clouds 38 1004 11 10000 8.23 230 22:20 19.05.2022
3591 Clouds 36 1006 11 10000 7.72 210 21:48 19.05.2022
3592 Clouds 36 1006 11 10000 7.72 210 21:22 19.05.2022
3593 Clouds 35 1007 12 10000 7.2 210 20:34 19.05.2022
3594 Clouds 34 1008 11 10000 5.14 190 19:50 19.05.2022
3595 Clouds 31 1009 14 10000 7.2 210 18:22 19.05.2022
3596 Clouds 27 1010 18 10000 6.17 200 16:35 19.05.2022
3597 Clouds 24 1009 19 10000 5.14 200 15:19 19.05.2022
3598 Clouds 24 1009 19 10000 5.66 190 14:25 19.05.2022
3599 Clouds 24 1009 18 10000 5.66 190 13:23 19.05.2022
3600 Clouds 26 1009 14 10000 6.17 180 11:29 19.05.2022
3601 Clouds 28 1010 15 10000 5.14 210 09:27 19.05.2022
3602 Clouds 29 1010 14 10000 6.17 190 07:50 19.05.2022
3603 Clouds 31 1010 13 10000 5.14 160 06:18 19.05.2022
3604 Clouds 36 1011 7 10000 3.6 240 02:23 19.05.2022
3605 Clear 36 1010 12 10000 1.34 219 23:57 18.05.2022
3606 Clouds 35 1014 11 10000 4.63 30 22:47 18.05.2022
3607 Clouds 34 1015 12 10000 2.57 0 21:51 18.05.2022
3608 Clouds 34 1015 12 10000 2.57 0 21:29 18.05.2022
3609 Clear 33 1015 12 10000 2.68 50 20:47 18.05.2022
3610 Clear 33 1015 14 10000 2.57 50 20:18 18.05.2022
3611 Clear 30 1015 15 10000 1.54 120 18:33 18.05.2022
3612 Clear 27 1015 16 10000 2.06 160 17:41 18.05.2022
3613 Clear 27 1015 17 10000 2.06 160 17:23 18.05.2022
3614 Clear 24 1014 20 10000 3.09 300 16:34 18.05.2022
3615 Clear 22 1014 19 10000 3.6 190 15:41 18.05.2022
3616 Clear 22 1013 21 10000 3.09 310 14:35 18.05.2022
3617 Clear 22 1013 20 10000 3.6 190 13:35 18.05.2022
3618 Clear 23 1012 19 10000 4.12 220 12:43 18.05.2022
3619 Clear 24 1012 17 10000 4.63 200 11:34 18.05.2022
3620 Clear 23 1009 20 10000 3.09 60 10:56 18.05.2022
3621 Clear 23 1009 20 10000 3.09 60 10:56 18.05.2022
3622 Clear 26 1011 15 10000 3.6 210 09:31 18.05.2022
3623 Clouds 28 1010 15 10000 4.12 170 07:36 18.05.2022
3624 Clear 32 1008 9 10000 7.2 140 05:56 18.05.2022
3625 Clouds 36 1007 11 10000 5.14 90 01:20 18.05.2022
3626 Clouds 36 1008 12 10000 5.66 190 00:22 18.05.2022
3627 Clear 35 1007 15 10000 3.6 100 21:56 17.05.2022
3628 Clear 34 1010 13 10000 4.12 180 21:20 17.05.2022
3629 Clouds 32 1006 15 10000 2.24 145 19:59 17.05.2022
3630 Clear 31 1010 11 10000 4.12 210 19:27 17.05.2022
3631 Clouds 27 1010 16 10000 5.14 190 17:50 17.05.2022
3632 Clouds 26 1009 17 10000 7.72 210 16:58 17.05.2022
3633 Clouds 25 1009 17 10000 7.72 210 16:29 17.05.2022
3634 Clouds 23 1008 19 10000 8.23 210 15:24 17.05.2022
3635 Clear 23 1007 19 10000 7.72 180 14:30 17.05.2022
3636 Clear 23 1007 19 10000 7.72 180 14:30 17.05.2022
3637 Clear 23 1007 19 10000 7.72 180 14:30 17.05.2022
3638 Clear 23 1007 19 10000 5.14 190 13:32 17.05.2022
3639 Clear 27 1007 13 10000 7.2 180 11:37 17.05.2022
3640 Clouds 29 1008 11 10000 7.72 210 09:23 17.05.2022
3641 Clouds 30 1007 12 10000 6.69 210 08:23 17.05.2022
3642 Clouds 32 1007 9 10000 5.66 230 06:45 17.05.2022
3643 Clouds 36 1005 11 10000 6.69 250 02:55 17.05.2022
3644 Clouds 37 1006 11 10000 7.72 140 00:32 17.05.2022
3645 Clouds 36 1007 12 10000 5.66 200 22:42 16.05.2022
3646 Clouds 34 1008 12 10000 4.12 130 21:36 16.05.2022
3647 Clouds 33 1009 13 10000 4.63 200 20:46 16.05.2022
3648 Clouds 31 1009 15 10000 4.12 220 19:22 16.05.2022
3649 Clouds 29 1009 17 10000 5.66 190 18:18 16.05.2022
3650 Clouds 24 1009 22 10000 8.23 180 15:49 16.05.2022
3651 Clear 23 1007 18 10000 6.17 210 13:49 16.05.2022
3652 Clear 24 1007 17 10000 5.14 180 12:50 16.05.2022
3653 Clouds 28 1008 11 10000 6.69 200 10:52 16.05.2022
3654 Clouds 30 1009 7 10000 5.14 200 08:55 16.05.2022
3655 Clouds 32 1007 6 10000 4.12 210 06:34 16.05.2022
3656 Clouds 37 1007 6 10000 4.63 80 02:38 16.05.2022
3657 Clouds 36 1010 7 10000 3.6 110 23:19 15.05.2022
3658 Clouds 35 1011 8 10000 3.09 350 22:28 15.05.2022
3659 Clouds 35 1012 8 10000 2.06 0 21:38 15.05.2022
3660 Clouds 34 1012 9 10000 3.09 10 20:53 15.05.2022
3661 Clouds 32 1013 10 10000 2.06 80 19:24 15.05.2022
3662 Clouds 28 1014 13 10000 1.54 220 17:48 15.05.2022
3663 Clouds 20 1014 11 10000 3.09 150 15:44 15.05.2022
3664 Clouds 22 1013 13 10000 3.6 160 13:49 15.05.2022
3665 Clouds 23 1013 12 10000 5.14 220 12:22 15.05.2022
3666 Clouds 24 1014 12 10000 3.09 200 11:38 15.05.2022
3667 Clouds 24 1014 8 10000 5.14 200 10:20 15.05.2022
3668 Clouds 26 1013 10 10000 3.6 170 07:36 15.05.2022
3669 Clear 25 1011 16 10000 3.09 40 06:57 15.05.2022
3670 Clouds 34 1013 8 10000 3.09 80 04:26 15.05.2022
3671 Clear 35 1014 8 10000 2.24 0 00:48 15.05.2022
3672 Clear 34 1015 8 10000 2.24 0 23:38 14.05.2022
3673 Clear 33 1016 9 10000 2.57 0 22:45 14.05.2022
3674 Clouds 32 1017 11 10000 2.57 120 21:27 14.05.2022
3675 Clouds 30 1017 11 10000 2.06 0 20:32 14.05.2022
3676 Clouds 29 1017 12 10000 1.54 70 19:21 14.05.2022
3677 Clear 29 1015 15 10000 0.45 101 18:59 14.05.2022
3678 Clouds 25 1017 14 10000 3.09 190 17:54 14.05.2022
3679 Clouds 21 1016 17 10000 3.6 170 16:32 14.05.2022
3680 Clear 19 1014 19 10000 1.19 331 14:56 14.05.2022
3681 Clear 18 1015 18 10000 3.09 200 14:30 14.05.2022
3682 Clear 21 1016 13 10000 5.14 200 12:23 14.05.2022
3683 Clear 21 1015 14 10000 5.14 210 10:53 14.05.2022
3684 Clear 21 1015 15 10000 5.14 210 10:20 14.05.2022
3685 Clear 21 1015 15 10000 4.63 200 09:51 14.05.2022
3686 Clear 23 1015 13 10000 3.09 300 08:22 14.05.2022
3687 Clear 27 1014 11 10000 3.6 70 05:26 14.05.2022
3688 Clear 32 1014 12 10000 1.54 250 01:57 14.05.2022
3689 Clear 30 1017 11 10000 2.57 0 23:31 13.05.2022
3690 Clear 30 1017 13 10000 2.57 280 22:56 13.05.2022
3691 Clear 29 1018 11 10000 2.57 280 22:22 13.05.2022
3692 Clouds 28 1019 12 10000 2.24 30 21:35 13.05.2022
3693 Clear 26 1020 12 10000 2.57 0 20:43 13.05.2022
3694 Clear 26 1019 13 10000 2.57 0 20:23 13.05.2022
3695 Clear 24 1020 14 10000 1.54 0 19:21 13.05.2022
3696 Clear 21 1020 17 10000 3.6 310 17:50 13.05.2022
3697 Clear 20 1020 18 10000 3.6 310 17:24 13.05.2022
3698 Clear 14 1019 20 10000 3.09 180 15:53 13.05.2022
3699 Clear 14 1018 22 10000 3.6 330 14:47 13.05.2022
3700 Clear 14 1017 24 10000 0.89 0 12:58 13.05.2022
3701 Clear 15 1018 19 10000 5.66 310 12:25 13.05.2022
3702 Clear 17 1018 20 10000 3.6 320 10:35 13.05.2022
3703 Clear 17 1018 18 10000 3.09 200 09:29 13.05.2022
3704 Clear 18 1018 20 10000 3.09 200 07:59 13.05.2022
3705 Clouds 19 1018 19 10000 3.09 200 07:30 13.05.2022
3706 Clouds 21 1018 15 10000 2.57 90 05:46 13.05.2022
3707 Clouds 24 1019 13 10000 2.24 0 01:37 13.05.2022
3708 Clouds 23 1020 14 10000 2.57 30 23:34 12.05.2022
3709 Clouds 23 1021 16 10000 3.09 0 22:35 12.05.2022
3710 Clouds 21 1023 16 10000 4.63 350 21:35 12.05.2022
3711 Clouds 20 1024 19 10000 3.6 10 20:22 12.05.2022
3712 Clear 18 1024 22 10000 5.66 340 18:30 12.05.2022
3713 Clear 15 1024 26 10000 6.17 330 16:52 12.05.2022
3714 Clear 12 1023 30 10000 5.66 340 15:30 12.05.2022
3715 Clouds 11 1021 29 10000 1.79 24 13:58 12.05.2022
3716 Clear 13 1021 27 10000 6.69 340 12:46 12.05.2022
3717 Clear 14 1021 22 10000 6.17 320 10:34 12.05.2022
3718 Clear 14 1020 24 10000 4.86 326 08:58 12.05.2022
3719 Clear 15 1020 22 10000 6.17 270 08:37 12.05.2022
3720 Clouds 16 1019 19 10000 8.23 300 07:25 12.05.2022
3721 Clouds 17 1017 18 10000 8.23 280 04:50 12.05.2022
3722 Clouds 19 1014 18 10000 15.43 310 01:55 12.05.2022
3723 Clouds 20 1013 13 10000 11.32 270 23:42 11.05.2022
3724 Clouds 20 1013 15 10000 9.77 270 22:22 11.05.2022
3725 Clouds 20 1013 15 10000 9.77 210 21:27 11.05.2022
3726 Clear 19 1012 16 10000 7.2 170 20:45 11.05.2022
3727 Clear 15 1013 21 10000 8.75 200 17:43 11.05.2022
3728 Clear 14 1012 22 10000 10.29 210 16:47 11.05.2022
3729 Clear 12 1011 26 10000 10.8 180 14:49 11.05.2022
3730 Clear 12 1012 27 10000 10.8 180 14:25 11.05.2022
3731 Clouds 13 1012 26 10000 9.26 190 13:37 11.05.2022
3732 Clouds 14 1012 28 10000 6.17 200 11:48 11.05.2022
3733 Clouds 17 1012 21 10000 7.2 230 09:34 11.05.2022
3734 Clouds 18 1010 25 10000 3.89 252 06:59 11.05.2022
3735 Clouds 22 1011 15 10000 9.26 210 03:38 11.05.2022
3736 Clouds 22 1013 13 10000 9.77 190 23:45 10.05.2022
3737 Clouds 22 1013 14 10000 8.23 250 22:30 10.05.2022
3738 Clouds 22 1014 13 10000 10.29 220 21:41 10.05.2022
3739 Clouds 20 1014 14 10000 7.2 210 20:48 10.05.2022
3740 Clouds 19 1015 14 10000 3.6 220 19:18 10.05.2022
3741 Clear 16 1013 17 10000 10.8 200 17:43 10.05.2022
3742 Clouds 14 1013 19 10000 9.26 220 16:39 10.05.2022
3743 Clouds 13 1011 24 10000 11.32 200 13:54 10.05.2022
3744 Clouds 14 1010 24 10000 11.83 200 12:30 10.05.2022
3745 Clouds 14 1009 26 10000 9.77 200 11:42 10.05.2022
3746 Clear 15 1008 28 10000 12.35 210 10:57 10.05.2022
3747 Clouds 16 1009 26 10000 12.35 220 09:52 10.05.2022
3748 Clouds 17 1009 23 10000 10.8 200 08:22 10.05.2022
3749 Clouds 19 1008 16 10000 8.23 210 06:21 10.05.2022
3750 Clouds 22 1007 11 10000 12.35 230 02:31 10.05.2022
3751 Clouds 22 1008 14 10000 9.77 240 23:55 09.05.2022
3752 Clouds 22 1008 15 10000 7.2 190 22:41 09.05.2022
3753 Clouds 21 1009 16 10000 7.2 180 21:42 09.05.2022
3754 Clear 18 1010 16 10000 2.06 0 20:21 09.05.2022
3755 Clear 17 1011 17 10000 5.66 320 18:26 09.05.2022
3756 Clear 16 1009 20 10000 6.69 330 17:27 09.05.2022
3757 Clear 14 1008 23 10000 9.26 310 16:19 09.05.2022
3758 Clear 13 1008 25 10000 8.23 310 15:47 09.05.2022
3759 Clear 13 1007 24 10000 8.75 300 14:37 09.05.2022
3760 Clear 12 1009 29 10000 1.08 333 13:59 09.05.2022
3761 Clear 13 1007 24 10000 5.14 340 13:23 09.05.2022
3762 Dust 14 1006 25 10000 4.63 220 11:53 09.05.2022
3763 Dust 16 1005 19 10000 7.72 230 10:48 09.05.2022
3764 Dust 15 1005 21 10000 7.72 230 10:26 09.05.2022
3765 Dust 18 1002 16 10000 10.29 220 07:57 09.05.2022
3766 Dust 22 1000 15 10000 10.8 230 05:53 09.05.2022
3767 Dust 28 997 14 10000 9.77 200 00:59 09.05.2022
3768 Dust 28 998 15 6437 15.95 210 23:28 08.05.2022
3769 Clear 27 999 17 10000 13.89 200 22:32 08.05.2022
3770 Clear 26 1000 18 10000 12.35 240 21:20 08.05.2022
3771 Clear 26 1001 19 10000 10.29 230 20:23 08.05.2022
3772 Clear 24 1002 21 10000 7.72 200 19:33 08.05.2022
3773 Clear 24 1001 22 10000 10.8 220 18:38 08.05.2022
3774 Clear 22 1001 25 10000 10.8 210 17:39 08.05.2022
3775 Clear 18 1001 29 10000 8.23 200 15:46 08.05.2022
3776 Clear 18 1001 29 10000 8.23 200 15:22 08.05.2022
3777 Clouds 20 1000 18 10000 11.32 210 12:46 08.05.2022
3778 Clear 21 997 19 10000 0.89 234 10:59 08.05.2022
3779 Clouds 22 1000 18 10000 11.32 210 10:22 08.05.2022
3780 Dust 22 1000 16 10000 10.8 200 09:51 08.05.2022
3781 Dust 25 1001 11 10000 11.32 200 07:43 08.05.2022
3782 Clouds 26 999 17 10000 6.97 241 05:57 08.05.2022
3783 Dust 31 1000 11 10000 11.83 220 03:21 08.05.2022
3784 Clouds 34 1001 15 10000 14.4 240 00:42 08.05.2022
3785 Clouds 33 1002 16 10000 7.2 230 23:55 07.05.2022
3786 Clear 33 1000 17 10000 6.71 314 22:59 07.05.2022
3787 Clouds 32 1003 17 10000 10.8 220 22:35 07.05.2022
3788 Clouds 31 1004 19 10000 10.8 220 21:55 07.05.2022
3789 Clouds 31 1004 19 10000 10.8 220 21:20 07.05.2022
3790 Clouds 30 1001 21 10000 2.24 334 19:59 07.05.2022
3791 Clouds 28 1005 23 10000 6.17 200 18:41 07.05.2022
3792 Clouds 24 1006 27 10000 8.75 210 16:19 07.05.2022
3793 Clouds 24 1005 21 10000 7.72 180 14:51 07.05.2022
3794 Clouds 26 1006 20 10000 5.66 210 11:21 07.05.2022
3795 Clouds 28 1007 17 10000 10.29 200 09:39 07.05.2022
3796 Clouds 30 1007 15 10000 9.26 190 08:28 07.05.2022
3797 Clouds 32 1007 13 10000 7.72 190 06:44 07.05.2022
3798 Clouds 33 1006 12 10000 7.72 220 05:41 07.05.2022
3799 Clouds 34 1006 14 10000 9.77 190 03:54 07.05.2022
3800 Clouds 35 1009 14 10000 6.17 240 23:41 06.05.2022
3801 Clouds 33 1011 15 10000 3.09 0 22:34 06.05.2022
3802 Clouds 32 1011 15 10000 5.14 160 21:47 06.05.2022
3803 Clouds 31 1012 15 10000 3.09 110 20:39 06.05.2022
3804 Clouds 29 1012 18 10000 3.6 240 19:43 06.05.2022
3805 Clouds 28 1012 18 10000 3.6 240 19:19 06.05.2022
3806 Clouds 27 1012 21 10000 4.63 230 18:25 06.05.2022
3807 Clouds 25 1012 20 10000 4.63 210 17:27 06.05.2022
3808 Clouds 22 1011 23 10000 5.66 210 15:49 06.05.2022
3809 Clouds 19 1007 29 10000 0.45 350 14:58 06.05.2022
3810 Clouds 22 1010 21 10000 7.72 200 13:31 06.05.2022
3811 Clouds 23 1010 19 10000 8.23 190 12:41 06.05.2022
3812 Clouds 21 1007 23 10000 0.45 301 11:58 06.05.2022
3813 Clouds 26 1011 14 10000 8.75 200 10:36 06.05.2022
3814 Clouds 27 1011 11 10000 8.75 180 09:46 06.05.2022
3815 Clouds 27 1011 10 10000 7.2 210 08:52 06.05.2022
3816 Clouds 28 1011 10 10000 6.17 210 07:26 06.05.2022
3817 Clouds 30 1010 10 10000 5.66 230 05:48 06.05.2022
3818 Clouds 33 1010 10 10000 6.69 240 02:51 06.05.2022
3819 Clouds 33 1010 10 10000 6.17 240 01:31 06.05.2022
3820 Clouds 31 1013 15 10000 4.12 100 22:45 05.05.2022
3821 Clouds 31 1013 15 10000 4.12 100 22:45 05.05.2022
3822 Clouds 29 1014 17 10000 6.17 140 21:31 05.05.2022
3823 Clouds 27 1015 20 10000 3.09 120 20:26 05.05.2022
3824 Smoke 24 1016 23 10000 5.14 60 18:35 05.05.2022
3825 Clear 20 1016 30 10000 3.6 160 16:35 05.05.2022
3826 Clear 17 1015 32 10000 5.14 70 14:51 05.05.2022
3827 Clear 17 1015 31 10000 4.63 70 13:24 05.05.2022
3828 Clear 17 1015 32 10000 1.54 220 12:53 05.05.2022
3829 Clear 19 1015 26 10000 3.6 200 10:52 05.05.2022
3830 Clear 19 1014 26 10000 3.6 200 09:40 05.05.2022
3831 Clouds 22 1014 24 10000 3.6 160 07:36 05.05.2022
3832 Clouds 24 1013 22 10000 3.09 150 05:19 05.05.2022
3833 Clear 28 1011 19 10000 1.79 246 01:59 05.05.2022
3834 Clouds 27 1013 18 10000 4.12 10 01:29 05.05.2022
3835 Clear 27 1015 19 10000 5.14 60 23:52 04.05.2022
3836 Clear 26 1016 20 10000 5.66 50 22:42 04.05.2022
3837 Clear 25 1016 21 10000 7.2 10 21:50 04.05.2022
3838 Clear 25 1016 21 10000 7.2 10 21:29 04.05.2022
3839 Clouds 24 1017 22 10000 6.17 20 20:27 04.05.2022
3840 Clouds 23 1017 25 10000 7.72 30 19:53 04.05.2022
3841 Clouds 22 1017 23 10000 7.72 30 19:18 04.05.2022
3842 Clear 21 1017 25 10000 6.17 30 18:22 04.05.2022
3843 Clear 20 1017 26 10000 8.23 40 17:51 04.05.2022
3844 Clear 17 1016 29 10000 6.17 340 15:42 04.05.2022
3845 Clear 16 1017 29 10000 6.17 340 15:23 04.05.2022
3846 Clear 16 1017 28 10000 7.72 340 14:21 04.05.2022
3847 Clear 17 1017 28 10000 8.23 10 13:35 04.05.2022
3848 Clear 17 1016 27 10000 8.75 20 12:33 04.05.2022
3849 Clear 18 1015 27 10000 7.72 30 10:41 04.05.2022
3850 Clear 19 1015 25 10000 7.72 50 09:44 04.05.2022
3851 Clear 20 1013 23 10000 10.8 40 08:47 04.05.2022
3852 Clear 20 1013 23 10000 10.8 40 08:47 04.05.2022
3853 Clear 21 1011 17 10000 3.6 300 06:49 04.05.2022
3854 Clear 27 1008 13 10000 5.36 57 02:59 04.05.2022
3855 Clear 26 1011 12 10000 10.29 330 00:48 04.05.2022
3856 Clouds 25 1012 12 10000 11.32 330 22:40 03.05.2022
3857 Clear 24 1013 13 10000 9.26 350 21:46 03.05.2022
3858 Clear 24 1011 15 10000 7.72 310 20:56 03.05.2022
3859 Clear 23 1013 15 10000 10.29 330 20:30 03.05.2022
3860 Clear 20 1012 19 10000 11.83 350 18:54 03.05.2022
3861 Clear 20 1012 19 10000 11.83 350 18:21 03.05.2022
3862 Clear 18 1011 22 10000 13.38 340 16:44 03.05.2022
3863 Clouds 18 1008 23 10000 10.8 310 15:38 03.05.2022
3864 Clouds 21 1005 19 10000 9.26 220 12:48 03.05.2022
3865 Clouds 21 1004 22 10000 9.26 220 12:27 03.05.2022
3866 Clouds 21 1004 22 10000 9.26 220 12:27 03.05.2022
3867 Clear 21 1001 22 10000 0.89 294 10:57 03.05.2022
3868 Clouds 24 1004 14 10000 12.35 200 09:35 03.05.2022
3869 Clouds 26 1004 13 10000 7.72 190 07:33 03.05.2022
3870 Clouds 27 1004 12 10000 9.26 200 06:45 03.05.2022
3871 Clouds 31 1006 12 10000 7.72 190 01:52 03.05.2022
3872 Clouds 28 1011 16 10000 7.72 190 22:44 02.05.2022
3873 Clouds 26 1013 19 10000 2.06 90 21:55 02.05.2022
3874 Clouds 25 1013 19 10000 3.6 170 21:23 02.05.2022
3875 Clouds 21 1014 23 10000 3.09 360 18:46 02.05.2022
3876 Clouds 21 1014 24 10000 3.09 360 18:25 02.05.2022
3877 Clear 20 1014 26 10000 3.6 20 17:37 02.05.2022
3878 Clear 17 1014 30 10000 2.06 320 16:23 02.05.2022
3879 Clear 16 1014 30 10000 4.12 330 15:37 02.05.2022
3880 Clear 16 1012 30 10000 2.23 339 13:58 02.05.2022
3881 Clear 17 1013 26 10000 2.57 50 12:27 02.05.2022
3882 Clear 18 1013 23 10000 4.63 320 10:52 02.05.2022
3883 Clear 19 1013 20 10000 5.14 330 09:30 02.05.2022
3884 Clear 20 1010 21 10000 5.4 339 07:57 02.05.2022
3885 Clear 24 1008 12 10000 12.35 340 04:44 02.05.2022
3886 Clouds 29 1005 15 10000 10.8 320 00:25 02.05.2022
3887 Clouds 29 1005 15 10000 9.26 330 23:52 01.05.2022
3888 Clear 28 1005 17 10000 9.26 350 22:40 01.05.2022
3889 Clear 28 1006 18 10000 8.75 300 21:30 01.05.2022
3890 Clear 27 1005 17 10000 9.26 310 20:19 01.05.2022
3891 Clear 26 1005 20 10000 11.32 320 19:18 01.05.2022
3892 Clear 25 1004 19 10000 8.75 310 18:46 01.05.2022
3893 Clear 23 1004 23 10000 7.72 240 17:46 01.05.2022
3894 Clear 20 1004 28 10000 9.77 210 16:24 01.05.2022
3895 Clear 19 1003 28 10000 6.17 210 15:38 01.05.2022
3896 Clear 20 1002 22 10000 8.23 220 13:52 01.05.2022
3897 Clear 22 1003 16 10000 9.26 170 11:28 01.05.2022
3898 Clear 24 1005 9 10000 11.32 200 09:32 01.05.2022
3899 Clear 25 1005 11 10000 10.29 210 08:47 01.05.2022
3900 Clear 30 1005 6 10000 8.75 210 04:31 01.05.2022
3901 Clouds 31 1009 11 10000 3.09 0 00:34 01.05.2022
3902 Clouds 27 1014 13 10000 3.09 120 21:51 30.04.2022
3903 Clouds 27 1014 13 10000 3.09 120 21:19 30.04.2022
3904 Clouds 25 1015 15 10000 4.63 40 19:45 30.04.2022
3905 Clouds 24 1015 16 10000 3.09 160 18:45 30.04.2022
3906 Clouds 19 1015 20 10000 4.12 70 16:54 30.04.2022
3907 Clouds 16 1014 22 10000 5.14 80 15:48 30.04.2022
3908 Clear 15 1014 22 10000 2.57 140 14:53 30.04.2022
3909 Clear 17 1014 21 10000 2.06 210 13:30 30.04.2022
3910 Clear 18 1014 18 10000 4.12 190 11:34 30.04.2022
3911 Clear 18 1015 18 10000 3.6 180 10:49 30.04.2022
3912 Clear 19 1015 17 10000 1.54 230 09:48 30.04.2022
3913 Clear 22 1014 16 10000 2.57 120 06:48 30.04.2022
3914 Clouds 28 1013 11 10000 3.09 120 03:34 30.04.2022
3915 Clear 26 1016 14 10000 4.12 10 23:53 29.04.2022
3916 Clouds 25 1016 14 10000 5.66 40 22:34 29.04.2022
3917 Clear 25 1017 15 10000 6.17 40 21:54 29.04.2022
3918 Clear 23 1017 15 10000 8.75 10 20:51 29.04.2022
3919 Clear 22 1017 16 10000 9.26 30 19:47 29.04.2022
3920 Clear 21 1017 18 10000 9.26 10 18:36 29.04.2022
3921 Clear 19 1016 18 10000 8.75 350 17:25 29.04.2022
3922 Clear 17 1015 20 10000 9.77 320 15:52 29.04.2022
3923 Clear 17 1013 19 10000 9.26 340 14:23 29.04.2022
3924 Clear 16 1013 20 10000 3.6 190 13:22 29.04.2022
3925 Clear 18 1011 16 10000 6.17 330 11:50 29.04.2022
3926 Clear 19 1009 13 10000 6.69 200 09:23 29.04.2022
3927 Clear 21 1007 14 10000 8.23 200 07:28 29.04.2022
3928 Clear 22 1006 11 10000 10.29 210 06:46 29.04.2022
3929 Clear 23 1005 14 10000 7.72 200 05:44 29.04.2022
3930 Clear 28 1006 8 10000 11.83 220 00:46 29.04.2022
3931 Clear 28 1006 8 10000 11.83 230 23:48 28.04.2022
3932 Clear 28 1007 9 10000 10.8 210 22:45 28.04.2022
3933 Clouds 27 1007 10 10000 12.35 200 21:47 28.04.2022
3934 Clouds 27 1007 10 10000 12.35 200 21:22 28.04.2022
3935 Clouds 26 1008 11 10000 12.86 200 20:35 28.04.2022
3936 Clear 24 1007 12 10000 10.29 220 19:46 28.04.2022
3937 Clouds 23 1007 12 10000 10.29 220 19:23 28.04.2022
3938 Clouds 22 1007 13 10000 9.26 200 18:36 28.04.2022
3939 Clouds 20 1007 15 10000 9.77 190 17:26 28.04.2022
3940 Clouds 19 1006 17 10000 7.2 180 16:41 28.04.2022
3941 Clouds 19 1006 16 10000 7.2 180 16:19 28.04.2022
3942 Clouds 18 1006 16 10000 9.26 200 15:40 28.04.2022
3943 Clouds 19 1007 17 10000 8.23 220 14:36 28.04.2022
3944 Clouds 20 1007 19 10000 9.77 220 12:55 28.04.2022
3945 Clouds 20 1006 20 10000 4.64 205 11:59 28.04.2022
3946 Clouds 22 1008 19 10000 6.69 190 10:47 28.04.2022
3947 Clouds 22 1008 18 10000 6.69 190 10:26 28.04.2022
3948 Clouds 24 1008 16 10000 9.26 210 08:44 28.04.2022
3949 Clouds 25 1008 16 10000 8.94 230 07:37 28.04.2022
3950 Clouds 27 1007 14 10000 8.23 200 06:33 28.04.2022
3951 Clouds 27 1007 12 10000 6.69 200 05:39 28.04.2022
3952 Clouds 28 1007 14 10000 7.72 220 04:40 28.04.2022
3953 Clouds 31 1006 14 10000 7.72 190 00:36 28.04.2022
3954 Clouds 30 1007 14 10000 6.26 190 22:45 27.04.2022
3955 Clear 30 1005 17 10000 4.02 275 21:56 27.04.2022
3956 Clouds 29 1008 14 10000 7.72 210 21:26 27.04.2022
3957 Clear 28 1009 16 10000 7.2 200 20:38 27.04.2022
3958 Clear 27 1009 17 10000 7.2 200 19:38 27.04.2022
3959 Clear 27 1009 18 10000 7.2 200 19:18 27.04.2022
3960 Clear 25 1009 20 10000 8.75 210 18:25 27.04.2022
3961 Clouds 22 1009 22 10000 8.75 200 17:26 27.04.2022
3962 Clouds 19 1008 24 10000 8.23 180 15:22 27.04.2022
3963 Clouds 22 1008 20 10000 5.14 200 12:27 27.04.2022
3964 Clouds 22 1008 18 10000 6.17 190 11:21 27.04.2022
3965 Clouds 23 1007 12 10000 4.63 200 09:45 27.04.2022
3966 Clouds 24 1008 13 10000 4.12 180 07:25 27.04.2022
3967 Clouds 26 1008 10 10000 5.14 190 05:37 27.04.2022
3968 Clouds 31 1008 8 10000 4.63 160 01:52 27.04.2022
3969 Clouds 31 1009 8 10000 4.63 130 00:52 27.04.2022
3970 Clouds 31 1008 10 10000 3.13 236 23:57 26.04.2022
3971 Clouds 30 1010 8 10000 6.69 100 23:23 26.04.2022
3972 Clouds 29 1011 9 10000 6.26 80 22:41 26.04.2022
3973 Clouds 28 1012 11 10000 4.63 50 21:48 26.04.2022
3974 Clouds 27 1013 10 10000 3.6 140 20:53 26.04.2022
3975 Clouds 26 1013 10 10000 3.6 90 20:33 26.04.2022
3976 Clouds 25 1013 11 10000 3.09 50 19:32 26.04.2022
3977 Clouds 23 1013 14 10000 3.6 110 18:45 26.04.2022
3978 Clouds 22 1012 15 10000 1.68 130 17:59 26.04.2022
3979 Clouds 20 1014 16 10000 1.54 180 17:22 26.04.2022
3980 Clouds 15 1014 18 10000 2.06 330 14:28 26.04.2022
3981 Clouds 16 1014 18 10000 2.57 300 13:33 26.04.2022
3982 Clouds 16 1012 19 10000 0.89 331 11:57 26.04.2022
3983 Clouds 17 1014 17 10000 3.6 200 10:37 26.04.2022
3984 Clouds 18 1014 16 10000 2.57 300 09:25 26.04.2022
3985 Clear 19 1015 16 10000 3.6 60 07:38 26.04.2022
3986 Clouds 24 1014 11 10000 2.06 60 04:33 26.04.2022
3987 Clouds 26 1016 10 10000 2.24 0 01:30 26.04.2022
3988 Clouds 26 1017 11 10000 5.66 60 00:26 26.04.2022
3989 Clouds 25 1018 13 10000 3.09 90 22:36 25.04.2022
3990 Clouds 24 1020 13 10000 7.2 50 21:42 25.04.2022
3991 Clouds 24 1021 15 10000 4.63 90 20:40 25.04.2022
3992 Clouds 22 1020 21 10000 1.34 207 18:58 25.04.2022
3993 Clouds 19 1021 20 10000 6.17 10 17:54 25.04.2022
3994 Clear 17 1020 25 10000 1.34 305 16:59 25.04.2022
3995 Clouds 13 1021 25 10000 4.63 360 15:29 25.04.2022
3996 Clear 13 1020 26 10000 6.17 40 14:42 25.04.2022
3997 Clear 14 1020 25 10000 6.26 50 13:33 25.04.2022
3998 Clear 15 1019 21 10000 4.12 40 11:38 25.04.2022
3999 Clear 16 1020 21 10000 5.66 40 10:26 25.04.2022
4000 Clear 16 1019 20 10000 2.68 280 08:39 25.04.2022
4001 Clear 18 1018 21 10000 4.12 40 06:39 25.04.2022
4002 Clouds 23 1017 13 10000 4.63 40 03:47 25.04.2022
4003 Clouds 24 1018 13 10000 4.12 360 00:43 25.04.2022
4004 Clouds 23 1019 14 10000 9.26 30 23:51 24.04.2022
4005 Clear 22 1019 15 10000 6.17 360 22:41 24.04.2022
4006 Clear 22 1020 15 10000 6.69 30 22:20 24.04.2022
4007 Clear 21 1020 16 10000 9.26 40 21:26 24.04.2022
4008 Clear 21 1021 17 10000 9.26 40 20:48 24.04.2022
4009 Clear 21 1021 17 10000 9.26 40 20:29 24.04.2022
4010 Clear 20 1021 18 10000 8.75 30 19:45 24.04.2022
4011 Clear 18 1020 20 10000 6.71 340 18:20 24.04.2022
4012 Clear 17 1020 22 10000 7.72 330 17:28 24.04.2022
4013 Clear 16 1019 26 10000 3.13 48 16:58 24.04.2022
4014 Clear 15 1020 24 10000 6.17 320 16:32 24.04.2022
4015 Clear 14 1019 25 10000 5.81 340 15:54 24.04.2022
4016 Clear 14 1018 26 10000 2.24 16 14:58 24.04.2022
4017 Clear 14 1018 25 10000 3.13 34 13:56 24.04.2022
4018 Clear 15 1018 22 10000 5.66 330 13:24 24.04.2022
4019 Clear 15 1017 24 10000 2.68 53 11:56 24.04.2022
4020 Clear 16 1018 20 10000 7.2 350 11:27 24.04.2022
4021 Clear 17 1018 20 10000 5.66 20 09:55 24.04.2022
4022 Clear 18 1017 18 10000 12.86 40 08:51 24.04.2022
4023 Clouds 20 1016 16 10000 6.69 20 06:18 24.04.2022
4024 Clouds 22 1015 15 10000 7.2 290 03:37 24.04.2022
4025 Clouds 22 1015 15 10000 7.2 290 03:37 24.04.2022
4026 Clouds 23 1016 14 10000 6.69 320 01:37 24.04.2022
4027 Clouds 23 1017 16 10000 8.23 360 23:57 23.04.2022
4028 Clouds 23 1017 17 10000 8.23 360 23:26 23.04.2022
4029 Clouds 22 1018 18 10000 6.17 70 22:46 23.04.2022
4030 Clouds 21 1018 20 10000 7.2 10 21:51 23.04.2022
4031 Clouds 21 1019 20 10000 7.72 40 21:32 23.04.2022
4032 Clouds 20 1019 22 10000 8.75 320 20:33 23.04.2022
4033 Clouds 18 1019 24 10000 7.72 360 19:41 23.04.2022
4034 Clouds 18 1019 25 10000 7.72 360 19:18 23.04.2022
4035 Clouds 18 1019 27 10000 9.39 350 18:46 23.04.2022
4036 Clouds 16 1019 31 10000 6.69 330 17:48 23.04.2022
4037 Clouds 14 1019 37 10000 8.23 320 16:49 23.04.2022
4038 Clouds 13 1018 39 10000 8.23 320 16:21 23.04.2022
4039 Clear 12 1017 40 10000 5.66 320 14:27 23.04.2022
4040 Clear 13 1016 39 10000 0.89 103 11:59 23.04.2022
4041 Clear 14 1016 39 10000 4.12 330 10:40 23.04.2022
4042 Clouds 14 1015 41 10000 3.6 150 08:30 23.04.2022
4043 Clouds 16 1013 41 10000 5.81 80 05:45 23.04.2022
4044 Clouds 18 1011 34 10000 10.29 50 03:54 23.04.2022
4045 Clouds 19 1010 28 10000 4.63 230 00:18 23.04.2022
4046 Clouds 18 1010 34 10000 5.14 220 23:25 22.04.2022
4047 Rain 15 1012 53 10000 3.6 260 21:59 22.04.2022
4048 Clouds 12 1012 66 10000 8.23 320 21:40 22.04.2022
4049 Rain 15 1011 45 10000 11.83 300 20:37 22.04.2022
4050 Clouds 14 1009 48 10000 8.75 350 19:39 22.04.2022
4051 Clouds 14 1009 46 10000 9.39 270 19:18 22.04.2022
4052 Clouds 14 1007 45 10000 10.8 230 18:28 22.04.2022
4053 Clouds 14 1006 46 10000 10.8 220 17:24 22.04.2022
4054 Clouds 13 1003 49 10000 4.47 252 15:59 22.04.2022
4055 Clouds 13 1005 51 10000 10.29 220 15:31 22.04.2022
4056 Clouds 13 1006 53 10000 12.35 210 14:38 22.04.2022
4057 Clouds 13 1006 53 10000 12.35 210 14:38 22.04.2022
4058 Clouds 14 1006 49 10000 11.32 230 13:42 22.04.2022
4059 Clouds 14 1006 45 10000 9.26 230 12:48 22.04.2022
4060 Clouds 17 1006 36 10000 9.77 210 11:23 22.04.2022
4061 Clouds 17 1004 38 10000 5.36 208 10:57 22.04.2022
4062 Clouds 17 1006 33 10000 9.77 200 10:34 22.04.2022
4063 Clouds 17 1004 34 10000 4.02 203 09:59 22.04.2022
4064 Clouds 18 1006 28 10000 10.8 200 09:22 22.04.2022
4065 Clouds 19 1006 27 10000 11.83 210 08:48 22.04.2022
4066 Clouds 21 1007 21 10000 10.29 220 06:42 22.04.2022
4067 Clouds 28 1006 12 10000 14.92 200 01:24 22.04.2022
4068 Clouds 27 1008 11 10000 11.32 200 23:33 21.04.2022
4069 Clouds 27 1008 13 10000 12.35 220 22:47 21.04.2022
4070 Clouds 25 1009 15 10000 13.89 190 21:42 21.04.2022
4071 Clouds 24 1010 17 10000 13.38 200 20:31 21.04.2022
4072 Clear 22 1010 19 10000 12.35 210 18:49 21.04.2022
4073 Clear 22 1010 19 10000 12.35 210 18:28 21.04.2022
4074 Clear 20 1009 25 10000 11.32 190 17:19 21.04.2022
4075 Clear 18 1009 30 10000 9.26 180 15:25 21.04.2022
4076 Clear 18 1008 29 10000 8.23 170 14:52 21.04.2022
4077 Clear 18 1008 30 10000 8.23 170 14:18 21.04.2022
4078 Clear 19 1008 31 10000 9.77 180 13:21 21.04.2022
4079 Clear 19 1007 31 10000 10.29 190 12:22 21.04.2022
4080 Clear 22 1009 24 10000 8.23 190 09:36 21.04.2022
4081 Clear 22 1008 23 10000 9.26 200 08:46 21.04.2022
4082 Clear 25 1008 17 10000 10.29 230 06:44 21.04.2022
4083 Clouds 27 1006 16 10000 9.26 210 03:41 21.04.2022
4084 Clouds 28 1006 15 10000 9.77 220 03:22 21.04.2022
4085 Clouds 29 1006 15 10000 7.2 210 02:44 21.04.2022
4086 Clouds 29 1006 15 10000 7.2 210 02:44 21.04.2022
4087 Haze 29 1007 17 10000 7.2 150 00:35 21.04.2022
4088 Clouds 28 1008 18 10000 4.63 240 23:37 20.04.2022
4089 Clouds 28 1008 19 10000 4.63 240 23:18 20.04.2022
4090 Clouds 27 1009 21 10000 4.12 170 22:34 20.04.2022
4091 Clouds 25 1010 23 10000 5.14 170 21:43 20.04.2022
4092 Clouds 24 1010 24 10000 3.6 100 20:44 20.04.2022
4093 Clouds 24 1010 24 10000 3.6 100 20:44 20.04.2022
4094 Clouds 24 1010 24 10000 3.6 100 20:44 20.04.2022
4095 Clouds 23 1010 25 10000 3.6 100 20:21 20.04.2022
4096 Clear 23 1010 27 10000 1.79 156 19:44 20.04.2022
4097 Clouds 21 1010 30 10000 4.63 230 18:46 20.04.2022
4098 Clouds 19 1009 33 10000 7.2 200 17:49 20.04.2022
4099 Clouds 17 1009 37 10000 7.2 200 16:39 20.04.2022
4100 Clear 15 1004 40 10000 0.45 179 14:58 20.04.2022
4101 Clouds 18 1008 31 10000 7.2 210 12:22 20.04.2022
4102 Clouds 19 1007 29 10000 8.23 210 11:40 20.04.2022
4103 Clouds 19 1007 27 10000 8.23 210 10:39 20.04.2022
4104 Clouds 20 1006 28 10000 10.29 200 09:28 20.04.2022
4105 Dust 20 1005 26 10000 11.32 210 08:27 20.04.2022
4106 Dust 21 1004 25 10000 10.8 200 07:53 20.04.2022
4107 Clouds 23 1003 21 10000 8.23 210 05:29 20.04.2022
4108 Clouds 29 1002 11 10000 15.95 200 01:35 20.04.2022
4109 Clouds 30 1002 9 10000 12.35 230 00:21 20.04.2022
4110 Clouds 30 1004 10 10000 15.43 220 22:53 19.04.2022
4111 Clouds 29 1004 10 10000 15.43 220 22:23 19.04.2022
4112 Clouds 29 1005 11 10000 14.4 210 21:48 19.04.2022
4113 Clear 29 1003 13 10000 14.4 210 20:57 19.04.2022
4114 Clouds 28 1006 12 10000 14.4 210 20:37 19.04.2022
4115 Clouds 26 1006 12 10000 13.38 210 19:32 19.04.2022
4116 Clouds 25 1006 13 10000 13.89 160 18:30 19.04.2022
4117 Clouds 23 1007 14 10000 12.35 200 16:50 19.04.2022
4118 Clouds 22 1008 15 10000 12.35 200 16:25 19.04.2022
4119 Clouds 22 1003 18 10000 2.24 205 15:59 19.04.2022
4120 Clouds 22 1007 14 10000 11.83 220 14:44 19.04.2022
4121 Clouds 23 1006 13 10000 12.35 190 12:53 19.04.2022
4122 Clouds 23 1006 12 10000 12.35 190 12:31 19.04.2022
4123 Clouds 24 1007 13 10000 9.77 190 11:34 19.04.2022
4124 Clouds 26 1008 10 10000 8.23 200 09:35 19.04.2022
4125 Clouds 26 1009 10 10000 6.17 200 07:43 19.04.2022
4126 Clouds 30 1007 8 10000 8.23 240 04:25 19.04.2022
4127 Clouds 32 1009 7 10000 7.72 250 01:41 19.04.2022
4128 Clouds 32 1011 6 10000 5.66 200 23:49 18.04.2022
4129 Clouds 31 1012 8 10000 6.17 240 22:46 18.04.2022
4130 Clouds 29 1013 9 10000 5.36 80 21:25 18.04.2022
4131 Clouds 27 1014 12 10000 5.14 210 20:39 18.04.2022
4132 Clouds 27 1011 17 10000 1.34 130 19:59 18.04.2022
4133 Clouds 25 1014 14 10000 5.14 210 19:33 18.04.2022
4134 Clouds 24 1014 15 10000 6.17 200 18:45 18.04.2022
4135 Clouds 22 1014 17 10000 3.6 190 17:49 18.04.2022
4136 Clouds 21 1014 17 10000 3.6 190 17:19 18.04.2022
4137 Clouds 19 1014 18 10000 2.06 340 16:39 18.04.2022
4138 Clouds 17 1014 18 10000 2.57 310 15:32 18.04.2022
4139 Clouds 17 1014 16 10000 3.6 210 14:27 18.04.2022
4140 Clear 18 1014 19 10000 3.09 60 12:56 18.04.2022
4141 Clouds 19 1014 15 10000 6.69 200 12:24 18.04.2022
4142 Clouds 20 1014 14 10000 5.66 170 10:47 18.04.2022
4143 Clouds 20 1014 13 10000 4.12 190 09:53 18.04.2022
4144 Clouds 20 1015 13 10000 4.12 190 09:27 18.04.2022
4145 Clouds 23 1015 11 10000 2.68 180 07:25 18.04.2022
4146 Clouds 30 1014 9 10000 4.12 230 02:45 18.04.2022
4147 Clear 28 1017 16 10000 3.09 0 23:23 17.04.2022
4148 Clear 27 1018 17 10000 3.09 130 22:37 17.04.2022
4149 Clear 26 1019 19 10000 3.09 0 21:34 17.04.2022
4150 Clear 24 1020 21 10000 2.06 50 20:52 17.04.2022
4151 Clear 23 1020 21 10000 2.06 50 20:19 17.04.2022
4152 Clear 22 1018 25 10000 0.89 134 18:58 17.04.2022
4153 Clear 18 1019 26 10000 3.09 200 17:31 17.04.2022
4154 Clear 13 1017 33 10000 4.63 200 15:37 17.04.2022
4155 Clear 13 1017 34 10000 5.14 210 14:46 17.04.2022
4156 Clear 14 1016 32 10000 5.14 220 13:37 17.04.2022
4157 Clear 15 1016 32 10000 4.63 230 12:49 17.04.2022
4158 Clear 16 1013 31 10000 0.78 232 10:59 17.04.2022
4159 Clear 17 1015 28 10000 6.17 180 10:30 17.04.2022
4160 Clear 18 1015 28 10000 5.14 180 09:55 17.04.2022
4161 Clear 18 1015 26 10000 5.14 180 09:21 17.04.2022
4162 Dust 19 1014 23 10000 5.14 190 08:41 17.04.2022
4163 Dust 21 1012 22 10000 7.2 180 06:32 17.04.2022
4164 Dust 25 1009 18 10000 13.38 220 02:31 17.04.2022
4165 Clouds 25 1009 18 10000 16.98 220 00:42 17.04.2022
4166 Clouds 25 1009 18 10000 14.92 240 23:38 16.04.2022
4167 Clouds 24 1010 22 10000 14.4 200 21:49 16.04.2022
4168 Clouds 23 1010 23 10000 14.92 190 20:54 16.04.2022
4169 Clouds 23 1010 23 10000 13.89 180 19:30 16.04.2022
4170 Clouds 22 1009 24 10000 13.38 180 18:44 16.04.2022
4171 Clouds 20 1009 27 10000 12.86 180 17:21 16.04.2022
4172 Clouds 18 1009 29 10000 10.29 210 16:19 16.04.2022
4173 Clear 18 1006 31 10000 2.24 225 14:59 16.04.2022
4174 Clouds 18 1009 28 10000 8.75 200 14:41 16.04.2022
4175 Clouds 18 1008 28 10000 8.23 170 13:50 16.04.2022
4176 Clouds 18 1008 28 10000 8.23 170 13:18 16.04.2022
4177 Clouds 19 1009 25 10000 9.26 210 11:50 16.04.2022
4178 Clouds 20 1009 24 10000 6.69 180 10:35 16.04.2022
4179 Clouds 20 1009 23 10000 8.23 200 09:37 16.04.2022
4180 Clouds 21 1009 22 10000 6.69 180 08:52 16.04.2022
4181 Clouds 22 1009 21 10000 6.17 140 07:23 16.04.2022
4182 Clouds 23 1008 20 10000 5.66 210 05:45 16.04.2022
4183 Clouds 27 1008 18 10000 7.72 260 01:49 16.04.2022
4184 Clouds 26 1010 18 10000 6.69 230 23:52 15.04.2022
4185 Clouds 24 1010 18 10000 3.09 230 22:51 15.04.2022
4186 Clouds 24 1010 19 10000 3.09 230 22:29 15.04.2022
4187 Clouds 23 1012 20 10000 3.09 0 21:25 15.04.2022
4188 Clouds 22 1012 21 10000 4.12 180 20:38 15.04.2022
4189 Clouds 21 1012 23 10000 3.09 70 19:46 15.04.2022
4190 Clouds 20 1012 23 10000 3.09 70 19:23 15.04.2022
4191 Clouds 19 1012 26 10000 5.14 230 18:42 15.04.2022
4192 Clouds 18 1012 27 10000 5.14 230 18:22 15.04.2022
4193 Clear 16 1011 29 10000 5.66 200 17:27 15.04.2022
4194 Clouds 14 1010 33 10000 5.14 210 16:25 15.04.2022
4195 Clouds 14 1009 34 10000 4.63 200 15:52 15.04.2022
4196 Clouds 14 1008 34 10000 6.69 210 14:20 15.04.2022
4197 Clear 15 1007 30 10000 10.29 220 12:53 15.04.2022
4198 Clear 16 1007 28 10000 10.29 220 12:26 15.04.2022
4199 Dust 17 1007 26 10000 9.77 200 11:52 15.04.2022
4200 Dust 17 1007 24 10000 8.75 200 10:48 15.04.2022
4201 Dust 18 1007 23 10000 8.75 200 10:21 15.04.2022
4202 Clear 19 1006 23 10000 7.2 190 09:23 15.04.2022
4203 Clear 19 1006 22 10000 8.94 210 08:49 15.04.2022
4204 Clouds 22 1007 18 10000 8.75 220 06:51 15.04.2022
4205 Clouds 23 1006 16 10000 6.69 210 04:49 15.04.2022
4206 Clouds 24 1009 12 10000 7.2 140 00:51 15.04.2022
4207 Clouds 24 1011 13 10000 5.14 130 23:28 14.04.2022
4208 Clouds 23 1012 14 10000 7.2 210 22:46 14.04.2022
4209 Clouds 22 1012 14 10000 7.2 210 22:27 14.04.2022
4210 Clouds 21 1013 14 10000 2.68 100 21:50 14.04.2022
4211 Clouds 18 1014 13 10000 2.57 230 19:53 14.04.2022
4212 Clouds 18 1014 14 10000 2.57 230 19:22 14.04.2022
4213 Clouds 15 1014 14 10000 4.63 200 17:48 14.04.2022
4214 Clouds 14 1014 15 10000 4.63 200 17:18 14.04.2022
4215 Clouds 11 1014 18 10000 4.12 200 16:21 14.04.2022
4216 Clear 12 1013 17 10000 6.69 210 13:54 14.04.2022
4217 Clear 11 1013 17 10000 6.69 210 13:26 14.04.2022
4218 Clear 12 1013 15 10000 3.6 180 12:33 14.04.2022
4219 Clear 13 1014 13 10000 4.12 180 11:47 14.04.2022
4220 Clear 13 1014 13 10000 4.12 180 11:20 14.04.2022
4221 Clear 14 1014 13 10000 6.17 210 10:33 14.04.2022
4222 Clear 14 1014 14 10000 5.14 180 09:50 14.04.2022
4223 Clear 14 1014 12 10000 4.12 160 08:35 14.04.2022
4224 Clear 16 1015 13 10000 2.57 110 05:58 14.04.2022
4225 Clouds 20 1015 10 10000 4.12 260 01:49 14.04.2022
4226 Clouds 18 1017 12 10000 5.66 210 22:41 13.04.2022
4227 Clouds 17 1018 12 10000 3.09 160 21:44 13.04.2022
4228 Clouds 15 1019 13 10000 1.79 197 20:47 13.04.2022
4229 Clear 15 1020 15 10000 3.09 340 19:54 13.04.2022
4230 Clouds 13 1019 16 10000 4.12 360 18:43 13.04.2022
4231 Clear 11 1019 16 10000 4.63 340 17:52 13.04.2022
4232 Clear 10 1019 18 10000 4.63 340 17:23 13.04.2022
4233 Clear 7 1018 22 10000 5.66 340 16:18 13.04.2022
4234 Clear 7 1017 22 10000 6.17 340 15:31 13.04.2022
4235 Clear 7 1016 23 10000 5.14 210 14:43 13.04.2022
4236 Clear 7 1016 22 10000 5.14 210 13:55 13.04.2022
4237 Clear 7 1015 23 10000 1.54 20 12:57 13.04.2022
4238 Clear 8 1015 20 10000 4.63 200 12:19 13.04.2022
4239 Clear 8 1015 18 10000 2.68 200 10:41 13.04.2022
4240 Clear 10 1014 15 10000 4.12 170 08:49 13.04.2022
4241 Clear 10 1014 15 10000 4.12 170 08:24 13.04.2022
4242 Clear 11 1014 13 10000 3.09 320 06:50 13.04.2022
4243 Clear 12 1014 14 10000 3.09 320 06:24 13.04.2022
4244 Clouds 16 1012 8 10000 10.29 290 02:37 13.04.2022
4245 Clouds 16 1013 9 10000 11.32 340 00:20 13.04.2022
4246 Clouds 15 1013 11 10000 11.83 330 22:45 12.04.2022
4247 Clear 15 1013 14 10000 9.26 290 21:56 12.04.2022
4248 Clouds 14 1014 14 10000 10.29 350 20:49 12.04.2022
4249 Clouds 14 1014 14 10000 10.29 350 20:49 12.04.2022
4250 Clouds 13 1014 14 10000 10.29 350 20:22 12.04.2022
4251 Clear 12 1014 16 10000 9.39 350 19:41 12.04.2022
4252 Clear 12 1014 16 10000 9.39 350 19:19 12.04.2022
4253 Clouds 10 1013 19 10000 10.29 340 17:49 12.04.2022
4254 Clouds 9 1012 19 10000 10.8 340 16:50 12.04.2022
4255 Dust 9 1010 17 10000 12.35 300 15:39 12.04.2022
4256 Dust 9 1010 17 10000 12.35 300 15:20 12.04.2022
4257 Dust 9 1007 18 10000 15.43 340 13:53 12.04.2022
4258 Dust 10 1007 18 10000 15.43 340 13:27 12.04.2022
4259 Dust 10 1007 18 10000 15.43 340 13:27 12.04.2022
4260 Dust 10 1006 17 10000 13.41 350 12:26 12.04.2022
4261 Dust 11 1005 18 10000 14.92 340 11:39 12.04.2022
4262 Dust 13 1004 20 10000 16.46 310 10:29 12.04.2022
4263 Dust 16 999 30 10000 14.92 230 08:53 12.04.2022
4264 Dust 17 998 32 10000 16.46 230 07:47 12.04.2022
4265 Dust 19 996 27 9656 14.92 220 05:47 12.04.2022
4266 Dust 24 995 23 4828 15.95 210 02:53 12.04.2022
4267 Dust 25 998 18 8047 12.86 200 23:25 11.04.2022
4268 Dust 24 999 18 10000 14.4 210 22:44 11.04.2022
4269 Clouds 23 1000 17 10000 13.38 200 21:36 11.04.2022
4270 Clouds 23 1001 17 10000 10.8 210 20:49 11.04.2022
4271 Clouds 22 1002 17 10000 10.8 210 20:28 11.04.2022
4272 Clouds 20 1003 17 10000 9.77 210 19:29 11.04.2022
4273 Clouds 20 1001 19 10000 2.24 203 18:59 11.04.2022
4274 Clouds 18 1003 18 10000 10.29 210 18:33 11.04.2022
4275 Clouds 16 1003 19 10000 5.14 180 17:43 11.04.2022
4276 Clouds 14 1003 22 10000 6.69 200 16:38 11.04.2022
4277 Clouds 13 1003 20 10000 6.69 190 15:24 11.04.2022
4278 Clouds 14 1004 19 10000 5.14 180 13:44 11.04.2022
4279 Clouds 14 1004 18 10000 7.72 190 12:41 11.04.2022
4280 Clouds 14 1004 18 10000 7.72 190 12:22 11.04.2022
4281 Clouds 15 1005 17 10000 4.12 210 10:47 11.04.2022
4282 Clouds 15 1003 19 10000 0.45 300 09:58 11.04.2022
4283 Clouds 16 1005 16 10000 2.57 10 08:23 11.04.2022
4284 Clear 19 1005 14 10000 0 0 04:57 11.04.2022
4285 Clouds 23 1008 10 10000 3.09 30 00:49 11.04.2022
4286 Clouds 21 1010 10 10000 5.14 60 22:27 10.04.2022
4287 Clouds 21 1011 11 10000 9.26 40 21:54 10.04.2022
4288 Clouds 20 1012 10 10000 9.26 40 21:23 10.04.2022
4289 Clouds 20 1013 11 10000 8.75 40 20:21 10.04.2022
4290 Clouds 19 1013 11 10000 10.29 20 19:37 10.04.2022
4291 Clouds 18 1012 11 10000 10.8 30 18:50 10.04.2022
4292 Clouds 18 1012 12 10000 10.8 30 18:26 10.04.2022
4293 Clouds 17 1012 12 10000 10.29 30 17:46 10.04.2022
4294 Clouds 16 1009 16 10000 3.13 47 16:59 10.04.2022
4295 Clouds 16 1011 14 10000 12.86 30 15:40 10.04.2022
4296 Clouds 17 1010 14 10000 10.29 320 14:42 10.04.2022
4297 Clear 18 1009 14 10000 11.32 310 13:44 10.04.2022
4298 Clouds 20 1007 15 10000 11.32 20 12:32 10.04.2022
4299 Clouds 22 1007 12 10000 10.8 340 11:44 10.04.2022
4300 Clouds 21 1006 12 10000 8.75 20 11:18 10.04.2022
4301 Clouds 23 1007 8 10000 9.26 340 10:31 10.04.2022
4302 Clouds 24 1006 7 10000 8.23 320 09:41 10.04.2022
4303 Clear 25 1004 9 10000 10.29 340 08:28 10.04.2022
4304 Clear 25 1002 11 10000 5.66 360 07:57 10.04.2022
4305 Clear 26 1003 14 10000 5.19 323 06:59 10.04.2022
4306 Clouds 31 1001 8 10000 8.23 250 03:37 10.04.2022
4307 Clouds 32 1002 9 10000 9.39 260 02:18 10.04.2022
4308 Clouds 33 1004 11 10000 7.72 230 23:53 09.04.2022
4309 Clouds 32 1005 12 10000 8.75 240 22:54 09.04.2022
4310 Clouds 32 1005 12 10000 8.75 240 22:54 09.04.2022
4311 Clouds 32 1005 12 10000 8.75 240 22:33 09.04.2022
4312 Clear 30 1006 13 10000 5.14 240 21:19 09.04.2022
4313 Clouds 28 1007 14 10000 3.09 220 20:30 09.04.2022
4314 Clear 28 1006 15 10000 1.34 315 19:56 09.04.2022
4315 Clear 27 1007 15 10000 4.63 340 19:38 09.04.2022
4316 Clouds 23 1008 18 10000 8.23 220 18:23 09.04.2022
4317 Clouds 20 1009 17 10000 3.6 320 17:48 09.04.2022
4318 Clouds 21 1006 20 10000 1.01 202 16:56 09.04.2022
4319 Clouds 19 1008 19 10000 2.06 310 16:29 09.04.2022
4320 Clouds 19 1009 19 10000 2.06 330 15:49 09.04.2022
4321 Clouds 18 1009 19 10000 5.14 50 15:25 09.04.2022
4322 Clouds 19 1009 18 10000 5.66 210 14:25 09.04.2022
4323 Smoke 20 1009 17 10000 3.09 190 13:26 09.04.2022
4324 Smoke 20 1010 17 10000 5.66 210 12:53 09.04.2022
4325 Smoke 20 1011 16 10000 6.17 180 11:44 09.04.2022
4326 Clear 21 1011 15 10000 6.17 190 10:41 09.04.2022
4327 Clear 21 1011 15 10000 6.17 190 10:18 09.04.2022
4328 Clear 21 1012 13 10000 5.66 210 09:21 09.04.2022
4329 Clear 23 1012 16 10000 3.09 180 07:49 09.04.2022
4330 Clouds 30 1013 10 10000 2.57 300 03:22 09.04.2022
4331 Clouds 30 1016 10 10000 3.09 140 00:33 09.04.2022
4332 Clouds 30 1018 11 10000 2.57 0 23:20 08.04.2022
4333 Clouds 28 1019 11 10000 5.14 80 21:42 08.04.2022
4334 Clear 26 1020 13 10000 5.66 60 20:41 08.04.2022
4335 Clouds 25 1021 13 10000 5.14 60 19:41 08.04.2022
4336 Clouds 23 1022 15 10000 3.6 60 18:38 08.04.2022
4337 Clear 22 1020 18 10000 0.45 177 17:59 08.04.2022
4338 Clouds 20 1022 17 10000 1.54 230 17:27 08.04.2022
4339 Clouds 17 1022 21 10000 2.57 20 16:52 08.04.2022
4340 Clouds 16 1022 22 10000 2.57 20 16:22 08.04.2022
4341 Clear 16 1022 20 10000 1.54 280 15:28 08.04.2022
4342 Clear 16 1021 21 10000 2.68 200 14:44 08.04.2022
4343 Clear 16 1021 20 10000 3.6 160 13:55 08.04.2022
4344 Clear 16 1021 20 10000 3.6 160 13:30 08.04.2022
4345 Clear 17 1021 18 10000 3.6 320 12:45 08.04.2022
4346 Clear 17 1020 20 10000 3.09 80 10:56 08.04.2022
4347 Clear 19 1022 15 10000 4.12 70 09:41 08.04.2022
4348 Clear 20 1020 16 10000 1.29 355 08:59 08.04.2022
4349 Clear 20 1021 13 10000 3.13 280 07:42 08.04.2022
4350 Clear 22 1021 10 10000 3.09 70 06:44 08.04.2022
4351 Clear 28 1022 8 10000 6.69 50 02:37 08.04.2022
4352 Clear 28 1023 8 10000 7.2 80 00:29 08.04.2022
4353 Clear 28 1024 7 10000 8.75 40 23:42 07.04.2022
4354 Clear 27 1025 8 10000 6.17 10 22:41 07.04.2022
4355 Clear 26 1025 8 10000 7.2 20 22:23 07.04.2022
4356 Clear 26 1024 11 10000 7.2 20 21:58 07.04.2022
4357 Clear 25 1026 10 10000 5.66 30 21:28 07.04.2022
4358 Clear 24 1027 11 10000 3.09 40 20:42 07.04.2022
4359 Clear 22 1028 12 10000 2.57 60 19:51 07.04.2022
4360 Clear 17 1028 15 10000 3.6 70 17:29 07.04.2022
4361 Clear 16 1026 19 10000 0.45 278 16:59 07.04.2022
4362 Clear 14 1027 17 10000 2.06 30 16:33 07.04.2022
4363 Clear 14 1027 15 10000 4.63 50 15:40 07.04.2022
4364 Clear 13 1026 19 10000 6.69 40 13:54 07.04.2022
4365 Clear 13 1026 20 10000 6.69 40 13:23 07.04.2022
4366 Clear 15 1026 17 10000 8.23 30 11:52 07.04.2022
4367 Clear 16 1026 17 10000 7.72 60 10:46 07.04.2022
4368 Clear 18 1025 15 10000 6.26 30 08:43 07.04.2022
4369 Clear 19 1023 18 10000 1.34 78 06:59 07.04.2022
4370 Clear 21 1024 13 10000 5.81 60 05:21 07.04.2022
4371 Clear 25 1022 11 10000 10.29 40 02:34 07.04.2022
4372 Clear 25 1023 11 10000 8.75 50 00:43 07.04.2022
4373 Clear 24 1024 11 10000 9.26 40 23:28 06.04.2022
4374 Clear 23 1024 12 10000 10.8 30 22:44 06.04.2022
4375 Clear 23 1024 12 10000 10.8 30 22:20 06.04.2022
4376 Clear 21 1025 14 10000 8.94 50 20:47 06.04.2022
4377 Clear 21 1022 16 10000 4.02 32 19:59 06.04.2022
4378 Clear 19 1025 15 10000 10.29 40 19:24 06.04.2022
4379 Clear 18 1024 16 10000 12.86 40 18:48 06.04.2022
4380 Clear 17 1024 18 10000 10.8 50 17:36 06.04.2022
4381 Clear 16 1021 20 10000 9.26 50 16:56 06.04.2022
4382 Clear 16 1022 19 10000 9.83 40 16:32 06.04.2022
4383 Clear 15 1021 20 10000 9.83 40 15:43 06.04.2022
4384 Clear 17 1018 19 10000 9.26 50 13:48 06.04.2022
4385 Clear 18 1017 18 10000 9.83 30 12:30 06.04.2022
4386 Clear 21 1015 16 10000 9.77 50 10:57 06.04.2022
4387 Clear 21 1015 14 10000 9.77 50 10:33 06.04.2022
4388 Clear 22 1015 12 10000 8.23 40 09:46 06.04.2022
4389 Clear 23 1014 15 10000 4.79 1 08:59 06.04.2022
4390 Clear 24 1012 13 10000 7.2 350 07:59 06.04.2022
4391 Clear 27 1011 11 10000 12.52 340 05:45 06.04.2022
4392 Clouds 32 1010 11 10000 11.83 310 00:45 06.04.2022
4393 Clouds 32 1011 12 10000 10.8 340 23:48 05.04.2022
4394 Clouds 30 1012 15 10000 11.32 310 21:51 05.04.2022
4395 Clouds 29 1010 20 10000 2.07 58 20:59 05.04.2022
4396 Clouds 28 1013 14 10000 11.32 310 20:23 05.04.2022
4397 Clouds 25 1011 18 10000 9.26 320 18:31 05.04.2022
4398 Clouds 22 1011 21 10000 5.66 290 17:21 05.04.2022
4399 Clouds 20 1012 22 10000 4.63 300 16:42 05.04.2022
4400 Clear 19 1011 22 10000 5.66 220 15:51 05.04.2022
4401 Clear 19 1011 22 10000 5.66 220 15:31 05.04.2022
4402 Clear 19 1010 20 10000 5.14 200 13:49 05.04.2022
4403 Clear 20 1010 20 10000 6.17 210 12:33 05.04.2022
4404 Clear 22 1010 18 10000 5.66 170 11:43 05.04.2022
4405 Clear 22 1010 17 10000 5.66 170 11:24 05.04.2022
4406 Clouds 22 1010 18 10000 4.12 170 09:31 05.04.2022
4407 Clouds 23 1010 17 10000 5.14 210 08:33 05.04.2022
4408 Clouds 27 1008 13 10000 4.63 280 04:19 05.04.2022
4409 Clouds 29 1010 13 10000 5.14 310 23:45 04.04.2022
4410 Clouds 28 1010 14 10000 4.12 320 22:38 04.04.2022
4411 Clouds 27 1011 14 10000 3.09 260 21:51 04.04.2022
4412 Clouds 28 1011 15 10000 3.09 260 21:20 04.04.2022
4413 Clouds 26 1012 18 10000 3.09 0 20:47 04.04.2022
4414 Clouds 24 1012 22 10000 4.63 230 19:30 04.04.2022
4415 Clouds 22 1011 25 10000 5.66 210 18:44 04.04.2022
4416 Clear 19 1010 32 10000 3.09 180 17:21 04.04.2022
4417 Clear 16 1010 32 10000 5.66 210 16:34 04.04.2022
4418 Clear 16 1009 33 10000 3.6 190 15:34 04.04.2022
4419 Clear 16 1009 32 10000 2.57 310 14:46 04.04.2022
4420 Clear 16 1009 33 10000 2.57 310 14:28 04.04.2022
4421 Clear 16 1006 34 10000 1.46 281 12:59 04.04.2022
4422 Clouds 18 1009 32 10000 3.09 330 11:29 04.04.2022
4423 Clouds 18 1009 31 10000 3.09 310 10:29 04.04.2022
4424 Clouds 21 1007 29 10000 2.23 290 06:58 04.04.2022
4425 Clouds 25 1008 19 10000 3.6 50 03:18 04.04.2022
4426 Clouds 26 1011 20 10000 3.6 340 23:47 03.04.2022
4427 Clouds 25 1012 21 10000 5.14 80 22:24 03.04.2022
4428 Clouds 25 1012 21 10000 6.69 80 21:32 03.04.2022
4429 Clouds 24 1013 22 10000 9.26 60 20:35 03.04.2022
4430 Clouds 22 1013 27 10000 6.17 60 18:51 03.04.2022
4431 Clear 20 1012 31 10000 5.66 60 17:57 03.04.2022
4432 Clouds 19 1012 29 10000 5.66 60 17:37 03.04.2022
4433 Clouds 17 1012 31 10000 6.17 40 16:50 03.04.2022
4434 Clouds 17 1010 32 10000 0.65 54 15:59 03.04.2022
4435 Clouds 18 1011 28 10000 4.12 210 14:27 03.04.2022
4436 Clouds 18 1011 27 10000 4.63 200 13:38 03.04.2022
4437 Clouds 19 1009 27 10000 0.52 202 11:59 03.04.2022
4438 Clouds 21 1011 23 10000 6.17 200 10:22 03.04.2022
4439 Clouds 21 1011 20 10000 6.17 200 09:19 03.04.2022
4440 Clouds 24 1011 19 10000 7.2 170 06:41 03.04.2022
4441 Clear 28 1009 19 10000 7.2 100 02:56 03.04.2022
4442 Clouds 29 1011 16 10000 4.02 169 00:29 03.04.2022
4443 Clouds 28 1013 17 10000 5.66 140 22:52 02.04.2022
4444 Clear 28 1012 19 10000 3.09 160 21:57 02.04.2022
4445 Clouds 27 1014 19 10000 3.6 100 21:26 02.04.2022
4446 Clouds 25 1014 22 10000 4.12 30 20:39 02.04.2022
4447 Clear 22 1015 25 10000 2.06 300 18:51 02.04.2022
4448 Clear 21 1014 26 10000 2.06 300 18:20 02.04.2022
4449 Clear 19 1014 29 10000 1.54 290 17:43 02.04.2022
4450 Clear 16 1012 36 10000 0.5 192 15:59 02.04.2022
4451 Clear 16 1013 33 10000 3.09 310 15:20 02.04.2022
4452 Clear 16 1013 32 10000 2.06 330 14:32 02.04.2022
4453 Clear 16 1013 31 10000 2.57 200 13:34 02.04.2022
4454 Clear 17 1013 31 10000 3.09 180 12:34 02.04.2022
4455 Clear 18 1013 28 10000 3.09 190 10:50 02.04.2022
4456 Clear 20 1012 27 10000 2.68 250 08:44 02.04.2022
4457 Clear 21 1010 28 10000 0.75 84 05:58 02.04.2022
4458 Clear 26 1010 18 10000 3.6 350 03:31 02.04.2022
4459 Clouds 26 1012 20 10000 4.63 20 23:55 01.04.2022
4460 Clouds 25 1013 21 10000 2.68 0 22:55 01.04.2022
4461 Clouds 24 1013 21 10000 4.12 50 21:31 01.04.2022
4462 Clouds 23 1013 22 10000 6.17 50 20:50 01.04.2022
4463 Clouds 22 1014 21 10000 5.66 30 19:51 01.04.2022
4464 Clouds 22 1014 21 10000 5.66 30 19:27 01.04.2022
4465 Clouds 21 1013 22 10000 5.66 340 18:42 01.04.2022
4466 Clouds 19 1012 24 10000 6.17 330 17:46 01.04.2022
4467 Clouds 16 1011 26 10000 5.14 330 16:34 01.04.2022
4468 Clouds 15 1010 28 10000 5.81 10 15:19 01.04.2022
4469 Clouds 16 1009 32 10000 5.14 320 14:18 01.04.2022
4470 Clouds 16 1009 34 10000 3.6 200 13:32 01.04.2022
4471 Clouds 16 1008 33 10000 5.66 320 12:32 01.04.2022
4472 Clouds 17 1008 32 10000 3.6 330 11:18 01.04.2022
4473 Clouds 19 1008 29 10000 3.09 190 09:53 01.04.2022
4474 Clouds 20 1005 31 10000 0.89 304 07:59 01.04.2022
4475 Clouds 21 1006 27 10000 5.66 150 06:30 01.04.2022
4476 Clouds 23 1005 23 10000 6.17 130 04:45 01.04.2022
4477 Clouds 25 1005 19 10000 4.63 40 03:41 01.04.2022
4478 Clouds 25 1005 19 10000 2.24 0 01:53 01.04.2022
4479 Clouds 25 1007 23 10000 3.09 210 22:56 31.03.2022
4480 Clouds 23 1009 24 10000 2.24 0 21:49 31.03.2022
4481 Clouds 22 1009 24 10000 2.24 0 21:22 31.03.2022
4482 Clouds 21 1010 26 10000 2.57 220 20:28 31.03.2022
4483 Clouds 20 1010 29 10000 2.57 210 19:46 31.03.2022
4484 Clouds 18 1010 31 10000 4.12 210 18:38 31.03.2022
4485 Clouds 16 1009 34 10000 3.6 350 17:32 31.03.2022
4486 Clouds 15 1009 37 10000 4.12 210 16:18 31.03.2022
4487 Clouds 14 1008 37 10000 5.14 200 15:33 31.03.2022
4488 Clouds 15 1008 35 10000 6.17 200 14:52 31.03.2022
4489 Clouds 15 1008 35 10000 6.17 200 14:20 31.03.2022
4490 Clouds 18 1007 30 10000 7.72 200 11:32 31.03.2022
4491 Clouds 19 1008 27 10000 5.66 200 10:41 31.03.2022
4492 Clouds 20 1009 24 10000 3.6 160 09:43 31.03.2022
4493 Clouds 21 1009 21 10000 4.63 130 07:49 31.03.2022
4494 Clouds 24 1007 20 10000 0.89 110 03:57 31.03.2022
4495 Clouds 25 1013 18 10000 3.6 40 23:27 30.03.2022
4496 Clouds 24 1014 18 10000 5.36 20 22:20 30.03.2022
4497 Clouds 23 1015 20 10000 5.66 330 21:32 30.03.2022
4498 Clouds 23 1015 21 10000 7.72 330 20:44 30.03.2022
4499 Clouds 22 1016 24 10000 5.81 320 19:54 30.03.2022
4500 Clouds 20 1015 27 10000 5.66 340 18:50 30.03.2022
4501 Clouds 20 1015 27 10000 5.66 340 18:50 30.03.2022
4502 Clouds 18 1015 33 10000 4.12 320 17:52 30.03.2022
4503 Clouds 17 1015 35 10000 4.12 320 17:29 30.03.2022
4504 Clouds 15 1014 37 10000 4.12 350 16:41 30.03.2022
4505 Clouds 15 1014 38 10000 4.12 350 16:18 30.03.2022
4506 Clouds 15 1013 37 10000 3.6 340 14:42 30.03.2022
4507 Clear 16 1013 36 10000 5.14 310 13:26 30.03.2022
4508 Clouds 16 1013 39 10000 3.09 330 12:32 30.03.2022
4509 Clouds 17 1013 40 10000 3.13 311 10:48 30.03.2022
4510 Clear 17 1012 39 10000 0.89 333 09:58 30.03.2022
4511 Clouds 18 1012 39 10000 5.66 100 08:27 30.03.2022
4512 Clouds 20 1011 30 10000 7.2 70 07:28 30.03.2022
4513 Clouds 21 1009 29 10000 5.14 270 05:40 30.03.2022
4514 Clouds 22 1008 28 10000 7.72 340 02:40 30.03.2022
4515 Clouds 20 1009 35 10000 9.77 330 22:43 29.03.2022
4516 Clouds 19 1009 39 10000 8.75 320 21:52 29.03.2022
4517 Clouds 18 1009 40 10000 8.75 320 21:34 29.03.2022
4518 Clouds 16 1009 44 10000 7.72 330 20:26 29.03.2022
4519 Clouds 15 1009 49 10000 8.23 340 19:32 29.03.2022
4520 Clouds 15 1008 58 10000 5.66 230 18:53 29.03.2022
4521 Clouds 13 1008 65 10000 3.6 210 17:52 29.03.2022
4522 Clouds 12 1007 68 10000 3.6 210 17:18 29.03.2022
4523 Clouds 11 1007 73 10000 2.57 180 16:52 29.03.2022
4524 Clouds 10 1006 80 10000 2.06 170 15:29 29.03.2022
4525 Clouds 10 1006 81 10000 2.24 360 14:43 29.03.2022
4526 Clouds 10 1005 80 10000 2.57 80 13:34 29.03.2022
4527 Clouds 11 1005 78 10000 3.09 280 12:21 29.03.2022
4528 Clouds 11 1003 74 10000 0.65 304 10:59 29.03.2022
4529 Clouds 11 1003 71 10000 0.89 112 09:58 29.03.2022
4530 Clouds 12 1005 72 10000 5.66 80 08:44 29.03.2022
4531 Clouds 12 1006 73 9656 6.17 180 06:48 29.03.2022
4532 Clouds 23 1000 21 10000 10.8 190 02:27 29.03.2022
4533 Clouds 26 1003 11 10000 14.92 160 23:26 28.03.2022
4534 Clouds 25 1003 16 10000 14.92 170 22:57 28.03.2022
4535 Clouds 26 1004 10 10000 16.46 200 22:31 28.03.2022
4536 Dust 25 1004 10 10000 15.95 200 21:38 28.03.2022
4537 Clouds 25 1005 12 10000 12.35 150 20:32 28.03.2022
4538 Clouds 23 1006 16 10000 11.32 170 19:48 28.03.2022
4539 Clouds 23 1006 16 10000 11.32 170 19:30 28.03.2022
4540 Clouds 22 1006 18 10000 8.75 170 18:44 28.03.2022
4541 Clouds 21 1007 19 10000 11.32 180 17:41 28.03.2022
4542 Clouds 20 1006 20 10000 7.72 180 16:47 28.03.2022
4543 Clouds 21 1006 18 10000 4.12 180 14:53 28.03.2022
4544 Clouds 21 1006 17 10000 4.12 180 14:23 28.03.2022
4545 Clouds 21 1007 17 10000 3.09 130 12:51 28.03.2022
4546 Clouds 21 1007 17 10000 3.09 170 11:42 28.03.2022
4547 Clouds 21 1007 15 10000 4.63 190 09:47 28.03.2022
4548 Clouds 21 1007 15 10000 4.63 190 09:20 28.03.2022
4549 Clouds 23 1007 13 10000 6.17 200 08:23 28.03.2022
4550 Clear 22 1005 13 10000 3.06 196 07:56 28.03.2022
4551 Clouds 26 1006 10 10000 8.75 180 05:55 28.03.2022
4552 Clouds 30 1007 10 10000 9.77 180 23:53 27.03.2022
4553 Clouds 30 1008 12 10000 6.69 150 22:25 27.03.2022
4554 Clouds 30 1008 12 10000 6.69 150 22:25 27.03.2022
4555 Clouds 30 1008 12 10000 6.69 150 22:25 27.03.2022
4556 Clouds 29 1009 13 10000 7.2 150 21:42 27.03.2022
4557 Clouds 29 1006 17 10000 6.79 178 20:58 27.03.2022
4558 Clouds 27 1010 15 10000 5.66 160 20:18 27.03.2022
4559 Clouds 24 1010 17 10000 4.12 130 19:34 27.03.2022
4560 Clouds 22 1009 20 10000 3.6 180 18:29 27.03.2022
4561 Clouds 20 1009 23 10000 4.12 200 17:42 27.03.2022
4562 Clouds 19 1009 24 10000 4.12 200 17:23 27.03.2022
4563 Clouds 18 1008 23 10000 4.12 200 15:39 27.03.2022
4564 Clear 19 1008 23 10000 2.57 320 13:57 27.03.2022
4565 Clouds 20 1008 18 10000 3.13 190 12:50 27.03.2022
4566 Clouds 21 1008 17 10000 4.12 200 11:30 27.03.2022
4567 Clear 23 1009 14 10000 3.6 10 09:32 27.03.2022
4568 Clouds 26 1009 11 10000 7.2 180 06:44 27.03.2022
4569 Clouds 33 1008 9 10000 8.23 150 01:41 27.03.2022
4570 Clouds 33 1008 10 10000 7.2 100 00:25 27.03.2022
4571 Clouds 32 1010 8 10000 5.14 160 22:45 26.03.2022
4572 Clear 31 1011 12 10000 3.6 90 21:50 26.03.2022
4573 Clouds 30 1012 12 10000 3.6 90 21:26 26.03.2022
4574 Clouds 27 1013 15 10000 3.6 90 19:31 26.03.2022
4575 Clouds 24 1013 18 10000 3.6 70 17:54 26.03.2022
4576 Clouds 23 1013 19 10000 3.6 70 17:33 26.03.2022
4577 Clouds 20 1013 24 10000 5.14 70 16:27 26.03.2022
4578 Clouds 18 1014 23 10000 3.6 180 15:23 26.03.2022
4579 Clouds 19 1013 21 10000 3.6 180 13:54 26.03.2022
4580 Clouds 19 1013 21 10000 3.6 180 13:18 26.03.2022
4581 Clouds 20 1013 21 10000 4.63 180 11:41 26.03.2022
4582 Clouds 21 1014 19 10000 5.66 190 10:29 26.03.2022
4583 Clouds 23 1014 16 10000 4.63 200 08:44 26.03.2022
4584 Clouds 25 1014 17 10000 3.6 220 06:25 26.03.2022
4585 Clouds 26 1014 17 10000 6.17 200 05:22 26.03.2022
4586 Clouds 32 1013 12 10000 4.12 110 00:28 26.03.2022
4587 Clouds 29 1017 14 10000 2.24 70 21:51 25.03.2022
4588 Clouds 28 1018 14 10000 3.6 110 20:46 25.03.2022
4589 Clouds 28 1018 16 10000 3.6 110 20:20 25.03.2022
4590 Clouds 25 1019 17 10000 1.54 10 18:47 25.03.2022
4591 Clouds 22 1019 20 10000 1.54 150 17:47 25.03.2022
4592 Clouds 21 1019 21 10000 1.54 150 17:27 25.03.2022
4593 Clouds 18 1019 27 10000 3.09 180 16:18 25.03.2022
4594 Clear 16 1018 28 10000 2.57 210 14:26 25.03.2022
4595 Clear 16 1017 27 10000 1.54 40 12:57 25.03.2022
4596 Clear 18 1017 25 10000 4.12 190 10:22 25.03.2022
4597 Clear 19 1017 23 10000 3.6 320 09:28 25.03.2022
4598 Clear 20 1017 23 10000 2.57 180 07:54 25.03.2022
4599 Clear 20 1017 20 10000 2.57 320 07:28 25.03.2022
4600 Clear 22 1016 20 10000 2.57 180 05:55 25.03.2022
4601 Clouds 29 1016 14 10000 3.09 120 00:46 25.03.2022
4602 Clouds 27 1018 13 10000 3.09 30 22:39 24.03.2022
4603 Clouds 26 1019 13 10000 2.68 350 21:42 24.03.2022
4604 Clouds 24 1020 12 10000 2.06 30 20:26 24.03.2022
4605 Clouds 23 1021 14 10000 2.57 90 19:47 24.03.2022
4606 Clouds 19 1021 19 10000 0.89 127 17:47 24.03.2022
4607 Clouds 18 1021 20 10000 0.89 115 17:19 24.03.2022
4608 Clouds 13 1020 27 10000 3.09 170 15:21 24.03.2022
4609 Clear 12 1020 24 10000 2.57 290 14:43 24.03.2022
4610 Clear 12 1020 24 10000 2.57 290 14:18 24.03.2022
4611 Clear 13 1020 24 10000 3.6 180 12:52 24.03.2022
4612 Clear 14 1020 22 10000 3.6 170 11:44 24.03.2022
4613 Clear 15 1020 21 10000 4.63 160 09:53 24.03.2022
4614 Clear 15 1020 20 10000 2.68 210 08:41 24.03.2022
4615 Clear 17 1020 18 10000 2.57 200 06:49 24.03.2022
4616 Clear 24 1019 13 10000 4.12 50 02:24 24.03.2022
4617 Clear 24 1022 13 10000 2.68 30 23:20 23.03.2022
4618 Clear 22 1024 16 10000 2.57 120 21:27 23.03.2022
4619 Clear 22 1022 20 10000 0.89 126 20:59 23.03.2022
4620 Clear 20 1025 20 10000 5.14 60 19:45 23.03.2022
4621 Clear 19 1026 22 10000 3.6 30 18:36 23.03.2022
4622 Clear 17 1026 25 10000 0.89 132 17:36 23.03.2022
4623 Clear 14 1026 30 10000 2.06 240 16:33 23.03.2022
4624 Clear 12 1026 35 10000 2.57 70 14:51 23.03.2022
4625 Clear 12 1026 35 10000 2.57 70 14:24 23.03.2022
4626 Clear 13 1025 32 10000 6.69 60 12:50 23.03.2022
4627 Clear 16 1024 28 10000 9.77 20 09:42 23.03.2022
4628 Clear 18 1023 25 10000 8.75 40 06:41 23.03.2022
4629 Clear 20 1021 24 10000 3.6 80 04:41 23.03.2022
4630 Clouds 24 1020 19 10000 4.63 70 00:29 23.03.2022
4631 Clouds 23 1021 21 10000 7.72 40 22:46 22.03.2022
4632 Clouds 22 1023 23 10000 6.26 80 21:29 22.03.2022
4633 Clouds 21 1023 24 10000 8.23 40 20:40 22.03.2022
4634 Clouds 20 1024 25 10000 9.26 30 19:41 22.03.2022
4635 Clear 20 1024 26 10000 9.26 30 19:18 22.03.2022
4636 Clouds 18 1024 27 10000 12.86 30 18:22 22.03.2022
4637 Clouds 17 1024 29 10000 7.2 340 17:29 22.03.2022
4638 Clouds 14 1023 32 10000 7.72 330 16:21 22.03.2022
4639 Clouds 11 1023 34 10000 4.12 20 15:22 22.03.2022
4640 Clouds 12 1023 33 10000 6.69 340 14:46 22.03.2022
4641 Clouds 12 1023 33 10000 6.69 340 14:27 22.03.2022
4642 Clouds 12 1022 31 10000 6.69 50 13:27 22.03.2022
4643 Clouds 12 1022 29 10000 5.66 60 11:52 22.03.2022
4644 Clouds 13 1021 27 10000 8.23 70 10:35 22.03.2022
4645 Clouds 14 1020 25 10000 8.75 50 08:24 22.03.2022
4646 Clouds 17 1018 20 10000 6.69 50 05:21 22.03.2022
4647 Clouds 20 1017 17 10000 3.6 110 03:46 22.03.2022
4648 Clouds 22 1017 19 10000 4.02 32 23:59 21.03.2022
4649 Clouds 20 1019 15 10000 7.2 310 22:29 21.03.2022
4650 Clouds 18 1020 16 10000 5.66 10 20:54 21.03.2022
4651 Clouds 17 1021 16 10000 6.69 340 20:34 21.03.2022
4652 Clouds 17 1019 20 10000 7.59 2 19:58 21.03.2022
4653 Clouds 16 1022 17 10000 7.72 330 19:27 21.03.2022
4654 Clouds 15 1022 18 10000 9.77 20 18:18 21.03.2022
4655 Clouds 13 1022 19 10000 7.72 20 17:18 21.03.2022
4656 Clouds 12 1022 21 10000 7.72 20 16:42 21.03.2022
4657 Clouds 10 1020 23 10000 6.69 350 15:48 21.03.2022
4658 Clouds 10 1020 23 10000 6.69 350 15:19 21.03.2022
4659 Clear 10 1019 25 10000 3.58 52 13:58 21.03.2022
4660 Clouds 11 1019 18 10000 7.72 30 12:35 21.03.2022
4661 Clouds 12 1018 16 10000 8.75 40 11:45 21.03.2022
4662 Clouds 12 1017 15 10000 8.23 40 10:36 21.03.2022
4663 Clouds 13 1016 13 10000 8.75 350 08:30 21.03.2022
4664 Clouds 15 1014 13 10000 16.09 330 06:48 21.03.2022
4665 Clouds 18 1011 10 10000 13.41 340 02:51 21.03.2022
4666 Clouds 21 1009 17 10000 10.8 320 23:43 20.03.2022
4667 Clouds 21 1009 20 10000 10.8 330 22:44 20.03.2022
4668 Clouds 20 1010 23 10000 13.41 310 21:52 20.03.2022
4669 Clouds 20 1010 23 10000 13.41 310 21:25 20.03.2022
4670 Clouds 19 1010 27 10000 13.38 330 20:43 20.03.2022
4671 Clouds 17 1010 34 10000 6.17 300 19:59 20.03.2022
4672 Clouds 16 1010 33 10000 11.32 340 19:31 20.03.2022
4673 Clouds 16 1009 33 10000 11.32 330 18:22 20.03.2022
4674 Clouds 16 1008 35 10000 11.83 320 17:33 20.03.2022
4675 Clouds 15 1008 38 10000 10.8 310 16:57 20.03.2022
4676 Clouds 12 1007 45 10000 7.72 310 15:34 20.03.2022
4677 Clouds 12 1007 45 10000 5.14 230 14:35 20.03.2022
4678 Clouds 13 1006 40 10000 12.86 330 12:35 20.03.2022
4679 Clouds 14 1006 37 10000 7.72 210 11:23 20.03.2022
4680 Clouds 15 1006 42 10000 11.83 240 09:26 20.03.2022
4681 Clouds 17 1006 36 10000 9.77 200 07:28 20.03.2022
4682 Clouds 20 1006 26 10000 9.77 240 05:40 20.03.2022
4683 Clouds 25 1006 10 10000 11.32 190 01:50 20.03.2022
4684 Clouds 26 1007 10 10000 11.83 180 00:45 20.03.2022
4685 Clouds 25 1008 12 10000 10.8 190 23:19 19.03.2022
4686 Clouds 22 1012 15 10000 4.63 70 21:28 19.03.2022
4687 Clouds 21 1014 17 10000 5.14 60 20:49 19.03.2022
4688 Clouds 20 1014 19 10000 1.79 123 18:58 19.03.2022
4689 Clouds 17 1016 18 10000 4.12 70 18:24 19.03.2022
4690 Clouds 16 1016 22 10000 0 0 17:35 19.03.2022
4691 Clouds 12 1016 22 10000 4.63 80 15:46 19.03.2022
4692 Clear 12 1017 24 10000 4.63 90 14:57 19.03.2022
4693 Clouds 12 1016 22 10000 4.12 60 13:19 19.03.2022
4694 Clear 12 1016 24 10000 2.57 290 12:40 19.03.2022
4695 Clear 13 1016 22 10000 3.6 210 11:54 19.03.2022
4696 Clear 13 1016 22 10000 3.6 210 11:54 19.03.2022
4697 Clear 13 1017 21 10000 4.12 180 10:53 19.03.2022
4698 Clear 15 1017 20 10000 4.12 200 07:33 19.03.2022
4699 Clouds 20 1016 15 10000 3.6 120 03:49 19.03.2022
4700 Clouds 23 1016 12 10000 4.12 80 02:29 19.03.2022
4701 Clouds 24 1017 13 10000 2.68 50 23:45 18.03.2022
4702 Clouds 22 1018 13 10000 2.06 100 22:28 18.03.2022
4703 Clouds 22 1019 14 10000 3.13 0 21:45 18.03.2022
4704 Clouds 20 1020 16 10000 3.6 60 19:52 18.03.2022
4705 Clouds 20 1020 16 10000 3.6 60 19:52 18.03.2022
4706 Clouds 19 1020 16 10000 3.6 60 19:21 18.03.2022
4707 Clear 16 1020 20 10000 2.57 310 17:52 18.03.2022
4708 Clear 12 1020 22 10000 2.06 300 16:49 18.03.2022
4709 Clear 10 1019 23 10000 4.12 190 15:32 18.03.2022
4710 Clear 10 1018 24 10000 3.09 180 14:23 18.03.2022
4711 Clear 10 1018 24 10000 3.6 180 12:36 18.03.2022
4712 Clouds 11 1018 23 10000 3.09 170 10:53 18.03.2022
4713 Clouds 11 1018 22 10000 2.57 310 09:30 18.03.2022
4714 Clouds 12 1018 23 10000 3.6 160 08:32 18.03.2022
4715 Clouds 14 1018 21 10000 3.09 40 06:35 18.03.2022
4716 Clouds 18 1016 18 10000 3.09 60 02:57 18.03.2022
4717 Clouds 20 1018 15 10000 2.57 330 00:23 18.03.2022
4718 Clouds 21 1019 14 10000 4.63 60 23:38 17.03.2022
4719 Clouds 20 1020 16 10000 4.63 30 22:25 17.03.2022
4720 Clouds 20 1022 17 10000 5.66 50 21:48 17.03.2022
4721 Clouds 19 1022 18 10000 5.66 50 21:23 17.03.2022
4722 Clouds 19 1023 20 10000 6.17 30 20:45 17.03.2022
4723 Clouds 17 1023 23 10000 7.2 30 19:50 17.03.2022
4724 Clouds 17 1023 23 10000 7.2 30 19:28 17.03.2022
4725 Clouds 16 1023 25 10000 6.69 50 18:46 17.03.2022
4726 Clear 14 1021 31 10000 1.81 42 16:57 17.03.2022
4727 Clouds 11 1022 29 10000 6.69 90 15:44 17.03.2022
4728 Clouds 11 1021 28 10000 9.26 30 15:25 17.03.2022
4729 Clear 11 1020 28 10000 8.23 50 14:29 17.03.2022
4730 Clear 13 1019 28 10000 5.36 360 12:54 17.03.2022
4731 Clear 14 1019 27 10000 7.72 330 12:23 17.03.2022
4732 Clear 14 1019 28 10000 4.63 350 11:27 17.03.2022
4733 Clear 14 1019 34 10000 3.6 20 10:29 17.03.2022
4734 Clear 15 1019 37 10000 6.17 60 08:37 17.03.2022
4735 Clouds 15 1018 37 10000 4.63 360 07:34 17.03.2022
4736 Clouds 17 1016 34 10000 7.72 30 05:47 17.03.2022
4737 Clouds 17 1016 34 10000 7.72 30 05:47 17.03.2022
4738 Clouds 23 1012 18 10000 11.32 310 01:30 17.03.2022
4739 Clouds 24 1012 18 10000 7.2 10 23:50 16.03.2022
4740 Clouds 24 1013 19 10000 7.72 350 22:48 16.03.2022
4741 Clouds 24 1013 19 10000 7.72 350 22:30 16.03.2022
4742 Clouds 23 1015 20 10000 8.23 330 21:39 16.03.2022
4743 Clouds 22 1015 24 10000 9.77 320 19:41 16.03.2022
4744 Clouds 22 1015 25 10000 9.77 320 19:20 16.03.2022
4745 Clear 20 1015 29 10000 11.32 310 18:37 16.03.2022
4746 Clouds 19 1015 32 10000 10.8 320 17:43 16.03.2022
4747 Clouds 19 1015 32 10000 10.8 320 17:19 16.03.2022
4748 Clouds 15 1014 35 10000 7.72 320 15:55 16.03.2022
4749 Clouds 16 1013 35 10000 3.09 320 14:25 16.03.2022
4750 Clouds 16 1013 33 10000 3.6 340 13:27 16.03.2022
4751 Clouds 17 1013 29 10000 3.09 180 11:54 16.03.2022
4752 Clouds 17 1014 29 10000 4.12 340 11:20 16.03.2022
4753 Clouds 18 1014 29 10000 6.17 320 10:23 16.03.2022
4754 Clouds 18 1014 25 10000 3.6 320 08:52 16.03.2022
4755 Clouds 18 1014 25 10000 0.45 288 05:58 16.03.2022
4756 Clouds 24 1015 15 10000 3.13 50 01:35 16.03.2022
4757 Clouds 24 1018 16 10000 5.14 30 22:38 15.03.2022
4758 Clouds 23 1020 17 10000 3.6 60 21:52 15.03.2022
4759 Clouds 21 1022 18 10000 3.6 70 20:18 15.03.2022
4760 Clouds 19 1023 22 10000 0.89 115 18:54 15.03.2022
4761 Clouds 14 1022 30 10000 0 0 16:55 15.03.2022
4762 Clouds 12 1023 34 10000 1.54 330 16:28 15.03.2022
4763 Clear 10 1022 37 10000 0.89 298 14:57 15.03.2022
4764 Clouds 10 1022 34 10000 3.6 170 14:34 15.03.2022
4765 Clouds 10 1022 35 10000 3.09 180 13:28 15.03.2022
4766 Smoke 11 1022 32 10000 4.12 210 12:21 15.03.2022
4767 Smoke 12 1023 31 10000 3.6 190 11:29 15.03.2022
4768 Clouds 13 1023 29 10000 3.6 190 09:39 15.03.2022
4769 Clouds 13 1023 28 10000 3.6 160 08:32 15.03.2022
4770 Clouds 14 1023 27 10000 3.09 300 07:50 15.03.2022
4771 Clouds 15 1024 27 10000 3.09 150 06:51 15.03.2022
4772 Clouds 20 1023 19 10000 2.24 130 02:38 15.03.2022
4773 Clouds 20 1023 20 10000 4.63 50 23:38 14.03.2022
4774 Clouds 20 1023 20 10000 4.63 50 23:20 14.03.2022
4775 Clouds 20 1022 24 10000 1.43 58 21:59 14.03.2022
4776 Clouds 19 1025 22 10000 5.66 50 21:20 14.03.2022
4777 Clouds 19 1026 23 10000 6.69 40 20:34 14.03.2022
4778 Clouds 18 1026 24 10000 7.72 30 19:47 14.03.2022
4779 Clouds 16 1026 26 10000 9.26 30 18:23 14.03.2022
4780 Clouds 15 1026 28 10000 6.71 50 17:43 14.03.2022
4781 Clouds 13 1025 28 10000 5.14 60 16:54 14.03.2022
4782 Clouds 11 1024 29 10000 4.12 40 15:29 14.03.2022
4783 Clouds 11 1023 27 10000 5.81 80 14:24 14.03.2022
4784 Clouds 13 1020 22 10000 3.6 330 11:36 14.03.2022
4785 Clouds 14 1020 18 10000 5.14 350 10:23 14.03.2022
4786 Clouds 14 1019 18 10000 2.06 360 09:38 14.03.2022
4787 Clouds 15 1019 17 10000 6.69 10 09:18 14.03.2022
4788 Clouds 15 1018 17 10000 4.12 10 08:46 14.03.2022
4789 Clear 16 1017 16 10000 3.6 320 07:21 14.03.2022
4790 Clear 19 1014 14 10000 3.6 230 04:22 14.03.2022
4791 Clouds 23 1013 13 10000 5.14 190 01:46 14.03.2022
4792 Clouds 22 1013 14 10000 3.6 320 00:35 14.03.2022
4793 Clouds 19 1014 16 10000 1.54 0 21:55 13.03.2022
4794 Clouds 19 1014 16 10000 1.54 0 21:26 13.03.2022
4795 Clouds 17 1015 17 10000 2.68 50 20:46 13.03.2022
4796 Clouds 17 1015 17 10000 2.68 50 20:23 13.03.2022
4797 Clouds 15 1016 19 10000 3.09 10 19:42 13.03.2022
4798 Clouds 15 1016 19 10000 3.09 10 19:23 13.03.2022
4799 Clouds 15 1016 19 10000 3.09 10 19:23 13.03.2022
4800 Clouds 15 1016 19 10000 3.09 10 19:23 13.03.2022
4801 Clouds 15 1016 19 10000 3.09 10 19:23 13.03.2022
4802 Clouds 14 1016 20 10000 5.66 80 18:45 13.03.2022
4803 Clouds 14 1016 20 10000 5.66 80 18:26 13.03.2022
4804 Clouds 12 1016 21 10000 5.14 80 17:39 13.03.2022
4805 Clouds 10 1015 23 10000 4.63 190 16:46 13.03.2022
4806 Clouds 10 1015 23 10000 4.63 190 16:25 13.03.2022
4807 Clouds 9 1014 24 10000 4.12 200 15:42 13.03.2022
4808 Clear 8 1015 23 10000 5.14 200 14:49 13.03.2022
4809 Clear 9 1015 22 10000 4.12 180 13:29 13.03.2022
4810 Clear 9 1015 24 10000 2.57 330 12:25 13.03.2022
4811 Clear 10 1016 22 10000 2.57 340 11:44 13.03.2022
4812 Clear 10 1017 21 10000 4.12 220 10:50 13.03.2022
4813 Clear 11 1017 20 10000 4.12 220 10:30 13.03.2022
4814 Clear 11 1018 20 10000 4.12 200 09:42 13.03.2022
4815 Clear 11 1018 20 10000 4.12 190 08:50 13.03.2022
4816 Clear 12 1018 20 10000 4.12 190 08:30 13.03.2022
4817 Clear 12 1018 18 10000 2.57 180 07:19 13.03.2022
4818 Clear 14 1018 21 10000 0.17 12 04:58 13.03.2022
4819 Clear 20 1019 13 10000 1.54 160 01:48 13.03.2022
4820 Clear 20 1021 12 10000 3.13 90 23:28 12.03.2022
4821 Clear 18 1024 12 10000 2.24 0 21:39 12.03.2022
4822 Clear 17 1025 13 10000 2.68 50 20:19 12.03.2022
4823 Clear 16 1026 13 10000 2.06 10 19:46 12.03.2022
4824 Clear 14 1027 15 10000 2.57 30 18:40 12.03.2022
4825 Clear 12 1027 17 10000 0.45 117 17:49 12.03.2022
4826 Clear 7 1027 23 10000 3.09 160 16:28 12.03.2022
4827 Clear 6 1026 22 10000 4.12 160 15:48 12.03.2022
4828 Clear 6 1026 22 10000 4.12 160 15:19 12.03.2022
4829 Clear 6 1026 21 10000 4.12 160 13:53 12.03.2022
4830 Clear 7 1027 19 10000 4.12 170 12:27 12.03.2022
4831 Clear 8 1027 19 10000 4.63 160 11:52 12.03.2022
4832 Clear 8 1027 19 10000 4.63 160 11:32 12.03.2022
4833 Clear 8 1027 18 10000 3.6 190 10:18 12.03.2022
4834 Clear 8 1027 18 10000 4.63 180 09:41 12.03.2022
4835 Clear 10 1027 17 10000 3.09 200 07:52 12.03.2022
4836 Clear 10 1027 17 10000 3.6 160 06:30 12.03.2022
4837 Clouds 16 1027 12 10000 3.6 20 00:31 12.03.2022
4838 Clouds 15 1027 12 10000 3.09 50 23:38 11.03.2022
4839 Clouds 15 1028 12 10000 2.06 320 22:29 11.03.2022
4840 Clear 13 1029 13 10000 4.12 130 21:23 11.03.2022
4841 Clear 13 1030 14 10000 4.12 70 20:42 11.03.2022
4842 Clear 12 1030 14 10000 4.12 70 20:22 11.03.2022
4843 Clear 11 1030 14 10000 6.69 60 19:29 11.03.2022
4844 Clear 8 1030 19 10000 3.13 60 17:50 11.03.2022
4845 Clear 7 1030 19 10000 3.13 60 17:21 11.03.2022
4846 Clear 3 1028 28 10000 6.17 60 15:57 11.03.2022
4847 Clear 3 1028 24 10000 6.17 60 15:29 11.03.2022
4848 Clear 5 1026 21 10000 6.71 360 13:28 11.03.2022
4849 Clear 4 1026 21 10000 7.2 10 12:30 11.03.2022
4850 Clear 4 1027 24 10000 5.14 40 11:57 11.03.2022
4851 Clear 6 1025 20 10000 6.71 30 10:24 11.03.2022
4852 Clear 6 1025 17 10000 5.81 10 09:32 11.03.2022
4853 Clear 7 1025 18 10000 6.69 10 08:25 11.03.2022
4854 Clear 7 1024 18 10000 7.2 20 07:46 11.03.2022
4855 Clear 8 1023 17 10000 6.69 20 06:25 11.03.2022
4856 Clear 9 1020 16 10000 7.2 30 04:24 11.03.2022
4857 Clouds 12 1017 14 10000 11.83 340 00:39 11.03.2022
4858 Clouds 12 1016 18 10000 13.89 20 22:32 10.03.2022
4859 Clouds 12 1016 21 10000 12.52 340 21:52 10.03.2022
4860 Clouds 12 1016 22 10000 12.52 340 21:24 10.03.2022
4861 Clouds 11 1015 25 10000 11.32 10 19:54 10.03.2022
4862 Clouds 10 1015 26 10000 11.16 342 18:56 10.03.2022
4863 Clouds 11 1013 35 10000 13.38 320 17:37 10.03.2022
4864 Clouds 11 1011 41 10000 9.77 330 16:42 10.03.2022
4865 Clouds 11 1009 49 10000 4.12 20 15:27 10.03.2022
4866 Clouds 13 1008 44 10000 8.75 360 13:30 10.03.2022
4867 Clouds 13 1007 38 10000 10.29 320 12:34 10.03.2022
4868 Clouds 13 1007 33 10000 8.75 330 11:23 10.03.2022
4869 Clouds 14 1007 27 10000 6.17 320 09:27 10.03.2022
4870 Clouds 15 1007 35 10000 7.72 310 07:46 10.03.2022
4871 Clear 17 1006 23 10000 1.45 273 04:59 10.03.2022
4872 Clouds 21 1007 17 10000 5.14 230 01:53 10.03.2022
4873 Clouds 21 1009 18 10000 3.6 160 23:29 09.03.2022
4874 Clouds 20 1011 19 10000 6.69 250 21:54 09.03.2022
4875 Clouds 20 1011 19 10000 6.69 180 21:34 09.03.2022
4876 Clouds 18 1013 21 10000 3.6 210 19:55 09.03.2022
4877 Clouds 15 1014 23 10000 3.6 90 18:34 09.03.2022
4878 Clouds 13 1014 26 10000 3.09 210 17:27 09.03.2022
4879 Clouds 10 1014 30 10000 3.6 200 16:34 09.03.2022
4880 Clouds 8 1013 33 10000 4.12 190 15:31 09.03.2022
4881 Clouds 8 1013 30 10000 5.14 190 13:54 09.03.2022
4882 Clouds 8 1013 29 10000 4.63 210 12:48 09.03.2022
4883 Clear 8 1014 29 10000 5.14 210 11:54 09.03.2022
4884 Clear 9 1013 30 10000 5.14 210 11:35 09.03.2022
4885 Clear 9 1014 28 10000 4.12 180 10:34 09.03.2022
4886 Clear 10 1014 29 10000 1.34 234 08:57 09.03.2022
4887 Clear 10 1015 27 10000 4.63 220 07:54 09.03.2022
4888 Clouds 15 1016 21 10000 1.54 160 02:57 09.03.2022
4889 Clouds 16 1017 19 10000 2.68 0 00:43 09.03.2022
4890 Clouds 16 1019 20 10000 2.68 0 22:47 08.03.2022
4891 Clouds 15 1019 20 10000 2.68 0 22:26 08.03.2022
4892 Clouds 15 1021 22 10000 3.6 90 21:23 08.03.2022
4893 Clouds 14 1022 22 10000 3.09 130 20:35 08.03.2022
4894 Clouds 13 1023 22 10000 3.09 120 19:35 08.03.2022
4895 Clouds 11 1024 24 10000 4.63 340 18:44 08.03.2022
4896 Clouds 9 1024 26 10000 2.68 40 17:30 08.03.2022
4897 Clear 4 1025 34 10000 4.63 50 15:56 08.03.2022
4898 Clear 5 1024 30 10000 5.14 350 14:19 08.03.2022
4899 Clear 6 1024 29 10000 3.6 20 12:43 08.03.2022
4900 Clear 6 1024 28 10000 3.09 90 11:45 08.03.2022
4901 Clear 7 1024 27 10000 4.63 30 10:44 08.03.2022
4902 Clear 7 1024 26 10000 4.63 50 09:43 08.03.2022
4903 Clear 9 1024 23 10000 7.2 20 06:43 08.03.2022
4904 Clear 11 1023 19 10000 4.63 20 04:52 08.03.2022
4905 Clouds 14 1023 18 10000 10.29 30 23:50 07.03.2022
4906 Clouds 13 1025 21 10000 7.2 10 21:54 07.03.2022
4907 Clouds 13 1025 21 10000 7.2 10 21:31 07.03.2022
4908 Clouds 12 1026 21 10000 10.8 320 20:44 07.03.2022
4909 Clouds 11 1026 23 10000 10.8 340 19:55 07.03.2022
4910 Clouds 11 1026 24 10000 11.83 320 19:29 07.03.2022
4911 Clouds 10 1026 25 10000 11.83 340 18:40 07.03.2022
4912 Clouds 9 1025 26 10000 9.77 320 17:41 07.03.2022
4913 Clouds 8 1025 29 10000 5.81 17 16:55 07.03.2022
4914 Clouds 6 1024 30 10000 10.29 320 15:32 07.03.2022
4915 Clouds 7 1022 34 10000 5.36 331 12:54 07.03.2022
4916 Clouds 7 1022 33 10000 6.69 330 12:21 07.03.2022
4917 Clear 8 1022 33 10000 7.2 310 10:36 07.03.2022
4918 Clear 10 1021 29 10000 4.63 330 08:39 07.03.2022
4919 Clouds 13 1019 28 10000 4.12 300 03:41 07.03.2022
4920 Clouds 15 1018 26 10000 5.14 310 00:22 07.03.2022
4921 Clouds 16 1019 26 10000 5.66 300 23:29 06.03.2022
4922 Clouds 15 1019 27 10000 7.72 340 22:32 06.03.2022
4923 Clouds 15 1019 27 10000 7.2 340 21:45 06.03.2022
4924 Clouds 13 1019 30 10000 9.26 320 20:30 06.03.2022
4925 Clouds 13 1019 32 10000 8.23 320 19:50 06.03.2022
4926 Clouds 11 1019 36 10000 7.72 330 18:51 06.03.2022
4927 Clouds 10 1018 42 10000 3.09 150 17:53 06.03.2022
4928 Clouds 9 1018 43 10000 3.09 150 17:20 06.03.2022
4929 Clouds 7 1018 48 10000 3.09 190 16:40 06.03.2022
4930 Clouds 5 1017 54 10000 3.09 280 15:37 06.03.2022
4931 Clouds 5 1016 55 10000 5.66 320 14:49 06.03.2022
4932 Clouds 5 1016 55 10000 5.66 320 14:28 06.03.2022
4933 Clouds 6 1015 55 10000 7.2 320 12:43 06.03.2022
4934 Clear 6 1014 56 10000 8.23 310 11:56 06.03.2022
4935 Clouds 6 1014 56 10000 11.32 300 10:45 06.03.2022
4936 Clouds 6 1013 53 10000 10.29 290 09:34 06.03.2022
4937 Clouds 7 1013 45 10000 10.29 300 08:28 06.03.2022
4938 Clouds 7 1012 41 10000 10.29 310 07:33 06.03.2022
4939 Clouds 9 1011 29 10000 1.34 322 03:58 06.03.2022
4940 Clouds 12 1010 22 10000 10.8 210 00:42 06.03.2022
4941 Clouds 12 1010 22 10000 10.8 210 00:23 06.03.2022
4942 Clouds 13 1010 21 10000 7.2 240 23:19 05.03.2022
4943 Clouds 12 1010 27 10000 9.26 240 22:42 05.03.2022
4944 Clouds 12 1011 28 10000 10.29 260 21:36 05.03.2022
4945 Clouds 11 1010 31 10000 10.29 230 20:57 05.03.2022
4946 Clouds 11 1010 23 10000 12.35 220 19:23 05.03.2022
4947 Clouds 11 1010 23 10000 12.35 220 18:50 05.03.2022
4948 Clouds 11 1010 29 10000 11.83 220 17:39 05.03.2022
4949 Dust 10 1009 36 10000 12.35 210 16:20 05.03.2022
4950 Dust 10 1009 42 10000 8.94 210 15:30 05.03.2022
4951 Dust 11 1008 44 10000 10.29 200 14:42 05.03.2022
4952 Dust 11 1008 43 10000 10.29 200 14:24 05.03.2022
4953 Clouds 11 1007 47 10000 9.77 190 12:55 05.03.2022
4954 Clouds 12 1008 50 10000 9.26 180 11:39 05.03.2022
4955 Clouds 12 1008 50 10000 9.26 180 11:18 05.03.2022
4956 Clouds 12 1009 49 10000 8.23 220 09:40 05.03.2022
4957 Clouds 12 1009 48 10000 8.75 190 08:46 05.03.2022
4958 Clouds 13 1009 45 10000 7.2 180 07:23 05.03.2022
4959 Clouds 13 1009 45 10000 7.2 180 07:23 05.03.2022
4960 Clouds 14 1009 40 10000 7.2 210 05:39 05.03.2022
4961 Clouds 18 1008 28 10000 9.77 210 00:51 05.03.2022
4962 Clouds 18 1008 28 10000 9.77 230 23:30 04.03.2022
4963 Clouds 18 1008 28 10000 8.75 160 22:40 04.03.2022
4964 Clouds 18 1008 29 10000 8.23 180 21:45 04.03.2022
4965 Clouds 18 1009 31 10000 9.26 170 20:48 04.03.2022
4966 Clouds 17 1009 32 10000 9.77 200 19:39 04.03.2022
4967 Clouds 16 1007 34 10000 5.31 197 18:59 04.03.2022
4968 Clouds 16 1008 34 10000 9.26 200 18:36 04.03.2022
4969 Clouds 14 1008 35 10000 8.23 190 17:29 04.03.2022
4970 Clouds 13 1007 36 10000 7.72 180 16:26 04.03.2022
4971 Clouds 13 1007 32 10000 7.2 220 15:27 04.03.2022
4972 Clouds 14 1006 26 10000 4.63 180 13:38 04.03.2022
4973 Clouds 14 1006 24 10000 4.63 170 12:48 04.03.2022
4974 Clouds 15 1007 23 10000 4.63 130 11:37 04.03.2022
4975 Clouds 15 1007 21 10000 4.63 190 10:30 04.03.2022
4976 Clouds 15 1007 20 10000 4.12 170 09:28 04.03.2022
4977 Clouds 17 1007 18 10000 4.12 220 08:20 04.03.2022
4978 Clouds 18 1007 17 10000 3.6 160 06:55 04.03.2022
4979 Clouds 24 1007 12 10000 7.2 180 02:52 04.03.2022
4980 Clouds 26 1010 13 10000 4.63 40 23:43 03.03.2022
4981 Clouds 25 1011 14 10000 3.6 20 22:18 03.03.2022
4982 Clear 24 1012 16 10000 4.02 70 21:37 03.03.2022
4983 Clouds 24 1009 19 10000 2.09 137 20:56 03.03.2022
4984 Clouds 22 1014 16 10000 2.06 70 19:42 03.03.2022
4985 Clouds 20 1014 18 10000 2.06 150 18:44 03.03.2022
4986 Clouds 18 1015 20 10000 3.09 190 17:43 03.03.2022
4987 Clouds 17 1015 20 10000 3.09 190 17:24 03.03.2022
4988 Clouds 13 1014 23 10000 2.57 190 15:47 03.03.2022
4989 Clouds 13 1014 22 10000 3.6 160 14:51 03.03.2022
4990 Clouds 14 1014 22 10000 3.6 160 14:32 03.03.2022
4991 Clouds 14 1014 22 10000 2.57 280 12:44 03.03.2022
4992 Clouds 14 1014 22 10000 3.09 290 11:32 03.03.2022
4993 Clouds 14 1015 22 10000 3.09 280 10:39 03.03.2022
4994 Clouds 15 1016 20 10000 2.57 180 08:44 03.03.2022
4995 Clouds 17 1014 18 10000 0.53 235 06:58 03.03.2022
4996 Clouds 17 1016 17 10000 4.12 160 06:23 03.03.2022
4997 Clouds 26 1017 12 10000 3.6 130 00:40 03.03.2022
4998 Clouds 25 1018 11 10000 2.24 80 23:28 02.03.2022
4999 Clouds 25 1018 15 10000 2.57 100 22:44 02.03.2022
5000 Clouds 24 1020 15 10000 3.6 40 21:23 02.03.2022
5001 Clouds 24 1020 15 10000 3.6 40 21:23 02.03.2022
5002 Clouds 22 1021 16 10000 6.17 60 20:30 02.03.2022
5003 Clouds 21 1021 17 10000 2.06 50 19:45 02.03.2022
5004 Clouds 21 1021 17 10000 2.06 50 19:26 02.03.2022
5005 Clouds 19 1021 18 10000 0 0 18:39 02.03.2022
5006 Clouds 19 1021 18 10000 0 0 18:39 02.03.2022
5007 Clouds 19 1021 18 10000 0 0 18:39 02.03.2022
5008 Clouds 17 1021 20 10000 2.06 290 17:45 02.03.2022
5009 Clouds 13 1021 23 10000 3.09 170 16:54 02.03.2022
5010 Clouds 11 1021 25 10000 3.09 170 16:36 02.03.2022
5011 Clouds 10 1021 24 10000 3.6 160 14:42 02.03.2022
5012 Clouds 11 1020 24 10000 1.54 210 13:23 02.03.2022
5013 Clouds 12 1020 23 10000 4.12 180 12:40 02.03.2022
5014 Clouds 12 1021 22 10000 3.6 180 11:38 02.03.2022
5015 Clouds 13 1021 21 10000 3.6 180 11:18 02.03.2022
5016 Clear 14 1021 19 10000 5.14 190 09:41 02.03.2022
5017 Clear 15 1021 17 10000 3.6 180 08:51 02.03.2022
5018 Clear 16 1020 17 10000 4.12 170 07:25 02.03.2022
5019 Clouds 17 1020 15 10000 4.12 160 05:44 02.03.2022
5020 Clear 26 1017 15 10000 0.98 71 00:57 02.03.2022
5021 Clear 25 1020 12 10000 2.57 0 23:46 01.03.2022
5022 Clear 24 1021 13 10000 1.54 0 22:45 01.03.2022
5023 Clear 24 1019 18 10000 1.14 39 21:56 01.03.2022
5024 Clear 22 1022 14 10000 3.6 20 21:21 01.03.2022
5025 Clear 21 1023 15 10000 2.06 20 20:24 01.03.2022
5026 Clear 19 1024 17 10000 2.06 20 19:23 01.03.2022
5027 Clear 18 1024 17 10000 2.06 140 18:35 01.03.2022
5028 Clear 15 1024 20 10000 1.54 180 17:55 01.03.2022
5029 Clear 11 1024 27 10000 3.09 170 16:54 01.03.2022
5030 Clear 10 1024 27 10000 3.09 180 15:59 01.03.2022
5031 Clear 9 1023 26 10000 3.09 290 15:23 01.03.2022
5032 Clear 9 1023 26 10000 2.06 300 14:34 01.03.2022
5033 Clear 10 1023 25 10000 2.57 300 13:27 01.03.2022
5034 Clear 11 1021 25 10000 1.67 8 12:58 01.03.2022
5035 Clear 10 1023 23 10000 3.6 160 12:22 01.03.2022
5036 Clear 12 1023 21 10000 4.63 160 10:26 01.03.2022
5037 Clear 13 1022 20 10000 3.6 160 08:36 01.03.2022
5038 Clear 14 1022 19 10000 3.09 20 07:36 01.03.2022
5039 Clear 17 1022 15 10000 2.57 260 04:28 01.03.2022
5040 Clear 23 1020 14 10000 3.96 42 00:59 01.03.2022
5041 Clouds 23 1022 11 10000 5.66 40 23:48 28.02.2022
5042 Clouds 22 1023 12 10000 6.69 50 22:52 28.02.2022
5043 Clouds 21 1025 13 10000 4.63 50 21:50 28.02.2022
5044 Clouds 20 1025 13 10000 4.63 50 21:24 28.02.2022
5045 Clouds 17 1027 15 10000 6.69 40 19:52 28.02.2022
5046 Clouds 16 1027 16 10000 6.69 40 19:22 28.02.2022
5047 Clouds 14 1027 17 10000 3.6 70 18:36 28.02.2022
5048 Clouds 12 1027 19 10000 3.09 60 17:23 28.02.2022
5049 Clouds 8 1027 23 10000 3.09 160 16:32 28.02.2022
5050 Clouds 6 1026 25 10000 2.57 180 15:23 28.02.2022
5051 Clouds 6 1026 23 10000 4.63 70 14:30 28.02.2022
5052 Clouds 7 1026 23 10000 4.63 40 13:34 28.02.2022
5053 Clouds 8 1027 21 10000 3.09 70 12:31 28.02.2022
5054 Clouds 7 1026 22 10000 3.09 360 11:37 28.02.2022
5055 Clear 8 1027 22 10000 3.09 320 10:44 28.02.2022
5056 Clear 8 1027 21 10000 3.09 320 10:19 28.02.2022
5057 Clear 9 1027 19 10000 3.6 170 09:30 28.02.2022
5058 Clouds 10 1027 19 10000 4.12 200 08:26 28.02.2022
5059 Clouds 10 1027 19 10000 3.6 40 07:19 28.02.2022
5060 Clouds 12 1027 18 10000 2.24 280 04:31 28.02.2022
5061 Clouds 14 1027 16 10000 2.68 340 03:30 28.02.2022
5062 Clouds 17 1028 13 10000 4.63 20 23:26 27.02.2022
5063 Clear 16 1028 14 10000 3.6 330 22:33 27.02.2022
5064 Clouds 15 1029 15 10000 5.66 60 21:47 27.02.2022
5065 Clouds 14 1030 16 10000 2.06 10 20:54 27.02.2022
5066 Clouds 14 1030 17 10000 3.6 110 20:27 27.02.2022
5067 Clouds 14 1032 18 10000 0.89 110 19:56 27.02.2022
5068 Clouds 12 1031 17 10000 2.57 10 19:26 27.02.2022
5069 Clouds 11 1032 19 10000 2.06 260 18:39 27.02.2022
5070 Clouds 9 1032 22 10000 2.06 170 17:54 27.02.2022
5071 Clouds 4 1031 26 10000 2.57 330 16:37 27.02.2022
5072 Clouds 3 1030 31 10000 3.09 160 15:55 27.02.2022
5073 Clouds 3 1030 28 10000 2.57 140 13:21 27.02.2022
5074 Clouds 4 1030 27 10000 2.57 180 12:32 27.02.2022
5075 Clouds 5 1030 24 10000 4.12 160 10:54 27.02.2022
5076 Clouds 5 1030 25 10000 1.03 31 09:58 27.02.2022
5077 Clouds 6 1030 22 10000 3.09 170 09:37 27.02.2022
5078 Clouds 6 1030 22 10000 3.09 170 09:18 27.02.2022
5079 Clouds 7 1030 22 10000 3.09 170 06:44 27.02.2022
5080 Clear 7 1030 21 10000 2.57 160 05:36 27.02.2022
5081 Clear 13 1029 15 10000 4.63 50 00:52 27.02.2022
5082 Clear 13 1030 18 10000 5.14 40 22:56 26.02.2022
5083 Clear 11 1030 19 10000 6.69 40 21:39 26.02.2022
5084 Clear 10 1031 19 10000 7.2 50 20:52 26.02.2022
5085 Clear 10 1031 20 10000 7.2 50 20:19 26.02.2022
5086 Clear 9 1031 22 10000 8.23 40 19:41 26.02.2022
5087 Clear 7 1031 26 10000 7.72 60 18:49 26.02.2022
5088 Clear 6 1031 29 10000 8.23 10 17:42 26.02.2022
5089 Clear 4 1030 34 10000 5.81 30 16:49 26.02.2022
5090 Clear 3 1029 35 10000 8.75 20 15:49 26.02.2022
5091 Clear 2 1029 37 10000 8.75 20 15:22 26.02.2022
5092 Clear 2 1028 39 10000 7.2 40 14:53 26.02.2022
5093 Clear 2 1028 37 10000 7.2 40 14:33 26.02.2022
5094 Clear 3 1028 36 10000 5.81 50 13:19 26.02.2022
5095 Clear 4 1027 36 10000 5.36 40 12:20 26.02.2022
5096 Clear 4 1027 34 10000 7.2 70 11:28 26.02.2022
5097 Clear 4 1027 35 10000 6.26 70 10:39 26.02.2022
5098 Clear 5 1026 33 10000 4.12 50 08:48 26.02.2022
5099 Clear 7 1025 29 10000 7.72 50 06:51 26.02.2022
5100 Clear 13 1022 14 10000 1.34 0 00:50 26.02.2022
5101 Clear 13 1023 17 10000 2.57 70 22:47 25.02.2022
5102 Clear 12 1024 18 10000 4.12 60 21:40 25.02.2022
5103 Clear 12 1024 18 10000 4.12 60 21:21 25.02.2022
5104 Clear 11 1025 20 10000 5.14 20 20:32 25.02.2022
5105 Clear 10 1027 24 10000 4.02 59 18:59 25.02.2022
5106 Clouds 6 1025 28 10000 3.6 360 17:27 25.02.2022
5107 Clouds 3 1024 35 10000 3.6 350 16:24 25.02.2022
5108 Clouds 2 1024 36 10000 6.69 310 15:43 25.02.2022
5109 Clouds 2 1024 34 10000 6.69 310 15:20 25.02.2022
5110 Clear 1 1023 36 10000 3.09 310 14:42 25.02.2022
5111 Clear 2 1023 36 10000 4.63 70 13:36 25.02.2022
5112 Clear 2 1023 38 10000 3.6 70 12:56 25.02.2022
5113 Clear 3 1023 34 10000 3.6 350 11:28 25.02.2022
5114 Clear 3 1023 34 10000 2.24 230 10:29 25.02.2022
5115 Clear 3 1023 34 10000 1.54 60 09:57 25.02.2022
5116 Clear 4 1023 33 10000 2.57 190 09:18 25.02.2022
5117 Clear 4 1022 31 10000 3.09 190 07:41 25.02.2022
5118 Clear 5 1022 29 10000 2.68 50 05:48 25.02.2022
5119 Clear 8 1021 25 10000 3.6 80 03:34 25.02.2022
5120 Clear 10 1022 23 10000 3.6 180 23:42 24.02.2022
5121 Clear 9 1024 25 10000 2.06 0 21:56 24.02.2022
5122 Clear 8 1024 25 10000 2.06 0 21:37 24.02.2022
5123 Clear 8 1024 25 10000 2.06 0 21:18 24.02.2022
5124 Clear 7 1026 29 10000 1.54 0 19:38 24.02.2022
5125 Clear 5 1026 32 10000 2.06 70 18:43 24.02.2022
5126 Clear 5 1026 33 10000 2.06 70 18:18 24.02.2022
5127 Clear 4 1025 36 10000 2.06 60 17:33 24.02.2022
5128 Clear 4 1025 36 10000 2.06 60 17:33 24.02.2022
5129 Clear 2 1025 43 10000 5.66 310 16:45 24.02.2022
5130 Clear 1 1025 44 10000 5.66 310 16:21 24.02.2022
5131 Clear 0 1023 49 10000 3.6 20 14:53 24.02.2022
5132 Clear 1 1023 46 10000 5.66 360 14:26 24.02.2022
5133 Clear 1 1023 47 10000 4.12 70 13:39 24.02.2022
5134 Clear 1 1023 47 10000 4.12 70 13:39 24.02.2022
5135 Clear 2 1021 49 10000 4.63 350 12:50 24.02.2022
5136 Clear 3 1020 40 10000 4.12 40 10:40 24.02.2022
5137 Clouds 4 1021 38 10000 0.89 5 08:59 24.02.2022
5138 Clouds 5 1019 34 10000 6.26 350 08:40 24.02.2022
5139 Clouds 6 1016 31 10000 8.94 320 05:52 24.02.2022
5140 Clouds 7 1011 43 10000 4.12 110 01:56 24.02.2022
5141 Clouds 9 1009 43 10000 6.69 250 22:56 23.02.2022
5142 Clouds 8 1009 40 10000 5.36 260 21:43 23.02.2022
5143 Clouds 8 1010 42 10000 5.66 330 20:31 23.02.2022
5144 Clouds 7 1010 46 10000 7.72 240 19:47 23.02.2022
5145 Clouds 6 1010 52 10000 6.69 290 18:32 23.02.2022
5146 Clouds 4 1009 55 10000 6.69 210 17:44 23.02.2022
5147 Clouds 3 1007 53 10000 6.69 210 14:44 23.02.2022
5148 Clouds 4 1007 53 10000 5.36 220 12:45 23.02.2022
5149 Clouds 4 1007 48 10000 5.49 236 11:59 23.02.2022
5150 Clouds 5 1006 44 10000 7.2 200 10:31 23.02.2022
5151 Clouds 7 1006 44 10000 5.4 242 08:59 23.02.2022
5152 Clouds 7 1006 47 10000 9.26 210 08:23 23.02.2022
5153 Clouds 9 1005 51 10000 12.86 220 03:49 23.02.2022
5154 Dust 14 1004 25 10000 12.35 220 00:39 23.02.2022
5155 Dust 14 1004 24 10000 13.89 230 23:38 22.02.2022
5156 Dust 13 1005 27 8047 12.86 220 22:32 22.02.2022
5157 Dust 13 1007 29 10000 13.89 200 21:49 22.02.2022
5158 Dust 13 1007 29 10000 13.89 200 21:30 22.02.2022
5159 Clouds 12 1008 31 10000 14.4 220 20:55 22.02.2022
5160 Clouds 12 1007 30 10000 14.4 220 20:29 22.02.2022
5161 Clouds 12 1008 33 10000 9.26 220 19:42 22.02.2022
5162 Clouds 11 1008 33 10000 9.26 220 19:19 22.02.2022
5163 Clouds 10 1008 39 10000 9.77 220 17:48 22.02.2022
5164 Clouds 9 1008 40 10000 9.77 220 17:21 22.02.2022
5165 Clouds 8 1008 43 10000 6.69 200 16:37 22.02.2022
5166 Clouds 7 1008 41 10000 8.75 190 15:40 22.02.2022
5167 Dust 6 1008 39 10000 5.36 200 14:44 22.02.2022
5168 Dust 8 1008 33 10000 4.63 220 12:23 22.02.2022
5169 Dust 9 1007 29 10000 5.36 240 10:50 22.02.2022
5170 Dust 11 1006 26 10000 6.17 220 08:41 22.02.2022
5171 Dust 12 1006 25 9656 5.66 190 07:26 22.02.2022
5172 Clear 14 1003 24 10000 2.91 271 04:59 22.02.2022
5173 Dust 18 1001 15 8047 12.86 220 01:45 22.02.2022
5174 Dust 18 1001 15 8047 12.86 220 01:45 22.02.2022
5175 Dust 18 1001 15 8047 12.86 220 01:45 22.02.2022
5176 Dust 19 1001 21 10000 12.35 240 22:46 21.02.2022
5177 Dust 18 1002 22 10000 11.83 210 21:33 21.02.2022
5178 Dust 17 1002 24 10000 13.89 220 20:35 21.02.2022
5179 Dust 17 1002 24 10000 13.89 220 20:35 21.02.2022
5180 Dust 16 1002 26 10000 11.32 190 18:46 21.02.2022
5181 Clouds 14 1001 29 10000 6.9 231 16:58 21.02.2022
5182 Clouds 14 1002 26 10000 8.23 180 15:20 21.02.2022
5183 Clouds 14 1002 27 10000 8.75 180 14:21 21.02.2022
5184 Clouds 14 1003 26 10000 3.13 180 13:20 21.02.2022
5185 Clouds 15 1004 26 10000 10.29 200 12:23 21.02.2022
5186 Clouds 16 1003 27 10000 6.09 227 10:58 21.02.2022
5187 Clouds 16 1005 23 10000 7.72 200 09:34 21.02.2022
5188 Clouds 19 1007 16 10000 5.36 190 05:35 21.02.2022
5189 Clouds 21 1009 15 10000 4.63 200 23:41 20.02.2022
5190 Clouds 20 1011 18 10000 6.69 240 22:21 20.02.2022
5191 Clouds 19 1013 19 10000 4.12 30 21:42 20.02.2022
5192 Clouds 18 1014 20 10000 2.24 0 20:53 20.02.2022
5193 Clouds 18 1014 20 10000 3.09 120 20:33 20.02.2022
5194 Clouds 16 1015 21 10000 2.57 120 19:31 20.02.2022
5195 Clouds 16 1015 21 10000 2.57 120 19:31 20.02.2022
5196 Clouds 15 1016 23 10000 1.54 10 18:50 20.02.2022
5197 Clouds 15 1016 24 10000 1.54 10 18:31 20.02.2022
5198 Clouds 13 1016 27 10000 2.06 200 17:47 20.02.2022
5199 Clouds 7 1015 32 10000 3.6 200 15:32 20.02.2022
5200 Clouds 8 1015 33 10000 3.6 170 14:41 20.02.2022
5201 Clouds 9 1015 31 10000 4.63 180 13:23 20.02.2022
5202 Clouds 9 1015 29 10000 3.09 190 12:22 20.02.2022
5203 Clouds 10 1017 27 10000 3.09 190 10:21 20.02.2022
5204 Clouds 11 1017 26 10000 4.12 190 09:53 20.02.2022
5205 Clear 11 1017 26 10000 3.09 300 07:45 20.02.2022
5206 Clear 20 1018 17 10000 2.57 70 00:54 20.02.2022
5207 Clear 21 1018 16 10000 2.57 70 00:29 20.02.2022
5208 Clear 20 1020 18 10000 3.09 70 22:25 19.02.2022
5209 Clear 19 1021 20 10000 3.6 70 21:57 19.02.2022
5210 Clear 18 1023 20 10000 3.13 70 20:51 19.02.2022
5211 Clear 17 1024 22 10000 2.57 30 19:42 19.02.2022
5212 Clear 16 1024 22 10000 1.34 30 19:20 19.02.2022
5213 Clear 14 1024 25 10000 3.6 20 18:29 19.02.2022
5214 Clear 12 1024 29 10000 3.09 290 17:33 19.02.2022
5215 Clear 8 1024 33 10000 3.09 190 16:22 19.02.2022
5216 Clear 8 1023 34 10000 0 0 14:56 19.02.2022
5217 Clear 7 1023 34 10000 3.6 190 14:37 19.02.2022
5218 Clear 9 1022 39 10000 1.17 7 11:59 19.02.2022
5219 Clear 8 1023 33 10000 3.6 290 11:36 19.02.2022
5220 Clear 10 1024 28 10000 3.6 160 09:34 19.02.2022
5221 Clear 13 1024 24 10000 2.57 160 06:53 19.02.2022
5222 Clouds 17 1023 17 10000 3.6 50 02:38 19.02.2022
5223 Clouds 19 1024 15 10000 2.24 0 23:28 18.02.2022
5224 Clouds 17 1026 16 10000 2.24 0 21:30 18.02.2022
5225 Clouds 16 1027 17 10000 2.24 30 20:33 18.02.2022
5226 Clouds 15 1028 19 10000 3.09 30 19:51 18.02.2022
5227 Clouds 13 1028 21 10000 1.54 310 18:49 18.02.2022
5228 Clouds 12 1028 21 10000 1.54 310 18:19 18.02.2022
5229 Clouds 9 1028 25 10000 2.57 180 17:21 18.02.2022
5230 Clouds 5 1026 29 10000 4.12 200 14:47 18.02.2022
5231 Clouds 6 1026 29 10000 2.57 180 13:54 18.02.2022
5232 Clouds 6 1026 28 10000 2.24 260 12:51 18.02.2022
5233 Clouds 7 1024 29 10000 1.1 331 11:58 18.02.2022
5234 Clouds 7 1026 30 10000 1.48 333 10:58 18.02.2022
5235 Clear 8 1026 25 10000 5.14 310 09:29 18.02.2022
5236 Clear 9 1026 24 10000 3.09 190 06:50 18.02.2022
5237 Clear 9 1026 24 10000 3.09 170 05:36 18.02.2022
5238 Clear 15 1026 17 10000 6.17 320 22:46 17.02.2022
5239 Clear 15 1027 19 10000 8.23 30 21:42 17.02.2022
5240 Clear 14 1028 20 10000 7.72 330 20:52 17.02.2022
5241 Clear 14 1028 20 10000 7.72 330 20:33 17.02.2022
5242 Clear 13 1028 22 10000 8.94 350 19:43 17.02.2022
5243 Clear 11 1028 24 10000 9.39 340 18:34 17.02.2022
5244 Clear 10 1028 27 10000 7.72 350 17:46 17.02.2022
5245 Clear 8 1027 31 10000 7.72 330 16:19 17.02.2022
5246 Clear 8 1025 31 10000 7.2 350 14:39 17.02.2022
5247 Clear 8 1025 30 10000 6.71 340 13:47 17.02.2022
5248 Clear 8 1024 31 10000 2.57 10 11:57 17.02.2022
5249 Clear 9 1024 29 10000 7.2 340 11:21 17.02.2022
5250 Clear 11 1021 27 10000 5.36 355 07:57 17.02.2022
5251 Clouds 18 1010 17 10000 9.77 310 00:20 17.02.2022
5252 Clouds 17 1010 23 10000 7.2 290 22:38 16.02.2022
5253 Clouds 15 1012 29 10000 8.23 340 20:24 16.02.2022
5254 Clear 14 1012 32 10000 9.26 330 19:23 16.02.2022
5255 Clouds 13 1011 34 10000 8.23 320 18:35 16.02.2022
5256 Clear 11 1011 40 10000 7.72 330 17:27 16.02.2022
5257 Clouds 10 1009 42 10000 7.72 330 15:24 16.02.2022
5258 Clouds 11 1008 39 10000 7.2 330 13:47 16.02.2022
5259 Clouds 11 1008 37 10000 8.23 320 12:27 16.02.2022
5260 Clouds 11 1007 37 10000 10.8 320 11:46 16.02.2022
5261 Clouds 11 1006 38 10000 8.23 340 10:35 16.02.2022
5262 Clouds 11 1006 40 10000 4.92 5 09:54 16.02.2022
5263 Clouds 12 1006 39 10000 10.29 10 06:44 16.02.2022
5264 Clouds 15 1003 23 10000 7.2 270 02:47 16.02.2022
5265 Clouds 18 1003 30 10000 9.77 210 22:34 15.02.2022
5266 Clouds 18 1003 29 10000 11.32 210 21:51 15.02.2022
5267 Clouds 18 1003 30 10000 11.32 210 21:30 15.02.2022
5268 Clear 18 1002 33 10000 5.81 259 20:58 15.02.2022
5269 Clouds 18 1003 29 10000 12.86 200 20:27 15.02.2022
5270 Clouds 18 1003 29 10000 14.4 200 19:46 15.02.2022
5271 Clouds 17 1003 29 10000 10.8 200 18:27 15.02.2022
5272 Clouds 16 1004 29 10000 6.69 190 17:55 15.02.2022
5273 Clouds 16 1004 29 10000 6.69 190 17:37 15.02.2022
5274 Clouds 15 1002 24 10000 10.29 180 15:43 15.02.2022
5275 Dust 16 1002 22 10000 10.8 210 14:31 15.02.2022
5276 Dust 16 1003 23 10000 8.23 180 13:25 15.02.2022
5277 Dust 17 1005 22 10000 12.35 220 11:41 15.02.2022
5278 Dust 18 1006 17 10000 14.92 220 10:30 15.02.2022
5279 Dust 18 1008 13 10000 8.75 170 08:48 15.02.2022
5280 Clouds 17 1009 13 10000 5.66 180 06:46 15.02.2022
5281 Clouds 21 1015 13 10000 3.6 80 23:35 14.02.2022
5282 Clouds 20 1017 16 10000 2.57 100 21:57 14.02.2022
5283 Clouds 18 1020 16 10000 2.06 40 20:54 14.02.2022
5284 Clouds 17 1021 16 10000 2.24 30 19:49 14.02.2022
5285 Clouds 17 1021 16 10000 2.24 30 19:29 14.02.2022
5286 Clouds 15 1021 18 10000 1.54 0 18:24 14.02.2022
5287 Clouds 12 1021 22 10000 3.09 200 17:30 14.02.2022
5288 Clouds 8 1021 25 10000 3.6 170 16:37 14.02.2022
5289 Clouds 8 1021 24 10000 3.6 180 15:22 14.02.2022
5290 Clouds 9 1021 20 10000 3.6 190 13:34 14.02.2022
5291 Clear 10 1019 20 10000 0.26 349 12:58 14.02.2022
5292 Clear 9 1022 20 10000 3.09 180 12:32 14.02.2022
5293 Clear 10 1022 20 10000 4.12 170 11:38 14.02.2022
5294 Clear 11 1023 19 10000 4.63 170 10:18 14.02.2022
5295 Clear 12 1023 19 10000 3.6 160 07:49 14.02.2022
5296 Clear 12 1023 17 10000 3.6 160 07:24 14.02.2022
5297 Clear 21 1025 12 10000 3.13 80 22:48 13.02.2022
5298 Clear 21 1025 13 10000 3.13 80 22:30 13.02.2022
5299 Clear 21 1025 15 10000 0.89 209 21:57 13.02.2022
5300 Clear 20 1026 14 10000 2.06 10 21:20 13.02.2022
5301 Clear 19 1028 15 10000 2.06 30 20:27 13.02.2022
5302 Clear 17 1028 19 10000 0.45 98 18:58 13.02.2022
5303 Clear 15 1028 19 10000 1.54 70 18:40 13.02.2022
5304 Clear 9 1027 26 10000 3.6 200 16:53 13.02.2022
5305 Clear 8 1027 25 10000 4.12 190 15:51 13.02.2022
5306 Clear 8 1026 25 10000 3.6 170 14:50 13.02.2022
5307 Clear 9 1026 24 10000 4.63 170 13:27 13.02.2022
5308 Clear 9 1026 23 10000 3.09 200 12:42 13.02.2022
5309 Clear 11 1027 22 10000 5.14 190 10:43 13.02.2022
5310 Clear 11 1027 22 10000 5.14 190 10:23 13.02.2022
5311 Clear 12 1026 18 10000 3.09 190 08:55 13.02.2022
5312 Clear 21 1024 11 10000 3.6 50 01:26 13.02.2022
5313 Clear 22 1024 11 10000 3.6 50 00:21 13.02.2022
5314 Clear 21 1026 13 10000 5.66 60 22:34 12.02.2022
5315 Clear 21 1024 18 10000 1.46 76 22:00 12.02.2022
5316 Clouds 20 1028 18 10000 4.63 50 20:55 12.02.2022
5317 Clouds 19 1028 18 10000 4.63 50 20:23 12.02.2022
5318 Clouds 17 1028 22 10000 2.24 100 18:54 12.02.2022
5319 Clouds 17 1028 22 10000 2.24 100 18:36 12.02.2022
5320 Clouds 14 1027 26 10000 2.06 170 17:39 12.02.2022
5321 Clouds 11 1026 30 10000 4.12 220 16:46 12.02.2022
5322 Clouds 11 1025 30 10000 0 0 15:53 12.02.2022
5323 Clouds 11 1025 31 10000 2.06 270 15:20 12.02.2022
5324 Clear 12 1025 30 10000 5.66 40 14:25 12.02.2022
5325 Clear 13 1024 29 10000 3.09 330 11:33 12.02.2022
5326 Clear 14 1023 26 10000 4.12 10 10:32 12.02.2022
5327 Clear 15 1023 25 10000 2.06 330 09:37 12.02.2022
5328 Clear 16 1022 25 10000 2.06 360 08:47 12.02.2022
5329 Clear 16 1022 24 10000 5.66 60 07:45 12.02.2022
5330 Clear 19 1020 20 10000 2.06 170 04:50 12.02.2022
5331 Clear 23 1018 15 10000 3.6 90 02:19 12.02.2022
5332 Clear 25 1017 17 10000 2.24 33 23:56 11.02.2022
5333 Clear 24 1019 17 10000 3.6 60 22:23 11.02.2022
5334 Clear 23 1020 20 10000 4.63 350 21:37 11.02.2022
5335 Clear 21 1021 24 10000 5.14 360 20:29 11.02.2022
5336 Clear 19 1021 27 10000 3.6 30 19:29 11.02.2022
5337 Clear 18 1021 30 10000 4.12 330 18:44 11.02.2022
5338 Clear 14 1021 36 10000 3.6 300 17:27 11.02.2022
5339 Clear 12 1020 40 10000 3.09 280 16:47 11.02.2022
5340 Clear 11 1020 40 10000 5.66 310 15:22 11.02.2022
5341 Clear 11 1020 39 10000 6.69 290 14:38 11.02.2022
5342 Clear 11 1020 40 10000 6.69 290 14:19 11.02.2022
5343 Clear 12 1019 39 10000 4.63 340 13:47 11.02.2022
5344 Clear 12 1020 38 10000 4.63 340 13:28 11.02.2022
5345 Clear 13 1020 34 10000 5.14 350 11:23 11.02.2022
5346 Clear 14 1020 33 10000 5.14 340 09:37 11.02.2022
5347 Clear 15 1021 32 10000 6.17 320 08:36 11.02.2022
5348 Clear 15 1020 32 10000 5.66 350 07:47 11.02.2022
5349 Clear 16 1020 30 10000 4.12 170 06:29 11.02.2022
5350 Clouds 21 1020 23 10000 2.57 60 02:22 11.02.2022
5351 Clouds 23 1022 22 10000 6.17 30 23:48 10.02.2022
5352 Clear 22 1023 24 10000 6.69 30 22:33 10.02.2022
5353 Clouds 21 1025 26 10000 5.14 10 21:42 10.02.2022
5354 Clear 20 1026 26 10000 5.36 10 20:50 10.02.2022
5355 Clear 19 1024 31 10000 3.06 23 19:58 10.02.2022
5356 Clear 19 1026 29 10000 3.58 40 19:23 10.02.2022
5357 Clear 17 1026 32 10000 7.2 340 18:33 10.02.2022
5358 Clear 15 1026 35 10000 5.14 350 17:23 10.02.2022
5359 Clear 13 1025 37 10000 6.17 350 16:43 10.02.2022
5360 Clear 13 1025 37 10000 5.81 50 15:41 10.02.2022
5361 Clear 13 1025 36 10000 5.81 50 15:21 10.02.2022
5362 Clear 13 1024 36 10000 6.69 330 14:35 10.02.2022
5363 Clear 13 1023 37 10000 2.68 348 13:56 10.02.2022
5364 Clear 14 1024 34 10000 6.17 360 13:19 10.02.2022
5365 Clear 15 1024 30 10000 8.75 10 11:53 10.02.2022
5366 Clear 15 1024 29 10000 8.75 10 11:32 10.02.2022
5367 Clear 16 1024 28 10000 7.72 360 10:23 10.02.2022
5368 Clear 16 1024 28 10000 7.2 20 09:44 10.02.2022
5369 Clear 16 1023 26 10000 6.71 350 08:40 10.02.2022
5370 Clear 16 1022 23 10000 3.13 20 06:33 10.02.2022
5371 Clouds 21 1020 14 10000 7.2 10 02:43 10.02.2022
5372 Clear 23 1019 15 10000 5.81 0 00:56 10.02.2022
5373 Clouds 23 1020 12 10000 6.17 340 00:38 10.02.2022
5374 Clouds 23 1020 11 10000 6.17 340 00:20 10.02.2022
5375 Clouds 23 1023 13 10000 3.6 10 22:54 09.02.2022
5376 Clouds 23 1023 12 10000 6.17 320 22:30 09.02.2022
5377 Clouds 22 1024 14 10000 5.66 340 21:47 09.02.2022
5378 Clouds 22 1024 12 10000 5.66 340 21:27 09.02.2022
5379 Clouds 20 1025 16 10000 7.2 330 20:43 09.02.2022
5380 Clouds 20 1025 15 10000 7.2 330 20:22 09.02.2022
5381 Clouds 18 1026 19 10000 6.17 340 19:41 09.02.2022
5382 Clouds 16 1026 22 10000 6.69 350 18:38 09.02.2022
5383 Clouds 10 1025 29 10000 1.54 220 16:55 09.02.2022
5384 Clouds 11 1023 27 10000 2.31 339 15:59 09.02.2022
5385 Clouds 9 1025 29 10000 3.6 310 15:22 09.02.2022
5386 Clear 10 1024 26 10000 3.09 350 12:43 09.02.2022
5387 Clear 11 1025 23 10000 5.14 340 11:23 09.02.2022
5388 Clear 12 1025 21 10000 1.54 230 10:33 09.02.2022
5389 Clear 12 1025 22 10000 6.17 330 09:47 09.02.2022
5390 Clear 12 1025 22 10000 6.17 330 09:20 09.02.2022
5391 Clear 13 1025 21 10000 8.23 320 08:43 09.02.2022
5392 Clear 16 1025 19 10000 4.63 20 05:55 09.02.2022
5393 Clear 17 1024 19 10000 3.6 320 03:51 09.02.2022
5394 Clear 22 1024 15 10000 6.69 20 01:55 09.02.2022
5395 Clouds 22 1024 16 10000 1.54 30 23:42 08.02.2022
5396 Clear 21 1025 17 10000 2.06 10 22:53 08.02.2022
5397 Clouds 20 1025 18 10000 2.06 120 22:27 08.02.2022
5398 Clear 20 1026 20 10000 0.89 96 21:58 08.02.2022
5399 Clouds 19 1026 19 10000 2.06 140 21:22 08.02.2022
5400 Clear 19 1027 20 10000 1.34 111 20:56 08.02.2022
5401 Clouds 18 1027 19 10000 3.09 130 20:31 08.02.2022
5402 Clouds 15 1028 23 10000 2.24 320 18:55 08.02.2022
5403 Clouds 11 1028 28 10000 2.57 290 17:50 08.02.2022
5404 Clouds 7 1027 33 10000 3.6 180 16:42 08.02.2022
5405 Clear 7 1027 32 10000 5.14 330 15:39 08.02.2022
5406 Clear 7 1027 33 10000 3.09 60 14:57 08.02.2022
5407 Clear 7 1026 30 10000 4.63 310 13:30 08.02.2022
5408 Clear 8 1027 31 10000 3.6 190 12:20 08.02.2022
5409 Clear 9 1027 29 10000 4.63 180 10:45 08.02.2022
5410 Clear 9 1027 29 10000 3.6 190 09:46 08.02.2022
5411 Clear 10 1027 27 10000 4.12 190 08:27 08.02.2022
5412 Clear 12 1027 25 10000 3.09 160 05:45 08.02.2022
5413 Clear 12 1027 25 10000 2.57 280 04:40 08.02.2022
5414 Clear 12 1027 24 10000 2.57 280 04:21 08.02.2022
5415 Clear 14 1027 22 10000 2.68 20 03:36 08.02.2022
5416 Clear 14 1027 22 10000 2.68 20 03:18 08.02.2022
5417 Clear 14 1027 26 10000 0.66 297 02:59 08.02.2022
5418 Clear 15 1027 21 10000 3.6 60 02:36 08.02.2022
5419 Clear 16 1027 20 10000 3.6 60 02:18 08.02.2022
5420 Clear 16 1027 20 10000 3.6 60 02:18 08.02.2022
5421 Clear 17 1027 18 10000 3.6 360 01:44 08.02.2022
5422 Clear 18 1027 16 10000 3.6 360 01:24 08.02.2022
5423 Clear 18 1027 18 10000 5.66 70 00:55 08.02.2022
5424 Clear 18 1028 20 10000 0.45 155 23:58 07.02.2022
5425 Clear 18 1028 17 10000 5.14 60 23:40 07.02.2022
5426 Clear 18 1028 15 10000 5.14 60 23:18 07.02.2022
5427 Clear 18 1029 19 10000 5.66 60 22:54 07.02.2022
5428 Clear 17 1029 18 10000 5.66 60 22:18 07.02.2022
5429 Clear 17 1031 18 10000 7.72 60 21:44 07.02.2022
5430 Clear 16 1031 17 10000 7.72 60 21:25 07.02.2022
5431 Clear 15 1032 19 10000 5.66 40 20:41 07.02.2022
5432 Clear 15 1032 22 10000 3.09 60 19:56 07.02.2022
5433 Clear 14 1032 20 10000 3.13 90 19:38 07.02.2022
5434 Clear 12 1033 22 10000 2.06 270 18:22 07.02.2022
5435 Clear 7 1031 28 10000 5.14 60 16:53 07.02.2022
5436 Clear 6 1031 30 10000 5.14 60 16:20 07.02.2022
5437 Clear 6 1031 30 10000 2.06 140 15:48 07.02.2022
5438 Clear 6 1030 30 10000 4.12 60 13:37 07.02.2022
5439 Clear 7 1030 29 10000 4.12 60 13:19 07.02.2022
5440 Clear 7 1031 33 10000 0.89 305 11:58 07.02.2022
5441 Clear 7 1031 33 10000 0.89 305 11:58 07.02.2022
5442 Clear 7 1031 33 10000 0.89 305 11:58 07.02.2022
5443 Clear 7 1030 29 10000 2.24 0 11:37 07.02.2022
5444 Clear 8 1030 26 10000 2.24 250 10:52 07.02.2022
5445 Clear 8 1030 27 10000 2.24 250 10:32 07.02.2022
5446 Clear 9 1030 25 10000 3.13 50 09:53 07.02.2022
5447 Clear 10 1030 24 10000 3.13 50 09:18 07.02.2022
5448 Clear 10 1030 25 10000 4.47 30 08:39 07.02.2022
5449 Clear 11 1030 23 10000 3.13 60 07:19 07.02.2022
5450 Clear 11 1029 23 10000 1.34 230 06:34 07.02.2022
5451 Clear 14 1027 20 10000 3.13 40 03:27 07.02.2022
5452 Clear 18 1026 16 10000 6.71 50 00:46 07.02.2022
5453 Clear 18 1026 16 10000 3.13 0 23:49 06.02.2022
5454 Clear 18 1027 17 10000 6.71 340 22:49 06.02.2022
5455 Clear 18 1027 20 10000 1.34 100 21:56 06.02.2022
5456 Clear 17 1028 17 10000 8.94 20 21:35 06.02.2022
5457 Clear 16 1028 18 10000 4.47 20 20:55 06.02.2022
5458 Clear 16 1028 18 10000 4.47 20 20:55 06.02.2022
5459 Clear 16 1028 18 10000 4.47 20 20:31 06.02.2022
5460 Clear 15 1029 20 10000 3.58 80 19:38 06.02.2022
5461 Clear 14 1028 21 10000 5.36 60 18:41 06.02.2022
5462 Clear 13 1029 25 10000 4.02 31 17:56 06.02.2022
5463 Clear 10 1028 25 10000 0 0 17:21 06.02.2022
5464 Clear 8 1027 28 10000 0 0 16:47 06.02.2022
5465 Clear 8 1026 28 10000 2.24 200 15:49 06.02.2022
5466 Clear 6 1026 32 10000 2.24 200 15:27 06.02.2022
5467 Clouds 7 1026 30 10000 1.34 220 14:45 06.02.2022
5468 Clouds 7 1025 28 10000 2.24 230 13:27 06.02.2022
5469 Clear 7 1026 31 10000 1.79 351 12:58 06.02.2022
5470 Clear 8 1024 29 10000 0 0 11:35 06.02.2022
5471 Clear 8 1024 27 10000 2.24 220 10:31 06.02.2022
5472 Clear 10 1023 26 10000 2.54 356 08:59 06.02.2022
5473 Clear 10 1024 24 10000 3.58 290 08:30 06.02.2022
5474 Clouds 11 1024 26 10000 2.24 230 05:31 06.02.2022
5475 Clouds 11 1024 26 10000 2.24 230 05:31 06.02.2022
5476 Clouds 14 1023 20 10000 1.34 210 02:49 06.02.2022
5477 Clouds 15 1023 20 10000 1.34 210 02:24 06.02.2022
5478 Clouds 17 1023 16 10000 0 0 00:27 06.02.2022
5479 Clouds 15 1025 20 10000 0 0 22:22 05.02.2022
5480 Clouds 14 1027 21 10000 2.68 30 21:18 05.02.2022
5481 Clouds 13 1028 22 10000 2.68 40 20:24 05.02.2022
5482 Clouds 11 1028 24 10000 2.68 70 19:46 05.02.2022
5483 Clouds 10 1028 25 10000 1.34 60 18:52 05.02.2022
5484 Clouds 6 1028 30 10000 3.13 0 17:39 05.02.2022
5485 Clouds 6 1028 30 10000 3.13 0 17:39 05.02.2022
5486 Clear 3 1028 36 10000 0 0 16:48 05.02.2022
5487 Clear 2 1028 37 10000 2.24 260 15:34 05.02.2022
5488 Clear 2 1028 38 10000 2.24 200 14:53 05.02.2022
5489 Clear 3 1029 35 10000 1.34 240 12:47 05.02.2022
5490 Clear 4 1029 35 10000 2.68 280 11:49 05.02.2022
5491 Clear 5 1029 34 10000 2.68 200 10:47 05.02.2022
5492 Clear 6 1030 31 10000 2.24 190 09:53 05.02.2022
5493 Clear 5 1030 31 10000 2.24 190 09:30 05.02.2022
5494 Clear 7 1030 31 10000 2.68 220 07:38 05.02.2022
5495 Clear 7 1031 31 10000 0 0 06:56 05.02.2022
5496 Clear 8 1030 27 10000 2.24 310 04:28 05.02.2022
5497 Clear 13 1030 20 10000 4.47 70 01:19 05.02.2022
5498 Clear 13 1031 21 10000 4.47 60 00:51 05.02.2022
5499 Clear 13 1031 21 10000 5.81 10 23:38 04.02.2022
5500 Clear 13 1031 21 10000 5.81 10 23:20 04.02.2022
5501 Clear 11 1034 25 10000 4.02 60 21:37 04.02.2022
5502 Clear 11 1034 25 10000 4.02 60 21:19 04.02.2022
5503 Clear 10 1035 27 10000 6.26 60 20:50 04.02.2022
5504 Clear 9 1035 29 10000 4.02 60 19:36 04.02.2022
5505 Clear 5 1036 36 10000 0 0 17:28 04.02.2022
5506 Clear 2 1034 40 10000 1.34 310 15:39 04.02.2022
5507 Clear 1 1033 40 10000 2.68 270 14:52 04.02.2022
5508 Clear 3 1033 38 10000 2.24 240 12:43 04.02.2022
5509 Clear 3 1032 36 10000 1.34 210 11:47 04.02.2022
5510 Clear 3 1032 36 10000 1.34 210 11:22 04.02.2022
5511 Clear 4 1032 36 10000 4.47 20 10:32 04.02.2022
5512 Clear 5 1031 33 10000 3.13 20 08:34 04.02.2022
5513 Clear 7 1028 28 10000 3.13 20 05:19 04.02.2022
5514 Clear 10 1025 23 10000 4.63 90 02:39 04.02.2022
5515 Clear 12 1025 20 10000 6.71 50 00:26 04.02.2022
5516 Clear 12 1025 20 10000 6.26 40 23:21 03.02.2022
5517 Clear 11 1025 20 10000 5.36 70 22:26 03.02.2022
5518 Clear 10 1025 21 10000 3.13 0 21:47 03.02.2022
5519 Clear 9 1027 22 10000 1.34 70 20:26 03.02.2022
5520 Clear 8 1027 25 10000 2.87 22 19:59 03.02.2022
5521 Clear 7 1027 23 10000 3.58 20 19:26 03.02.2022
5522 Clear 5 1027 25 10000 3.58 20 18:26 03.02.2022
5523 Clouds 3 1027 28 10000 0 0 17:27 03.02.2022
5524 Clear 0 1025 31 10000 2.24 50 15:44 03.02.2022
5525 Clear 1 1024 31 10000 2.24 90 14:22 03.02.2022
5526 Clear 1 1024 30 10000 1.34 40 12:32 03.02.2022
5527 Clear 2 1024 25 10000 2.24 10 09:29 03.02.2022
5528 Clear 3 1023 24 10000 4.47 50 08:19 03.02.2022
5529 Clear 7 1021 20 10000 3.13 53 02:56 03.02.2022
5530 Clear 9 1018 15 10000 8.94 10 00:29 03.02.2022
5531 Clouds 9 1019 15 10000 8.05 350 22:41 02.02.2022
5532 Clouds 9 1020 16 10000 9.39 340 21:52 02.02.2022
5533 Clouds 9 1020 16 10000 9.39 340 21:29 02.02.2022
5534 Clouds 8 1020 17 10000 10.73 330 20:27 02.02.2022
5535 Clouds 7 1020 18 10000 9.39 360 19:48 02.02.2022
5536 Clear 7 1020 22 10000 6.71 33 19:00 02.02.2022
5537 Clouds 6 1020 21 10000 9.39 350 18:25 02.02.2022
5538 Clouds 5 1019 23 10000 10.28 340 17:22 02.02.2022
5539 Clear 4 1020 26 10000 5.36 0 16:58 02.02.2022
5540 Clear 4 1018 25 10000 7.6 350 15:49 02.02.2022
5541 Clear 4 1015 24 10000 7.15 40 12:47 02.02.2022
5542 Clear 5 1015 24 10000 6.71 360 11:49 02.02.2022
5543 Clear 5 1015 24 10000 6.71 360 11:30 02.02.2022
5544 Clear 6 1014 24 10000 5.36 50 08:48 02.02.2022
5545 Clouds 12 1011 17 10000 5.36 40 02:44 02.02.2022
5546 Clouds 14 1011 20 10000 7.15 60 22:34 01.02.2022
5547 Clouds 14 1013 23 10000 2.68 30 20:55 01.02.2022
5548 Clouds 13 1014 25 10000 7.15 60 19:29 01.02.2022
5549 Clouds 10 1013 28 10000 3.58 50 17:34 01.02.2022
5550 Clouds 8 1013 30 10000 3.58 80 16:21 01.02.2022
5551 Clouds 9 1012 28 10000 4.63 80 12:57 01.02.2022
5552 Clouds 9 1012 28 10000 2.24 300 12:21 01.02.2022
5553 Clouds 9 1013 29 10000 1.34 240 08:52 01.02.2022
5554 Clouds 12 1014 21 10000 0 0 02:20 01.02.2022
5555 Clouds 14 1016 18 10000 2.68 70 23:37 31.01.2022
5556 Clouds 14 1017 18 10000 0 0 22:33 31.01.2022
5557 Clouds 14 1018 18 10000 0 0 21:35 31.01.2022
5558 Clouds 14 1018 18 10000 0 0 21:35 31.01.2022
5559 Clouds 13 1019 18 10000 0 0 20:34 31.01.2022
5560 Clouds 13 1020 22 10000 0.36 114 19:57 31.01.2022
5561 Clouds 10 1020 23 10000 0 0 18:32 31.01.2022
5562 Clear 9 1020 26 10000 2.06 360 17:57 31.01.2022
5563 Clouds 7 1020 26 10000 1.54 170 17:18 31.01.2022
5564 Clouds 6 1020 26 10000 0 0 16:21 31.01.2022
5565 Clouds 6 1020 27 10000 2.06 210 14:50 31.01.2022
5566 Clouds 5 1019 27 10000 1.54 230 13:29 31.01.2022
5567 Clouds 6 1020 26 10000 1.54 250 12:37 31.01.2022
5568 Clouds 9 1019 22 10000 0.7 236 10:59 31.01.2022
5569 Clouds 8 1020 23 10000 1.34 210 10:38 31.01.2022
5570 Clouds 8 1020 22 10000 0 0 09:36 31.01.2022
5571 Clear 9 1021 21 10000 2.24 210 08:54 31.01.2022
5572 Clear 9 1021 22 10000 2.24 210 08:20 31.01.2022
5573 Clear 9 1021 21 10000 1.34 220 07:37 31.01.2022
5574 Clear 11 1020 22 10000 2.24 250 05:24 31.01.2022
5575 Clear 18 1020 11 10000 0 0 00:23 31.01.2022
5576 Clear 17 1020 14 10000 0 0 22:33 30.01.2022
5577 Clear 17 1021 14 10000 1.34 60 21:45 30.01.2022
5578 Clear 17 1021 15 10000 1.34 60 21:24 30.01.2022
5579 Clear 16 1022 15 10000 1.34 80 20:51 30.01.2022
5580 Clear 16 1022 15 10000 1.34 80 20:31 30.01.2022
5581 Clouds 14 1023 17 10000 0 0 19:55 30.01.2022
5582 Clouds 12 1022 19 10000 0 0 18:51 30.01.2022
5583 Clouds 12 1022 20 10000 0 0 18:22 30.01.2022
5584 Clouds 9 1021 23 10000 0 0 17:30 30.01.2022
5585 Clouds 6 1021 23 10000 1.54 220 16:42 30.01.2022
5586 Clouds 5 1021 26 10000 1.54 220 16:22 30.01.2022
5587 Clear 5 1020 26 10000 1.54 240 15:54 30.01.2022
5588 Clear 6 1020 25 10000 1.54 240 15:32 30.01.2022
5589 Clear 6 1020 24 10000 2.57 200 14:47 30.01.2022
5590 Clear 7 1019 23 10000 1.54 240 13:44 30.01.2022
5591 Clouds 7 1019 24 10000 1.54 230 12:44 30.01.2022
5592 Clouds 9 1019 20 10000 0 0 10:39 30.01.2022
5593 Clouds 10 1020 23 10000 1.46 317 09:58 30.01.2022
5594 Clouds 10 1019 20 10000 0 0 09:21 30.01.2022
5595 Clouds 11 1019 23 10000 1.3 269 07:57 30.01.2022
5596 Clouds 14 1020 16 10000 2.68 260 02:44 30.01.2022
5597 Clouds 15 1020 15 10000 2.68 280 01:52 30.01.2022
5598 Clouds 16 1021 13 10000 2.24 40 23:46 29.01.2022
5599 Clouds 16 1022 14 10000 4.02 20 22:48 29.01.2022
5600 Clouds 15 1024 11 10000 2.24 30 21:28 29.01.2022
5601 Clouds 14 1025 15 10000 1.34 60 20:50 29.01.2022
5602 Clouds 13 1026 17 10000 0 0 19:47 29.01.2022
5603 Clouds 13 1026 17 10000 0 0 19:29 29.01.2022
5604 Clouds 11 1026 19 10000 0 0 18:43 29.01.2022
5605 Clouds 8 1026 23 10000 0 0 17:46 29.01.2022
5606 Clouds 4 1026 26 10000 1.34 230 16:43 29.01.2022
5607 Clouds 4 1026 26 10000 0 0 15:20 29.01.2022
5608 Clouds 5 1025 24 10000 2.24 230 13:47 29.01.2022
5609 Clouds 5 1025 25 10000 2.24 230 13:26 29.01.2022
5610 Clouds 6 1026 24 10000 1.34 250 12:42 29.01.2022
5611 Clouds 6 1026 23 10000 3.13 210 11:38 29.01.2022
5612 Clouds 7 1026 22 10000 2.68 210 10:31 29.01.2022
5613 Clouds 9 1026 18 10000 1.96 331 07:57 29.01.2022
5614 Clouds 13 1028 14 10000 3.58 40 01:37 29.01.2022
5615 Clouds 15 1029 12 10000 5.36 60 00:31 29.01.2022
5616 Clouds 15 1029 13 10000 6.71 50 23:22 28.01.2022
5617 Clouds 14 1031 13 10000 6.26 60 22:42 28.01.2022
5618 Clouds 14 1031 13 10000 6.26 60 22:18 28.01.2022
5619 Clouds 12 1034 17 10000 2.68 30 20:40 28.01.2022
5620 Clouds 11 1035 19 10000 0 0 19:51 28.01.2022
5621 Clouds 9 1035 21 10000 1.34 190 18:49 28.01.2022
5622 Clouds 7 1035 25 10000 2.24 210 17:46 28.01.2022
5623 Clear 3 1034 31 10000 2.24 200 15:46 28.01.2022
5624 Clear 4 1034 29 10000 1.34 220 14:20 28.01.2022
5625 Clear 5 1033 26 10000 0 0 12:35 28.01.2022
5626 Clear 6 1034 25 10000 2.24 220 11:38 28.01.2022
5627 Clear 7 1033 23 10000 2.68 20 10:22 28.01.2022
5628 Clear 7 1033 22 10000 4.02 50 09:45 28.01.2022
5629 Clear 9 1032 18 10000 4.47 60 07:40 28.01.2022
5630 Clear 11 1030 18 10000 4.47 60 05:24 28.01.2022
5631 Clear 12 1028 21 10000 5.81 50 03:47 28.01.2022
5632 Clear 14 1026 19 10000 6.71 50 02:23 28.01.2022
5633 Clear 15 1026 17 10000 8.05 50 01:34 28.01.2022
5634 Clear 17 1026 15 10000 5.36 40 23:33 27.01.2022
5635 Clear 15 1026 18 10000 2.24 70 21:50 27.01.2022
5636 Clear 15 1026 18 10000 2.24 70 21:30 27.01.2022
5637 Clear 14 1027 20 10000 0 0 20:53 27.01.2022
5638 Clear 12 1027 22 10000 1.34 40 19:30 27.01.2022
5639 Clear 8 1027 29 10000 0.45 225 17:56 27.01.2022
5640 Clear 4 1025 32 10000 0 0 15:31 27.01.2022
5641 Clear 3 1023 35 10000 1.34 160 13:39 27.01.2022
5642 Clear 4 1024 33 10000 2.24 250 12:46 27.01.2022
5643 Clear 4 1024 33 10000 2.24 250 12:46 27.01.2022
5644 Clear 5 1023 31 10000 0 0 10:57 27.01.2022
5645 Clear 5 1023 33 10000 2.68 210 09:19 27.01.2022
5646 Clear 6 1023 32 10000 2.68 210 08:37 27.01.2022
5647 Clear 6 1024 33 10000 1.34 300 07:22 27.01.2022
5648 Clear 10 1022 30 10000 3.6 50 02:57 27.01.2022
5649 Clear 13 1022 24 10000 2.24 0 23:33 26.01.2022
5650 Clear 12 1023 26 10000 0 0 22:25 26.01.2022
5651 Clear 12 1024 27 10000 3.13 20 21:36 26.01.2022
5652 Clear 11 1025 28 10000 3.58 40 20:41 26.01.2022
5653 Clear 11 1025 28 10000 3.58 40 20:23 26.01.2022
5654 Clear 10 1026 30 10000 1.34 350 19:23 26.01.2022
5655 Clear 8 1026 34 10000 0 0 18:45 26.01.2022
5656 Clear 6 1026 40 10000 0 0 17:51 26.01.2022
5657 Clear 5 1026 42 10000 0 0 17:23 26.01.2022
5658 Clear 3 1026 47 10000 0 0 16:33 26.01.2022
5659 Clear 3 1025 45 10000 1.34 190 15:49 26.01.2022
5660 Clear 4 1024 44 10000 0 0 14:20 26.01.2022
5661 Clear 6 1024 38 10000 3.58 20 11:52 26.01.2022
5662 Clear 6 1024 37 10000 6.71 30 10:28 26.01.2022
5663 Clear 7 1023 36 10000 2.68 100 09:48 26.01.2022
5664 Clear 8 1022 32 10000 4.02 40 07:45 26.01.2022
5665 Clear 11 1021 27 10000 2.68 90 04:24 26.01.2022
5666 Clear 15 1018 24 10000 6.26 11 23:58 25.01.2022
5667 Clouds 15 1017 21 10000 5.36 360 23:19 25.01.2022
5668 Clouds 15 1017 21 10000 9.83 30 22:21 25.01.2022
5669 Clouds 15 1018 21 10000 10.28 360 21:58 25.01.2022
5670 Clear 15 1018 20 10000 9.83 10 20:47 25.01.2022
5671 Clear 15 1018 20 10000 9.83 10 20:28 25.01.2022
5672 Clear 15 1018 20 10000 9.83 10 20:28 25.01.2022
5673 Clear 15 1018 20 10000 9.83 10 20:28 25.01.2022
5674 Clear 15 1018 21 10000 10.28 320 19:52 25.01.2022
5675 Clear 14 1017 24 10000 11.62 340 18:38 25.01.2022
5676 Clear 12 1016 31 10000 0 0 17:45 25.01.2022
5677 Clear 9 1015 37 10000 2.24 280 16:45 25.01.2022
5678 Clear 8 1015 39 10000 2.24 280 16:21 25.01.2022
5679 Clear 8 1014 36 10000 3.58 20 15:38 25.01.2022
5680 Clear 8 1014 39 10000 1.34 190 14:57 25.01.2022
5681 Clear 9 1012 36 10000 3.13 210 13:42 25.01.2022
5682 Clear 10 1013 34 10000 3.13 230 10:51 25.01.2022
5683 Clear 10 1014 31 10000 2.68 250 08:37 25.01.2022
5684 Clouds 10 1015 35 10000 2.68 220 07:29 25.01.2022
5685 Clouds 10 1014 34 10000 1.34 210 06:49 25.01.2022
5686 Clouds 11 1015 33 10000 1.34 210 05:22 25.01.2022
5687 Clear 18 1016 22 10000 2.24 80 23:37 24.01.2022
5688 Clear 18 1016 20 10000 2.24 80 23:18 24.01.2022
5689 Clear 18 1016 24 10000 0.45 115 22:59 24.01.2022
5690 Clear 17 1017 23 10000 1.34 40 22:41 24.01.2022
5691 Clear 17 1018 25 10000 0 0 21:53 24.01.2022
5692 Clear 17 1018 25 10000 0 0 21:53 24.01.2022
5693 Clear 16 1018 23 10000 0 0 21:28 24.01.2022
5694 Clear 16 1019 24 10000 1.34 30 20:30 24.01.2022
5695 Clear 14 1020 26 10000 0 0 19:44 24.01.2022
5696 Clear 14 1020 26 10000 0 0 19:24 24.01.2022
5697 Clear 12 1020 31 10000 0.45 182 17:59 24.01.2022
5698 Clear 9 1020 37 10000 1.34 200 17:24 24.01.2022
5699 Clear 7 1020 37 10000 2.68 270 16:41 24.01.2022
5700 Clear 6 1020 37 10000 2.68 270 16:18 24.01.2022
5701 Clear 6 1020 36 10000 2.24 220 14:38 24.01.2022
5702 Clear 7 1020 37 10000 0.45 310 12:58 24.01.2022
5703 Clear 7 1020 34 10000 2.24 220 12:23 24.01.2022
5704 Clear 8 1021 30 10000 2.24 220 10:27 24.01.2022
5705 Clear 8 1021 31 10000 1.34 0 09:48 24.01.2022
5706 Clear 9 1021 30 10000 2.24 220 08:34 24.01.2022
5707 Clear 10 1022 28 10000 0 0 06:19 24.01.2022
5708 Clouds 16 1022 20 10000 0 0 01:30 24.01.2022
5709 Clouds 17 1022 18 10000 2.24 130 00:35 24.01.2022
5710 Clouds 17 1022 19 10000 1.34 0 23:49 23.01.2022
5711 Clouds 17 1022 19 10000 1.34 0 23:49 23.01.2022
5712 Clouds 16 1023 21 10000 3.58 30 22:28 23.01.2022
5713 Clouds 15 1024 21 10000 3.58 30 21:46 23.01.2022
5714 Clouds 15 1024 22 10000 3.58 30 21:25 23.01.2022
5715 Clouds 14 1026 23 10000 4.47 50 20:44 23.01.2022
5716 Clear 13 1026 26 10000 5.36 360 19:43 23.01.2022
5717 Clear 11 1026 29 10000 0 0 18:50 23.01.2022
5718 Clear 9 1026 31 10000 0 0 17:44 23.01.2022
5719 Clear 7 1026 35 10000 1.34 0 16:47 23.01.2022
5720 Clear 7 1025 37 10000 0.45 229 14:59 23.01.2022
5721 Clear 7 1025 34 10000 1.34 210 14:25 23.01.2022
5722 Clear 7 1025 34 10000 1.34 210 14:25 23.01.2022
5723 Clear 9 1025 33 10000 4.47 40 12:54 23.01.2022
5724 Clear 9 1025 31 10000 4.47 40 12:22 23.01.2022
5725 Clear 9 1024 31 10000 6.71 30 11:52 23.01.2022
5726 Clear 9 1024 31 10000 6.71 30 11:18 23.01.2022
5727 Clear 10 1024 30 10000 6.26 20 10:27 23.01.2022
5728 Clear 10 1024 30 10000 6.26 10 09:51 23.01.2022
5729 Clear 11 1024 29 10000 6.71 10 08:53 23.01.2022
5730 Clear 12 1023 31 10000 2.24 17 05:56 23.01.2022
5731 Clouds 15 1020 23 10000 6.26 360 01:52 23.01.2022
5732 Clouds 16 1020 23 10000 6.26 360 01:26 23.01.2022
5733 Clouds 16 1020 22 10000 9.39 20 00:23 23.01.2022
5734 Clouds 16 1020 22 10000 9.39 30 23:44 22.01.2022
5735 Clouds 16 1020 23 10000 7.6 10 22:46 22.01.2022
5736 Clouds 15 1021 24 10000 5.81 10 21:36 22.01.2022
5737 Clouds 13 1023 26 10000 10.28 360 19:51 22.01.2022
5738 Clouds 11 1023 28 10000 7.15 360 18:49 22.01.2022
5739 Clouds 11 1023 28 10000 7.15 360 18:18 22.01.2022
5740 Clouds 9 1022 31 10000 7.6 350 17:40 22.01.2022
5741 Clear 8 1022 35 10000 4.92 328 16:56 22.01.2022
5742 Clouds 8 1021 33 10000 9.39 340 15:50 22.01.2022
5743 Clear 8 1021 35 10000 4.47 28 14:58 22.01.2022
5744 Clouds 9 1020 33 10000 10.73 350 13:42 22.01.2022
5745 Clouds 9 1021 32 10000 6.26 340 12:50 22.01.2022
5746 Clouds 9 1021 32 10000 6.26 340 12:28 22.01.2022
5747 Clouds 9 1022 33 10000 5.81 24 10:56 22.01.2022
5748 Clouds 10 1021 32 10000 6.71 340 10:29 22.01.2022
5749 Clear 10 1021 35 10000 4.92 14 09:58 22.01.2022
5750 Clouds 11 1021 32 10000 9.39 350 08:51 22.01.2022
5751 Clouds 11 1020 32 10000 9.39 360 07:38 22.01.2022
5752 Clouds 12 1019 30 10000 8.94 10 04:52 22.01.2022
5753 Clouds 14 1017 32 10000 9.83 10 01:34 22.01.2022
5754 Clouds 15 1017 31 10000 5.81 360 23:38 21.01.2022
5755 Clouds 15 1017 31 10000 5.81 360 23:38 21.01.2022
5756 Clouds 15 1017 31 10000 3.13 50 22:28 21.01.2022
5757 Clouds 13 1020 33 10000 3.58 50 20:22 21.01.2022
5758 Clouds 9 1019 39 10000 0 0 18:39 21.01.2022
5759 Clouds 7 1019 42 10000 0 0 17:28 21.01.2022
5760 Clouds 6 1018 45 10000 1.54 270 15:30 21.01.2022
5761 Clouds 6 1019 44 10000 1.54 200 13:37 21.01.2022
5762 Clouds 6 1020 43 10000 0 0 12:38 21.01.2022
5763 Clouds 7 1020 45 10000 0 0 11:27 21.01.2022
5764 Clouds 8 1020 43 10000 2.24 220 10:19 21.01.2022
5765 Clouds 8 1022 42 10000 1.34 230 08:24 21.01.2022
5766 Clouds 9 1023 43 10000 0.55 231 06:57 21.01.2022
5767 Clouds 16 1026 25 10000 0 0 23:36 20.01.2022
5768 Clouds 16 1027 26 10000 2.24 0 22:24 20.01.2022
5769 Clouds 15 1028 28 10000 2.68 0 21:43 20.01.2022
5770 Clouds 14 1029 30 10000 4.47 40 20:43 20.01.2022
5771 Clouds 13 1030 34 10000 6.26 10 19:20 20.01.2022
5772 Clouds 12 1029 37 10000 3.58 90 18:50 20.01.2022
5773 Clouds 10 1029 40 10000 3.13 30 17:29 20.01.2022
5774 Clear 8 1028 45 10000 4.47 60 15:43 20.01.2022
5775 Clear 7 1028 46 10000 4.47 60 15:22 20.01.2022
5776 Clear 8 1027 44 10000 5.36 70 13:41 20.01.2022
5777 Clear 9 1026 41 10000 7.15 20 12:35 20.01.2022
5778 Clear 9 1026 44 10000 4.47 30 11:50 20.01.2022
5779 Clear 9 1026 46 10000 2.24 50 10:40 20.01.2022
5780 Clear 10 1025 42 10000 5.81 10 09:40 20.01.2022
5781 Clear 9 1025 47 10000 2.68 300 08:32 20.01.2022
5782 Clear 11 1023 47 10000 1.34 280 05:32 20.01.2022
5783 Clouds 17 1021 30 10000 2.24 130 23:28 19.01.2022
5784 Clouds 17 1021 32 10000 0 0 22:24 19.01.2022
5785 Clouds 16 1022 36 10000 0 0 21:23 19.01.2022
5786 Clouds 15 1022 39 10000 0 0 20:49 19.01.2022
5787 Clouds 14 1023 48 10000 1.34 80 19:45 19.01.2022
5788 Clouds 11 1022 58 10000 1.34 200 18:40 19.01.2022
5789 Clouds 9 1021 65 10000 0 0 17:45 19.01.2022
5790 Clouds 6 1021 74 10000 2.24 250 16:48 19.01.2022
5791 Haze 6 1020 75 10000 2.06 210 14:42 19.01.2022
5792 Smoke 7 1019 78 10000 1.34 220 12:43 19.01.2022
5793 Smoke 7 1019 77 10000 1.34 250 11:42 19.01.2022
5794 Smoke 8 1019 75 10000 1.34 260 10:35 19.01.2022
5795 Clouds 8 1019 77 10000 2.24 210 09:34 19.01.2022
5796 Clouds 9 1019 71 10000 0.14 221 06:56 19.01.2022
5797 Clouds 13 1016 60 10000 2.24 70 02:41 19.01.2022
5798 Clouds 15 1016 51 10000 2.24 80 23:20 18.01.2022
5799 Clouds 15 1016 50 10000 2.24 0 22:34 18.01.2022
5800 Clouds 14 1017 55 10000 2.24 80 21:01 18.01.2022
5801 Clouds 13 1018 55 10000 0.45 114 19:55 18.01.2022
5802 Clouds 12 1018 56 10000 0 0 19:36 18.01.2022
5803 Smoke 11 1018 68 10000 2.68 90 18:51 18.01.2022
5804 Smoke 10 1018 74 10000 0 0 17:58 18.01.2022
5805 Clouds 9 1017 66 10000 1.54 240 16:58 18.01.2022
5806 Rain 8 1017 74 10000 0 0 15:47 18.01.2022
5807 Rain 8 1017 74 10000 0 0 15:22 18.01.2022
5808 Clouds 9 1016 59 10000 1.34 200 12:47 18.01.2022
5809 Clouds 10 1016 41 10000 0 0 10:47 18.01.2022
5810 Clouds 10 1017 37 10000 0 0 09:21 18.01.2022
5811 Clouds 10 1017 37 10000 0 0 07:55 18.01.2022
5812 Clouds 13 1016 27 10000 1.34 110 02:35 18.01.2022
5813 Clouds 16 1017 23 10000 2.24 70 23:46 17.01.2022
5814 Clouds 15 1017 24 10000 2.24 60 22:27 17.01.2022
5815 Clouds 15 1018 23 10000 0 0 21:35 17.01.2022
5816 Clouds 14 1019 24 10000 2.24 70 20:24 17.01.2022
5817 Clouds 10 1020 30 10000 0 0 18:30 17.01.2022
5818 Clouds 8 1019 35 10000 1.54 230 17:44 17.01.2022
5819 Clouds 6 1019 36 10000 0 0 16:44 17.01.2022
5820 Clouds 6 1019 35 10000 0 0 15:22 17.01.2022
5821 Clear 7 1018 33 10000 2.06 310 14:56 17.01.2022
5822 Clouds 7 1018 35 10000 1.34 250 13:26 17.01.2022
5823 Clear 7 1019 35 10000 0 0 12:56 17.01.2022
5824 Clouds 7 1018 34 10000 0 0 11:49 17.01.2022
5825 Clouds 8 1019 34 10000 1.54 220 10:21 17.01.2022
5826 Clouds 8 1019 33 10000 2.06 210 09:34 17.01.2022
5827 Clouds 8 1019 32 10000 1.34 200 07:24 17.01.2022
5828 Clear 9 1019 32 10000 2.06 50 06:56 17.01.2022
5829 Clouds 16 1019 22 10000 0 0 00:55 17.01.2022
5830 Clouds 16 1020 23 10000 0 0 22:29 16.01.2022
5831 Clouds 14 1022 26 10000 0 0 20:36 16.01.2022
5832 Clouds 10 1023 33 10000 0 0 18:51 16.01.2022
5833 Clear 9 1024 35 10000 0.81 348 17:59 16.01.2022
5834 Clouds 6 1023 39 10000 0 0 17:21 16.01.2022
5835 Clouds 4 1023 42 10000 2.24 250 16:33 16.01.2022
5836 Clouds 5 1022 40 10000 2.06 220 14:31 16.01.2022
5837 Clouds 5 1022 39 10000 2.06 210 13:46 16.01.2022
5838 Clouds 7 1023 36 10000 1.54 230 12:46 16.01.2022
5839 Clouds 7 1024 36 10000 2.06 280 11:41 16.01.2022
5840 Clouds 7 1024 36 10000 2.06 200 10:53 16.01.2022
5841 Clouds 8 1022 34 10000 1.28 345 09:59 16.01.2022
5842 Clouds 8 1024 36 10000 2.24 220 09:40 16.01.2022
5843 Clouds 8 1024 36 10000 2.24 220 09:22 16.01.2022
5844 Clouds 9 1024 33 10000 1.34 200 07:30 16.01.2022
5845 Smoke 15 1025 25 10000 2.68 270 00:38 16.01.2022
5846 Clouds 15 1025 25 10000 0 0 23:40 15.01.2022
5847 Clouds 14 1027 27 10000 1.34 0 21:23 15.01.2022
5848 Clear 14 1028 30 10000 2.57 230 20:56 15.01.2022
5849 Clouds 14 1029 29 10000 0 0 20:38 15.01.2022
5850 Clouds 12 1030 33 10000 0 0 19:28 15.01.2022
5851 Clouds 10 1030 37 10000 0 0 18:31 15.01.2022
5852 Clouds 6 1030 43 10000 1.34 230 16:52 15.01.2022
5853 Clouds 7 1029 42 10000 2.68 210 15:38 15.01.2022
5854 Clouds 8 1028 41 10000 2.24 190 13:35 15.01.2022
5855 Clouds 8 1028 42 10000 0 0 11:46 15.01.2022
5856 Clouds 10 1028 37 10000 2.24 10 09:49 15.01.2022
5857 Clouds 13 1027 32 10000 3.13 50 05:27 15.01.2022
5858 Clouds 18 1023 22 10000 6.71 360 23:44 14.01.2022
5859 Clouds 18 1025 22 10000 7.15 40 21:29 14.01.2022
5860 Clouds 18 1026 23 10000 5.81 30 20:37 14.01.2022
5861 Clear 17 1026 26 10000 4.02 5 19:56 14.01.2022
5862 Clouds 15 1025 29 10000 1.34 110 18:43 14.01.2022
5863 Clouds 13 1025 34 10000 2.24 160 17:52 14.01.2022
5864 Clouds 10 1023 42 10000 2.24 210 16:43 14.01.2022
5865 Clouds 10 1023 42 10000 2.24 210 16:43 14.01.2022
5866 Clouds 9 1022 42 10000 1.34 210 15:33 14.01.2022
5867 Clouds 8 1021 43 10000 0 0 14:29 14.01.2022
5868 Clouds 10 1019 40 10000 1.83 341 12:59 14.01.2022
5869 Clouds 10 1020 41 10000 2.68 280 11:53 14.01.2022
5870 Smoke 10 1020 39 10000 1.34 260 10:40 14.01.2022
5871 Clouds 11 1020 39 10000 0 0 08:53 14.01.2022
5872 Clouds 12 1021 35 10000 0 0 07:32 14.01.2022
5873 Clouds 15 1021 30 10000 0 0 02:27 14.01.2022
5874 Clouds 17 1022 26 10000 3.13 90 00:33 14.01.2022
5875 Clouds 17 1024 27 10000 0 0 21:52 13.01.2022
5876 Clouds 16 1024 28 10000 0 0 21:29 13.01.2022
5877 Clouds 15 1025 33 10000 0.45 157 19:58 13.01.2022
5878 Clouds 14 1026 32 10000 0 0 19:29 13.01.2022
5879 Clouds 13 1026 35 10000 0 0 18:40 13.01.2022
5880 Clouds 9 1026 39 10000 0 0 16:53 13.01.2022
5881 Clouds 9 1025 38 10000 0 0 15:39 13.01.2022
5882 Clouds 8 1025 38 10000 0 0 15:21 13.01.2022
5883 Clouds 8 1025 38 10000 2.68 210 13:29 13.01.2022
5884 Clouds 9 1026 35 10000 0 0 11:18 13.01.2022
5885 Clouds 10 1027 34 10000 2.24 210 09:23 13.01.2022
5886 Clouds 10 1027 33 10000 2.24 250 08:29 13.01.2022
5887 Clouds 11 1025 35 10000 0.66 345 07:58 13.01.2022
5888 Clouds 11 1027 32 10000 1.34 260 07:19 13.01.2022
5889 Clouds 12 1027 30 10000 2.24 200 05:21 13.01.2022
5890 Clear 14 1027 28 10000 2.24 230 03:48 13.01.2022
5891 Clouds 17 1027 23 10000 0 0 01:39 13.01.2022
5892 Clouds 18 1027 22 10000 0 0 23:53 12.01.2022
5893 Clouds 18 1027 20 10000 0 0 23:34 12.01.2022
5894 Clouds 18 1028 22 10000 1.34 20 22:32 12.01.2022
5895 Clouds 17 1029 23 10000 0 0 21:43 12.01.2022
5896 Clouds 16 1029 24 10000 0 0 21:19 12.01.2022
5897 Clouds 16 1030 25 10000 1.34 150 20:47 12.01.2022
5898 Clouds 12 1031 30 10000 0 0 18:52 12.01.2022
5899 Clouds 11 1031 30 10000 0 0 18:18 12.01.2022
5900 Clouds 7 1030 38 10000 2.24 230 16:52 12.01.2022
5901 Clouds 6 1029 37 10000 2.24 230 15:38 12.01.2022
5902 Clouds 6 1029 37 10000 1.34 230 14:39 12.01.2022
5903 Clouds 8 1028 36 10000 1.74 0 12:57 12.01.2022
5904 Clouds 8 1030 30 10000 1.34 220 09:48 12.01.2022
5905 Clear 9 1028 31 10000 1.21 339 07:58 12.01.2022
5906 Clouds 8 1030 30 10000 2.24 250 07:33 12.01.2022
5907 Clouds 13 1028 24 10000 1.34 200 02:38 12.01.2022
5908 Clouds 16 1028 20 10000 0 0 23:27 11.01.2022
5909 Clouds 15 1028 21 10000 1.34 60 22:39 11.01.2022
5910 Clouds 15 1028 21 10000 1.34 60 22:18 11.01.2022
5911 Clouds 13 1032 25 10000 0 0 20:40 11.01.2022
5912 Clouds 12 1033 27 10000 0 0 19:35 11.01.2022
5913 Clear 8 1032 35 10000 2.57 210 17:54 11.01.2022
5914 Clear 4 1031 40 10000 1.34 250 16:40 11.01.2022
5915 Clear 4 1031 40 10000 1.34 250 16:40 11.01.2022
5916 Clear 4 1031 40 10000 1.34 250 16:18 11.01.2022
5917 Clouds 5 1030 40 10000 1.54 220 14:53 11.01.2022
5918 Clouds 5 1030 38 10000 1.54 220 14:34 11.01.2022
5919 Clouds 5 1030 39 10000 2.06 200 13:52 11.01.2022
5920 Clouds 5 1030 39 10000 2.06 200 13:28 11.01.2022
5921 Clouds 6 1030 39 10000 2.24 230 12:34 11.01.2022
5922 Clouds 7 1030 35 10000 2.24 180 10:32 11.01.2022
5923 Clouds 8 1031 33 10000 1.34 220 07:55 11.01.2022
5924 Clouds 10 1031 30 10000 1.34 220 04:28 11.01.2022
5925 Clouds 15 1030 21 10000 2.68 330 00:27 11.01.2022
5926 Clouds 15 1030 20 10000 2.68 330 23:39 10.01.2022
5927 Clouds 15 1031 22 10000 4.02 10 22:39 10.01.2022
5928 Clouds 15 1031 22 10000 4.02 10 22:18 10.01.2022
5929 Clouds 14 1033 25 10000 0 0 21:33 10.01.2022
5930 Clouds 14 1033 28 10000 0.45 87 20:59 10.01.2022
5931 Clouds 13 1034 27 10000 1.34 60 20:41 10.01.2022
5932 Clouds 13 1034 27 10000 1.34 60 20:19 10.01.2022
5933 Clouds 11 1035 30 10000 1.34 0 19:38 10.01.2022
5934 Clouds 11 1035 31 10000 1.34 0 19:19 10.01.2022
5935 Clouds 10 1035 33 10000 1.34 190 18:46 10.01.2022
5936 Clouds 5 1034 44 10000 2.24 220 16:48 10.01.2022
5937 Clouds 5 1034 44 10000 2.24 220 16:26 10.01.2022
5938 Clouds 5 1033 43 10000 0 0 14:43 10.01.2022
5939 Clouds 5 1033 43 10000 2.68 270 13:22 10.01.2022
5940 Clear 7 1033 40 10000 2.06 250 11:56 10.01.2022
5941 Clear 6 1033 38 10000 1.34 230 10:48 10.01.2022
5942 Clear 7 1033 39 10000 1.34 210 09:33 10.01.2022
5943 Clear 9 1032 34 10000 1.34 250 05:51 10.01.2022
5944 Clear 13 1031 28 10000 4.47 40 02:30 10.01.2022
5945 Clear 15 1030 24 10000 5.81 40 01:20 10.01.2022
5946 Clear 16 1030 23 10000 6.71 50 00:19 10.01.2022
5947 Clear 15 1030 24 10000 6.26 40 22:44 09.01.2022
5948 Clear 15 1031 26 10000 0.89 35 21:57 09.01.2022
5949 Clear 15 1031 25 10000 5.36 50 21:37 09.01.2022
5950 Clear 15 1031 25 10000 5.36 50 21:37 09.01.2022
5951 Clear 15 1031 25 10000 5.36 50 21:37 09.01.2022
5952 Clear 14 1031 26 10000 5.36 50 21:18 09.01.2022
5953 Clear 14 1032 28 10000 3.58 10 20:45 09.01.2022
5954 Clear 14 1032 28 10000 3.58 10 20:26 09.01.2022
5955 Clear 12 1032 34 10000 0 0 19:38 09.01.2022
5956 Clear 12 1032 34 10000 0 0 19:20 09.01.2022
5957 Clear 10 1031 38 10000 2.24 180 18:37 09.01.2022
5958 Clear 8 1031 43 10000 1.34 200 17:48 09.01.2022
5959 Clear 8 1030 45 10000 1.34 200 17:29 09.01.2022
5960 Clear 6 1030 46 10000 2.68 220 16:43 09.01.2022
5961 Clear 6 1029 48 10000 2.06 200 15:42 09.01.2022
5962 Clear 6 1029 48 10000 2.06 200 15:42 09.01.2022
5963 Clear 6 1029 48 10000 0.45 223 14:58 09.01.2022
5964 Clear 6 1027 45 10000 1.34 220 14:24 09.01.2022
5965 Smoke 7 1027 45 10000 2.57 200 13:48 09.01.2022
5966 Clear 8 1027 45 10000 2.88 345 11:58 09.01.2022
5967 Clear 8 1026 42 10000 1.34 150 11:28 09.01.2022
5968 Clear 9 1025 40 10000 0 0 09:55 09.01.2022
5969 Clear 9 1025 38 10000 0 0 09:20 09.01.2022
5970 Clear 10 1024 35 10000 4.63 80 06:57 09.01.2022
5971 Clouds 16 1018 23 10000 5.36 330 01:30 09.01.2022
5972 Clouds 17 1017 22 10000 5.36 350 00:38 09.01.2022
5973 Clouds 17 1017 24 10000 3.58 330 23:34 08.01.2022
5974 Clouds 18 1016 25 10000 5.36 360 22:48 08.01.2022
5975 Clouds 17 1017 26 10000 6.71 10 21:28 08.01.2022
5976 Clouds 16 1017 29 10000 4.47 10 20:44 08.01.2022
5977 Clouds 16 1017 29 10000 4.47 10 20:22 08.01.2022
5978 Clouds 15 1017 34 10000 2.68 360 19:22 08.01.2022
5979 Clouds 11 1015 45 10000 3.13 170 17:38 08.01.2022
5980 Clouds 8 1014 50 10000 0 0 16:45 08.01.2022
5981 Clear 9 1013 46 10000 2.68 240 15:34 08.01.2022
5982 Clear 10 1012 44 10000 0 0 14:25 08.01.2022
5983 Clouds 11 1009 42 10000 3.58 360 11:43 08.01.2022
5984 Clouds 12 1008 39 10000 2.68 300 10:40 08.01.2022
5985 Clouds 12 1008 38 10000 2.68 300 10:21 08.01.2022
5986 Clouds 13 1007 33 10000 1.34 210 09:34 08.01.2022
5987 Clouds 14 1007 39 10000 0 0 06:18 08.01.2022
5988 Clouds 17 1007 31 10000 2.68 20 01:41 08.01.2022
5989 Clouds 17 1008 33 10000 0 0 23:31 07.01.2022
5990 Clouds 15 1011 39 10000 2.24 40 21:49 07.01.2022
5991 Clouds 14 1012 43 10000 1.54 50 20:34 07.01.2022
5992 Clouds 12 1013 44 10000 2.57 40 19:27 07.01.2022
5993 Clouds 12 1013 44 10000 2.57 40 19:27 07.01.2022
5994 Clouds 11 1013 48 10000 1.54 80 18:49 07.01.2022
5995 Clouds 10 1013 48 10000 1.54 80 18:21 07.01.2022
5996 Clouds 8 1012 56 10000 0 0 17:24 07.01.2022
5997 Clear 6 1012 62 10000 0 0 14:56 07.01.2022
5998 Clear 5 1012 63 10000 0 0 13:52 07.01.2022
5999 Clear 6 1013 61 10000 0 0 12:51 07.01.2022
6000 Clear 7 1014 59 10000 0 0 11:22 07.01.2022
6001 Clear 11 1015 45 10000 2.24 190 04:25 07.01.2022
6002 Smoke 13 1014 40 10000 1.34 70 02:46 07.01.2022
6003 Smoke 15 1014 33 10000 0 0 01:48 07.01.2022
6004 Smoke 15 1014 33 10000 0 0 01:48 07.01.2022
6005 Smoke 16 1014 32 10000 0 0 01:25 07.01.2022
6006 Smoke 17 1015 32 10000 0 0 00:30 07.01.2022
6007 Smoke 17 1015 32 10000 0 0 00:30 07.01.2022
6008 Clear 16 1017 33 10000 2.68 60 22:33 06.01.2022
6009 Clouds 14 1019 37 10000 1.34 70 20:51 06.01.2022
6010 Clouds 14 1019 38 10000 1.34 70 20:18 06.01.2022
6011 Clouds 13 1019 40 10000 2.24 80 19:36 06.01.2022
6012 Clouds 8 1020 50 10000 0 0 17:51 06.01.2022
6013 Clouds 8 1020 50 10000 0 0 17:23 06.01.2022
6014 Clouds 5 1020 55 10000 1.34 230 16:32 06.01.2022
6015 Clouds 6 1019 54 10000 1.34 250 15:44 06.01.2022
6016 Clouds 6 1019 57 10000 1.34 250 15:21 06.01.2022
6017 Clouds 6 1019 55 10000 0 0 14:20 06.01.2022
6018 Clouds 6 1019 53 10000 0 0 13:33 06.01.2022
6019 Clouds 6 1019 51 10000 1.54 220 12:20 06.01.2022
6020 Clouds 6 1019 49 10000 1.54 230 11:29 06.01.2022
6021 Clouds 7 1019 49 10000 1.34 240 10:50 06.01.2022
6022 Clouds 8 1020 42 10000 3.13 280 06:38 06.01.2022
6023 Clouds 15 1019 26 10000 3.13 80 00:34 06.01.2022
6024 Clouds 15 1019 25 10000 0 0 23:22 05.01.2022
6025 Clouds 14 1020 26 10000 1.34 50 22:48 05.01.2022
6026 Clouds 14 1020 26 10000 1.34 50 22:21 05.01.2022
6027 Clouds 13 1021 27 10000 1.34 10 21:25 05.01.2022
6028 Clouds 12 1022 29 10000 1.34 70 20:30 05.01.2022
6029 Clouds 12 1022 29 10000 1.34 70 20:30 05.01.2022
6030 Clouds 10 1023 33 10000 0 0 19:28 05.01.2022
6031 Clear 8 1023 37 10000 0 0 17:56 05.01.2022
6032 Clear 5 1022 47 10000 0 0 16:56 05.01.2022
6033 Clouds 3 1022 49 10000 0 0 16:18 05.01.2022
6034 Clouds 4 1022 47 10000 1.34 250 14:54 05.01.2022
6035 Clouds 4 1022 46 10000 0 0 13:33 05.01.2022
6036 Clouds 5 1022 44 10000 0.34 327 11:59 05.01.2022
6037 Clear 5 1023 41 10000 1.34 260 08:21 05.01.2022
6038 Clear 6 1023 40 10000 2.24 200 06:37 05.01.2022
6039 Clear 6 1023 40 10000 2.24 200 06:37 05.01.2022
6040 Clouds 12 1022 24 10000 3.58 60 01:20 05.01.2022
6041 Clouds 13 1022 22 10000 1.34 90 23:42 04.01.2022
6042 Clouds 13 1022 23 10000 1.34 90 23:19 04.01.2022
6043 Clouds 11 1024 26 10000 0 0 21:36 04.01.2022
6044 Clouds 10 1025 27 10000 2.24 70 20:41 04.01.2022
6045 Clouds 7 1026 35 10000 0 0 18:35 04.01.2022
6046 Clouds 4 1025 44 10000 0 0 17:19 04.01.2022
6047 Clouds 2 1024 48 10000 1.54 210 16:31 04.01.2022
6048 Clouds 3 1024 44 10000 0.86 359 14:58 04.01.2022
6049 Clouds 2 1022 47 10000 2.24 220 14:37 04.01.2022
6050 Clouds 2 1022 48 10000 0 0 13:55 04.01.2022
6051 Clouds 2 1022 44 10000 0 0 12:20 04.01.2022
6052 Clouds 3 1022 43 10000 2.06 210 10:21 04.01.2022
6053 Clouds 4 1021 41 10000 2.68 310 08:49 04.01.2022
6054 Clouds 4 1022 40 10000 1.34 260 06:28 04.01.2022
6055 Clouds 9 1021 26 10000 0 0 00:42 04.01.2022
6056 Clouds 10 1022 25 10000 2.24 80 23:49 03.01.2022
6057 Clouds 9 1022 25 10000 0 0 22:21 03.01.2022
6058 Clouds 9 1023 25 10000 2.24 60 21:38 03.01.2022
6059 Clouds 9 1025 26 10000 1.34 0 20:40 03.01.2022
6060 Clouds 6 1026 30 10000 0 0 18:55 03.01.2022
6061 Clouds 5 1026 31 10000 0 0 18:30 03.01.2022
6062 Clouds 5 1026 31 10000 0 0 18:30 03.01.2022
6063 Clouds 3 1026 36 10000 1.34 180 17:20 03.01.2022
6064 Clouds -1 1026 45 10000 1.34 250 16:31 03.01.2022
6065 Clear 0 1025 40 10000 1.34 190 14:31 03.01.2022
6066 Clear 0 1025 40 10000 2.06 220 12:52 03.01.2022
6067 Clear 1 1025 38 10000 2.68 210 11:50 03.01.2022
6068 Clear 1 1025 37 10000 0 0 10:38 03.01.2022
6069 Clouds 1 1026 37 10000 2.68 280 09:28 03.01.2022
6070 Clouds 2 1026 34 10000 2.68 200 07:53 03.01.2022
6071 Clear 5 1028 31 10000 0.45 106 02:56 03.01.2022
6072 Clear 8 1028 21 10000 2.24 80 23:23 02.01.2022
6073 Clear 8 1030 24 10000 0.89 102 22:56 02.01.2022
6074 Clear 7 1029 26 10000 3.13 80 21:52 02.01.2022
6075 Clear 6 1031 29 10000 2.68 50 20:50 02.01.2022
6076 Clear 6 1031 29 10000 2.68 50 20:29 02.01.2022
6077 Clear 4 1032 33 10000 0 0 19:31 02.01.2022
6078 Clear 3 1032 37 10000 0 0 18:55 02.01.2022
6079 Clear 2 1033 43 10000 0.89 220 17:56 02.01.2022
6080 Clear 1 1032 47 10000 1.34 210 17:38 02.01.2022
6081 Clear 0 1032 48 10000 1.34 210 17:20 02.01.2022
6082 Clear -2 1031 55 10000 0 0 16:27 02.01.2022
6083 Clear -2 1030 52 10000 1.34 220 14:41 02.01.2022
6084 Clear -1 1030 51 10000 2.24 210 13:25 02.01.2022
6085 Clear -1 1030 48 10000 1.34 220 12:31 02.01.2022
6086 Clear -1 1030 46 10000 0 0 11:41 02.01.2022
6087 Clear 0 1030 48 10000 1.34 210 10:53 02.01.2022
6088 Clear 0 1030 47 10000 2.68 190 09:55 02.01.2022
6089 Clouds 1 1030 42 10000 2.68 10 07:29 02.01.2022
6090 Clouds 6 1026 25 10000 4.47 50 02:20 02.01.2022
6091 Clouds 8 1024 23 10000 6.26 30 23:41 01.01.2022
6092 Clouds 8 1024 23 10000 6.26 30 23:22 01.01.2022
6093 Clouds 8 1024 23 10000 5.36 50 22:24 01.01.2022
6094 Clear 7 1024 24 10000 5.36 50 21:44 01.01.2022
6095 Clear 7 1024 27 10000 7.72 40 20:56 01.01.2022
6096 Clear 7 1024 24 10000 7.15 360 20:19 01.01.2022
6097 Clear 7 1024 25 10000 9.39 350 19:32 01.01.2022
6098 Clear 6 1022 26 10000 8.05 340 18:29 01.01.2022
6099 Clouds 4 1019 30 10000 6.26 330 16:51 01.01.2022
6100 Clouds 4 1019 31 10000 6.26 330 16:29 01.01.2022
6101 Clear 4 1018 31 10000 5.81 330 15:31 01.01.2022
6102 Clear 4 1016 31 10000 8.05 320 14:22 01.01.2022
6103 Clear 5 1013 31 10000 8.05 320 12:50 01.01.2022
6104 Clouds 5 1014 33 10000 5.81 24 11:59 01.01.2022
6105 Clouds 5 1012 31 10000 8.94 330 11:24 01.01.2022
6106 Clouds 6 1011 29 10000 9.83 340 10:42 01.01.2022
6107 Smoke 6 1009 30 10000 12.96 340 09:47 01.01.2022
6108 Clouds 8 1008 33 10000 11.18 340 08:26 01.01.2022
6109 Clouds 8 1006 36 10000 4.02 30 07:55 01.01.2022
6110 Clouds 8 1006 34 10000 4.02 30 07:34 01.01.2022
6111 Clouds 8 1005 39 10000 7.15 340 06:42 01.01.2022
6112 Clouds 9 1002 52 10000 13.41 320 04:38 01.01.2022
6113 Clouds 12 1000 48 10000 5.81 250 02:54 01.01.2022
6114 Clouds 14 1000 46 10000 5.36 280 23:44 31.12.2021
6115 Clouds 14 1002 47 10000 5.36 230 21:54 31.12.2021
6116 Clouds 13 1003 48 10000 6.26 220 20:41 31.12.2021
6117 Clouds 13 1004 54 10000 6.26 180 19:31 31.12.2021
6118 Clouds 12 1004 59 10000 4.12 200 18:44 31.12.2021
6119 Clouds 10 1004 64 10000 3.58 220 17:45 31.12.2021
6120 Clouds 10 1004 64 10000 3.58 220 17:19 31.12.2021
6121 Clouds 9 1003 63 10000 4.02 190 16:40 31.12.2021
6122 Clear 9 1003 58 10000 3.13 223 15:57 31.12.2021
6123 Clouds 10 1003 60 10000 5.36 200 15:29 31.12.2021
6124 Clouds 9 1003 61 10000 4.02 182 14:57 31.12.2021
6125 Clouds 9 1003 61 10000 4.02 182 14:57 31.12.2021
6126 Clouds 10 1004 62 10000 5.36 190 14:31 31.12.2021
6127 Clouds 10 1004 61 10000 5.36 190 13:42 31.12.2021
6128 Clouds 10 1005 61 10000 5.81 180 12:49 31.12.2021
6129 Clouds 10 1006 61 10000 4.02 190 11:52 31.12.2021
6130 Clouds 10 1006 61 10000 4.02 190 11:33 31.12.2021
6131 Clouds 10 1007 64 10000 5.66 190 10:38 31.12.2021
6132 Clouds 10 1007 64 10000 5.66 190 10:20 31.12.2021
6133 Clouds 11 1007 63 10000 6.26 190 09:33 31.12.2021
6134 Clouds 10 1008 64 10000 3.58 200 08:47 31.12.2021
6135 Clouds 11 1009 61 10000 4.47 200 07:32 31.12.2021
6136 Clouds 12 1009 50 10000 4.47 190 00:47 31.12.2021
6137 Clouds 12 1011 49 10000 2.68 0 22:50 30.12.2021
6138 Clouds 12 1011 50 10000 2.68 0 22:26 30.12.2021
6139 Clouds 12 1012 54 10000 2.68 120 21:37 30.12.2021
6140 Clouds 12 1012 54 10000 2.68 120 21:37 30.12.2021
6141 Clouds 11 1013 55 10000 1.34 80 20:49 30.12.2021
6142 Clouds 11 1013 56 10000 1.34 80 20:28 30.12.2021
6143 Clouds 10 1014 59 10000 0 0 19:48 30.12.2021
6144 Clouds 10 1014 60 10000 0 0 19:18 30.12.2021
6145 Clouds 9 1014 65 10000 0 0 18:20 30.12.2021
6146 Clouds 7 1014 70 10000 0 0 16:37 30.12.2021
6147 Clouds 7 1013 70 10000 0 0 15:52 30.12.2021
6148 Clouds 7 1013 69 10000 2.24 290 14:41 30.12.2021
6149 Clouds 7 1013 68 10000 2.24 290 14:19 30.12.2021
6150 Clouds 7 1013 69 10000 0 0 13:23 30.12.2021
6151 Clouds 7 1013 66 10000 1.34 290 11:34 30.12.2021
6152 Clouds 7 1013 67 10000 2.24 280 10:27 30.12.2021
6153 Clouds 7 1013 67 10000 2.24 300 09:27 30.12.2021
6154 Clouds 8 1013 56 10000 2.68 190 06:55 30.12.2021
6155 Clouds 9 1012 52 10000 1.34 160 04:25 30.12.2021
6156 Clouds 9 1011 52 10000 3.13 0 03:40 30.12.2021
6157 Clouds 10 1010 46 10000 3.58 110 00:42 30.12.2021
6158 Clouds 10 1010 45 10000 1.34 0 23:36 29.12.2021
6159 Clouds 9 1010 47 10000 3.13 30 22:32 29.12.2021
6160 Clouds 9 1011 49 10000 4.02 60 21:53 29.12.2021
6161 Clouds 8 1012 51 10000 3.58 80 20:56 29.12.2021
6162 Clouds 8 1012 52 10000 3.58 80 20:25 29.12.2021
6163 Clouds 7 1013 56 10000 1.34 0 19:31 29.12.2021
6164 Clouds 5 1012 64 10000 2.24 80 18:30 29.12.2021
6165 Clouds 3 1012 69 10000 1.34 220 17:30 29.12.2021
6166 Clear 3 1013 69 10000 0.45 69 16:58 29.12.2021
6167 Clouds 1 1011 74 10000 1.34 200 16:19 29.12.2021
6168 Clear 2 1011 72 10000 0.72 144 14:59 29.12.2021
6169 Clear 2 1009 77 10000 0 0 12:57 29.12.2021
6170 Clear 2 1009 74 10000 1.34 200 12:30 29.12.2021
6171 Clear 3 1008 70 10000 2.24 220 10:53 29.12.2021
6172 Clear 4 1009 76 10000 0.89 250 08:56 29.12.2021
6173 Clouds 4 1009 80 10000 0.89 232 06:59 29.12.2021
6174 Clouds 4 1007 70 10000 2.24 270 06:30 29.12.2021
6175 Clouds 4 1007 70 10000 2.68 300 05:52 29.12.2021
6176 Clouds 6 1006 61 10000 5.36 340 03:48 29.12.2021
6177 Clouds 9 1005 45 10000 5.14 220 00:32 29.12.2021
6178 Clear 9 1006 46 10000 2.24 150 23:57 28.12.2021
6179 Clouds 9 1005 45 10000 0.89 155 22:56 28.12.2021
6180 Clouds 9 1005 42 10000 2.68 200 22:24 28.12.2021
6181 Clouds 9 1006 45 10000 0 0 21:54 28.12.2021
6182 Clouds 9 1006 45 10000 0 0 21:28 28.12.2021
6183 Clouds 8 1007 50 10000 3.58 210 19:52 28.12.2021
6184 Clouds 7 1007 54 10000 4.02 200 18:53 28.12.2021
6185 Clouds 7 1007 55 10000 4.02 200 18:24 28.12.2021
6186 Clouds 5 1006 59 10000 4.47 220 17:29 28.12.2021
6187 Clouds 4 1006 61 10000 3.58 200 15:53 28.12.2021
6188 Clouds 4 1006 62 10000 3.58 200 15:29 28.12.2021
6189 Clouds 5 1005 60 10000 4.47 210 14:55 28.12.2021
6190 Clouds 5 1005 60 10000 4.47 210 14:22 28.12.2021
6191 Clouds 4 1006 64 10000 0.89 295 13:58 28.12.2021
6192 Clouds 5 1005 61 10000 3.13 200 13:37 28.12.2021
6193 Clouds 5 1005 60 10000 5.36 200 12:55 28.12.2021
6194 Clouds 5 1005 60 10000 5.36 200 12:20 28.12.2021
6195 Clouds 7 1005 56 10000 5.81 200 10:19 28.12.2021
6196 Clouds 8 1005 52 10000 4.47 220 07:33 28.12.2021
6197 Clouds 10 1004 49 10000 7.15 220 03:35 28.12.2021
6198 Clouds 11 1004 39 10000 7.15 230 23:39 27.12.2021
6199 Clouds 11 1005 37 10000 9.39 200 22:21 27.12.2021
6200 Clouds 11 1007 36 10000 7.15 220 21:30 27.12.2021
6201 Clouds 10 1009 38 10000 8.94 220 20:39 27.12.2021
6202 Clouds 10 1010 38 10000 8.94 230 19:48 27.12.2021
6203 Clouds 9 1010 39 10000 8.94 230 19:27 27.12.2021
6204 Clouds 6 1011 43 10000 7.15 220 17:51 27.12.2021
6205 Clouds 6 1011 44 10000 7.15 220 17:28 27.12.2021
6206 Clear 4 1012 46 10000 1.34 134 15:56 27.12.2021
6207 Clouds 5 1011 45 10000 9.83 230 15:19 27.12.2021
6208 Clouds 5 1010 45 10000 9.39 220 14:22 27.12.2021
6209 Clouds 6 1011 42 10000 5.81 200 12:52 27.12.2021
6210 Clear 7 1011 39 10000 2.24 227 10:56 27.12.2021
6211 Clouds 6 1011 42 10000 5.81 200 10:27 27.12.2021
6212 Clouds 7 1012 39 10000 3.58 200 09:19 27.12.2021
6213 Clear 7 1013 38 10000 6.26 200 07:34 27.12.2021
6214 Clear 8 1013 36 10000 5.36 210 06:29 27.12.2021
6215 Clouds 10 1012 37 10000 3.13 210 01:52 27.12.2021
6216 Clouds 12 1012 34 10000 7.6 190 23:49 26.12.2021
6217 Clouds 12 1012 33 10000 7.6 190 23:19 26.12.2021
6218 Clouds 12 1012 34 10000 5.36 200 21:37 26.12.2021
6219 Clouds 11 1013 35 10000 5.81 220 19:55 26.12.2021
6220 Clouds 10 1012 37 10000 6.26 250 18:46 26.12.2021
6221 Clouds 9 1012 38 10000 6.26 250 18:22 26.12.2021
6222 Clouds 8 1008 48 10000 5.36 220 15:53 26.12.2021
6223 Clouds 9 1007 55 10000 6.26 190 13:51 26.12.2021
6224 Clouds 9 1007 56 10000 6.26 190 13:32 26.12.2021
6225 Clouds 9 1007 59 10000 8.94 190 12:36 26.12.2021
6226 Clouds 9 1008 58 10000 6.69 200 11:24 26.12.2021
6227 Clouds 10 1008 53 10000 4.47 190 09:35 26.12.2021
6228 Clouds 10 1008 59 10000 3.58 200 08:50 26.12.2021
6229 Clouds 10 1008 60 10000 3.58 200 08:27 26.12.2021
6230 Clouds 12 1009 47 10000 3.13 210 02:19 26.12.2021
6231 Clouds 14 1009 41 10000 6.71 230 00:40 26.12.2021
6232 Clouds 15 1009 40 10000 5.81 190 23:37 25.12.2021
6233 Clouds 15 1010 41 10000 5.36 190 22:38 25.12.2021
6234 Clouds 15 1010 41 10000 5.36 190 22:20 25.12.2021
6235 Clouds 13 1013 48 10000 3.58 160 20:27 25.12.2021
6236 Clouds 12 1014 55 10000 4.02 200 19:19 25.12.2021
6237 Clouds 10 1014 66 10000 0 0 18:39 25.12.2021
6238 Clouds 6 1013 77 10000 2.24 250 16:50 25.12.2021
6239 Clouds 6 1013 73 10000 1.34 310 15:38 25.12.2021
6240 Clear 6 1012 73 10000 1.34 210 14:23 25.12.2021
6241 Clear 7 1012 68 10000 2.24 240 12:40 25.12.2021
6242 Clear 9 1011 63 10000 4.47 170 10:49 25.12.2021
6243 Clear 9 1011 61 10000 6.71 180 09:49 25.12.2021
6244 Clear 10 1011 58 10000 4.47 180 07:28 25.12.2021
6245 Clouds 15 1006 48 10000 8.05 220 01:43 25.12.2021
6246 Clouds 16 1005 46 10000 6.26 170 00:22 25.12.2021
6247 Clear 17 1004 47 10000 1.34 300 21:59 24.12.2021
6248 Clouds 15 1006 55 10000 4.47 230 19:27 24.12.2021
6249 Clouds 14 1006 62 10000 1.79 213 18:57 24.12.2021
6250 Rain 12 1005 74 10000 3.58 220 16:49 24.12.2021
6251 Rain 12 1004 73 10000 4.02 210 15:52 24.12.2021
6252 Clouds 12 1004 72 10000 4.02 210 15:32 24.12.2021
6253 Clouds 12 1004 76 10000 4.02 190 14:35 24.12.2021
6254 Rain 12 1004 72 10000 2.68 188 13:59 24.12.2021
6255 Snow 12 1004 72 10000 4.02 200 13:32 24.12.2021
6256 Clouds 13 1005 70 10000 3.13 210 12:47 24.12.2021
6257 Clouds 13 1006 71 10000 4.47 210 11:46 24.12.2021
6258 Clouds 13 1006 69 10000 4.47 210 11:24 24.12.2021
6259 Clouds 13 1006 70 10000 6.71 200 10:45 24.12.2021
6260 Clouds 13 1006 70 10000 7.15 200 09:25 24.12.2021
6261 Clouds 13 1007 72 10000 6.71 200 08:19 24.12.2021
6262 Clouds 13 1007 72 10000 5.36 200 07:44 24.12.2021
6263 Rain 12 1010 73 10000 0 0 00:48 24.12.2021
6264 Clouds 13 1011 67 8047 0 0 23:54 23.12.2021
6265 Rain 13 1011 57 10000 0 0 22:54 23.12.2021
6266 Rain 13 1011 56 10000 0 0 22:26 23.12.2021
6267 Rain 14 1011 57 10000 0 0 21:59 23.12.2021
6268 Clouds 13 1013 52 10000 2.68 90 20:54 23.12.2021
6269 Clouds 12 1014 50 10000 2.68 50 19:39 23.12.2021
6270 Clouds 11 1015 44 10000 0 0 18:32 23.12.2021
6271 Clouds 10 1015 45 10000 2.68 330 17:47 23.12.2021
6272 Clouds 9 1015 48 10000 0 0 16:43 23.12.2021
6273 Clouds 9 1015 47 10000 0 0 16:23 23.12.2021
6274 Clouds 9 1015 47 10000 0 0 15:31 23.12.2021
6275 Clouds 9 1015 47 10000 0 0 14:42 23.12.2021
6276 Clouds 9 1015 47 10000 0 0 14:19 23.12.2021
6277 Clouds 9 1016 45 10000 1.34 210 12:48 23.12.2021
6278 Clouds 9 1016 46 10000 1.34 360 10:43 23.12.2021
6279 Clouds 9 1017 44 10000 1.34 280 09:35 23.12.2021
6280 Clouds 9 1018 45 10000 0.74 82 08:59 23.12.2021
6281 Clouds 10 1017 41 10000 0 0 06:48 23.12.2021
6282 Clouds 10 1017 41 10000 0 0 04:30 23.12.2021
6283 Clear 12 1019 36 10000 0.89 82 22:57 22.12.2021
6284 Clouds 12 1018 35 10000 2.24 40 22:32 22.12.2021
6285 Clouds 12 1019 37 10000 1.34 70 21:53 22.12.2021
6286 Clouds 12 1019 37 10000 1.34 70 21:28 22.12.2021
6287 Clouds 11 1020 38 10000 1.34 90 20:41 22.12.2021
6288 Clouds 10 1020 39 10000 1.34 90 20:20 22.12.2021
6289 Clouds 9 1021 42 10000 1.34 70 19:19 22.12.2021
6290 Clouds 4 1021 60 10000 1.54 210 17:39 22.12.2021
6291 Clouds 4 1020 58 10000 0 0 16:36 22.12.2021
6292 Clouds 3 1020 58 10000 1.34 210 15:36 22.12.2021
6293 Clouds 4 1021 59 10000 2.06 270 13:32 22.12.2021
6294 Clouds 4 1020 55 10000 1.54 220 12:31 22.12.2021
6295 Haze 5 1021 53 10000 2.24 210 09:53 22.12.2021
6296 Haze 5 1021 53 10000 2.24 210 09:33 22.12.2021
6297 Clouds 5 1022 54 10000 0 0 07:22 22.12.2021
6298 Clouds 6 1022 51 10000 2.24 220 05:41 22.12.2021
6299 Clouds 7 1022 51 10000 2.24 220 05:22 22.12.2021
6300 Clouds 8 1022 47 10000 0 0 04:47 22.12.2021
6301 Clouds 8 1022 47 10000 0 0 04:22 22.12.2021
6302 Clouds 8 1021 46 10000 0 0 03:32 22.12.2021
6303 Clouds 13 1021 32 10000 0 0 00:29 22.12.2021
6304 Clouds 13 1022 32 10000 0 0 22:51 21.12.2021
6305 Clouds 12 1022 33 10000 0 0 22:27 21.12.2021
6306 Clouds 12 1023 35 10000 0 0 21:43 21.12.2021
6307 Clouds 10 1024 38 10000 0 0 20:53 21.12.2021
6308 Clouds 10 1024 39 10000 0 0 20:20 21.12.2021
6309 Clouds 9 1025 43 10000 1.34 190 19:41 21.12.2021
6310 Clouds 9 1025 44 10000 1.34 50 18:38 21.12.2021
6311 Clouds 8 1026 48 10000 1.28 20 17:59 21.12.2021
6312 Clouds 8 1024 48 10000 0 0 17:40 21.12.2021
6313 Clouds 7 1023 45 10000 0 0 15:47 21.12.2021
6314 Clouds 7 1023 45 10000 0 0 15:19 21.12.2021
6315 Clouds 7 1024 46 10000 0 0 13:47 21.12.2021
6316 Clouds 7 1024 46 10000 0 0 13:29 21.12.2021
6317 Clouds 7 1025 45 10000 2.68 200 10:55 21.12.2021
6318 Clouds 7 1025 47 10000 0 0 09:57 21.12.2021
6319 Clouds 7 1024 46 10000 2.24 230 09:18 21.12.2021
6320 Clouds 7 1025 45 10000 0 0 07:50 21.12.2021
6321 Clouds 7 1025 45 10000 0 0 07:25 21.12.2021
6322 Clouds 8 1026 42 10000 0.45 294 04:56 21.12.2021
6323 Clouds 9 1024 36 10000 1.34 200 02:39 21.12.2021
6324 Clouds 12 1025 31 10000 0.45 111 23:58 20.12.2021
6325 Clouds 12 1024 29 10000 2.68 20 22:49 20.12.2021
6326 Clouds 12 1024 29 10000 2.68 20 22:28 20.12.2021
6327 Clouds 12 1025 29 10000 1.34 0 21:42 20.12.2021
6328 Clouds 11 1025 30 10000 1.34 0 21:22 20.12.2021
6329 Clouds 11 1025 32 10000 0 0 20:41 20.12.2021
6330 Clouds 9 1026 36 10000 0 0 19:48 20.12.2021
6331 Clouds 9 1026 37 10000 0 0 19:29 20.12.2021
6332 Clouds 7 1026 42 10000 0 0 18:49 20.12.2021
6333 Clouds 5 1025 45 10000 1.54 210 17:52 20.12.2021
6334 Clear 4 1024 53 10000 0 0 16:56 20.12.2021
6335 Clouds 1 1024 58 10000 2.24 220 16:36 20.12.2021
6336 Clouds 1 1023 56 10000 1.54 230 15:47 20.12.2021
6337 Clouds 3 1023 51 10000 1.54 200 14:41 20.12.2021
6338 Smoke 3 1023 54 10000 0 0 12:44 20.12.2021
6339 Clouds 3 1022 51 10000 2.68 210 10:55 20.12.2021
6340 Clouds 3 1022 49 10000 2.68 220 09:47 20.12.2021
6341 Clear 4 1023 45 10000 0 0 08:56 20.12.2021
6342 Clouds 4 1023 47 10000 2.24 220 08:38 20.12.2021
6343 Clear 5 1023 48 10000 0 0 07:44 20.12.2021
6344 Clear 5 1022 46 10000 1.54 230 06:40 20.12.2021
6345 Clear 8 1022 37 10000 0 0 02:32 20.12.2021
6346 Clouds 12 1022 27 10000 2.68 80 23:37 19.12.2021
6347 Clouds 12 1022 28 10000 0 0 22:44 19.12.2021
6348 Clouds 11 1023 30 10000 0 0 21:44 19.12.2021
6349 Clouds 11 1023 30 10000 0 0 21:25 19.12.2021
6350 Clouds 10 1024 32 10000 0 0 20:24 19.12.2021
6351 Clouds 9 1025 34 10000 0 0 19:43 19.12.2021
6352 Clouds 8 1025 37 10000 0 0 18:54 19.12.2021
6353 Clouds 6 1024 41 10000 0 0 18:20 19.12.2021
6354 Clouds 4 1024 46 10000 0 0 17:45 19.12.2021
6355 Clouds 1 1024 56 10000 2.06 230 16:46 19.12.2021
6356 Clear 2 1023 53 10000 1.54 340 15:56 19.12.2021
6357 Clouds 1 1023 54 10000 0 0 15:25 19.12.2021
6358 Clouds 1 1022 53 10000 1.54 210 14:48 19.12.2021
6359 Clear 2 1022 50 10000 1.54 220 13:41 19.12.2021
6360 Clear 2 1022 52 10000 1.54 220 13:20 19.12.2021
6361 Clear 2 1022 51 10000 0 0 12:33 19.12.2021
6362 Clear 3 1023 48 10000 2.24 210 11:39 19.12.2021
6363 Clouds 3 1023 48 10000 1.34 260 10:51 19.12.2021
6364 Clouds 3 1023 51 10000 1.34 260 10:23 19.12.2021
6365 Clouds 4 1024 48 10000 2.68 200 08:55 19.12.2021
6366 Clouds 5 1024 46 10000 2.24 220 06:54 19.12.2021
6367 Clouds 8 1024 36 10000 0 0 02:30 19.12.2021
6368 Clouds 11 1024 28 10000 1.34 0 00:55 19.12.2021
6369 Clouds 11 1024 28 10000 0 0 23:21 18.12.2021
6370 Clouds 11 1025 28 10000 0 0 22:29 18.12.2021
6371 Clouds 10 1026 30 10000 2.24 20 21:44 18.12.2021
6372 Clouds 10 1026 30 10000 2.24 20 21:26 18.12.2021
6373 Clouds 10 1027 32 10000 2.24 50 20:43 18.12.2021
6374 Clouds 8 1028 37 10000 1.34 0 19:40 18.12.2021
6375 Clouds 6 1028 43 10000 2.24 190 18:26 18.12.2021
6376 Clouds 4 1028 51 10000 2.68 210 17:49 18.12.2021
6377 Clouds 2 1028 58 10000 1.34 270 16:50 18.12.2021
6378 Clouds 1 1028 60 10000 1.34 270 16:21 18.12.2021
6379 Clear 2 1027 57 10000 1.34 280 15:24 18.12.2021
6380 Clear 2 1027 58 10000 2.24 200 14:19 18.12.2021
6381 Clear 3 1027 59 10000 1.64 346 11:59 18.12.2021
6382 Clear 4 1027 53 10000 2.68 350 10:42 18.12.2021
6383 Clear 5 1026 50 10000 4.47 360 09:32 18.12.2021
6384 Clear 5 1027 46 10000 5.36 360 08:36 18.12.2021
6385 Clouds 6 1026 46 10000 5.81 360 07:41 18.12.2021
6386 Clear 10 1024 36 10000 6.71 30 01:47 18.12.2021
6387 Clear 11 1024 32 10000 0.89 0 23:56 17.12.2021
6388 Clear 11 1023 33 10000 3.13 0 22:51 17.12.2021
6389 Clear 11 1024 36 10000 3.13 50 21:50 17.12.2021
6390 Clear 10 1024 41 10000 6.26 10 20:48 17.12.2021
6391 Clear 9 1026 46 10000 2.24 0 19:58 17.12.2021
6392 Clear 7 1024 50 10000 6.26 350 18:40 17.12.2021
6393 Clear 6 1024 53 10000 6.26 350 18:18 17.12.2021
6394 Clear 4 1024 67 10000 0 0 16:57 17.12.2021
6395 Clear 2 1022 68 10000 0 0 16:28 17.12.2021
6396 Clear 3 1022 65 10000 4.47 30 15:51 17.12.2021
6397 Clear 3 1021 63 10000 4.47 30 14:43 17.12.2021
6398 Clear 2 1021 66 10000 1.34 360 13:55 17.12.2021
6399 Clear 3 1021 67 10000 2.68 260 12:37 17.12.2021
6400 Clear 3 1020 64 10000 1.34 200 10:42 17.12.2021
6401 Clouds 4 1020 62 10000 2.24 200 09:47 17.12.2021
6402 Clouds 4 1020 61 10000 2.24 230 08:43 17.12.2021
6403 Clouds 4 1020 61 10000 2.24 230 08:18 17.12.2021
6404 Clear 6 1020 56 10000 0 0 04:57 17.12.2021
6405 Clouds 8 1018 46 10000 5.66 30 00:57 17.12.2021
6406 Clouds 8 1017 45 10000 0 0 22:44 16.12.2021
6407 Clouds 8 1017 46 10000 0 0 22:22 16.12.2021
6408 Clouds 8 1017 46 10000 0 0 21:43 16.12.2021
6409 Clouds 7 1018 49 10000 2.68 0 20:40 16.12.2021
6410 Clouds 7 1018 49 10000 2.68 0 20:21 16.12.2021
6411 Clouds 6 1019 52 10000 3.13 60 19:27 16.12.2021
6412 Clouds 5 1019 54 10000 0 0 18:31 16.12.2021
6413 Clouds 3 1019 61 10000 0 0 17:36 16.12.2021
6414 Clouds 1 1019 66 10000 2.24 200 16:24 16.12.2021
6415 Clouds 1 1019 66 10000 0 0 15:38 16.12.2021
6416 Clouds 1 1020 64 10000 2.24 260 13:45 16.12.2021
6417 Clear 2 1021 64 10000 3.6 50 11:56 16.12.2021
6418 Clouds 2 1020 63 10000 2.24 250 11:18 16.12.2021
6419 Clear 2 1021 63 10000 2.68 220 10:39 16.12.2021
6420 Clear 2 1021 59 10000 2.68 210 09:42 16.12.2021
6421 Clear 3 1022 56 10000 0 0 06:23 16.12.2021
6422 Clear 4 1022 50 10000 1.34 180 04:33 16.12.2021
6423 Clouds 9 1021 31 10000 1.34 340 23:47 15.12.2021
6424 Clouds 9 1022 32 10000 0 0 22:49 15.12.2021
6425 Clouds 9 1022 32 10000 0 0 22:21 15.12.2021
6426 Clouds 9 1022 35 10000 0 0 21:31 15.12.2021
6427 Clouds 8 1023 37 10000 2.68 350 20:41 15.12.2021
6428 Clouds 8 1023 42 10000 2.24 0 19:53 15.12.2021
6429 Clouds 7 1022 45 10000 1.34 190 18:50 15.12.2021
6430 Clouds 6 1022 46 10000 1.34 190 18:18 15.12.2021
6431 Clouds 5 1021 53 10000 0 0 17:43 15.12.2021
6432 Clouds 4 1022 58 10000 2.01 264 16:59 15.12.2021
6433 Clouds 4 1019 55 10000 2.24 160 15:47 15.12.2021
6434 Clouds 4 1019 56 10000 2.24 160 15:29 15.12.2021
6435 Clouds 3 1018 59 10000 2.24 0 14:44 15.12.2021
6436 Clouds 4 1017 53 10000 2.24 160 13:27 15.12.2021
6437 Clouds 5 1015 50 10000 3.13 210 11:40 15.12.2021
6438 Clouds 6 1012 52 10000 6.71 250 09:38 15.12.2021
6439 Clouds 6 1008 56 10000 7.15 230 07:55 15.12.2021
6440 Clouds 8 1002 59 10000 10.28 220 04:22 15.12.2021
6441 Clouds 13 1003 60 10000 7.15 160 23:53 14.12.2021
6442 Clouds 12 1004 60 10000 6.26 160 22:55 14.12.2021
6443 Clouds 13 1005 60 10000 6.26 160 22:37 14.12.2021
6444 Clouds 13 1007 55 10000 7.15 160 21:25 14.12.2021
6445 Clouds 13 1009 55 10000 6.26 160 20:18 14.12.2021
6446 Clouds 13 1011 53 10000 5.81 170 19:21 14.12.2021
6447 Clouds 12 1012 55 10000 5.36 170 18:38 14.12.2021
6448 Clouds 11 1012 57 10000 2.24 170 17:51 14.12.2021
6449 Clouds 10 1012 57 10000 4.63 170 16:43 14.12.2021
6450 Clouds 9 1012 58 10000 4.02 190 15:54 14.12.2021
6451 Clouds 9 1013 51 10000 3.58 180 13:35 14.12.2021
6452 Clouds 9 1013 46 10000 3.13 190 12:47 14.12.2021
6453 Clouds 10 1014 44 10000 3.58 190 11:25 14.12.2021
6454 Clouds 10 1014 42 10000 3.58 170 10:28 14.12.2021
6455 Clouds 10 1014 42 10000 2.68 190 09:53 14.12.2021
6456 Clouds 11 1015 38 10000 2.24 170 08:40 14.12.2021
6457 Clouds 11 1015 39 10000 2.24 170 08:20 14.12.2021
6458 Clouds 11 1015 37 10000 2.68 190 06:40 14.12.2021
6459 Clouds 14 1016 31 10000 1.34 20 23:42 13.12.2021
6460 Clouds 13 1016 30 10000 1.34 0 22:18 13.12.2021
6461 Clouds 12 1017 31 10000 2.24 0 21:34 13.12.2021
6462 Clear 12 1018 32 10000 1.34 0 20:51 13.12.2021
6463 Clouds 11 1018 32 10000 1.34 0 20:20 13.12.2021
6464 Clouds 10 1019 33 10000 1.34 0 19:49 13.12.2021
6465 Clouds 6 1018 44 10000 2.24 300 17:27 13.12.2021
6466 Clouds 3 1017 47 10000 1.34 220 16:24 13.12.2021
6467 Clouds 2 1017 47 10000 1.34 220 15:43 13.12.2021
6468 Clear 3 1016 44 10000 0 0 13:57 13.12.2021
6469 Clouds 3 1016 45 10000 0 0 13:31 13.12.2021
6470 Clouds 3 1017 44 10000 1.34 210 12:39 13.12.2021
6471 Clouds 3 1016 41 10000 0 0 11:44 13.12.2021
6472 Clouds 4 1017 41 10000 0 0 11:24 13.12.2021
6473 Clouds 3 1016 41 10000 2.68 200 10:21 13.12.2021
6474 Clouds 4 1017 41 10000 2.24 230 08:43 13.12.2021
6475 Clouds 5 1017 36 10000 1.34 250 05:38 13.12.2021
6476 Clear 7 1016 36 10000 0 0 03:57 13.12.2021
6477 Clouds 12 1016 24 10000 1.34 0 23:43 12.12.2021
6478 Clear 11 1019 27 10000 0 0 21:56 12.12.2021
6479 Clouds 10 1019 25 10000 1.34 0 20:48 12.12.2021
6480 Clouds 8 1020 26 10000 0 0 19:34 12.12.2021
6481 Clouds 5 1020 33 10000 0 0 17:54 12.12.2021
6482 Clouds 1 1019 40 10000 1.34 240 16:29 12.12.2021
6483 Clouds 1 1019 40 10000 0 0 15:53 12.12.2021
6484 Clouds 1 1019 40 10000 0 0 15:28 12.12.2021
6485 Clouds 1 1018 39 10000 2.24 210 14:38 12.12.2021
6486 Clouds 1 1018 39 10000 2.24 200 13:47 12.12.2021
6487 Clouds 2 1019 40 10000 1.34 240 12:47 12.12.2021
6488 Clouds 2 1019 38 10000 1.34 220 11:45 12.12.2021
6489 Clouds 2 1019 38 10000 1.34 220 11:45 12.12.2021
6490 Clouds 2 1019 38 10000 1.34 220 11:25 12.12.2021
6491 Clouds 2 1020 37 10000 0 0 10:43 12.12.2021
6492 Clouds 2 1020 36 10000 2.68 200 09:45 12.12.2021
6493 Clouds 3 1021 36 10000 1.34 240 08:38 12.12.2021
6494 Clouds 4 1021 34 10000 2.24 230 06:35 12.12.2021
6495 Clouds 5 1022 32 10000 1.34 260 05:28 12.12.2021
6496 Clouds 5 1022 34 10000 1.05 37 03:58 12.12.2021
6497 Clouds 9 1022 22 10000 2.24 70 00:42 12.12.2021
6498 Clouds 9 1024 23 10000 0 0 22:42 11.12.2021
6499 Clouds 9 1024 24 10000 0 0 22:19 11.12.2021
6500 Clouds 8 1025 33 10000 0 0 21:22 11.12.2021
6501 Clouds 7 1027 29 10000 0 0 19:40 11.12.2021
6502 Clouds 7 1027 30 10000 0 0 19:20 11.12.2021
6503 Clouds 5 1027 35 10000 2.24 20 18:38 11.12.2021
6504 Clouds 3 1027 42 10000 0 0 17:41 11.12.2021
6505 Clear 0 1029 49 10000 0 0 15:57 11.12.2021
6506 Clear 0 1027 49 10000 2.24 200 15:37 11.12.2021
6507 Clear 1 1027 47 10000 1.34 250 14:21 11.12.2021
6508 Clear 2 1027 44 10000 0.96 37 11:58 11.12.2021
6509 Clear 3 1026 39 10000 3.13 360 10:24 11.12.2021
6510 Clear 4 1026 38 10000 3.58 60 09:37 11.12.2021
6511 Clear 8 1024 31 10000 4.02 60 03:25 11.12.2021
6512 Clouds 11 1021 26 10000 7.15 50 00:44 11.12.2021
6513 Clouds 11 1021 26 10000 6.71 60 23:39 10.12.2021
6514 Clouds 12 1021 27 10000 4.02 30 22:33 10.12.2021
6515 Clouds 11 1021 28 10000 5.36 20 21:37 10.12.2021
6516 Clouds 10 1022 33 10000 9.39 10 19:55 10.12.2021
6517 Clouds 9 1021 38 10000 9.39 10 19:18 10.12.2021
6518 Clouds 7 1019 53 10000 3.58 20 17:23 10.12.2021
6519 Clouds 6 1018 56 10000 2.68 360 16:32 10.12.2021
6520 Clouds 6 1016 57 10000 4.02 30 15:42 10.12.2021
6521 Clouds 6 1016 57 10000 4.02 30 15:23 10.12.2021
6522 Clouds 7 1014 64 10000 1.34 0 13:53 10.12.2021
6523 Clouds 7 1014 63 10000 1.34 0 13:31 10.12.2021
6524 Clouds 7 1014 64 10000 2.24 160 12:47 10.12.2021
6525 Clouds 8 1013 59 10000 2.68 0 11:34 10.12.2021
6526 Clouds 8 1012 66 10000 0 0 10:50 10.12.2021
6527 Clouds 9 1011 68 10000 4.47 280 09:30 10.12.2021
6528 Clouds 10 1010 68 10000 2.24 170 07:21 10.12.2021
6529 Clouds 12 1006 51 10000 6.71 200 02:51 10.12.2021
6530 Clouds 13 1005 51 10000 1.79 0 00:57 10.12.2021
6531 Clouds 14 1006 50 10000 6.26 220 23:38 09.12.2021
6532 Clouds 14 1006 51 10000 8.05 220 22:40 09.12.2021
6533 Clouds 14 1005 51 10000 8.05 220 22:19 09.12.2021
6534 Clouds 14 1006 48 10000 9.83 220 21:20 09.12.2021
6535 Dust 14 1006 50 10000 6.71 220 20:34 09.12.2021
6536 Dust 14 1007 50 10000 9.39 200 19:22 09.12.2021
6537 Clouds 14 1007 52 10000 6.71 200 18:50 09.12.2021
6538 Clouds 14 1007 56 10000 2.24 0 17:57 09.12.2021
6539 Dust 14 1007 55 10000 9.39 220 17:27 09.12.2021
6540 Clouds 14 1007 54 10000 1.79 0 16:57 09.12.2021
6541 Clouds 14 1007 51 10000 6.26 200 16:20 09.12.2021
6542 Clouds 13 1007 48 10000 7.72 200 14:52 09.12.2021
6543 Clouds 13 1007 52 10000 4.47 160 13:50 09.12.2021
6544 Clouds 12 1008 54 10000 4.47 170 12:47 09.12.2021
6545 Clouds 11 1009 58 10000 5.66 200 11:25 09.12.2021
6546 Clouds 11 1010 58 10000 1.34 0 09:45 09.12.2021
6547 Clouds 12 1012 54 10000 3.13 190 06:51 09.12.2021
6548 Clouds 14 1012 49 10000 2.68 220 03:49 09.12.2021
6549 Clouds 18 1013 38 10000 4.02 260 23:50 08.12.2021
6550 Clouds 18 1013 39 10000 4.02 260 23:31 08.12.2021
6551 Clouds 18 1013 41 10000 3.58 150 22:53 08.12.2021
6552 Clouds 17 1014 46 10000 1.34 0 21:49 08.12.2021
6553 Clouds 17 1014 46 10000 1.34 0 21:30 08.12.2021
6554 Clouds 16 1016 49 10000 2.24 0 20:19 08.12.2021
6555 Clouds 15 1017 55 10000 2.24 0 19:39 08.12.2021
6556 Clouds 14 1017 63 10000 0 0 18:53 08.12.2021
6557 Clouds 14 1017 63 10000 0 0 18:53 08.12.2021
6558 Clouds 12 1017 71 10000 1.34 190 17:52 08.12.2021
6559 Clouds 10 1016 69 10000 0.1 172 15:59 08.12.2021
6560 Clouds 10 1017 75 10000 0 0 15:31 08.12.2021
6561 Clouds 10 1016 74 10000 2.24 260 14:52 08.12.2021
6562 Clouds 11 1016 76 10000 2.24 200 12:39 08.12.2021
6563 Clouds 12 1017 74 10000 2.24 200 10:32 08.12.2021
6564 Clouds 12 1018 74 10000 1.34 270 09:30 08.12.2021
6565 Clouds 12 1018 75 10000 2.68 360 07:29 08.12.2021
6566 Clouds 13 1017 57 10000 0.53 297 04:58 08.12.2021
6567 Clouds 16 1015 41 10000 2.68 30 23:48 07.12.2021
6568 Clouds 16 1015 39 10000 2.68 40 22:27 07.12.2021
6569 Clouds 16 1015 36 10000 1.34 0 21:23 07.12.2021
6570 Clouds 16 1016 34 10000 2.24 20 20:24 07.12.2021
6571 Clouds 15 1015 32 10000 0 0 18:55 07.12.2021
6572 Clouds 14 1015 34 10000 0 0 17:53 07.12.2021
6573 Clouds 13 1014 33 10000 0 0 17:20 07.12.2021
6574 Clouds 13 1014 33 10000 2.68 340 16:34 07.12.2021
6575 Clouds 13 1013 32 10000 0 0 15:34 07.12.2021
6576 Clouds 13 1012 30 10000 0 0 14:30 07.12.2021
6577 Clouds 13 1012 30 10000 2 320 12:56 07.12.2021
6578 Clouds 13 1012 30 10000 2 320 12:56 07.12.2021
6579 Clouds 13 1012 29 10000 1.34 270 11:52 07.12.2021
6580 Clouds 14 1012 29 10000 1.34 250 10:36 07.12.2021
6581 Clouds 14 1013 28 10000 2.24 280 08:42 07.12.2021
6582 Clouds 14 1013 29 10000 1.34 350 06:21 07.12.2021
6583 Clouds 14 1013 29 10000 0 0 05:39 07.12.2021
6584 Clouds 20 1015 20 10000 2.68 100 23:49 06.12.2021
6585 Clouds 20 1014 22 10000 1.38 113 22:58 06.12.2021
6586 Clouds 20 1016 19 10000 1.34 50 22:37 06.12.2021
6587 Clouds 20 1017 20 10000 1.34 0 21:52 06.12.2021
6588 Clouds 19 1018 21 10000 2.68 60 20:40 06.12.2021
6589 Clouds 19 1018 20 10000 2.68 60 20:22 06.12.2021
6590 Clouds 18 1019 21 10000 0 0 19:22 06.12.2021
6591 Clouds 16 1020 24 10000 0 0 18:29 06.12.2021
6592 Clouds 14 1020 28 10000 0 0 17:40 06.12.2021
6593 Clouds 12 1020 29 10000 1.34 240 16:48 06.12.2021
6594 Clouds 11 1019 28 10000 2.68 210 15:41 06.12.2021
6595 Clouds 11 1019 29 10000 1.34 230 13:46 06.12.2021
6596 Clouds 12 1019 28 10000 3.13 0 12:39 06.12.2021
6597 Clouds 12 1019 28 10000 1.34 210 11:38 06.12.2021
6598 Clouds 14 1019 25 10000 2.68 310 08:51 06.12.2021
6599 Clouds 15 1019 23 10000 0 0 06:42 06.12.2021
6600 Clouds 24 1017 14 10000 0 0 23:38 05.12.2021
6601 Clouds 22 1019 19 10000 2.24 0 21:52 05.12.2021
6602 Clouds 22 1019 19 10000 2.24 0 21:19 05.12.2021
6603 Clouds 20 1020 21 10000 2.68 150 20:19 05.12.2021
6604 Clouds 19 1021 23 10000 1.34 40 19:33 05.12.2021
6605 Clouds 18 1021 25 10000 0 0 18:55 05.12.2021
6606 Clouds 16 1021 26 10000 0 0 18:20 05.12.2021
6607 Clouds 13 1021 30 10000 2.57 190 17:48 05.12.2021
6608 Clouds 10 1020 34 10000 0 0 16:48 05.12.2021
6609 Clouds 10 1020 35 10000 0 0 16:26 05.12.2021
6610 Clear 10 1020 34 10000 2.68 210 15:48 05.12.2021
6611 Clear 10 1020 35 10000 2.24 220 14:41 05.12.2021
6612 Clear 10 1020 35 10000 2.24 220 14:23 05.12.2021
6613 Clear 10 1020 33 10000 2.68 200 13:22 05.12.2021
6614 Clear 11 1020 32 10000 4.02 300 12:40 05.12.2021
6615 Clear 11 1020 32 10000 4.02 300 12:18 05.12.2021
6616 Clear 12 1020 32 10000 2.24 300 11:30 05.12.2021
6617 Clear 13 1019 30 10000 1.33 304 09:59 05.12.2021
6618 Clear 12 1020 33 10000 3.58 190 08:24 05.12.2021
6619 Clear 15 1019 31 10000 1.34 190 03:27 05.12.2021
6620 Clear 21 1019 21 10000 1.34 0 23:45 04.12.2021
6621 Clear 20 1020 24 10000 0 0 21:55 04.12.2021
6622 Clear 19 1020 26 10000 1.54 220 20:57 04.12.2021
6623 Clear 18 1021 26 10000 1.34 190 20:20 04.12.2021
6624 Clear 17 1022 29 10000 0 0 19:32 04.12.2021
6625 Clear 15 1022 31 10000 0 0 18:21 04.12.2021
6626 Clear 12 1022 36 10000 0 0 17:39 04.12.2021
6627 Clear 9 1021 42 10000 1.34 240 16:51 04.12.2021
6628 Clear 9 1021 42 10000 1.34 240 16:31 04.12.2021
6629 Clear 9 1021 42 10000 1.34 220 15:40 04.12.2021
6630 Clear 10 1020 37 10000 2.68 220 11:54 04.12.2021
6631 Clear 10 1020 37 10000 2.68 220 11:32 04.12.2021
6632 Clear 10 1020 38 10000 2.24 210 10:53 04.12.2021
6633 Clear 11 1020 36 10000 1.34 220 08:48 04.12.2021
6634 Clear 12 1019 34 10000 2.24 210 06:28 04.12.2021
6635 Clear 14 1019 34 10000 2.24 220 04:42 04.12.2021
6636 Clouds 20 1017 24 10000 2.24 60 00:24 04.12.2021
6637 Clouds 21 1018 24 10000 0 0 23:26 03.12.2021
6638 Clouds 21 1018 24 10000 0 0 23:26 03.12.2021
6639 Clouds 21 1018 24 10000 2.24 50 22:46 03.12.2021
6640 Clouds 19 1019 25 10000 1.34 90 21:26 03.12.2021
6641 Clouds 19 1020 26 10000 0 0 20:54 03.12.2021
6642 Clouds 18 1021 28 10000 1.34 100 19:53 03.12.2021
6643 Clouds 16 1021<